<?xml version="1.0" encoding="UTF-8" standalone="no" ?>
<gpx xmlns="http://www.topografix.com/GPX/1/1" xmlns:xsi="http://www.w3.org/2001/XMLSchema-instance" xsi:schemaLocation="http://www.topografix.com/GPX/1/1 http://www.topografix.com/GPX/1/1/gpx.xsd" version="1.1" creator="VisuGPX - https://www.visugpx.com">
  <metadata>
    <name>Beffia Cyclisme sur route</name>
  </metadata>
  <trk>
    <name><![CDATA[Beffia Cyclisme sur route_1]]></name>
    <trkseg>
      <trkpt lat="46.52661" lon="5.55195">
        <ele>491.8</ele>
        <time>2022-08-03T04:52:31Z</time>
      </trkpt>
      <trkpt lat="46.52661" lon="5.55195">
        <ele>485</ele>
        <time>2022-08-03T04:52:32Z</time>
      </trkpt>
      <trkpt lat="46.52664" lon="5.55198">
        <ele>484.8</ele>
        <time>2022-08-03T04:52:54Z</time>
      </trkpt>
      <trkpt lat="46.5267" lon="5.55203">
        <ele>484.8</ele>
        <time>2022-08-03T04:52:57Z</time>
      </trkpt>
      <trkpt lat="46.52681" lon="5.55209">
        <ele>484.8</ele>
        <time>2022-08-03T04:53:02Z</time>
      </trkpt>
      <trkpt lat="46.52681" lon="5.55211">
        <ele>484.8</ele>
        <time>2022-08-03T04:53:03Z</time>
      </trkpt>
      <trkpt lat="46.52679" lon="5.55229">
        <ele>484.8</ele>
        <time>2022-08-03T04:53:07Z</time>
      </trkpt>
      <trkpt lat="46.52676" lon="5.55267">
        <ele>484.8</ele>
        <time>2022-08-03T04:53:13Z</time>
      </trkpt>
      <trkpt lat="46.52672" lon="5.5531">
        <ele>484.8</ele>
        <time>2022-08-03T04:53:19Z</time>
      </trkpt>
      <trkpt lat="46.52667" lon="5.55378">
        <ele>484.4</ele>
        <time>2022-08-03T04:53:27Z</time>
      </trkpt>
      <trkpt lat="46.52666" lon="5.55396">
        <ele>484</ele>
        <time>2022-08-03T04:53:29Z</time>
      </trkpt>
      <trkpt lat="46.52661" lon="5.5545">
        <ele>483</ele>
        <time>2022-08-03T04:53:35Z</time>
      </trkpt>
      <trkpt lat="46.52655" lon="5.55536">
        <ele>482</ele>
        <time>2022-08-03T04:53:44Z</time>
      </trkpt>
      <trkpt lat="46.52652" lon="5.55574">
        <ele>481.8</ele>
        <time>2022-08-03T04:53:48Z</time>
      </trkpt>
      <trkpt lat="46.52647" lon="5.55638">
        <ele>481.6</ele>
        <time>2022-08-03T04:53:55Z</time>
      </trkpt>
      <trkpt lat="46.52641" lon="5.55718">
        <ele>481.6</ele>
        <time>2022-08-03T04:54:04Z</time>
      </trkpt>
      <trkpt lat="46.52639" lon="5.55744">
        <ele>481.6</ele>
        <time>2022-08-03T04:54:07Z</time>
      </trkpt>
      <trkpt lat="46.52634" lon="5.55808">
        <ele>481.8</ele>
        <time>2022-08-03T04:54:14Z</time>
      </trkpt>
      <trkpt lat="46.52631" lon="5.55845">
        <ele>482</ele>
        <time>2022-08-03T04:54:18Z</time>
      </trkpt>
      <trkpt lat="46.52625" lon="5.55929">
        <ele>482</ele>
        <time>2022-08-03T04:54:27Z</time>
      </trkpt>
      <trkpt lat="46.52624" lon="5.55938">
        <ele>482</ele>
        <time>2022-08-03T04:54:28Z</time>
      </trkpt>
      <trkpt lat="46.52618" lon="5.56018">
        <ele>481.6</ele>
        <time>2022-08-03T04:54:37Z</time>
      </trkpt>
      <trkpt lat="46.52617" lon="5.56027">
        <ele>481.6</ele>
        <time>2022-08-03T04:54:38Z</time>
      </trkpt>
      <trkpt lat="46.52612" lon="5.56097">
        <ele>481.4</ele>
        <time>2022-08-03T04:54:46Z</time>
      </trkpt>
      <trkpt lat="46.52606" lon="5.56155">
        <ele>481.6</ele>
        <time>2022-08-03T04:54:53Z</time>
      </trkpt>
      <trkpt lat="46.526" lon="5.56168">
        <ele>481.6</ele>
        <time>2022-08-03T04:54:55Z</time>
      </trkpt>
      <trkpt lat="46.52589" lon="5.56175">
        <ele>481.8</ele>
        <time>2022-08-03T04:54:57Z</time>
      </trkpt>
      <trkpt lat="46.52584" lon="5.56175">
        <ele>481.8</ele>
        <time>2022-08-03T04:54:58Z</time>
      </trkpt>
      <trkpt lat="46.52572" lon="5.56175">
        <ele>482</ele>
        <time>2022-08-03T04:55:00Z</time>
      </trkpt>
      <trkpt lat="46.52547" lon="5.56178">
        <ele>482.2</ele>
        <time>2022-08-03T04:55:04Z</time>
      </trkpt>
      <trkpt lat="46.52535" lon="5.56179">
        <ele>482</ele>
        <time>2022-08-03T04:55:06Z</time>
      </trkpt>
      <trkpt lat="46.52517" lon="5.5618">
        <ele>481.8</ele>
        <time>2022-08-03T04:55:09Z</time>
      </trkpt>
      <trkpt lat="46.52504" lon="5.56177">
        <ele>481.8</ele>
        <time>2022-08-03T04:55:11Z</time>
      </trkpt>
      <trkpt lat="46.52456" lon="5.56156">
        <ele>481.6</ele>
        <time>2022-08-03T04:55:19Z</time>
      </trkpt>
      <trkpt lat="46.52401" lon="5.56137">
        <ele>481.6</ele>
        <time>2022-08-03T04:55:28Z</time>
      </trkpt>
      <trkpt lat="46.52389" lon="5.56138">
        <ele>481.4</ele>
        <time>2022-08-03T04:55:30Z</time>
      </trkpt>
      <trkpt lat="46.52377" lon="5.56143">
        <ele>481.4</ele>
        <time>2022-08-03T04:55:32Z</time>
      </trkpt>
      <trkpt lat="46.52345" lon="5.56165">
        <ele>481.2</ele>
        <time>2022-08-03T04:55:38Z</time>
      </trkpt>
      <trkpt lat="46.52334" lon="5.56167">
        <ele>481.4</ele>
        <time>2022-08-03T04:55:40Z</time>
      </trkpt>
      <trkpt lat="46.52323" lon="5.56165">
        <ele>481.6</ele>
        <time>2022-08-03T04:55:42Z</time>
      </trkpt>
      <trkpt lat="46.52306" lon="5.56158">
        <ele>482</ele>
        <time>2022-08-03T04:55:45Z</time>
      </trkpt>
      <trkpt lat="46.52284" lon="5.56148">
        <ele>482.6</ele>
        <time>2022-08-03T04:55:49Z</time>
      </trkpt>
      <trkpt lat="46.52267" lon="5.56143">
        <ele>482.8</ele>
        <time>2022-08-03T04:55:52Z</time>
      </trkpt>
      <trkpt lat="46.52255" lon="5.56141">
        <ele>483</ele>
        <time>2022-08-03T04:55:54Z</time>
      </trkpt>
      <trkpt lat="46.52249" lon="5.56141">
        <ele>483</ele>
        <time>2022-08-03T04:55:55Z</time>
      </trkpt>
      <trkpt lat="46.52198" lon="5.56134">
        <ele>483</ele>
        <time>2022-08-03T04:56:03Z</time>
      </trkpt>
      <trkpt lat="46.52191" lon="5.56131">
        <ele>482.8</ele>
        <time>2022-08-03T04:56:04Z</time>
      </trkpt>
      <trkpt lat="46.52164" lon="5.56122">
        <ele>481.8</ele>
        <time>2022-08-03T04:56:08Z</time>
      </trkpt>
      <trkpt lat="46.52151" lon="5.56124">
        <ele>481.6</ele>
        <time>2022-08-03T04:56:10Z</time>
      </trkpt>
      <trkpt lat="46.52139" lon="5.56132">
        <ele>481.2</ele>
        <time>2022-08-03T04:56:12Z</time>
      </trkpt>
      <trkpt lat="46.52134" lon="5.56138">
        <ele>481.2</ele>
        <time>2022-08-03T04:56:13Z</time>
      </trkpt>
      <trkpt lat="46.5213" lon="5.56144">
        <ele>481.2</ele>
        <time>2022-08-03T04:56:14Z</time>
      </trkpt>
      <trkpt lat="46.52106" lon="5.56179">
        <ele>481.2</ele>
        <time>2022-08-03T04:56:19Z</time>
      </trkpt>
      <trkpt lat="46.52073" lon="5.56209">
        <ele>481.4</ele>
        <time>2022-08-03T04:56:25Z</time>
      </trkpt>
      <trkpt lat="46.52023" lon="5.56247">
        <ele>481.6</ele>
        <time>2022-08-03T04:56:34Z</time>
      </trkpt>
      <trkpt lat="46.52016" lon="5.56252">
        <ele>481.6</ele>
        <time>2022-08-03T04:56:35Z</time>
      </trkpt>
      <trkpt lat="46.51973" lon="5.56282">
        <ele>480.8</ele>
        <time>2022-08-03T04:56:42Z</time>
      </trkpt>
      <trkpt lat="46.51927" lon="5.56321">
        <ele>481</ele>
        <time>2022-08-03T04:56:50Z</time>
      </trkpt>
      <trkpt lat="46.51921" lon="5.56326">
        <ele>481.2</ele>
        <time>2022-08-03T04:56:51Z</time>
      </trkpt>
      <trkpt lat="46.51903" lon="5.56336">
        <ele>481.2</ele>
        <time>2022-08-03T04:56:54Z</time>
      </trkpt>
      <trkpt lat="46.51891" lon="5.56341">
        <ele>481.2</ele>
        <time>2022-08-03T04:56:56Z</time>
      </trkpt>
      <trkpt lat="46.51873" lon="5.56344">
        <ele>480.6</ele>
        <time>2022-08-03T04:56:59Z</time>
      </trkpt>
      <trkpt lat="46.5186" lon="5.56348">
        <ele>480.6</ele>
        <time>2022-08-03T04:57:01Z</time>
      </trkpt>
      <trkpt lat="46.51803" lon="5.56361">
        <ele>480.6</ele>
        <time>2022-08-03T04:57:10Z</time>
      </trkpt>
      <trkpt lat="46.5179" lon="5.56364">
        <ele>480.6</ele>
        <time>2022-08-03T04:57:12Z</time>
      </trkpt>
      <trkpt lat="46.51737" lon="5.56372">
        <ele>480.2</ele>
        <time>2022-08-03T04:57:20Z</time>
      </trkpt>
      <trkpt lat="46.51681" lon="5.56379">
        <ele>480.2</ele>
        <time>2022-08-03T04:57:29Z</time>
      </trkpt>
      <trkpt lat="46.51668" lon="5.56382">
        <ele>480.2</ele>
        <time>2022-08-03T04:57:31Z</time>
      </trkpt>
      <trkpt lat="46.51618" lon="5.56387">
        <ele>480.4</ele>
        <time>2022-08-03T04:57:39Z</time>
      </trkpt>
      <trkpt lat="46.51611" lon="5.56387">
        <ele>480.4</ele>
        <time>2022-08-03T04:57:40Z</time>
      </trkpt>
      <trkpt lat="46.51557" lon="5.56398">
        <ele>480.4</ele>
        <time>2022-08-03T04:57:49Z</time>
      </trkpt>
      <trkpt lat="46.51504" lon="5.56417">
        <ele>480.4</ele>
        <time>2022-08-03T04:57:58Z</time>
      </trkpt>
      <trkpt lat="46.51497" lon="5.56419">
        <ele>480.6</ele>
        <time>2022-08-03T04:57:59Z</time>
      </trkpt>
      <trkpt lat="46.51468" lon="5.56421">
        <ele>480.6</ele>
        <time>2022-08-03T04:58:04Z</time>
      </trkpt>
      <trkpt lat="46.5145" lon="5.56419">
        <ele>480.6</ele>
        <time>2022-08-03T04:58:07Z</time>
      </trkpt>
      <trkpt lat="46.51439" lon="5.56423">
        <ele>480.8</ele>
        <time>2022-08-03T04:58:09Z</time>
      </trkpt>
      <trkpt lat="46.51434" lon="5.56428">
        <ele>480.8</ele>
        <time>2022-08-03T04:58:10Z</time>
      </trkpt>
      <trkpt lat="46.5143" lon="5.56435">
        <ele>480.8</ele>
        <time>2022-08-03T04:58:11Z</time>
      </trkpt>
      <trkpt lat="46.51426" lon="5.56453">
        <ele>480.8</ele>
        <time>2022-08-03T04:58:13Z</time>
      </trkpt>
      <trkpt lat="46.51422" lon="5.56511">
        <ele>480.4</ele>
        <time>2022-08-03T04:58:19Z</time>
      </trkpt>
      <trkpt lat="46.51419" lon="5.56541">
        <ele>479.8</ele>
        <time>2022-08-03T04:58:22Z</time>
      </trkpt>
      <trkpt lat="46.51416" lon="5.56548">
        <ele>479.8</ele>
        <time>2022-08-03T04:58:23Z</time>
      </trkpt>
      <trkpt lat="46.51411" lon="5.56555">
        <ele>479.8</ele>
        <time>2022-08-03T04:58:24Z</time>
      </trkpt>
      <trkpt lat="46.51407" lon="5.56558">
        <ele>479.6</ele>
        <time>2022-08-03T04:58:25Z</time>
      </trkpt>
      <trkpt lat="46.51399" lon="5.5656">
        <ele>479.6</ele>
        <time>2022-08-03T04:58:26Z</time>
      </trkpt>
      <trkpt lat="46.51341" lon="5.56567">
        <ele>480</ele>
        <time>2022-08-03T04:58:35Z</time>
      </trkpt>
      <trkpt lat="46.51286" lon="5.56583">
        <ele>480.6</ele>
        <time>2022-08-03T04:58:44Z</time>
      </trkpt>
      <trkpt lat="46.5128" lon="5.56584">
        <ele>480.8</ele>
        <time>2022-08-03T04:58:45Z</time>
      </trkpt>
      <trkpt lat="46.51225" lon="5.56601">
        <ele>481.2</ele>
        <time>2022-08-03T04:58:54Z</time>
      </trkpt>
      <trkpt lat="46.51212" lon="5.56604">
        <ele>481.2</ele>
        <time>2022-08-03T04:58:56Z</time>
      </trkpt>
      <trkpt lat="46.51178" lon="5.56607">
        <ele>481.4</ele>
        <time>2022-08-03T04:59:02Z</time>
      </trkpt>
      <trkpt lat="46.51156" lon="5.56603">
        <ele>482</ele>
        <time>2022-08-03T04:59:06Z</time>
      </trkpt>
      <trkpt lat="46.51138" lon="5.566">
        <ele>482.4</ele>
        <time>2022-08-03T04:59:09Z</time>
      </trkpt>
      <trkpt lat="46.51087" lon="5.56594">
        <ele>483</ele>
        <time>2022-08-03T04:59:17Z</time>
      </trkpt>
      <trkpt lat="46.51034" lon="5.56577">
        <ele>483</ele>
        <time>2022-08-03T04:59:26Z</time>
      </trkpt>
      <trkpt lat="46.51012" lon="5.56569">
        <ele>484</ele>
        <time>2022-08-03T04:59:31Z</time>
      </trkpt>
      <trkpt lat="46.51006" lon="5.56569">
        <ele>484.2</ele>
        <time>2022-08-03T04:59:32Z</time>
      </trkpt>
      <trkpt lat="46.5099" lon="5.56572">
        <ele>485.2</ele>
        <time>2022-08-03T04:59:36Z</time>
      </trkpt>
      <trkpt lat="46.50978" lon="5.56575">
        <ele>485.8</ele>
        <time>2022-08-03T04:59:39Z</time>
      </trkpt>
      <trkpt lat="46.50974" lon="5.56577">
        <ele>486.6</ele>
        <time>2022-08-03T04:59:40Z</time>
      </trkpt>
      <trkpt lat="46.50967" lon="5.56582">
        <ele>487.2</ele>
        <time>2022-08-03T04:59:42Z</time>
      </trkpt>
      <trkpt lat="46.50964" lon="5.56583">
        <ele>487.6</ele>
        <time>2022-08-03T04:59:43Z</time>
      </trkpt>
      <trkpt lat="46.50961" lon="5.56585">
        <ele>487.8</ele>
        <time>2022-08-03T04:59:44Z</time>
      </trkpt>
      <trkpt lat="46.5095" lon="5.56595">
        <ele>488.8</ele>
        <time>2022-08-03T04:59:47Z</time>
      </trkpt>
      <trkpt lat="46.5094" lon="5.56606">
        <ele>489.4</ele>
        <time>2022-08-03T04:59:50Z</time>
      </trkpt>
      <trkpt lat="46.50935" lon="5.56615">
        <ele>489.8</ele>
        <time>2022-08-03T04:59:52Z</time>
      </trkpt>
      <trkpt lat="46.50929" lon="5.56625">
        <ele>490.2</ele>
        <time>2022-08-03T04:59:54Z</time>
      </trkpt>
      <trkpt lat="46.50917" lon="5.56641">
        <ele>490.6</ele>
        <time>2022-08-03T04:59:58Z</time>
      </trkpt>
      <trkpt lat="46.50909" lon="5.56651">
        <ele>490.8</ele>
        <time>2022-08-03T05:00:01Z</time>
      </trkpt>
      <trkpt lat="46.50892" lon="5.56668">
        <ele>492</ele>
        <time>2022-08-03T05:00:06Z</time>
      </trkpt>
      <trkpt lat="46.50874" lon="5.56682">
        <ele>493</ele>
        <time>2022-08-03T05:00:12Z</time>
      </trkpt>
      <trkpt lat="46.50872" lon="5.56683">
        <ele>493.4</ele>
        <time>2022-08-03T05:00:13Z</time>
      </trkpt>
      <trkpt lat="46.50871" lon="5.56685">
        <ele>493.6</ele>
        <time>2022-08-03T05:00:14Z</time>
      </trkpt>
      <trkpt lat="46.50872" lon="5.56693">
        <ele>493.8</ele>
        <time>2022-08-03T05:00:16Z</time>
      </trkpt>
      <trkpt lat="46.50883" lon="5.56703">
        <ele>494</ele>
        <time>2022-08-03T05:00:19Z</time>
      </trkpt>
      <trkpt lat="46.50888" lon="5.56707">
        <ele>494</ele>
        <time>2022-08-03T05:00:20Z</time>
      </trkpt>
      <trkpt lat="46.50903" lon="5.56724">
        <ele>494</ele>
        <time>2022-08-03T05:00:23Z</time>
      </trkpt>
      <trkpt lat="46.50926" lon="5.56765">
        <ele>493</ele>
        <time>2022-08-03T05:00:28Z</time>
      </trkpt>
      <trkpt lat="46.50941" lon="5.56793">
        <ele>491.8</ele>
        <time>2022-08-03T05:00:31Z</time>
      </trkpt>
      <trkpt lat="46.50955" lon="5.56822">
        <ele>490.8</ele>
        <time>2022-08-03T05:00:34Z</time>
      </trkpt>
      <trkpt lat="46.50964" lon="5.56841">
        <ele>490.2</ele>
        <time>2022-08-03T05:00:36Z</time>
      </trkpt>
      <trkpt lat="46.50984" lon="5.56881">
        <ele>489.6</ele>
        <time>2022-08-03T05:00:40Z</time>
      </trkpt>
      <trkpt lat="46.51" lon="5.56912">
        <ele>488.6</ele>
        <time>2022-08-03T05:00:43Z</time>
      </trkpt>
      <trkpt lat="46.51006" lon="5.56922">
        <ele>488.2</ele>
        <time>2022-08-03T05:00:44Z</time>
      </trkpt>
      <trkpt lat="46.5103" lon="5.56965">
        <ele>486.4</ele>
        <time>2022-08-03T05:00:48Z</time>
      </trkpt>
      <trkpt lat="46.51048" lon="5.56997">
        <ele>485</ele>
        <time>2022-08-03T05:00:51Z</time>
      </trkpt>
      <trkpt lat="46.51054" lon="5.57008">
        <ele>484.4</ele>
        <time>2022-08-03T05:00:52Z</time>
      </trkpt>
      <trkpt lat="46.5106" lon="5.57019">
        <ele>484</ele>
        <time>2022-08-03T05:00:53Z</time>
      </trkpt>
      <trkpt lat="46.51077" lon="5.5705">
        <ele>483</ele>
        <time>2022-08-03T05:00:56Z</time>
      </trkpt>
      <trkpt lat="46.51098" lon="5.57089">
        <ele>482.4</ele>
        <time>2022-08-03T05:01:00Z</time>
      </trkpt>
      <trkpt lat="46.51114" lon="5.57116">
        <ele>482</ele>
        <time>2022-08-03T05:01:03Z</time>
      </trkpt>
      <trkpt lat="46.51132" lon="5.5715">
        <ele>482.2</ele>
        <time>2022-08-03T05:01:07Z</time>
      </trkpt>
      <trkpt lat="46.51164" lon="5.57209">
        <ele>482.8</ele>
        <time>2022-08-03T05:01:14Z</time>
      </trkpt>
      <trkpt lat="46.51168" lon="5.57216">
        <ele>483</ele>
        <time>2022-08-03T05:01:15Z</time>
      </trkpt>
      <trkpt lat="46.51204" lon="5.57282">
        <ele>482</ele>
        <time>2022-08-03T05:01:22Z</time>
      </trkpt>
      <trkpt lat="46.51209" lon="5.57291">
        <ele>481.8</ele>
        <time>2022-08-03T05:01:23Z</time>
      </trkpt>
      <trkpt lat="46.51233" lon="5.57337">
        <ele>481</ele>
        <time>2022-08-03T05:01:28Z</time>
      </trkpt>
      <trkpt lat="46.51253" lon="5.57372">
        <ele>480.6</ele>
        <time>2022-08-03T05:01:32Z</time>
      </trkpt>
      <trkpt lat="46.5128" lon="5.57425">
        <ele>479.8</ele>
        <time>2022-08-03T05:01:38Z</time>
      </trkpt>
      <trkpt lat="46.51292" lon="5.57453">
        <ele>479.6</ele>
        <time>2022-08-03T05:01:41Z</time>
      </trkpt>
      <trkpt lat="46.51322" lon="5.57525">
        <ele>479.4</ele>
        <time>2022-08-03T05:01:49Z</time>
      </trkpt>
      <trkpt lat="46.51351" lon="5.57596">
        <ele>479.2</ele>
        <time>2022-08-03T05:01:57Z</time>
      </trkpt>
      <trkpt lat="46.51362" lon="5.57623">
        <ele>479.2</ele>
        <time>2022-08-03T05:02:00Z</time>
      </trkpt>
      <trkpt lat="46.5139" lon="5.57693">
        <ele>479.2</ele>
        <time>2022-08-03T05:02:08Z</time>
      </trkpt>
      <trkpt lat="46.51398" lon="5.57711">
        <ele>479.2</ele>
        <time>2022-08-03T05:02:10Z</time>
      </trkpt>
      <trkpt lat="46.51426" lon="5.5778">
        <ele>479.6</ele>
        <time>2022-08-03T05:02:18Z</time>
      </trkpt>
      <trkpt lat="46.51429" lon="5.57788">
        <ele>479.2</ele>
        <time>2022-08-03T05:02:19Z</time>
      </trkpt>
      <trkpt lat="46.51455" lon="5.57851">
        <ele>480.4</ele>
        <time>2022-08-03T05:02:27Z</time>
      </trkpt>
      <trkpt lat="46.51463" lon="5.57872">
        <ele>480.8</ele>
        <time>2022-08-03T05:02:30Z</time>
      </trkpt>
      <trkpt lat="46.51474" lon="5.57897">
        <ele>481.4</ele>
        <time>2022-08-03T05:02:34Z</time>
      </trkpt>
      <trkpt lat="46.51482" lon="5.57917">
        <ele>481.8</ele>
        <time>2022-08-03T05:02:37Z</time>
      </trkpt>
      <trkpt lat="46.51491" lon="5.57934">
        <ele>482.8</ele>
        <time>2022-08-03T05:02:40Z</time>
      </trkpt>
      <trkpt lat="46.51493" lon="5.5794">
        <ele>483</ele>
        <time>2022-08-03T05:02:41Z</time>
      </trkpt>
      <trkpt lat="46.51499" lon="5.57957">
        <ele>483.8</ele>
        <time>2022-08-03T05:02:44Z</time>
      </trkpt>
      <trkpt lat="46.51507" lon="5.57981">
        <ele>484.8</ele>
        <time>2022-08-03T05:02:48Z</time>
      </trkpt>
      <trkpt lat="46.51514" lon="5.58004">
        <ele>486</ele>
        <time>2022-08-03T05:02:52Z</time>
      </trkpt>
      <trkpt lat="46.51522" lon="5.58033">
        <ele>486.8</ele>
        <time>2022-08-03T05:02:57Z</time>
      </trkpt>
      <trkpt lat="46.51523" lon="5.58039">
        <ele>487</ele>
        <time>2022-08-03T05:02:58Z</time>
      </trkpt>
      <trkpt lat="46.51527" lon="5.58062">
        <ele>488.2</ele>
        <time>2022-08-03T05:03:02Z</time>
      </trkpt>
      <trkpt lat="46.5153" lon="5.58074">
        <ele>488.6</ele>
        <time>2022-08-03T05:03:04Z</time>
      </trkpt>
      <trkpt lat="46.51534" lon="5.58085">
        <ele>489.2</ele>
        <time>2022-08-03T05:03:06Z</time>
      </trkpt>
      <trkpt lat="46.51536" lon="5.5809">
        <ele>489.2</ele>
        <time>2022-08-03T05:03:07Z</time>
      </trkpt>
      <trkpt lat="46.51549" lon="5.58115">
        <ele>490.4</ele>
        <time>2022-08-03T05:03:12Z</time>
      </trkpt>
      <trkpt lat="46.51552" lon="5.5812">
        <ele>490.6</ele>
        <time>2022-08-03T05:03:13Z</time>
      </trkpt>
      <trkpt lat="46.51564" lon="5.5814">
        <ele>491.4</ele>
        <time>2022-08-03T05:03:17Z</time>
      </trkpt>
      <trkpt lat="46.51582" lon="5.58173">
        <ele>492</ele>
        <time>2022-08-03T05:03:23Z</time>
      </trkpt>
      <trkpt lat="46.51596" lon="5.58202">
        <ele>492.6</ele>
        <time>2022-08-03T05:03:28Z</time>
      </trkpt>
      <trkpt lat="46.51612" lon="5.58237">
        <ele>493.4</ele>
        <time>2022-08-03T05:03:34Z</time>
      </trkpt>
      <trkpt lat="46.51619" lon="5.58249">
        <ele>493.6</ele>
        <time>2022-08-03T05:03:36Z</time>
      </trkpt>
      <trkpt lat="46.5164" lon="5.58286">
        <ele>493.6</ele>
        <time>2022-08-03T05:03:42Z</time>
      </trkpt>
      <trkpt lat="46.51661" lon="5.58321">
        <ele>493</ele>
        <time>2022-08-03T05:03:47Z</time>
      </trkpt>
      <trkpt lat="46.51676" lon="5.58342">
        <ele>492.6</ele>
        <time>2022-08-03T05:03:50Z</time>
      </trkpt>
      <trkpt lat="46.51681" lon="5.58348">
        <ele>492.4</ele>
        <time>2022-08-03T05:03:51Z</time>
      </trkpt>
      <trkpt lat="46.51692" lon="5.58359">
        <ele>492</ele>
        <time>2022-08-03T05:03:53Z</time>
      </trkpt>
      <trkpt lat="46.51715" lon="5.58381">
        <ele>491.4</ele>
        <time>2022-08-03T05:03:57Z</time>
      </trkpt>
      <trkpt lat="46.5172" lon="5.58388">
        <ele>491.2</ele>
        <time>2022-08-03T05:03:58Z</time>
      </trkpt>
      <trkpt lat="46.51725" lon="5.58395">
        <ele>491</ele>
        <time>2022-08-03T05:03:59Z</time>
      </trkpt>
      <trkpt lat="46.51764" lon="5.58457">
        <ele>490.2</ele>
        <time>2022-08-03T05:04:07Z</time>
      </trkpt>
      <trkpt lat="46.51769" lon="5.58465">
        <ele>490</ele>
        <time>2022-08-03T05:04:08Z</time>
      </trkpt>
      <trkpt lat="46.51804" lon="5.58521">
        <ele>489</ele>
        <time>2022-08-03T05:04:15Z</time>
      </trkpt>
      <trkpt lat="46.51808" lon="5.58529">
        <ele>488.8</ele>
        <time>2022-08-03T05:04:16Z</time>
      </trkpt>
      <trkpt lat="46.51827" lon="5.58572">
        <ele>488.6</ele>
        <time>2022-08-03T05:04:21Z</time>
      </trkpt>
      <trkpt lat="46.51836" lon="5.58628">
        <ele>488.2</ele>
        <time>2022-08-03T05:04:26Z</time>
      </trkpt>
      <trkpt lat="46.51845" lon="5.58664">
        <ele>487.6</ele>
        <time>2022-08-03T05:04:29Z</time>
      </trkpt>
      <trkpt lat="46.51853" lon="5.58688">
        <ele>486.6</ele>
        <time>2022-08-03T05:04:31Z</time>
      </trkpt>
      <trkpt lat="46.51857" lon="5.58699">
        <ele>486.2</ele>
        <time>2022-08-03T05:04:32Z</time>
      </trkpt>
      <trkpt lat="46.51866" lon="5.58722">
        <ele>485.2</ele>
        <time>2022-08-03T05:04:34Z</time>
      </trkpt>
      <trkpt lat="46.51884" lon="5.58766">
        <ele>484</ele>
        <time>2022-08-03T05:04:38Z</time>
      </trkpt>
      <trkpt lat="46.51915" lon="5.58836">
        <ele>483</ele>
        <time>2022-08-03T05:04:45Z</time>
      </trkpt>
      <trkpt lat="46.51942" lon="5.58895">
        <ele>482.8</ele>
        <time>2022-08-03T05:04:51Z</time>
      </trkpt>
      <trkpt lat="46.51946" lon="5.58905">
        <ele>482.6</ele>
        <time>2022-08-03T05:04:52Z</time>
      </trkpt>
      <trkpt lat="46.51976" lon="5.58971">
        <ele>482.4</ele>
        <time>2022-08-03T05:04:59Z</time>
      </trkpt>
      <trkpt lat="46.5198" lon="5.5898">
        <ele>482.2</ele>
        <time>2022-08-03T05:05:00Z</time>
      </trkpt>
      <trkpt lat="46.52007" lon="5.59042">
        <ele>482.6</ele>
        <time>2022-08-03T05:05:07Z</time>
      </trkpt>
      <trkpt lat="46.52037" lon="5.59108">
        <ele>483.4</ele>
        <time>2022-08-03T05:05:15Z</time>
      </trkpt>
      <trkpt lat="46.52051" lon="5.5914">
        <ele>483.8</ele>
        <time>2022-08-03T05:05:19Z</time>
      </trkpt>
      <trkpt lat="46.52069" lon="5.59186">
        <ele>484.4</ele>
        <time>2022-08-03T05:05:25Z</time>
      </trkpt>
      <trkpt lat="46.52071" lon="5.59193">
        <ele>484.8</ele>
        <time>2022-08-03T05:05:26Z</time>
      </trkpt>
      <trkpt lat="46.52082" lon="5.59238">
        <ele>485.8</ele>
        <time>2022-08-03T05:05:32Z</time>
      </trkpt>
      <trkpt lat="46.52084" lon="5.59246">
        <ele>486.2</ele>
        <time>2022-08-03T05:05:33Z</time>
      </trkpt>
      <trkpt lat="46.521" lon="5.59321">
        <ele>486.8</ele>
        <time>2022-08-03T05:05:42Z</time>
      </trkpt>
      <trkpt lat="46.52102" lon="5.5933">
        <ele>486.8</ele>
        <time>2022-08-03T05:05:43Z</time>
      </trkpt>
      <trkpt lat="46.52118" lon="5.59398">
        <ele>486.8</ele>
        <time>2022-08-03T05:05:51Z</time>
      </trkpt>
      <trkpt lat="46.52139" lon="5.59465">
        <ele>487.2</ele>
        <time>2022-08-03T05:05:59Z</time>
      </trkpt>
      <trkpt lat="46.52151" lon="5.59489">
        <ele>487.2</ele>
        <time>2022-08-03T05:06:02Z</time>
      </trkpt>
      <trkpt lat="46.5216" lon="5.59502">
        <ele>487</ele>
        <time>2022-08-03T05:06:04Z</time>
      </trkpt>
      <trkpt lat="46.522" lon="5.59546">
        <ele>487.2</ele>
        <time>2022-08-03T05:06:12Z</time>
      </trkpt>
      <trkpt lat="46.52218" lon="5.59565">
        <ele>487.8</ele>
        <time>2022-08-03T05:06:16Z</time>
      </trkpt>
      <trkpt lat="46.5223" lon="5.59582">
        <ele>488.6</ele>
        <time>2022-08-03T05:06:19Z</time>
      </trkpt>
      <trkpt lat="46.52234" lon="5.59588">
        <ele>488.8</ele>
        <time>2022-08-03T05:06:20Z</time>
      </trkpt>
      <trkpt lat="46.52251" lon="5.5962">
        <ele>489.6</ele>
        <time>2022-08-03T05:06:25Z</time>
      </trkpt>
      <trkpt lat="46.52261" lon="5.59639">
        <ele>489.8</ele>
        <time>2022-08-03T05:06:28Z</time>
      </trkpt>
      <trkpt lat="46.5228" lon="5.59679">
        <ele>490.8</ele>
        <time>2022-08-03T05:06:34Z</time>
      </trkpt>
      <trkpt lat="46.52283" lon="5.59686">
        <ele>491.2</ele>
        <time>2022-08-03T05:06:35Z</time>
      </trkpt>
      <trkpt lat="46.52299" lon="5.59728">
        <ele>491.8</ele>
        <time>2022-08-03T05:06:41Z</time>
      </trkpt>
      <trkpt lat="46.52311" lon="5.59756">
        <ele>492.2</ele>
        <time>2022-08-03T05:06:45Z</time>
      </trkpt>
      <trkpt lat="46.52314" lon="5.59763">
        <ele>492.4</ele>
        <time>2022-08-03T05:06:46Z</time>
      </trkpt>
      <trkpt lat="46.52317" lon="5.59768">
        <ele>492.4</ele>
        <time>2022-08-03T05:06:47Z</time>
      </trkpt>
      <trkpt lat="46.52327" lon="5.59782">
        <ele>492.6</ele>
        <time>2022-08-03T05:06:50Z</time>
      </trkpt>
      <trkpt lat="46.52329" lon="5.59787">
        <ele>492.8</ele>
        <time>2022-08-03T05:06:51Z</time>
      </trkpt>
      <trkpt lat="46.5233" lon="5.59794">
        <ele>492.8</ele>
        <time>2022-08-03T05:06:52Z</time>
      </trkpt>
      <trkpt lat="46.52329" lon="5.59819">
        <ele>493</ele>
        <time>2022-08-03T05:06:55Z</time>
      </trkpt>
      <trkpt lat="46.52323" lon="5.59886">
        <ele>493.2</ele>
        <time>2022-08-03T05:07:02Z</time>
      </trkpt>
      <trkpt lat="46.5232" lon="5.59923">
        <ele>493.2</ele>
        <time>2022-08-03T05:07:06Z</time>
      </trkpt>
      <trkpt lat="46.52315" lon="5.59987">
        <ele>493.6</ele>
        <time>2022-08-03T05:07:13Z</time>
      </trkpt>
      <trkpt lat="46.52311" lon="5.6003">
        <ele>494.2</ele>
        <time>2022-08-03T05:07:18Z</time>
      </trkpt>
      <trkpt lat="46.52308" lon="5.60073">
        <ele>494.8</ele>
        <time>2022-08-03T05:07:23Z</time>
      </trkpt>
      <trkpt lat="46.52306" lon="5.60098">
        <ele>495.4</ele>
        <time>2022-08-03T05:07:26Z</time>
      </trkpt>
      <trkpt lat="46.52301" lon="5.60163">
        <ele>495.6</ele>
        <time>2022-08-03T05:07:33Z</time>
      </trkpt>
      <trkpt lat="46.52295" lon="5.60246">
        <ele>495.4</ele>
        <time>2022-08-03T05:07:42Z</time>
      </trkpt>
      <trkpt lat="46.52294" lon="5.60255">
        <ele>495.4</ele>
        <time>2022-08-03T05:07:43Z</time>
      </trkpt>
      <trkpt lat="46.52288" lon="5.60336">
        <ele>496</ele>
        <time>2022-08-03T05:07:52Z</time>
      </trkpt>
      <trkpt lat="46.52287" lon="5.60344">
        <ele>496</ele>
        <time>2022-08-03T05:07:53Z</time>
      </trkpt>
      <trkpt lat="46.52283" lon="5.60388">
        <ele>496.4</ele>
        <time>2022-08-03T05:07:58Z</time>
      </trkpt>
      <trkpt lat="46.52277" lon="5.6047">
        <ele>497</ele>
        <time>2022-08-03T05:08:07Z</time>
      </trkpt>
      <trkpt lat="46.52274" lon="5.60507">
        <ele>497.2</ele>
        <time>2022-08-03T05:08:11Z</time>
      </trkpt>
      <trkpt lat="46.52269" lon="5.60571">
        <ele>497.6</ele>
        <time>2022-08-03T05:08:18Z</time>
      </trkpt>
      <trkpt lat="46.52269" lon="5.6059">
        <ele>497.6</ele>
        <time>2022-08-03T05:08:20Z</time>
      </trkpt>
      <trkpt lat="46.52266" lon="5.60624">
        <ele>498</ele>
        <time>2022-08-03T05:08:24Z</time>
      </trkpt>
      <trkpt lat="46.52264" lon="5.60641">
        <ele>498.2</ele>
        <time>2022-08-03T05:08:26Z</time>
      </trkpt>
      <trkpt lat="46.52261" lon="5.60665">
        <ele>498.6</ele>
        <time>2022-08-03T05:08:29Z</time>
      </trkpt>
      <trkpt lat="46.52256" lon="5.60678">
        <ele>498.8</ele>
        <time>2022-08-03T05:08:31Z</time>
      </trkpt>
      <trkpt lat="46.5225" lon="5.6069">
        <ele>499.2</ele>
        <time>2022-08-03T05:08:33Z</time>
      </trkpt>
      <trkpt lat="46.52246" lon="5.60695">
        <ele>499.6</ele>
        <time>2022-08-03T05:08:34Z</time>
      </trkpt>
      <trkpt lat="46.52239" lon="5.60702">
        <ele>499.8</ele>
        <time>2022-08-03T05:08:36Z</time>
      </trkpt>
      <trkpt lat="46.52229" lon="5.60707">
        <ele>500</ele>
        <time>2022-08-03T05:08:38Z</time>
      </trkpt>
      <trkpt lat="46.52219" lon="5.6071">
        <ele>500.4</ele>
        <time>2022-08-03T05:08:40Z</time>
      </trkpt>
      <trkpt lat="46.52181" lon="5.60715">
        <ele>501.4</ele>
        <time>2022-08-03T05:08:48Z</time>
      </trkpt>
      <trkpt lat="46.52177" lon="5.60717">
        <ele>501.6</ele>
        <time>2022-08-03T05:08:49Z</time>
      </trkpt>
      <trkpt lat="46.52169" lon="5.60722">
        <ele>502</ele>
        <time>2022-08-03T05:08:51Z</time>
      </trkpt>
      <trkpt lat="46.5216" lon="5.60733">
        <ele>502.8</ele>
        <time>2022-08-03T05:08:54Z</time>
      </trkpt>
      <trkpt lat="46.52156" lon="5.60747">
        <ele>503.8</ele>
        <time>2022-08-03T05:08:57Z</time>
      </trkpt>
      <trkpt lat="46.52155" lon="5.60757">
        <ele>504.6</ele>
        <time>2022-08-03T05:08:59Z</time>
      </trkpt>
      <trkpt lat="46.52155" lon="5.60762">
        <ele>505.2</ele>
        <time>2022-08-03T05:09:00Z</time>
      </trkpt>
      <trkpt lat="46.52157" lon="5.60787">
        <ele>506.4</ele>
        <time>2022-08-03T05:09:04Z</time>
      </trkpt>
      <trkpt lat="46.52158" lon="5.60793">
        <ele>506.8</ele>
        <time>2022-08-03T05:09:05Z</time>
      </trkpt>
      <trkpt lat="46.52158" lon="5.60807">
        <ele>506.8</ele>
        <time>2022-08-03T05:09:07Z</time>
      </trkpt>
      <trkpt lat="46.52154" lon="5.6083">
        <ele>507.2</ele>
        <time>2022-08-03T05:09:10Z</time>
      </trkpt>
      <trkpt lat="46.52146" lon="5.60883">
        <ele>506</ele>
        <time>2022-08-03T05:09:16Z</time>
      </trkpt>
      <trkpt lat="46.52142" lon="5.60922">
        <ele>505.2</ele>
        <time>2022-08-03T05:09:20Z</time>
      </trkpt>
      <trkpt lat="46.52141" lon="5.60932">
        <ele>505</ele>
        <time>2022-08-03T05:09:21Z</time>
      </trkpt>
      <trkpt lat="46.52141" lon="5.60942">
        <ele>504.8</ele>
        <time>2022-08-03T05:09:22Z</time>
      </trkpt>
      <trkpt lat="46.52136" lon="5.60971">
        <ele>504</ele>
        <time>2022-08-03T05:09:25Z</time>
      </trkpt>
      <trkpt lat="46.52129" lon="5.60988">
        <ele>503.6</ele>
        <time>2022-08-03T05:09:27Z</time>
      </trkpt>
      <trkpt lat="46.52124" lon="5.60996">
        <ele>503.4</ele>
        <time>2022-08-03T05:09:28Z</time>
      </trkpt>
      <trkpt lat="46.52098" lon="5.61028">
        <ele>503</ele>
        <time>2022-08-03T05:09:33Z</time>
      </trkpt>
      <trkpt lat="46.52095" lon="5.61034">
        <ele>502.8</ele>
        <time>2022-08-03T05:09:34Z</time>
      </trkpt>
      <trkpt lat="46.52088" lon="5.61047">
        <ele>502.4</ele>
        <time>2022-08-03T05:09:36Z</time>
      </trkpt>
      <trkpt lat="46.52084" lon="5.61063">
        <ele>502.2</ele>
        <time>2022-08-03T05:09:38Z</time>
      </trkpt>
      <trkpt lat="46.52085" lon="5.61072">
        <ele>502</ele>
        <time>2022-08-03T05:09:39Z</time>
      </trkpt>
      <trkpt lat="46.52086" lon="5.6108">
        <ele>502</ele>
        <time>2022-08-03T05:09:40Z</time>
      </trkpt>
      <trkpt lat="46.52088" lon="5.61088">
        <ele>502</ele>
        <time>2022-08-03T05:09:41Z</time>
      </trkpt>
      <trkpt lat="46.5209" lon="5.61096">
        <ele>502</ele>
        <time>2022-08-03T05:09:42Z</time>
      </trkpt>
      <trkpt lat="46.5209" lon="5.61124">
        <ele>501.8</ele>
        <time>2022-08-03T05:09:45Z</time>
      </trkpt>
      <trkpt lat="46.52097" lon="5.61204">
        <ele>501</ele>
        <time>2022-08-03T05:09:53Z</time>
      </trkpt>
      <trkpt lat="46.52097" lon="5.61226">
        <ele>500.8</ele>
        <time>2022-08-03T05:09:55Z</time>
      </trkpt>
      <trkpt lat="46.52095" lon="5.61271">
        <ele>500.2</ele>
        <time>2022-08-03T05:09:59Z</time>
      </trkpt>
      <trkpt lat="46.52095" lon="5.61294">
        <ele>499.8</ele>
        <time>2022-08-03T05:10:01Z</time>
      </trkpt>
      <trkpt lat="46.52096" lon="5.61305">
        <ele>499.4</ele>
        <time>2022-08-03T05:10:02Z</time>
      </trkpt>
      <trkpt lat="46.52098" lon="5.61317">
        <ele>499.4</ele>
        <time>2022-08-03T05:10:03Z</time>
      </trkpt>
      <trkpt lat="46.5211" lon="5.61387">
        <ele>498.4</ele>
        <time>2022-08-03T05:10:09Z</time>
      </trkpt>
      <trkpt lat="46.52113" lon="5.61397">
        <ele>498.4</ele>
        <time>2022-08-03T05:10:10Z</time>
      </trkpt>
      <trkpt lat="46.52122" lon="5.61416">
        <ele>498</ele>
        <time>2022-08-03T05:10:12Z</time>
      </trkpt>
      <trkpt lat="46.52128" lon="5.61423">
        <ele>497.6</ele>
        <time>2022-08-03T05:10:13Z</time>
      </trkpt>
      <trkpt lat="46.52135" lon="5.6143">
        <ele>497.4</ele>
        <time>2022-08-03T05:10:14Z</time>
      </trkpt>
      <trkpt lat="46.52161" lon="5.6146">
        <ele>496.2</ele>
        <time>2022-08-03T05:10:18Z</time>
      </trkpt>
      <trkpt lat="46.52175" lon="5.61474">
        <ele>495.8</ele>
        <time>2022-08-03T05:10:20Z</time>
      </trkpt>
      <trkpt lat="46.52208" lon="5.61511">
        <ele>495</ele>
        <time>2022-08-03T05:10:25Z</time>
      </trkpt>
      <trkpt lat="46.52233" lon="5.61539">
        <ele>494.4</ele>
        <time>2022-08-03T05:10:29Z</time>
      </trkpt>
      <trkpt lat="46.52277" lon="5.61585">
        <ele>494</ele>
        <time>2022-08-03T05:10:36Z</time>
      </trkpt>
      <trkpt lat="46.52283" lon="5.6159">
        <ele>494</ele>
        <time>2022-08-03T05:10:37Z</time>
      </trkpt>
      <trkpt lat="46.52289" lon="5.61595">
        <ele>494</ele>
        <time>2022-08-03T05:10:38Z</time>
      </trkpt>
      <trkpt lat="46.52333" lon="5.61631">
        <ele>494.4</ele>
        <time>2022-08-03T05:10:45Z</time>
      </trkpt>
      <trkpt lat="46.52339" lon="5.61639">
        <ele>494.2</ele>
        <time>2022-08-03T05:10:46Z</time>
      </trkpt>
      <trkpt lat="46.5235" lon="5.61656">
        <ele>494</ele>
        <time>2022-08-03T05:10:48Z</time>
      </trkpt>
      <trkpt lat="46.52358" lon="5.6168">
        <ele>493.8</ele>
        <time>2022-08-03T05:10:50Z</time>
      </trkpt>
      <trkpt lat="46.52361" lon="5.61693">
        <ele>493.6</ele>
        <time>2022-08-03T05:10:51Z</time>
      </trkpt>
      <trkpt lat="46.52372" lon="5.61749">
        <ele>491.8</ele>
        <time>2022-08-03T05:10:55Z</time>
      </trkpt>
      <trkpt lat="46.52375" lon="5.61764">
        <ele>491.2</ele>
        <time>2022-08-03T05:10:56Z</time>
      </trkpt>
      <trkpt lat="46.52378" lon="5.6178">
        <ele>490.4</ele>
        <time>2022-08-03T05:10:57Z</time>
      </trkpt>
      <trkpt lat="46.52384" lon="5.61812">
        <ele>489.2</ele>
        <time>2022-08-03T05:10:59Z</time>
      </trkpt>
      <trkpt lat="46.52387" lon="5.61828">
        <ele>488</ele>
        <time>2022-08-03T05:11:00Z</time>
      </trkpt>
      <trkpt lat="46.52392" lon="5.61861">
        <ele>486.2</ele>
        <time>2022-08-03T05:11:02Z</time>
      </trkpt>
      <trkpt lat="46.52394" lon="5.61896">
        <ele>484.4</ele>
        <time>2022-08-03T05:11:04Z</time>
      </trkpt>
      <trkpt lat="46.52392" lon="5.61929">
        <ele>483.2</ele>
        <time>2022-08-03T05:11:06Z</time>
      </trkpt>
      <trkpt lat="46.5239" lon="5.61962">
        <ele>481.6</ele>
        <time>2022-08-03T05:11:08Z</time>
      </trkpt>
      <trkpt lat="46.52388" lon="5.61993">
        <ele>480.4</ele>
        <time>2022-08-03T05:11:10Z</time>
      </trkpt>
      <trkpt lat="46.52387" lon="5.62023">
        <ele>479.6</ele>
        <time>2022-08-03T05:11:12Z</time>
      </trkpt>
      <trkpt lat="46.52385" lon="5.62052">
        <ele>479.2</ele>
        <time>2022-08-03T05:11:14Z</time>
      </trkpt>
      <trkpt lat="46.5238" lon="5.6212">
        <ele>478.4</ele>
        <time>2022-08-03T05:11:19Z</time>
      </trkpt>
      <trkpt lat="46.52378" lon="5.62146">
        <ele>478</ele>
        <time>2022-08-03T05:11:21Z</time>
      </trkpt>
      <trkpt lat="46.52374" lon="5.62222">
        <ele>477.8</ele>
        <time>2022-08-03T05:11:27Z</time>
      </trkpt>
      <trkpt lat="46.52369" lon="5.62294">
        <ele>479</ele>
        <time>2022-08-03T05:11:34Z</time>
      </trkpt>
      <trkpt lat="46.52367" lon="5.62328">
        <ele>480.4</ele>
        <time>2022-08-03T05:11:38Z</time>
      </trkpt>
      <trkpt lat="46.52368" lon="5.62343">
        <ele>481.2</ele>
        <time>2022-08-03T05:11:40Z</time>
      </trkpt>
      <trkpt lat="46.52368" lon="5.6235">
        <ele>481.6</ele>
        <time>2022-08-03T05:11:41Z</time>
      </trkpt>
      <trkpt lat="46.52371" lon="5.62371">
        <ele>483</ele>
        <time>2022-08-03T05:11:44Z</time>
      </trkpt>
      <trkpt lat="46.52374" lon="5.62386">
        <ele>483.6</ele>
        <time>2022-08-03T05:11:46Z</time>
      </trkpt>
      <trkpt lat="46.52377" lon="5.624">
        <ele>484</ele>
        <time>2022-08-03T05:11:48Z</time>
      </trkpt>
      <trkpt lat="46.52384" lon="5.62425">
        <ele>485.2</ele>
        <time>2022-08-03T05:11:52Z</time>
      </trkpt>
      <trkpt lat="46.52386" lon="5.6243">
        <ele>485.6</ele>
        <time>2022-08-03T05:11:53Z</time>
      </trkpt>
      <trkpt lat="46.52388" lon="5.62435">
        <ele>485.8</ele>
        <time>2022-08-03T05:11:54Z</time>
      </trkpt>
      <trkpt lat="46.5239" lon="5.62441">
        <ele>486.2</ele>
        <time>2022-08-03T05:11:55Z</time>
      </trkpt>
      <trkpt lat="46.52399" lon="5.6246">
        <ele>487.4</ele>
        <time>2022-08-03T05:11:59Z</time>
      </trkpt>
      <trkpt lat="46.52403" lon="5.6247">
        <ele>488.2</ele>
        <time>2022-08-03T05:12:01Z</time>
      </trkpt>
      <trkpt lat="46.52406" lon="5.62474">
        <ele>489</ele>
        <time>2022-08-03T05:12:02Z</time>
      </trkpt>
      <trkpt lat="46.52418" lon="5.62495">
        <ele>490.2</ele>
        <time>2022-08-03T05:12:07Z</time>
      </trkpt>
      <trkpt lat="46.52428" lon="5.6251">
        <ele>491.4</ele>
        <time>2022-08-03T05:12:11Z</time>
      </trkpt>
      <trkpt lat="46.52439" lon="5.62526">
        <ele>492.4</ele>
        <time>2022-08-03T05:12:16Z</time>
      </trkpt>
      <trkpt lat="46.52441" lon="5.6253">
        <ele>492.6</ele>
        <time>2022-08-03T05:12:17Z</time>
      </trkpt>
      <trkpt lat="46.52453" lon="5.62546">
        <ele>493.6</ele>
        <time>2022-08-03T05:12:22Z</time>
      </trkpt>
      <trkpt lat="46.52459" lon="5.62556">
        <ele>494.2</ele>
        <time>2022-08-03T05:12:25Z</time>
      </trkpt>
      <trkpt lat="46.52467" lon="5.62571">
        <ele>495</ele>
        <time>2022-08-03T05:12:29Z</time>
      </trkpt>
      <trkpt lat="46.52473" lon="5.62583">
        <ele>495.8</ele>
        <time>2022-08-03T05:12:32Z</time>
      </trkpt>
      <trkpt lat="46.52477" lon="5.62591">
        <ele>496.4</ele>
        <time>2022-08-03T05:12:34Z</time>
      </trkpt>
      <trkpt lat="46.52486" lon="5.62616">
        <ele>497.4</ele>
        <time>2022-08-03T05:12:40Z</time>
      </trkpt>
      <trkpt lat="46.52492" lon="5.62632">
        <ele>498.6</ele>
        <time>2022-08-03T05:12:44Z</time>
      </trkpt>
      <trkpt lat="46.52499" lon="5.62654">
        <ele>499.8</ele>
        <time>2022-08-03T05:12:49Z</time>
      </trkpt>
      <trkpt lat="46.52501" lon="5.62663">
        <ele>500.2</ele>
        <time>2022-08-03T05:12:51Z</time>
      </trkpt>
      <trkpt lat="46.52507" lon="5.62686">
        <ele>500.8</ele>
        <time>2022-08-03T05:12:56Z</time>
      </trkpt>
      <trkpt lat="46.52514" lon="5.62709">
        <ele>501.8</ele>
        <time>2022-08-03T05:13:01Z</time>
      </trkpt>
      <trkpt lat="46.52521" lon="5.62733">
        <ele>503</ele>
        <time>2022-08-03T05:13:06Z</time>
      </trkpt>
      <trkpt lat="46.52524" lon="5.62743">
        <ele>503.2</ele>
        <time>2022-08-03T05:13:08Z</time>
      </trkpt>
      <trkpt lat="46.52532" lon="5.62767">
        <ele>504</ele>
        <time>2022-08-03T05:13:13Z</time>
      </trkpt>
      <trkpt lat="46.52535" lon="5.62778">
        <ele>504.4</ele>
        <time>2022-08-03T05:13:15Z</time>
      </trkpt>
      <trkpt lat="46.52543" lon="5.62803">
        <ele>505.2</ele>
        <time>2022-08-03T05:13:20Z</time>
      </trkpt>
      <trkpt lat="46.52553" lon="5.62836">
        <ele>506</ele>
        <time>2022-08-03T05:13:26Z</time>
      </trkpt>
      <trkpt lat="46.52556" lon="5.62847">
        <ele>506.2</ele>
        <time>2022-08-03T05:13:28Z</time>
      </trkpt>
      <trkpt lat="46.52558" lon="5.62852">
        <ele>506.4</ele>
        <time>2022-08-03T05:13:29Z</time>
      </trkpt>
      <trkpt lat="46.52563" lon="5.6287">
        <ele>506.6</ele>
        <time>2022-08-03T05:13:32Z</time>
      </trkpt>
      <trkpt lat="46.5257" lon="5.62895">
        <ele>507.4</ele>
        <time>2022-08-03T05:13:36Z</time>
      </trkpt>
      <trkpt lat="46.52576" lon="5.6292">
        <ele>507.8</ele>
        <time>2022-08-03T05:13:40Z</time>
      </trkpt>
      <trkpt lat="46.52585" lon="5.62953">
        <ele>508.4</ele>
        <time>2022-08-03T05:13:45Z</time>
      </trkpt>
      <trkpt lat="46.52597" lon="5.63001">
        <ele>509.2</ele>
        <time>2022-08-03T05:13:52Z</time>
      </trkpt>
      <trkpt lat="46.52602" lon="5.63023">
        <ele>509.4</ele>
        <time>2022-08-03T05:13:55Z</time>
      </trkpt>
      <trkpt lat="46.52604" lon="5.6303">
        <ele>509.6</ele>
        <time>2022-08-03T05:13:56Z</time>
      </trkpt>
      <trkpt lat="46.52617" lon="5.63084">
        <ele>510</ele>
        <time>2022-08-03T05:14:03Z</time>
      </trkpt>
      <trkpt lat="46.52636" lon="5.63162">
        <ele>510.2</ele>
        <time>2022-08-03T05:14:12Z</time>
      </trkpt>
      <trkpt lat="46.52652" lon="5.63231">
        <ele>510</ele>
        <time>2022-08-03T05:14:19Z</time>
      </trkpt>
      <trkpt lat="46.52666" lon="5.63315">
        <ele>508.8</ele>
        <time>2022-08-03T05:14:27Z</time>
      </trkpt>
      <trkpt lat="46.52676" lon="5.63382">
        <ele>509</ele>
        <time>2022-08-03T05:14:34Z</time>
      </trkpt>
      <trkpt lat="46.52684" lon="5.63449">
        <ele>510.2</ele>
        <time>2022-08-03T05:14:42Z</time>
      </trkpt>
      <trkpt lat="46.52685" lon="5.63462">
        <ele>510.8</ele>
        <time>2022-08-03T05:14:44Z</time>
      </trkpt>
      <trkpt lat="46.52687" lon="5.63494">
        <ele>511.8</ele>
        <time>2022-08-03T05:14:48Z</time>
      </trkpt>
      <trkpt lat="46.52688" lon="5.63501">
        <ele>512</ele>
        <time>2022-08-03T05:14:49Z</time>
      </trkpt>
      <trkpt lat="46.52687" lon="5.6352">
        <ele>512.8</ele>
        <time>2022-08-03T05:14:52Z</time>
      </trkpt>
      <trkpt lat="46.52685" lon="5.63558">
        <ele>514.4</ele>
        <time>2022-08-03T05:14:57Z</time>
      </trkpt>
      <trkpt lat="46.52684" lon="5.63565">
        <ele>514.6</ele>
        <time>2022-08-03T05:14:58Z</time>
      </trkpt>
      <trkpt lat="46.52681" lon="5.63592">
        <ele>515.8</ele>
        <time>2022-08-03T05:15:02Z</time>
      </trkpt>
      <trkpt lat="46.52673" lon="5.63633">
        <ele>516.8</ele>
        <time>2022-08-03T05:15:08Z</time>
      </trkpt>
      <trkpt lat="46.52669" lon="5.63647">
        <ele>517</ele>
        <time>2022-08-03T05:15:10Z</time>
      </trkpt>
      <trkpt lat="46.52659" lon="5.63688">
        <ele>518</ele>
        <time>2022-08-03T05:15:16Z</time>
      </trkpt>
      <trkpt lat="46.52655" lon="5.63702">
        <ele>518.4</ele>
        <time>2022-08-03T05:15:18Z</time>
      </trkpt>
      <trkpt lat="46.52651" lon="5.63723">
        <ele>519.2</ele>
        <time>2022-08-03T05:15:21Z</time>
      </trkpt>
      <trkpt lat="46.52649" lon="5.63732">
        <ele>519.2</ele>
        <time>2022-08-03T05:15:22Z</time>
      </trkpt>
      <trkpt lat="46.52645" lon="5.63762">
        <ele>519.8</ele>
        <time>2022-08-03T05:15:26Z</time>
      </trkpt>
      <trkpt lat="46.52645" lon="5.6378">
        <ele>520</ele>
        <time>2022-08-03T05:15:28Z</time>
      </trkpt>
      <trkpt lat="46.52646" lon="5.63812">
        <ele>520</ele>
        <time>2022-08-03T05:15:32Z</time>
      </trkpt>
      <trkpt lat="46.52646" lon="5.6382">
        <ele>520</ele>
        <time>2022-08-03T05:15:33Z</time>
      </trkpt>
      <trkpt lat="46.52648" lon="5.63836">
        <ele>520.2</ele>
        <time>2022-08-03T05:15:35Z</time>
      </trkpt>
      <trkpt lat="46.52649" lon="5.63854">
        <ele>520.2</ele>
        <time>2022-08-03T05:15:37Z</time>
      </trkpt>
      <trkpt lat="46.52669" lon="5.6391">
        <ele>520.2</ele>
        <time>2022-08-03T05:15:44Z</time>
      </trkpt>
      <trkpt lat="46.5267" lon="5.63917">
        <ele>519.8</ele>
        <time>2022-08-03T05:15:45Z</time>
      </trkpt>
      <trkpt lat="46.52687" lon="5.63958">
        <ele>519.4</ele>
        <time>2022-08-03T05:15:50Z</time>
      </trkpt>
      <trkpt lat="46.52721" lon="5.64009">
        <ele>518.6</ele>
        <time>2022-08-03T05:15:56Z</time>
      </trkpt>
      <trkpt lat="46.52744" lon="5.64045">
        <ele>517.4</ele>
        <time>2022-08-03T05:16:00Z</time>
      </trkpt>
      <trkpt lat="46.52753" lon="5.64064">
        <ele>517.2</ele>
        <time>2022-08-03T05:16:02Z</time>
      </trkpt>
      <trkpt lat="46.52761" lon="5.64084">
        <ele>516.4</ele>
        <time>2022-08-03T05:16:04Z</time>
      </trkpt>
      <trkpt lat="46.52774" lon="5.64124">
        <ele>515.8</ele>
        <time>2022-08-03T05:16:08Z</time>
      </trkpt>
      <trkpt lat="46.5278" lon="5.64154">
        <ele>515.4</ele>
        <time>2022-08-03T05:16:11Z</time>
      </trkpt>
      <trkpt lat="46.52783" lon="5.64176">
        <ele>515.4</ele>
        <time>2022-08-03T05:16:13Z</time>
      </trkpt>
      <trkpt lat="46.52785" lon="5.64238">
        <ele>515.4</ele>
        <time>2022-08-03T05:16:19Z</time>
      </trkpt>
      <trkpt lat="46.52781" lon="5.64321">
        <ele>515.6</ele>
        <time>2022-08-03T05:16:27Z</time>
      </trkpt>
      <trkpt lat="46.5278" lon="5.64331">
        <ele>515.4</ele>
        <time>2022-08-03T05:16:28Z</time>
      </trkpt>
      <trkpt lat="46.52773" lon="5.64417">
        <ele>515</ele>
        <time>2022-08-03T05:16:36Z</time>
      </trkpt>
      <trkpt lat="46.52772" lon="5.64428">
        <ele>514.8</ele>
        <time>2022-08-03T05:16:37Z</time>
      </trkpt>
      <trkpt lat="46.52766" lon="5.64507">
        <ele>514.2</ele>
        <time>2022-08-03T05:16:44Z</time>
      </trkpt>
      <trkpt lat="46.52762" lon="5.64565">
        <ele>513.4</ele>
        <time>2022-08-03T05:16:49Z</time>
      </trkpt>
      <trkpt lat="46.52761" lon="5.64577">
        <ele>513.2</ele>
        <time>2022-08-03T05:16:50Z</time>
      </trkpt>
      <trkpt lat="46.52754" lon="5.64661">
        <ele>512.2</ele>
        <time>2022-08-03T05:16:57Z</time>
      </trkpt>
      <trkpt lat="46.52752" lon="5.64686">
        <ele>511.6</ele>
        <time>2022-08-03T05:16:59Z</time>
      </trkpt>
      <trkpt lat="46.52749" lon="5.64724">
        <ele>511</ele>
        <time>2022-08-03T05:17:02Z</time>
      </trkpt>
      <trkpt lat="46.52745" lon="5.64776">
        <ele>509.6</ele>
        <time>2022-08-03T05:17:06Z</time>
      </trkpt>
      <trkpt lat="46.52742" lon="5.64817">
        <ele>508.4</ele>
        <time>2022-08-03T05:17:09Z</time>
      </trkpt>
      <trkpt lat="46.52741" lon="5.6483">
        <ele>508.2</ele>
        <time>2022-08-03T05:17:10Z</time>
      </trkpt>
      <trkpt lat="46.52737" lon="5.64872">
        <ele>507.2</ele>
        <time>2022-08-03T05:17:13Z</time>
      </trkpt>
      <trkpt lat="46.52734" lon="5.64912">
        <ele>506</ele>
        <time>2022-08-03T05:17:16Z</time>
      </trkpt>
      <trkpt lat="46.52731" lon="5.64955">
        <ele>504.8</ele>
        <time>2022-08-03T05:17:19Z</time>
      </trkpt>
      <trkpt lat="46.52729" lon="5.64972">
        <ele>504.2</ele>
        <time>2022-08-03T05:17:20Z</time>
      </trkpt>
      <trkpt lat="46.52729" lon="5.64983">
        <ele>503.8</ele>
        <time>2022-08-03T05:17:21Z</time>
      </trkpt>
      <trkpt lat="46.52726" lon="5.65015">
        <ele>502.4</ele>
        <time>2022-08-03T05:17:23Z</time>
      </trkpt>
      <trkpt lat="46.52723" lon="5.65058">
        <ele>501.2</ele>
        <time>2022-08-03T05:17:26Z</time>
      </trkpt>
      <trkpt lat="46.52721" lon="5.65087">
        <ele>500</ele>
        <time>2022-08-03T05:17:28Z</time>
      </trkpt>
      <trkpt lat="46.52717" lon="5.65129">
        <ele>498.6</ele>
        <time>2022-08-03T05:17:31Z</time>
      </trkpt>
      <trkpt lat="46.52715" lon="5.65161">
        <ele>498</ele>
        <time>2022-08-03T05:17:33Z</time>
      </trkpt>
      <trkpt lat="46.52714" lon="5.65173">
        <ele>497.2</ele>
        <time>2022-08-03T05:17:34Z</time>
      </trkpt>
      <trkpt lat="46.52711" lon="5.65221">
        <ele>495.8</ele>
        <time>2022-08-03T05:17:37Z</time>
      </trkpt>
      <trkpt lat="46.52709" lon="5.65249">
        <ele>494.8</ele>
        <time>2022-08-03T05:17:39Z</time>
      </trkpt>
      <trkpt lat="46.52705" lon="5.65294">
        <ele>493.2</ele>
        <time>2022-08-03T05:17:42Z</time>
      </trkpt>
      <trkpt lat="46.52703" lon="5.65325">
        <ele>492.2</ele>
        <time>2022-08-03T05:17:44Z</time>
      </trkpt>
      <trkpt lat="46.52699" lon="5.65372">
        <ele>491</ele>
        <time>2022-08-03T05:17:47Z</time>
      </trkpt>
      <trkpt lat="46.52696" lon="5.65403">
        <ele>489.8</ele>
        <time>2022-08-03T05:17:49Z</time>
      </trkpt>
      <trkpt lat="46.52695" lon="5.65422">
        <ele>488.8</ele>
        <time>2022-08-03T05:17:50Z</time>
      </trkpt>
      <trkpt lat="46.52693" lon="5.65453">
        <ele>488</ele>
        <time>2022-08-03T05:17:52Z</time>
      </trkpt>
      <trkpt lat="46.52692" lon="5.65465">
        <ele>487.4</ele>
        <time>2022-08-03T05:17:53Z</time>
      </trkpt>
      <trkpt lat="46.52687" lon="5.65516">
        <ele>486.2</ele>
        <time>2022-08-03T05:17:56Z</time>
      </trkpt>
      <trkpt lat="46.52684" lon="5.65548">
        <ele>484.8</ele>
        <time>2022-08-03T05:17:58Z</time>
      </trkpt>
      <trkpt lat="46.52679" lon="5.65595">
        <ele>483.6</ele>
        <time>2022-08-03T05:18:01Z</time>
      </trkpt>
      <trkpt lat="46.52673" lon="5.65639">
        <ele>481.8</ele>
        <time>2022-08-03T05:18:04Z</time>
      </trkpt>
      <trkpt lat="46.52664" lon="5.65684">
        <ele>480.8</ele>
        <time>2022-08-03T05:18:07Z</time>
      </trkpt>
      <trkpt lat="46.52649" lon="5.65742">
        <ele>479.4</ele>
        <time>2022-08-03T05:18:11Z</time>
      </trkpt>
      <trkpt lat="46.52645" lon="5.65756">
        <ele>479.2</ele>
        <time>2022-08-03T05:18:12Z</time>
      </trkpt>
      <trkpt lat="46.52635" lon="5.65783">
        <ele>478.8</ele>
        <time>2022-08-03T05:18:14Z</time>
      </trkpt>
      <trkpt lat="46.52625" lon="5.6581">
        <ele>478.4</ele>
        <time>2022-08-03T05:18:16Z</time>
      </trkpt>
      <trkpt lat="46.52603" lon="5.65861">
        <ele>477.2</ele>
        <time>2022-08-03T05:18:20Z</time>
      </trkpt>
      <trkpt lat="46.52598" lon="5.65874">
        <ele>477</ele>
        <time>2022-08-03T05:18:21Z</time>
      </trkpt>
      <trkpt lat="46.52575" lon="5.65922">
        <ele>475.8</ele>
        <time>2022-08-03T05:18:25Z</time>
      </trkpt>
      <trkpt lat="46.52539" lon="5.65995">
        <ele>474.6</ele>
        <time>2022-08-03T05:18:31Z</time>
      </trkpt>
      <trkpt lat="46.52534" lon="5.66007">
        <ele>474.4</ele>
        <time>2022-08-03T05:18:32Z</time>
      </trkpt>
      <trkpt lat="46.525" lon="5.66077">
        <ele>473.8</ele>
        <time>2022-08-03T05:18:38Z</time>
      </trkpt>
      <trkpt lat="46.52496" lon="5.66086">
        <ele>473.4</ele>
        <time>2022-08-03T05:18:39Z</time>
      </trkpt>
      <trkpt lat="46.52484" lon="5.66112">
        <ele>473.2</ele>
        <time>2022-08-03T05:18:41Z</time>
      </trkpt>
      <trkpt lat="46.52453" lon="5.66182">
        <ele>472.2</ele>
        <time>2022-08-03T05:18:47Z</time>
      </trkpt>
      <trkpt lat="46.52439" lon="5.66213">
        <ele>471.8</ele>
        <time>2022-08-03T05:18:50Z</time>
      </trkpt>
      <trkpt lat="46.52424" lon="5.66248">
        <ele>471.2</ele>
        <time>2022-08-03T05:18:53Z</time>
      </trkpt>
      <trkpt lat="46.524" lon="5.66301">
        <ele>470.4</ele>
        <time>2022-08-03T05:18:58Z</time>
      </trkpt>
      <trkpt lat="46.52388" lon="5.66325">
        <ele>470</ele>
        <time>2022-08-03T05:19:00Z</time>
      </trkpt>
      <trkpt lat="46.52355" lon="5.6639">
        <ele>469</ele>
        <time>2022-08-03T05:19:06Z</time>
      </trkpt>
      <trkpt lat="46.5235" lon="5.66398">
        <ele>468.8</ele>
        <time>2022-08-03T05:19:07Z</time>
      </trkpt>
      <trkpt lat="46.52322" lon="5.66441">
        <ele>467.8</ele>
        <time>2022-08-03T05:19:11Z</time>
      </trkpt>
      <trkpt lat="46.52306" lon="5.66463">
        <ele>466.8</ele>
        <time>2022-08-03T05:19:13Z</time>
      </trkpt>
      <trkpt lat="46.52298" lon="5.66474">
        <ele>466</ele>
        <time>2022-08-03T05:19:14Z</time>
      </trkpt>
      <trkpt lat="46.52279" lon="5.66499">
        <ele>464.8</ele>
        <time>2022-08-03T05:19:16Z</time>
      </trkpt>
      <trkpt lat="46.52261" lon="5.66522">
        <ele>463.8</ele>
        <time>2022-08-03T05:19:18Z</time>
      </trkpt>
      <trkpt lat="46.52244" lon="5.66544">
        <ele>461.6</ele>
        <time>2022-08-03T05:19:20Z</time>
      </trkpt>
      <trkpt lat="46.52233" lon="5.66558">
        <ele>460.6</ele>
        <time>2022-08-03T05:19:21Z</time>
      </trkpt>
      <trkpt lat="46.52217" lon="5.66578">
        <ele>458.6</ele>
        <time>2022-08-03T05:19:23Z</time>
      </trkpt>
      <trkpt lat="46.52199" lon="5.66601">
        <ele>456.8</ele>
        <time>2022-08-03T05:19:25Z</time>
      </trkpt>
      <trkpt lat="46.52179" lon="5.66625">
        <ele>455.6</ele>
        <time>2022-08-03T05:19:27Z</time>
      </trkpt>
      <trkpt lat="46.52173" lon="5.66634">
        <ele>455</ele>
        <time>2022-08-03T05:19:28Z</time>
      </trkpt>
      <trkpt lat="46.52128" lon="5.66691">
        <ele>454.6</ele>
        <time>2022-08-03T05:19:34Z</time>
      </trkpt>
      <trkpt lat="46.5209" lon="5.66737">
        <ele>456.2</ele>
        <time>2022-08-03T05:19:40Z</time>
      </trkpt>
      <trkpt lat="46.52084" lon="5.66744">
        <ele>456.8</ele>
        <time>2022-08-03T05:19:41Z</time>
      </trkpt>
      <trkpt lat="46.52066" lon="5.66764">
        <ele>458</ele>
        <time>2022-08-03T05:19:44Z</time>
      </trkpt>
      <trkpt lat="46.52044" lon="5.66792">
        <ele>459</ele>
        <time>2022-08-03T05:19:48Z</time>
      </trkpt>
      <trkpt lat="46.52014" lon="5.66839">
        <ele>460.2</ele>
        <time>2022-08-03T05:19:54Z</time>
      </trkpt>
      <trkpt lat="46.51993" lon="5.66897">
        <ele>460.8</ele>
        <time>2022-08-03T05:20:00Z</time>
      </trkpt>
      <trkpt lat="46.51986" lon="5.66931">
        <ele>460.8</ele>
        <time>2022-08-03T05:20:03Z</time>
      </trkpt>
      <trkpt lat="46.51982" lon="5.66955">
        <ele>460.4</ele>
        <time>2022-08-03T05:20:05Z</time>
      </trkpt>
      <trkpt lat="46.5197" lon="5.67023">
        <ele>459</ele>
        <time>2022-08-03T05:20:10Z</time>
      </trkpt>
      <trkpt lat="46.51962" lon="5.67051">
        <ele>457.8</ele>
        <time>2022-08-03T05:20:12Z</time>
      </trkpt>
      <trkpt lat="46.5195" lon="5.67078">
        <ele>455.6</ele>
        <time>2022-08-03T05:20:14Z</time>
      </trkpt>
      <trkpt lat="46.51943" lon="5.6709">
        <ele>455.2</ele>
        <time>2022-08-03T05:20:15Z</time>
      </trkpt>
      <trkpt lat="46.51936" lon="5.67101">
        <ele>454.2</ele>
        <time>2022-08-03T05:20:16Z</time>
      </trkpt>
      <trkpt lat="46.51928" lon="5.67112">
        <ele>453.8</ele>
        <time>2022-08-03T05:20:17Z</time>
      </trkpt>
      <trkpt lat="46.51919" lon="5.67122">
        <ele>453</ele>
        <time>2022-08-03T05:20:18Z</time>
      </trkpt>
      <trkpt lat="46.5191" lon="5.67132">
        <ele>451.8</ele>
        <time>2022-08-03T05:20:19Z</time>
      </trkpt>
      <trkpt lat="46.51891" lon="5.67153">
        <ele>450</ele>
        <time>2022-08-03T05:20:21Z</time>
      </trkpt>
      <trkpt lat="46.51881" lon="5.67162">
        <ele>449.4</ele>
        <time>2022-08-03T05:20:22Z</time>
      </trkpt>
      <trkpt lat="46.51871" lon="5.67172">
        <ele>448.8</ele>
        <time>2022-08-03T05:20:23Z</time>
      </trkpt>
      <trkpt lat="46.51852" lon="5.67193">
        <ele>447.2</ele>
        <time>2022-08-03T05:20:25Z</time>
      </trkpt>
      <trkpt lat="46.51833" lon="5.67213">
        <ele>445.8</ele>
        <time>2022-08-03T05:20:27Z</time>
      </trkpt>
      <trkpt lat="46.51814" lon="5.67231">
        <ele>445.2</ele>
        <time>2022-08-03T05:20:29Z</time>
      </trkpt>
      <trkpt lat="46.51771" lon="5.67271">
        <ele>445</ele>
        <time>2022-08-03T05:20:34Z</time>
      </trkpt>
      <trkpt lat="46.51729" lon="5.67302">
        <ele>445.8</ele>
        <time>2022-08-03T05:20:39Z</time>
      </trkpt>
      <trkpt lat="46.51691" lon="5.67326">
        <ele>446.6</ele>
        <time>2022-08-03T05:20:44Z</time>
      </trkpt>
      <trkpt lat="46.51677" lon="5.67338">
        <ele>446.6</ele>
        <time>2022-08-03T05:20:46Z</time>
      </trkpt>
      <trkpt lat="46.51671" lon="5.67346">
        <ele>446.8</ele>
        <time>2022-08-03T05:20:47Z</time>
      </trkpt>
      <trkpt lat="46.51665" lon="5.67355">
        <ele>447</ele>
        <time>2022-08-03T05:20:48Z</time>
      </trkpt>
      <trkpt lat="46.51643" lon="5.67401">
        <ele>447.4</ele>
        <time>2022-08-03T05:20:53Z</time>
      </trkpt>
      <trkpt lat="46.51627" lon="5.67439">
        <ele>447.8</ele>
        <time>2022-08-03T05:20:57Z</time>
      </trkpt>
      <trkpt lat="46.51608" lon="5.67485">
        <ele>448.4</ele>
        <time>2022-08-03T05:21:02Z</time>
      </trkpt>
      <trkpt lat="46.516" lon="5.67504">
        <ele>448.8</ele>
        <time>2022-08-03T05:21:04Z</time>
      </trkpt>
      <trkpt lat="46.51569" lon="5.67575">
        <ele>449.6</ele>
        <time>2022-08-03T05:21:12Z</time>
      </trkpt>
      <trkpt lat="46.51539" lon="5.67645">
        <ele>450.2</ele>
        <time>2022-08-03T05:21:20Z</time>
      </trkpt>
      <trkpt lat="46.51532" lon="5.67662">
        <ele>450.2</ele>
        <time>2022-08-03T05:21:22Z</time>
      </trkpt>
      <trkpt lat="46.51528" lon="5.67671">
        <ele>450.4</ele>
        <time>2022-08-03T05:21:23Z</time>
      </trkpt>
      <trkpt lat="46.51499" lon="5.67738">
        <ele>451.2</ele>
        <time>2022-08-03T05:21:31Z</time>
      </trkpt>
      <trkpt lat="46.51496" lon="5.67745">
        <ele>451.2</ele>
        <time>2022-08-03T05:21:32Z</time>
      </trkpt>
      <trkpt lat="46.51466" lon="5.67813">
        <ele>451.6</ele>
        <time>2022-08-03T05:21:40Z</time>
      </trkpt>
      <trkpt lat="46.5146" lon="5.67828">
        <ele>451.8</ele>
        <time>2022-08-03T05:21:42Z</time>
      </trkpt>
      <trkpt lat="46.51456" lon="5.67835">
        <ele>451.8</ele>
        <time>2022-08-03T05:21:43Z</time>
      </trkpt>
      <trkpt lat="46.51433" lon="5.67893">
        <ele>452.4</ele>
        <time>2022-08-03T05:21:50Z</time>
      </trkpt>
      <trkpt lat="46.51417" lon="5.67953">
        <ele>452.8</ele>
        <time>2022-08-03T05:21:57Z</time>
      </trkpt>
      <trkpt lat="46.51416" lon="5.6796">
        <ele>452.8</ele>
        <time>2022-08-03T05:21:58Z</time>
      </trkpt>
      <trkpt lat="46.51405" lon="5.68022">
        <ele>453</ele>
        <time>2022-08-03T05:22:05Z</time>
      </trkpt>
      <trkpt lat="46.51401" lon="5.68052">
        <ele>453.2</ele>
        <time>2022-08-03T05:22:08Z</time>
      </trkpt>
      <trkpt lat="46.51395" lon="5.68065">
        <ele>453.2</ele>
        <time>2022-08-03T05:22:10Z</time>
      </trkpt>
      <trkpt lat="46.51383" lon="5.6807">
        <ele>453.2</ele>
        <time>2022-08-03T05:22:12Z</time>
      </trkpt>
      <trkpt lat="46.51365" lon="5.68074">
        <ele>453.4</ele>
        <time>2022-08-03T05:22:15Z</time>
      </trkpt>
      <trkpt lat="46.51353" lon="5.68081">
        <ele>453.4</ele>
        <time>2022-08-03T05:22:17Z</time>
      </trkpt>
      <trkpt lat="46.51344" lon="5.68093">
        <ele>453.4</ele>
        <time>2022-08-03T05:22:19Z</time>
      </trkpt>
      <trkpt lat="46.51336" lon="5.68111">
        <ele>453.4</ele>
        <time>2022-08-03T05:22:21Z</time>
      </trkpt>
      <trkpt lat="46.51328" lon="5.68156">
        <ele>452.8</ele>
        <time>2022-08-03T05:22:25Z</time>
      </trkpt>
      <trkpt lat="46.51322" lon="5.68203">
        <ele>451.4</ele>
        <time>2022-08-03T05:22:29Z</time>
      </trkpt>
      <trkpt lat="46.51317" lon="5.68246">
        <ele>454</ele>
        <time>2022-08-03T05:22:33Z</time>
      </trkpt>
      <trkpt lat="46.5131" lon="5.68308">
        <ele>451</ele>
        <time>2022-08-03T05:22:39Z</time>
      </trkpt>
      <trkpt lat="46.51302" lon="5.6838">
        <ele>452.4</ele>
        <time>2022-08-03T05:22:47Z</time>
      </trkpt>
      <trkpt lat="46.51302" lon="5.68389">
        <ele>452.6</ele>
        <time>2022-08-03T05:22:48Z</time>
      </trkpt>
      <trkpt lat="46.51298" lon="5.68419">
        <ele>453</ele>
        <time>2022-08-03T05:22:52Z</time>
      </trkpt>
      <trkpt lat="46.51297" lon="5.68425">
        <ele>453.4</ele>
        <time>2022-08-03T05:22:53Z</time>
      </trkpt>
      <trkpt lat="46.51296" lon="5.68437">
        <ele>453.6</ele>
        <time>2022-08-03T05:22:55Z</time>
      </trkpt>
      <trkpt lat="46.51294" lon="5.68455">
        <ele>454.8</ele>
        <time>2022-08-03T05:22:58Z</time>
      </trkpt>
      <trkpt lat="46.51293" lon="5.68461">
        <ele>454.8</ele>
        <time>2022-08-03T05:22:59Z</time>
      </trkpt>
      <trkpt lat="46.51292" lon="5.68467">
        <ele>455.8</ele>
        <time>2022-08-03T05:23:00Z</time>
      </trkpt>
      <trkpt lat="46.5129" lon="5.68485">
        <ele>457</ele>
        <time>2022-08-03T05:23:03Z</time>
      </trkpt>
      <trkpt lat="46.51286" lon="5.68507">
        <ele>458</ele>
        <time>2022-08-03T05:23:07Z</time>
      </trkpt>
      <trkpt lat="46.51283" lon="5.68524">
        <ele>458.8</ele>
        <time>2022-08-03T05:23:10Z</time>
      </trkpt>
      <trkpt lat="46.51282" lon="5.68535">
        <ele>459.2</ele>
        <time>2022-08-03T05:23:12Z</time>
      </trkpt>
      <trkpt lat="46.51281" lon="5.68556">
        <ele>460.2</ele>
        <time>2022-08-03T05:23:16Z</time>
      </trkpt>
      <trkpt lat="46.5128" lon="5.68566">
        <ele>460.6</ele>
        <time>2022-08-03T05:23:18Z</time>
      </trkpt>
      <trkpt lat="46.51279" lon="5.68576">
        <ele>461.4</ele>
        <time>2022-08-03T05:23:20Z</time>
      </trkpt>
      <trkpt lat="46.51277" lon="5.6859">
        <ele>462.4</ele>
        <time>2022-08-03T05:23:23Z</time>
      </trkpt>
      <trkpt lat="46.51274" lon="5.68602">
        <ele>463</ele>
        <time>2022-08-03T05:23:25Z</time>
      </trkpt>
      <trkpt lat="46.51271" lon="5.68612">
        <ele>463.4</ele>
        <time>2022-08-03T05:23:27Z</time>
      </trkpt>
      <trkpt lat="46.51266" lon="5.68635">
        <ele>464.6</ele>
        <time>2022-08-03T05:23:32Z</time>
      </trkpt>
      <trkpt lat="46.51262" lon="5.6865">
        <ele>465.2</ele>
        <time>2022-08-03T05:23:35Z</time>
      </trkpt>
      <trkpt lat="46.5126" lon="5.6866">
        <ele>465.8</ele>
        <time>2022-08-03T05:23:37Z</time>
      </trkpt>
      <trkpt lat="46.5125" lon="5.68698">
        <ele>466.8</ele>
        <time>2022-08-03T05:23:44Z</time>
      </trkpt>
      <trkpt lat="46.51249" lon="5.68704">
        <ele>467</ele>
        <time>2022-08-03T05:23:45Z</time>
      </trkpt>
      <trkpt lat="46.51245" lon="5.68727">
        <ele>468</ele>
        <time>2022-08-03T05:23:49Z</time>
      </trkpt>
      <trkpt lat="46.51237" lon="5.68779">
        <ele>468.4</ele>
        <time>2022-08-03T05:23:57Z</time>
      </trkpt>
      <trkpt lat="46.51225" lon="5.68845">
        <ele>469</ele>
        <time>2022-08-03T05:24:07Z</time>
      </trkpt>
      <trkpt lat="46.51222" lon="5.6886">
        <ele>469</ele>
        <time>2022-08-03T05:24:09Z</time>
      </trkpt>
      <trkpt lat="46.5121" lon="5.689">
        <ele>469.4</ele>
        <time>2022-08-03T05:24:15Z</time>
      </trkpt>
      <trkpt lat="46.51203" lon="5.68911">
        <ele>469.6</ele>
        <time>2022-08-03T05:24:17Z</time>
      </trkpt>
      <trkpt lat="46.51193" lon="5.68921">
        <ele>469.6</ele>
        <time>2022-08-03T05:24:19Z</time>
      </trkpt>
      <trkpt lat="46.51183" lon="5.68925">
        <ele>469.8</ele>
        <time>2022-08-03T05:24:21Z</time>
      </trkpt>
      <trkpt lat="46.51178" lon="5.68924">
        <ele>469.8</ele>
        <time>2022-08-03T05:24:22Z</time>
      </trkpt>
      <trkpt lat="46.51172" lon="5.68923">
        <ele>469.8</ele>
        <time>2022-08-03T05:24:23Z</time>
      </trkpt>
      <trkpt lat="46.51168" lon="5.68922">
        <ele>470</ele>
        <time>2022-08-03T05:24:24Z</time>
      </trkpt>
      <trkpt lat="46.51158" lon="5.68919">
        <ele>470.4</ele>
        <time>2022-08-03T05:24:26Z</time>
      </trkpt>
      <trkpt lat="46.51145" lon="5.68916">
        <ele>471</ele>
        <time>2022-08-03T05:24:29Z</time>
      </trkpt>
      <trkpt lat="46.5114" lon="5.68915">
        <ele>471.2</ele>
        <time>2022-08-03T05:24:30Z</time>
      </trkpt>
      <trkpt lat="46.51133" lon="5.68915">
        <ele>471.2</ele>
        <time>2022-08-03T05:24:31Z</time>
      </trkpt>
      <trkpt lat="46.51128" lon="5.68916">
        <ele>471.4</ele>
        <time>2022-08-03T05:24:32Z</time>
      </trkpt>
      <trkpt lat="46.51122" lon="5.68919">
        <ele>471.4</ele>
        <time>2022-08-03T05:24:33Z</time>
      </trkpt>
      <trkpt lat="46.51105" lon="5.68931">
        <ele>471.6</ele>
        <time>2022-08-03T05:24:36Z</time>
      </trkpt>
      <trkpt lat="46.51051" lon="5.68972">
        <ele>471</ele>
        <time>2022-08-03T05:24:45Z</time>
      </trkpt>
      <trkpt lat="46.5102" lon="5.68986">
        <ele>470.6</ele>
        <time>2022-08-03T05:24:49Z</time>
      </trkpt>
      <trkpt lat="46.50986" lon="5.68998">
        <ele>470</ele>
        <time>2022-08-03T05:24:53Z</time>
      </trkpt>
      <trkpt lat="46.50977" lon="5.69003">
        <ele>469.6</ele>
        <time>2022-08-03T05:24:54Z</time>
      </trkpt>
      <trkpt lat="46.50958" lon="5.69016">
        <ele>468.2</ele>
        <time>2022-08-03T05:24:56Z</time>
      </trkpt>
      <trkpt lat="46.5094" lon="5.69029">
        <ele>466.8</ele>
        <time>2022-08-03T05:24:58Z</time>
      </trkpt>
      <trkpt lat="46.50923" lon="5.69043">
        <ele>465.4</ele>
        <time>2022-08-03T05:25:00Z</time>
      </trkpt>
      <trkpt lat="46.50906" lon="5.69056">
        <ele>464.4</ele>
        <time>2022-08-03T05:25:02Z</time>
      </trkpt>
      <trkpt lat="46.50897" lon="5.69063">
        <ele>463.2</ele>
        <time>2022-08-03T05:25:03Z</time>
      </trkpt>
      <trkpt lat="46.50882" lon="5.69076">
        <ele>462.2</ele>
        <time>2022-08-03T05:25:05Z</time>
      </trkpt>
      <trkpt lat="46.50874" lon="5.69083">
        <ele>462</ele>
        <time>2022-08-03T05:25:06Z</time>
      </trkpt>
      <trkpt lat="46.50829" lon="5.69123">
        <ele>461.2</ele>
        <time>2022-08-03T05:25:12Z</time>
      </trkpt>
      <trkpt lat="46.50822" lon="5.69128">
        <ele>461.2</ele>
        <time>2022-08-03T05:25:13Z</time>
      </trkpt>
      <trkpt lat="46.50791" lon="5.69153">
        <ele>462</ele>
        <time>2022-08-03T05:25:18Z</time>
      </trkpt>
      <trkpt lat="46.50779" lon="5.69163">
        <ele>462.4</ele>
        <time>2022-08-03T05:25:20Z</time>
      </trkpt>
      <trkpt lat="46.5076" lon="5.69174">
        <ele>463</ele>
        <time>2022-08-03T05:25:23Z</time>
      </trkpt>
      <trkpt lat="46.5073" lon="5.69188">
        <ele>463.2</ele>
        <time>2022-08-03T05:25:28Z</time>
      </trkpt>
      <trkpt lat="46.50705" lon="5.692">
        <ele>464</ele>
        <time>2022-08-03T05:25:32Z</time>
      </trkpt>
      <trkpt lat="46.50688" lon="5.69212">
        <ele>464.4</ele>
        <time>2022-08-03T05:25:35Z</time>
      </trkpt>
      <trkpt lat="46.50659" lon="5.69231">
        <ele>464.6</ele>
        <time>2022-08-03T05:25:40Z</time>
      </trkpt>
      <trkpt lat="46.50612" lon="5.69254">
        <ele>465</ele>
        <time>2022-08-03T05:25:48Z</time>
      </trkpt>
      <trkpt lat="46.50582" lon="5.69266">
        <ele>465.4</ele>
        <time>2022-08-03T05:25:53Z</time>
      </trkpt>
      <trkpt lat="46.50567" lon="5.69276">
        <ele>465.8</ele>
        <time>2022-08-03T05:25:56Z</time>
      </trkpt>
      <trkpt lat="46.5055" lon="5.69287">
        <ele>466</ele>
        <time>2022-08-03T05:25:59Z</time>
      </trkpt>
      <trkpt lat="46.50533" lon="5.69301">
        <ele>466.2</ele>
        <time>2022-08-03T05:26:02Z</time>
      </trkpt>
      <trkpt lat="46.50502" lon="5.69328">
        <ele>466</ele>
        <time>2022-08-03T05:26:07Z</time>
      </trkpt>
      <trkpt lat="46.50486" lon="5.69335">
        <ele>465.8</ele>
        <time>2022-08-03T05:26:09Z</time>
      </trkpt>
      <trkpt lat="46.5047" lon="5.69339">
        <ele>465.2</ele>
        <time>2022-08-03T05:26:11Z</time>
      </trkpt>
      <trkpt lat="46.50463" lon="5.69339">
        <ele>464.8</ele>
        <time>2022-08-03T05:26:12Z</time>
      </trkpt>
      <trkpt lat="46.50448" lon="5.69335">
        <ele>464</ele>
        <time>2022-08-03T05:26:14Z</time>
      </trkpt>
      <trkpt lat="46.50435" lon="5.69324">
        <ele>463.8</ele>
        <time>2022-08-03T05:26:16Z</time>
      </trkpt>
      <trkpt lat="46.5043" lon="5.69317">
        <ele>463.6</ele>
        <time>2022-08-03T05:26:17Z</time>
      </trkpt>
      <trkpt lat="46.50414" lon="5.69294">
        <ele>463.6</ele>
        <time>2022-08-03T05:26:20Z</time>
      </trkpt>
      <trkpt lat="46.504" lon="5.69283">
        <ele>463.6</ele>
        <time>2022-08-03T05:26:22Z</time>
      </trkpt>
      <trkpt lat="46.50368" lon="5.69272">
        <ele>463.4</ele>
        <time>2022-08-03T05:26:26Z</time>
      </trkpt>
      <trkpt lat="46.50361" lon="5.6927">
        <ele>463</ele>
        <time>2022-08-03T05:26:27Z</time>
      </trkpt>
      <trkpt lat="46.50344" lon="5.69255">
        <ele>462.6</ele>
        <time>2022-08-03T05:26:29Z</time>
      </trkpt>
      <trkpt lat="46.5034" lon="5.69242">
        <ele>461.6</ele>
        <time>2022-08-03T05:26:30Z</time>
      </trkpt>
      <trkpt lat="46.50338" lon="5.6923">
        <ele>461.2</ele>
        <time>2022-08-03T05:26:31Z</time>
      </trkpt>
      <trkpt lat="46.50335" lon="5.69214">
        <ele>460.6</ele>
        <time>2022-08-03T05:26:32Z</time>
      </trkpt>
      <trkpt lat="46.50331" lon="5.69196">
        <ele>459.6</ele>
        <time>2022-08-03T05:26:33Z</time>
      </trkpt>
      <trkpt lat="46.50326" lon="5.69181">
        <ele>459.4</ele>
        <time>2022-08-03T05:26:34Z</time>
      </trkpt>
      <trkpt lat="46.50321" lon="5.6917">
        <ele>458.4</ele>
        <time>2022-08-03T05:26:35Z</time>
      </trkpt>
      <trkpt lat="46.50305" lon="5.69147">
        <ele>457</ele>
        <time>2022-08-03T05:26:37Z</time>
      </trkpt>
      <trkpt lat="46.50296" lon="5.69139">
        <ele>456.6</ele>
        <time>2022-08-03T05:26:38Z</time>
      </trkpt>
      <trkpt lat="46.50287" lon="5.6913">
        <ele>455.6</ele>
        <time>2022-08-03T05:26:39Z</time>
      </trkpt>
      <trkpt lat="46.50269" lon="5.69112">
        <ele>454.2</ele>
        <time>2022-08-03T05:26:41Z</time>
      </trkpt>
      <trkpt lat="46.50244" lon="5.69085">
        <ele>453.2</ele>
        <time>2022-08-03T05:26:44Z</time>
      </trkpt>
      <trkpt lat="46.5023" lon="5.69069">
        <ele>452.6</ele>
        <time>2022-08-03T05:26:46Z</time>
      </trkpt>
      <trkpt lat="46.50203" lon="5.69032">
        <ele>452.2</ele>
        <time>2022-08-03T05:26:50Z</time>
      </trkpt>
      <trkpt lat="46.50197" lon="5.69024">
        <ele>452</ele>
        <time>2022-08-03T05:26:51Z</time>
      </trkpt>
      <trkpt lat="46.50177" lon="5.68993">
        <ele>452.6</ele>
        <time>2022-08-03T05:26:55Z</time>
      </trkpt>
      <trkpt lat="46.50172" lon="5.68984">
        <ele>453</ele>
        <time>2022-08-03T05:26:56Z</time>
      </trkpt>
      <trkpt lat="46.50163" lon="5.68969">
        <ele>454.4</ele>
        <time>2022-08-03T05:26:58Z</time>
      </trkpt>
      <trkpt lat="46.5015" lon="5.68946">
        <ele>455</ele>
        <time>2022-08-03T05:27:01Z</time>
      </trkpt>
      <trkpt lat="46.50146" lon="5.68938">
        <ele>455.4</ele>
        <time>2022-08-03T05:27:02Z</time>
      </trkpt>
      <trkpt lat="46.50122" lon="5.68888">
        <ele>455.8</ele>
        <time>2022-08-03T05:27:08Z</time>
      </trkpt>
      <trkpt lat="46.50116" lon="5.68869">
        <ele>455.8</ele>
        <time>2022-08-03T05:27:10Z</time>
      </trkpt>
      <trkpt lat="46.50112" lon="5.68846">
        <ele>455.8</ele>
        <time>2022-08-03T05:27:12Z</time>
      </trkpt>
      <trkpt lat="46.50115" lon="5.68824">
        <ele>455.8</ele>
        <time>2022-08-03T05:27:14Z</time>
      </trkpt>
      <trkpt lat="46.50118" lon="5.68815">
        <ele>455.8</ele>
        <time>2022-08-03T05:27:15Z</time>
      </trkpt>
      <trkpt lat="46.50126" lon="5.68797">
        <ele>455.6</ele>
        <time>2022-08-03T05:27:17Z</time>
      </trkpt>
      <trkpt lat="46.50131" lon="5.68778">
        <ele>455.6</ele>
        <time>2022-08-03T05:27:19Z</time>
      </trkpt>
      <trkpt lat="46.50131" lon="5.68768">
        <ele>455.6</ele>
        <time>2022-08-03T05:27:20Z</time>
      </trkpt>
      <trkpt lat="46.5013" lon="5.68758">
        <ele>455.8</ele>
        <time>2022-08-03T05:27:21Z</time>
      </trkpt>
      <trkpt lat="46.50121" lon="5.68728">
        <ele>455.6</ele>
        <time>2022-08-03T05:27:24Z</time>
      </trkpt>
      <trkpt lat="46.50095" lon="5.68658">
        <ele>454.6</ele>
        <time>2022-08-03T05:27:31Z</time>
      </trkpt>
      <trkpt lat="46.50089" lon="5.68646">
        <ele>454.4</ele>
        <time>2022-08-03T05:27:32Z</time>
      </trkpt>
      <trkpt lat="46.50083" lon="5.68637">
        <ele>454.2</ele>
        <time>2022-08-03T05:27:33Z</time>
      </trkpt>
      <trkpt lat="46.50062" lon="5.68608">
        <ele>453</ele>
        <time>2022-08-03T05:27:36Z</time>
      </trkpt>
      <trkpt lat="46.5004" lon="5.68579">
        <ele>451.8</ele>
        <time>2022-08-03T05:27:39Z</time>
      </trkpt>
      <trkpt lat="46.50025" lon="5.68557">
        <ele>450.4</ele>
        <time>2022-08-03T05:27:41Z</time>
      </trkpt>
      <trkpt lat="46.50017" lon="5.68546">
        <ele>449.4</ele>
        <time>2022-08-03T05:27:42Z</time>
      </trkpt>
      <trkpt lat="46.50009" lon="5.68534">
        <ele>449</ele>
        <time>2022-08-03T05:27:43Z</time>
      </trkpt>
      <trkpt lat="46.50002" lon="5.68524">
        <ele>447.8</ele>
        <time>2022-08-03T05:27:44Z</time>
      </trkpt>
      <trkpt lat="46.49987" lon="5.68504">
        <ele>446.4</ele>
        <time>2022-08-03T05:27:46Z</time>
      </trkpt>
      <trkpt lat="46.49979" lon="5.68496">
        <ele>446.2</ele>
        <time>2022-08-03T05:27:47Z</time>
      </trkpt>
      <trkpt lat="46.49951" lon="5.6847">
        <ele>445.8</ele>
        <time>2022-08-03T05:27:51Z</time>
      </trkpt>
      <trkpt lat="46.49943" lon="5.68463">
        <ele>445.8</ele>
        <time>2022-08-03T05:27:52Z</time>
      </trkpt>
      <trkpt lat="46.49922" lon="5.68452">
        <ele>446.6</ele>
        <time>2022-08-03T05:27:55Z</time>
      </trkpt>
      <trkpt lat="46.49903" lon="5.68445">
        <ele>447.2</ele>
        <time>2022-08-03T05:27:58Z</time>
      </trkpt>
      <trkpt lat="46.49886" lon="5.68442">
        <ele>448.2</ele>
        <time>2022-08-03T05:28:01Z</time>
      </trkpt>
      <trkpt lat="46.49881" lon="5.68441">
        <ele>449</ele>
        <time>2022-08-03T05:28:02Z</time>
      </trkpt>
      <trkpt lat="46.49867" lon="5.68438">
        <ele>450.6</ele>
        <time>2022-08-03T05:28:05Z</time>
      </trkpt>
      <trkpt lat="46.49854" lon="5.68434">
        <ele>451.4</ele>
        <time>2022-08-03T05:28:08Z</time>
      </trkpt>
      <trkpt lat="46.49849" lon="5.68434">
        <ele>451.6</ele>
        <time>2022-08-03T05:28:09Z</time>
      </trkpt>
      <trkpt lat="46.49845" lon="5.68433">
        <ele>451.8</ele>
        <time>2022-08-03T05:28:10Z</time>
      </trkpt>
      <trkpt lat="46.49841" lon="5.68432">
        <ele>452</ele>
        <time>2022-08-03T05:28:11Z</time>
      </trkpt>
      <trkpt lat="46.49837" lon="5.68431">
        <ele>452.4</ele>
        <time>2022-08-03T05:28:12Z</time>
      </trkpt>
      <trkpt lat="46.49829" lon="5.68428">
        <ele>453</ele>
        <time>2022-08-03T05:28:14Z</time>
      </trkpt>
      <trkpt lat="46.49818" lon="5.68426">
        <ele>454</ele>
        <time>2022-08-03T05:28:17Z</time>
      </trkpt>
      <trkpt lat="46.49814" lon="5.68426">
        <ele>454.6</ele>
        <time>2022-08-03T05:28:18Z</time>
      </trkpt>
      <trkpt lat="46.49804" lon="5.68425">
        <ele>455.8</ele>
        <time>2022-08-03T05:28:21Z</time>
      </trkpt>
      <trkpt lat="46.49792" lon="5.68425">
        <ele>456.6</ele>
        <time>2022-08-03T05:28:24Z</time>
      </trkpt>
      <trkpt lat="46.49788" lon="5.68426">
        <ele>457</ele>
        <time>2022-08-03T05:28:25Z</time>
      </trkpt>
      <trkpt lat="46.49779" lon="5.68425">
        <ele>458.4</ele>
        <time>2022-08-03T05:28:28Z</time>
      </trkpt>
      <trkpt lat="46.49766" lon="5.68424">
        <ele>459.4</ele>
        <time>2022-08-03T05:28:32Z</time>
      </trkpt>
      <trkpt lat="46.4976" lon="5.68422">
        <ele>459.8</ele>
        <time>2022-08-03T05:28:34Z</time>
      </trkpt>
      <trkpt lat="46.4975" lon="5.6842">
        <ele>460.6</ele>
        <time>2022-08-03T05:28:37Z</time>
      </trkpt>
      <trkpt lat="46.4974" lon="5.68418">
        <ele>461.4</ele>
        <time>2022-08-03T05:28:40Z</time>
      </trkpt>
      <trkpt lat="46.49732" lon="5.68416">
        <ele>462</ele>
        <time>2022-08-03T05:28:42Z</time>
      </trkpt>
      <trkpt lat="46.4972" lon="5.68415">
        <ele>462.8</ele>
        <time>2022-08-03T05:28:45Z</time>
      </trkpt>
      <trkpt lat="46.49715" lon="5.68415">
        <ele>463.2</ele>
        <time>2022-08-03T05:28:46Z</time>
      </trkpt>
      <trkpt lat="46.49698" lon="5.68419">
        <ele>464</ele>
        <time>2022-08-03T05:28:50Z</time>
      </trkpt>
      <trkpt lat="46.49694" lon="5.68421">
        <ele>464.2</ele>
        <time>2022-08-03T05:28:51Z</time>
      </trkpt>
      <trkpt lat="46.4967" lon="5.68433">
        <ele>465.2</ele>
        <time>2022-08-03T05:28:57Z</time>
      </trkpt>
      <trkpt lat="46.49658" lon="5.68443">
        <ele>465.4</ele>
        <time>2022-08-03T05:29:00Z</time>
      </trkpt>
      <trkpt lat="46.49636" lon="5.68459">
        <ele>465.4</ele>
        <time>2022-08-03T05:29:05Z</time>
      </trkpt>
      <trkpt lat="46.49612" lon="5.68478">
        <ele>465.4</ele>
        <time>2022-08-03T05:29:10Z</time>
      </trkpt>
      <trkpt lat="46.49602" lon="5.68485">
        <ele>465.2</ele>
        <time>2022-08-03T05:29:12Z</time>
      </trkpt>
      <trkpt lat="46.49565" lon="5.68515">
        <ele>465</ele>
        <time>2022-08-03T05:29:19Z</time>
      </trkpt>
      <trkpt lat="46.49524" lon="5.6855">
        <ele>464.6</ele>
        <time>2022-08-03T05:29:26Z</time>
      </trkpt>
      <trkpt lat="46.49483" lon="5.6858">
        <ele>464</ele>
        <time>2022-08-03T05:29:32Z</time>
      </trkpt>
      <trkpt lat="46.49432" lon="5.68608">
        <ele>463.2</ele>
        <time>2022-08-03T05:29:39Z</time>
      </trkpt>
      <trkpt lat="46.49424" lon="5.68612">
        <ele>463</ele>
        <time>2022-08-03T05:29:40Z</time>
      </trkpt>
      <trkpt lat="46.49383" lon="5.68644">
        <ele>462.2</ele>
        <time>2022-08-03T05:29:46Z</time>
      </trkpt>
      <trkpt lat="46.49348" lon="5.68672">
        <ele>462</ele>
        <time>2022-08-03T05:29:51Z</time>
      </trkpt>
      <trkpt lat="46.4934" lon="5.68676">
        <ele>462</ele>
        <time>2022-08-03T05:29:52Z</time>
      </trkpt>
      <trkpt lat="46.4931" lon="5.68692">
        <ele>461.8</ele>
        <time>2022-08-03T05:29:56Z</time>
      </trkpt>
      <trkpt lat="46.49294" lon="5.687">
        <ele>461.4</ele>
        <time>2022-08-03T05:29:58Z</time>
      </trkpt>
      <trkpt lat="46.49244" lon="5.68734">
        <ele>460.8</ele>
        <time>2022-08-03T05:30:05Z</time>
      </trkpt>
      <trkpt lat="46.4923" lon="5.68744">
        <ele>460.6</ele>
        <time>2022-08-03T05:30:07Z</time>
      </trkpt>
      <trkpt lat="46.49192" lon="5.68759">
        <ele>460.2</ele>
        <time>2022-08-03T05:30:12Z</time>
      </trkpt>
      <trkpt lat="46.49156" lon="5.68778">
        <ele>460.2</ele>
        <time>2022-08-03T05:30:17Z</time>
      </trkpt>
      <trkpt lat="46.49114" lon="5.68804">
        <ele>460</ele>
        <time>2022-08-03T05:30:23Z</time>
      </trkpt>
      <trkpt lat="46.49057" lon="5.68831">
        <ele>460.2</ele>
        <time>2022-08-03T05:30:31Z</time>
      </trkpt>
      <trkpt lat="46.49013" lon="5.68866">
        <ele>460.2</ele>
        <time>2022-08-03T05:30:38Z</time>
      </trkpt>
      <trkpt lat="46.48964" lon="5.68905">
        <ele>460</ele>
        <time>2022-08-03T05:30:46Z</time>
      </trkpt>
      <trkpt lat="46.48933" lon="5.68921">
        <ele>460.6</ele>
        <time>2022-08-03T05:30:51Z</time>
      </trkpt>
      <trkpt lat="46.48928" lon="5.68924">
        <ele>460.4</ele>
        <time>2022-08-03T05:30:52Z</time>
      </trkpt>
      <trkpt lat="46.48908" lon="5.68935">
        <ele>461</ele>
        <time>2022-08-03T05:30:55Z</time>
      </trkpt>
      <trkpt lat="46.4889" lon="5.68947">
        <ele>461.4</ele>
        <time>2022-08-03T05:30:58Z</time>
      </trkpt>
      <trkpt lat="46.48862" lon="5.68967">
        <ele>462.6</ele>
        <time>2022-08-03T05:31:03Z</time>
      </trkpt>
      <trkpt lat="46.48851" lon="5.68975">
        <ele>462.8</ele>
        <time>2022-08-03T05:31:05Z</time>
      </trkpt>
      <trkpt lat="46.4884" lon="5.68981">
        <ele>463.2</ele>
        <time>2022-08-03T05:31:07Z</time>
      </trkpt>
      <trkpt lat="46.48825" lon="5.6899">
        <ele>463.6</ele>
        <time>2022-08-03T05:31:10Z</time>
      </trkpt>
      <trkpt lat="46.4881" lon="5.69003">
        <ele>464.6</ele>
        <time>2022-08-03T05:31:13Z</time>
      </trkpt>
      <trkpt lat="46.48806" lon="5.69007">
        <ele>465</ele>
        <time>2022-08-03T05:31:14Z</time>
      </trkpt>
      <trkpt lat="46.48802" lon="5.69012">
        <ele>465</ele>
        <time>2022-08-03T05:31:15Z</time>
      </trkpt>
      <trkpt lat="46.48797" lon="5.69019">
        <ele>465</ele>
        <time>2022-08-03T05:31:16Z</time>
      </trkpt>
      <trkpt lat="46.48782" lon="5.69043">
        <ele>465.2</ele>
        <time>2022-08-03T05:31:20Z</time>
      </trkpt>
      <trkpt lat="46.48777" lon="5.69049">
        <ele>465.2</ele>
        <time>2022-08-03T05:31:21Z</time>
      </trkpt>
      <trkpt lat="46.48767" lon="5.69057">
        <ele>465.6</ele>
        <time>2022-08-03T05:31:23Z</time>
      </trkpt>
      <trkpt lat="46.48763" lon="5.69059">
        <ele>465.6</ele>
        <time>2022-08-03T05:31:24Z</time>
      </trkpt>
      <trkpt lat="46.48757" lon="5.69061">
        <ele>465.8</ele>
        <time>2022-08-03T05:31:25Z</time>
      </trkpt>
      <trkpt lat="46.48748" lon="5.69063">
        <ele>466.2</ele>
        <time>2022-08-03T05:31:27Z</time>
      </trkpt>
      <trkpt lat="46.48736" lon="5.69067">
        <ele>466.8</ele>
        <time>2022-08-03T05:31:30Z</time>
      </trkpt>
      <trkpt lat="46.48716" lon="5.69072">
        <ele>468.2</ele>
        <time>2022-08-03T05:31:35Z</time>
      </trkpt>
      <trkpt lat="46.48712" lon="5.69072">
        <ele>468.4</ele>
        <time>2022-08-03T05:31:36Z</time>
      </trkpt>
      <trkpt lat="46.48701" lon="5.69072">
        <ele>469.2</ele>
        <time>2022-08-03T05:31:39Z</time>
      </trkpt>
      <trkpt lat="46.48687" lon="5.69073">
        <ele>470.4</ele>
        <time>2022-08-03T05:31:43Z</time>
      </trkpt>
      <trkpt lat="46.48671" lon="5.69076">
        <ele>471.4</ele>
        <time>2022-08-03T05:31:47Z</time>
      </trkpt>
      <trkpt lat="46.48639" lon="5.69072">
        <ele>472.2</ele>
        <time>2022-08-03T05:31:53Z</time>
      </trkpt>
      <trkpt lat="46.48604" lon="5.69058">
        <ele>472.2</ele>
        <time>2022-08-03T05:31:59Z</time>
      </trkpt>
      <trkpt lat="46.48592" lon="5.69054">
        <ele>472</ele>
        <time>2022-08-03T05:32:01Z</time>
      </trkpt>
      <trkpt lat="46.48569" lon="5.6905">
        <ele>472</ele>
        <time>2022-08-03T05:32:05Z</time>
      </trkpt>
      <trkpt lat="46.48542" lon="5.69047">
        <ele>472.4</ele>
        <time>2022-08-03T05:32:10Z</time>
      </trkpt>
      <trkpt lat="46.48537" lon="5.69046">
        <ele>472.4</ele>
        <time>2022-08-03T05:32:11Z</time>
      </trkpt>
      <trkpt lat="46.48532" lon="5.69045">
        <ele>472.6</ele>
        <time>2022-08-03T05:32:12Z</time>
      </trkpt>
      <trkpt lat="46.48514" lon="5.69047">
        <ele>473</ele>
        <time>2022-08-03T05:32:16Z</time>
      </trkpt>
      <trkpt lat="46.48501" lon="5.69054">
        <ele>473.4</ele>
        <time>2022-08-03T05:32:19Z</time>
      </trkpt>
      <trkpt lat="46.48488" lon="5.69065">
        <ele>473.8</ele>
        <time>2022-08-03T05:32:22Z</time>
      </trkpt>
      <trkpt lat="46.48485" lon="5.69068">
        <ele>474</ele>
        <time>2022-08-03T05:32:23Z</time>
      </trkpt>
      <trkpt lat="46.48477" lon="5.69076">
        <ele>474.2</ele>
        <time>2022-08-03T05:32:25Z</time>
      </trkpt>
      <trkpt lat="46.4847" lon="5.69083">
        <ele>474.4</ele>
        <time>2022-08-03T05:32:27Z</time>
      </trkpt>
      <trkpt lat="46.48463" lon="5.69087">
        <ele>475</ele>
        <time>2022-08-03T05:32:29Z</time>
      </trkpt>
      <trkpt lat="46.48455" lon="5.69089">
        <ele>475.6</ele>
        <time>2022-08-03T05:32:31Z</time>
      </trkpt>
      <trkpt lat="46.48441" lon="5.6909">
        <ele>476.8</ele>
        <time>2022-08-03T05:32:35Z</time>
      </trkpt>
      <trkpt lat="46.4843" lon="5.6909">
        <ele>478.2</ele>
        <time>2022-08-03T05:32:38Z</time>
      </trkpt>
      <trkpt lat="46.48416" lon="5.69084">
        <ele>479.6</ele>
        <time>2022-08-03T05:32:42Z</time>
      </trkpt>
      <trkpt lat="46.48406" lon="5.69079">
        <ele>480.8</ele>
        <time>2022-08-03T05:32:45Z</time>
      </trkpt>
      <trkpt lat="46.48396" lon="5.69075">
        <ele>481.8</ele>
        <time>2022-08-03T05:32:48Z</time>
      </trkpt>
      <trkpt lat="46.48389" lon="5.69072">
        <ele>482.4</ele>
        <time>2022-08-03T05:32:50Z</time>
      </trkpt>
      <trkpt lat="46.48381" lon="5.69069">
        <ele>483</ele>
        <time>2022-08-03T05:32:53Z</time>
      </trkpt>
      <trkpt lat="46.48372" lon="5.69067">
        <ele>484.2</ele>
        <time>2022-08-03T05:32:56Z</time>
      </trkpt>
      <trkpt lat="46.4836" lon="5.69065">
        <ele>485.4</ele>
        <time>2022-08-03T05:33:00Z</time>
      </trkpt>
      <trkpt lat="46.48353" lon="5.69067">
        <ele>485.8</ele>
        <time>2022-08-03T05:33:02Z</time>
      </trkpt>
      <trkpt lat="46.48344" lon="5.69069">
        <ele>486.6</ele>
        <time>2022-08-03T05:33:05Z</time>
      </trkpt>
      <trkpt lat="46.4833" lon="5.69071">
        <ele>487.8</ele>
        <time>2022-08-03T05:33:10Z</time>
      </trkpt>
      <trkpt lat="46.48327" lon="5.69071">
        <ele>488</ele>
        <time>2022-08-03T05:33:11Z</time>
      </trkpt>
      <trkpt lat="46.48319" lon="5.69071">
        <ele>488.8</ele>
        <time>2022-08-03T05:33:14Z</time>
      </trkpt>
      <trkpt lat="46.48302" lon="5.69067">
        <ele>489.8</ele>
        <time>2022-08-03T05:33:19Z</time>
      </trkpt>
      <trkpt lat="46.48298" lon="5.69066">
        <ele>490</ele>
        <time>2022-08-03T05:33:20Z</time>
      </trkpt>
      <trkpt lat="46.48285" lon="5.69062">
        <ele>490.8</ele>
        <time>2022-08-03T05:33:24Z</time>
      </trkpt>
      <trkpt lat="46.48276" lon="5.69059">
        <ele>491.2</ele>
        <time>2022-08-03T05:33:26Z</time>
      </trkpt>
      <trkpt lat="46.48265" lon="5.69054">
        <ele>491.6</ele>
        <time>2022-08-03T05:33:29Z</time>
      </trkpt>
      <trkpt lat="46.48234" lon="5.69046">
        <ele>491.8</ele>
        <time>2022-08-03T05:33:36Z</time>
      </trkpt>
      <trkpt lat="46.48205" lon="5.69044">
        <ele>491.8</ele>
        <time>2022-08-03T05:33:41Z</time>
      </trkpt>
      <trkpt lat="46.48198" lon="5.69043">
        <ele>491.6</ele>
        <time>2022-08-03T05:33:42Z</time>
      </trkpt>
      <trkpt lat="46.48175" lon="5.69032">
        <ele>491.2</ele>
        <time>2022-08-03T05:33:46Z</time>
      </trkpt>
      <trkpt lat="46.48136" lon="5.69002">
        <ele>490.6</ele>
        <time>2022-08-03T05:33:53Z</time>
      </trkpt>
      <trkpt lat="46.48132" lon="5.68998">
        <ele>490.6</ele>
        <time>2022-08-03T05:33:54Z</time>
      </trkpt>
      <trkpt lat="46.48126" lon="5.68988">
        <ele>490.8</ele>
        <time>2022-08-03T05:33:56Z</time>
      </trkpt>
      <trkpt lat="46.48124" lon="5.68978">
        <ele>491.2</ele>
        <time>2022-08-03T05:33:58Z</time>
      </trkpt>
      <trkpt lat="46.48123" lon="5.68963">
        <ele>492</ele>
        <time>2022-08-03T05:34:01Z</time>
      </trkpt>
      <trkpt lat="46.48124" lon="5.68948">
        <ele>493</ele>
        <time>2022-08-03T05:34:04Z</time>
      </trkpt>
      <trkpt lat="46.48124" lon="5.68944">
        <ele>493.4</ele>
        <time>2022-08-03T05:34:05Z</time>
      </trkpt>
      <trkpt lat="46.48124" lon="5.68931">
        <ele>494</ele>
        <time>2022-08-03T05:34:08Z</time>
      </trkpt>
      <trkpt lat="46.48124" lon="5.68926">
        <ele>494.4</ele>
        <time>2022-08-03T05:34:09Z</time>
      </trkpt>
      <trkpt lat="46.48119" lon="5.68907">
        <ele>495.6</ele>
        <time>2022-08-03T05:34:12Z</time>
      </trkpt>
      <trkpt lat="46.48118" lon="5.68902">
        <ele>495.8</ele>
        <time>2022-08-03T05:34:13Z</time>
      </trkpt>
      <trkpt lat="46.48114" lon="5.68884">
        <ele>496.6</ele>
        <time>2022-08-03T05:34:16Z</time>
      </trkpt>
      <trkpt lat="46.4811" lon="5.68873">
        <ele>497.2</ele>
        <time>2022-08-03T05:34:18Z</time>
      </trkpt>
      <trkpt lat="46.48104" lon="5.68861">
        <ele>497.6</ele>
        <time>2022-08-03T05:34:20Z</time>
      </trkpt>
      <trkpt lat="46.4809" lon="5.68845">
        <ele>498</ele>
        <time>2022-08-03T05:34:24Z</time>
      </trkpt>
      <trkpt lat="46.48074" lon="5.68826">
        <ele>498.6</ele>
        <time>2022-08-03T05:34:28Z</time>
      </trkpt>
      <trkpt lat="46.48064" lon="5.68817">
        <ele>499</ele>
        <time>2022-08-03T05:34:31Z</time>
      </trkpt>
      <trkpt lat="46.48047" lon="5.68801">
        <ele>499.4</ele>
        <time>2022-08-03T05:34:36Z</time>
      </trkpt>
      <trkpt lat="46.48044" lon="5.68798">
        <ele>499.6</ele>
        <time>2022-08-03T05:34:37Z</time>
      </trkpt>
      <trkpt lat="46.48032" lon="5.68786">
        <ele>500.4</ele>
        <time>2022-08-03T05:34:41Z</time>
      </trkpt>
      <trkpt lat="46.48029" lon="5.68784">
        <ele>500.8</ele>
        <time>2022-08-03T05:34:42Z</time>
      </trkpt>
      <trkpt lat="46.48021" lon="5.68775">
        <ele>501.4</ele>
        <time>2022-08-03T05:34:45Z</time>
      </trkpt>
      <trkpt lat="46.48016" lon="5.6877">
        <ele>502</ele>
        <time>2022-08-03T05:34:47Z</time>
      </trkpt>
      <trkpt lat="46.48004" lon="5.68759">
        <ele>502.8</ele>
        <time>2022-08-03T05:34:51Z</time>
      </trkpt>
      <trkpt lat="46.47999" lon="5.68754">
        <ele>503.4</ele>
        <time>2022-08-03T05:34:53Z</time>
      </trkpt>
      <trkpt lat="46.47986" lon="5.68749">
        <ele>504</ele>
        <time>2022-08-03T05:34:57Z</time>
      </trkpt>
      <trkpt lat="46.4798" lon="5.68747">
        <ele>504.6</ele>
        <time>2022-08-03T05:34:59Z</time>
      </trkpt>
      <trkpt lat="46.47967" lon="5.68749">
        <ele>505.4</ele>
        <time>2022-08-03T05:35:03Z</time>
      </trkpt>
      <trkpt lat="46.47964" lon="5.6875">
        <ele>505.4</ele>
        <time>2022-08-03T05:35:04Z</time>
      </trkpt>
      <trkpt lat="46.47952" lon="5.68758">
        <ele>506.4</ele>
        <time>2022-08-03T05:35:08Z</time>
      </trkpt>
      <trkpt lat="46.47946" lon="5.68763">
        <ele>507</ele>
        <time>2022-08-03T05:35:10Z</time>
      </trkpt>
      <trkpt lat="46.47939" lon="5.68767">
        <ele>507.4</ele>
        <time>2022-08-03T05:35:12Z</time>
      </trkpt>
      <trkpt lat="46.47919" lon="5.68777">
        <ele>508.6</ele>
        <time>2022-08-03T05:35:19Z</time>
      </trkpt>
      <trkpt lat="46.47915" lon="5.68778">
        <ele>508.8</ele>
        <time>2022-08-03T05:35:20Z</time>
      </trkpt>
      <trkpt lat="46.47904" lon="5.68775">
        <ele>509.6</ele>
        <time>2022-08-03T05:35:23Z</time>
      </trkpt>
      <trkpt lat="46.47897" lon="5.68775">
        <ele>510.4</ele>
        <time>2022-08-03T05:35:25Z</time>
      </trkpt>
      <trkpt lat="46.4789" lon="5.68775">
        <ele>510.8</ele>
        <time>2022-08-03T05:35:27Z</time>
      </trkpt>
      <trkpt lat="46.47866" lon="5.68777">
        <ele>511.6</ele>
        <time>2022-08-03T05:35:33Z</time>
      </trkpt>
      <trkpt lat="46.47858" lon="5.68782">
        <ele>511.8</ele>
        <time>2022-08-03T05:35:35Z</time>
      </trkpt>
      <trkpt lat="46.47851" lon="5.68792">
        <ele>511.8</ele>
        <time>2022-08-03T05:35:37Z</time>
      </trkpt>
      <trkpt lat="46.47829" lon="5.68833">
        <ele>512</ele>
        <time>2022-08-03T05:35:44Z</time>
      </trkpt>
      <trkpt lat="46.47828" lon="5.68838">
        <ele>512</ele>
        <time>2022-08-03T05:35:45Z</time>
      </trkpt>
      <trkpt lat="46.47825" lon="5.68858">
        <ele>512.4</ele>
        <time>2022-08-03T05:35:48Z</time>
      </trkpt>
      <trkpt lat="46.47825" lon="5.68863">
        <ele>512.4</ele>
        <time>2022-08-03T05:35:49Z</time>
      </trkpt>
      <trkpt lat="46.47824" lon="5.68875">
        <ele>512.8</ele>
        <time>2022-08-03T05:35:51Z</time>
      </trkpt>
      <trkpt lat="46.47823" lon="5.68888">
        <ele>513.2</ele>
        <time>2022-08-03T05:35:53Z</time>
      </trkpt>
      <trkpt lat="46.47821" lon="5.689">
        <ele>514</ele>
        <time>2022-08-03T05:35:55Z</time>
      </trkpt>
      <trkpt lat="46.47818" lon="5.68921">
        <ele>514.4</ele>
        <time>2022-08-03T05:35:58Z</time>
      </trkpt>
      <trkpt lat="46.47814" lon="5.68935">
        <ele>514.4</ele>
        <time>2022-08-03T05:36:00Z</time>
      </trkpt>
      <trkpt lat="46.47801" lon="5.68984">
        <ele>515</ele>
        <time>2022-08-03T05:36:08Z</time>
      </trkpt>
      <trkpt lat="46.47796" lon="5.69001">
        <ele>515.4</ele>
        <time>2022-08-03T05:36:11Z</time>
      </trkpt>
      <trkpt lat="46.4779" lon="5.69027">
        <ele>516</ele>
        <time>2022-08-03T05:36:15Z</time>
      </trkpt>
      <trkpt lat="46.47784" lon="5.69039">
        <ele>516.2</ele>
        <time>2022-08-03T05:36:17Z</time>
      </trkpt>
      <trkpt lat="46.47777" lon="5.69049">
        <ele>516.2</ele>
        <time>2022-08-03T05:36:19Z</time>
      </trkpt>
      <trkpt lat="46.47746" lon="5.69076">
        <ele>516.6</ele>
        <time>2022-08-03T05:36:26Z</time>
      </trkpt>
      <trkpt lat="46.47712" lon="5.69098">
        <ele>517</ele>
        <time>2022-08-03T05:36:33Z</time>
      </trkpt>
      <trkpt lat="46.47706" lon="5.69101">
        <ele>517</ele>
        <time>2022-08-03T05:36:34Z</time>
      </trkpt>
      <trkpt lat="46.47663" lon="5.69122">
        <ele>516.8</ele>
        <time>2022-08-03T05:36:42Z</time>
      </trkpt>
      <trkpt lat="46.47635" lon="5.69143">
        <ele>516.2</ele>
        <time>2022-08-03T05:36:47Z</time>
      </trkpt>
      <trkpt lat="46.4763" lon="5.69148">
        <ele>516.2</ele>
        <time>2022-08-03T05:36:48Z</time>
      </trkpt>
      <trkpt lat="46.47624" lon="5.69152">
        <ele>516</ele>
        <time>2022-08-03T05:36:49Z</time>
      </trkpt>
      <trkpt lat="46.47619" lon="5.69157">
        <ele>515.8</ele>
        <time>2022-08-03T05:36:50Z</time>
      </trkpt>
      <trkpt lat="46.47613" lon="5.69163">
        <ele>515.8</ele>
        <time>2022-08-03T05:36:51Z</time>
      </trkpt>
      <trkpt lat="46.47582" lon="5.69199">
        <ele>514.8</ele>
        <time>2022-08-03T05:36:56Z</time>
      </trkpt>
      <trkpt lat="46.47557" lon="5.69235">
        <ele>513.2</ele>
        <time>2022-08-03T05:37:00Z</time>
      </trkpt>
      <trkpt lat="46.47549" lon="5.69247">
        <ele>512.4</ele>
        <time>2022-08-03T05:37:01Z</time>
      </trkpt>
      <trkpt lat="46.47544" lon="5.69256">
        <ele>512</ele>
        <time>2022-08-03T05:37:02Z</time>
      </trkpt>
      <trkpt lat="46.47538" lon="5.69269">
        <ele>511.4</ele>
        <time>2022-08-03T05:37:03Z</time>
      </trkpt>
      <trkpt lat="46.47533" lon="5.6928">
        <ele>510.6</ele>
        <time>2022-08-03T05:37:04Z</time>
      </trkpt>
      <trkpt lat="46.47528" lon="5.69292">
        <ele>510.4</ele>
        <time>2022-08-03T05:37:05Z</time>
      </trkpt>
      <trkpt lat="46.47507" lon="5.69344">
        <ele>510</ele>
        <time>2022-08-03T05:37:10Z</time>
      </trkpt>
      <trkpt lat="46.47485" lon="5.694">
        <ele>510.4</ele>
        <time>2022-08-03T05:37:16Z</time>
      </trkpt>
      <trkpt lat="46.47462" lon="5.69459">
        <ele>510.8</ele>
        <time>2022-08-03T05:37:22Z</time>
      </trkpt>
      <trkpt lat="46.47449" lon="5.6949">
        <ele>510.8</ele>
        <time>2022-08-03T05:37:25Z</time>
      </trkpt>
      <trkpt lat="46.47412" lon="5.69556">
        <ele>510.4</ele>
        <time>2022-08-03T05:37:33Z</time>
      </trkpt>
      <trkpt lat="46.47387" lon="5.6961">
        <ele>510.6</ele>
        <time>2022-08-03T05:37:39Z</time>
      </trkpt>
      <trkpt lat="46.47368" lon="5.69664">
        <ele>510.2</ele>
        <time>2022-08-03T05:37:44Z</time>
      </trkpt>
      <trkpt lat="46.47364" lon="5.69674">
        <ele>509.6</ele>
        <time>2022-08-03T05:37:45Z</time>
      </trkpt>
      <trkpt lat="46.47343" lon="5.69712">
        <ele>508.6</ele>
        <time>2022-08-03T05:37:49Z</time>
      </trkpt>
      <trkpt lat="46.47338" lon="5.69719">
        <ele>508.4</ele>
        <time>2022-08-03T05:37:50Z</time>
      </trkpt>
      <trkpt lat="46.47304" lon="5.69764">
        <ele>508</ele>
        <time>2022-08-03T05:37:56Z</time>
      </trkpt>
      <trkpt lat="46.47277" lon="5.69805">
        <ele>509.4</ele>
        <time>2022-08-03T05:38:02Z</time>
      </trkpt>
      <trkpt lat="46.47245" lon="5.69865">
        <ele>510.6</ele>
        <time>2022-08-03T05:38:10Z</time>
      </trkpt>
      <trkpt lat="46.47208" lon="5.69928">
        <ele>511.6</ele>
        <time>2022-08-03T05:38:18Z</time>
      </trkpt>
      <trkpt lat="46.47204" lon="5.69936">
        <ele>511.6</ele>
        <time>2022-08-03T05:38:19Z</time>
      </trkpt>
      <trkpt lat="46.47164" lon="5.70002">
        <ele>511.4</ele>
        <time>2022-08-03T05:38:28Z</time>
      </trkpt>
      <trkpt lat="46.47148" lon="5.70032">
        <ele>511.2</ele>
        <time>2022-08-03T05:38:32Z</time>
      </trkpt>
      <trkpt lat="46.4714" lon="5.70052">
        <ele>511.2</ele>
        <time>2022-08-03T05:38:34Z</time>
      </trkpt>
      <trkpt lat="46.47134" lon="5.70098">
        <ele>510.4</ele>
        <time>2022-08-03T05:38:38Z</time>
      </trkpt>
      <trkpt lat="46.47133" lon="5.70144">
        <ele>509.2</ele>
        <time>2022-08-03T05:38:42Z</time>
      </trkpt>
      <trkpt lat="46.47131" lon="5.70181">
        <ele>508.4</ele>
        <time>2022-08-03T05:38:45Z</time>
      </trkpt>
      <trkpt lat="46.47125" lon="5.70209">
        <ele>508.2</ele>
        <time>2022-08-03T05:38:48Z</time>
      </trkpt>
      <trkpt lat="46.47122" lon="5.70217">
        <ele>508.4</ele>
        <time>2022-08-03T05:38:49Z</time>
      </trkpt>
      <trkpt lat="46.47105" lon="5.70244">
        <ele>510.6</ele>
        <time>2022-08-03T05:38:54Z</time>
      </trkpt>
      <trkpt lat="46.47096" lon="5.70258">
        <ele>511.8</ele>
        <time>2022-08-03T05:38:57Z</time>
      </trkpt>
      <trkpt lat="46.47078" lon="5.7029">
        <ele>513.2</ele>
        <time>2022-08-03T05:39:03Z</time>
      </trkpt>
      <trkpt lat="46.4706" lon="5.70321">
        <ele>514.2</ele>
        <time>2022-08-03T05:39:09Z</time>
      </trkpt>
      <trkpt lat="46.47058" lon="5.70326">
        <ele>514.4</ele>
        <time>2022-08-03T05:39:10Z</time>
      </trkpt>
      <trkpt lat="46.47056" lon="5.70331">
        <ele>514.4</ele>
        <time>2022-08-03T05:39:11Z</time>
      </trkpt>
      <trkpt lat="46.47047" lon="5.7035">
        <ele>515.4</ele>
        <time>2022-08-03T05:39:15Z</time>
      </trkpt>
      <trkpt lat="46.47042" lon="5.7036">
        <ele>515.8</ele>
        <time>2022-08-03T05:39:17Z</time>
      </trkpt>
      <trkpt lat="46.47035" lon="5.70374">
        <ele>516.6</ele>
        <time>2022-08-03T05:39:20Z</time>
      </trkpt>
      <trkpt lat="46.47023" lon="5.70397">
        <ele>518</ele>
        <time>2022-08-03T05:39:25Z</time>
      </trkpt>
      <trkpt lat="46.47018" lon="5.70407">
        <ele>519.2</ele>
        <time>2022-08-03T05:39:27Z</time>
      </trkpt>
      <trkpt lat="46.47009" lon="5.70427">
        <ele>520</ele>
        <time>2022-08-03T05:39:31Z</time>
      </trkpt>
      <trkpt lat="46.47007" lon="5.70433">
        <ele>520.2</ele>
        <time>2022-08-03T05:39:32Z</time>
      </trkpt>
      <trkpt lat="46.46999" lon="5.70447">
        <ele>520.8</ele>
        <time>2022-08-03T05:39:35Z</time>
      </trkpt>
      <trkpt lat="46.46993" lon="5.70457">
        <ele>521.4</ele>
        <time>2022-08-03T05:39:37Z</time>
      </trkpt>
      <trkpt lat="46.4698" lon="5.70479">
        <ele>522.6</ele>
        <time>2022-08-03T05:39:42Z</time>
      </trkpt>
      <trkpt lat="46.46971" lon="5.70493">
        <ele>522.8</ele>
        <time>2022-08-03T05:39:45Z</time>
      </trkpt>
      <trkpt lat="46.46951" lon="5.70526">
        <ele>523.8</ele>
        <time>2022-08-03T05:39:52Z</time>
      </trkpt>
      <trkpt lat="46.46948" lon="5.70531">
        <ele>523.8</ele>
        <time>2022-08-03T05:39:53Z</time>
      </trkpt>
      <trkpt lat="46.46945" lon="5.70536">
        <ele>524</ele>
        <time>2022-08-03T05:39:54Z</time>
      </trkpt>
      <trkpt lat="46.46936" lon="5.70548">
        <ele>524.2</ele>
        <time>2022-08-03T05:39:57Z</time>
      </trkpt>
      <trkpt lat="46.46932" lon="5.70551">
        <ele>524.4</ele>
        <time>2022-08-03T05:39:58Z</time>
      </trkpt>
      <trkpt lat="46.46919" lon="5.70565">
        <ele>524.8</ele>
        <time>2022-08-03T05:40:02Z</time>
      </trkpt>
      <trkpt lat="46.46913" lon="5.70572">
        <ele>525.2</ele>
        <time>2022-08-03T05:40:04Z</time>
      </trkpt>
      <trkpt lat="46.46908" lon="5.70579">
        <ele>525.8</ele>
        <time>2022-08-03T05:40:06Z</time>
      </trkpt>
      <trkpt lat="46.46905" lon="5.70583">
        <ele>526</ele>
        <time>2022-08-03T05:40:07Z</time>
      </trkpt>
      <trkpt lat="46.46895" lon="5.70598">
        <ele>527</ele>
        <time>2022-08-03T05:40:11Z</time>
      </trkpt>
      <trkpt lat="46.46886" lon="5.70614">
        <ele>527.8</ele>
        <time>2022-08-03T05:40:15Z</time>
      </trkpt>
      <trkpt lat="46.46876" lon="5.70629">
        <ele>528</ele>
        <time>2022-08-03T05:40:19Z</time>
      </trkpt>
      <trkpt lat="46.46867" lon="5.70645">
        <ele>528.8</ele>
        <time>2022-08-03T05:40:23Z</time>
      </trkpt>
      <trkpt lat="46.46865" lon="5.70649">
        <ele>529.2</ele>
        <time>2022-08-03T05:40:24Z</time>
      </trkpt>
      <trkpt lat="46.46852" lon="5.70669">
        <ele>530.2</ele>
        <time>2022-08-03T05:40:29Z</time>
      </trkpt>
      <trkpt lat="46.46848" lon="5.70676">
        <ele>530.4</ele>
        <time>2022-08-03T05:40:31Z</time>
      </trkpt>
      <trkpt lat="46.46836" lon="5.70698">
        <ele>531</ele>
        <time>2022-08-03T05:40:36Z</time>
      </trkpt>
      <trkpt lat="46.46829" lon="5.70711">
        <ele>531.8</ele>
        <time>2022-08-03T05:40:39Z</time>
      </trkpt>
      <trkpt lat="46.46826" lon="5.70715">
        <ele>532.2</ele>
        <time>2022-08-03T05:40:40Z</time>
      </trkpt>
      <trkpt lat="46.46812" lon="5.70739">
        <ele>533.4</ele>
        <time>2022-08-03T05:40:46Z</time>
      </trkpt>
      <trkpt lat="46.46806" lon="5.70749">
        <ele>534.2</ele>
        <time>2022-08-03T05:40:49Z</time>
      </trkpt>
      <trkpt lat="46.46804" lon="5.70754">
        <ele>534.6</ele>
        <time>2022-08-03T05:40:50Z</time>
      </trkpt>
      <trkpt lat="46.46793" lon="5.70772">
        <ele>535.2</ele>
        <time>2022-08-03T05:40:55Z</time>
      </trkpt>
      <trkpt lat="46.46786" lon="5.70783">
        <ele>535.8</ele>
        <time>2022-08-03T05:40:58Z</time>
      </trkpt>
      <trkpt lat="46.4678" lon="5.70794">
        <ele>537</ele>
        <time>2022-08-03T05:41:01Z</time>
      </trkpt>
      <trkpt lat="46.46766" lon="5.70817">
        <ele>538</ele>
        <time>2022-08-03T05:41:07Z</time>
      </trkpt>
      <trkpt lat="46.46759" lon="5.70829">
        <ele>538.8</ele>
        <time>2022-08-03T05:41:10Z</time>
      </trkpt>
      <trkpt lat="46.46754" lon="5.70836">
        <ele>539</ele>
        <time>2022-08-03T05:41:12Z</time>
      </trkpt>
      <trkpt lat="46.46741" lon="5.70857">
        <ele>540.2</ele>
        <time>2022-08-03T05:41:18Z</time>
      </trkpt>
      <trkpt lat="46.46738" lon="5.70861">
        <ele>540.6</ele>
        <time>2022-08-03T05:41:19Z</time>
      </trkpt>
      <trkpt lat="46.46732" lon="5.70872">
        <ele>541.2</ele>
        <time>2022-08-03T05:41:22Z</time>
      </trkpt>
      <trkpt lat="46.46724" lon="5.70888">
        <ele>542</ele>
        <time>2022-08-03T05:41:26Z</time>
      </trkpt>
      <trkpt lat="46.4672" lon="5.70896">
        <ele>542.6</ele>
        <time>2022-08-03T05:41:28Z</time>
      </trkpt>
      <trkpt lat="46.46714" lon="5.70918">
        <ele>543.6</ele>
        <time>2022-08-03T05:41:33Z</time>
      </trkpt>
      <trkpt lat="46.46712" lon="5.70928">
        <ele>544</ele>
        <time>2022-08-03T05:41:35Z</time>
      </trkpt>
      <trkpt lat="46.4671" lon="5.70943">
        <ele>545</ele>
        <time>2022-08-03T05:41:38Z</time>
      </trkpt>
      <trkpt lat="46.4671" lon="5.70966">
        <ele>546.4</ele>
        <time>2022-08-03T05:41:43Z</time>
      </trkpt>
      <trkpt lat="46.46713" lon="5.70994">
        <ele>547.6</ele>
        <time>2022-08-03T05:41:49Z</time>
      </trkpt>
      <trkpt lat="46.46714" lon="5.71008">
        <ele>548</ele>
        <time>2022-08-03T05:41:52Z</time>
      </trkpt>
      <trkpt lat="46.46714" lon="5.71017">
        <ele>548.4</ele>
        <time>2022-08-03T05:41:54Z</time>
      </trkpt>
      <trkpt lat="46.46712" lon="5.71041">
        <ele>549.4</ele>
        <time>2022-08-03T05:41:59Z</time>
      </trkpt>
      <trkpt lat="46.46709" lon="5.71064">
        <ele>550.6</ele>
        <time>2022-08-03T05:42:04Z</time>
      </trkpt>
      <trkpt lat="46.46707" lon="5.71087">
        <ele>551.6</ele>
        <time>2022-08-03T05:42:09Z</time>
      </trkpt>
      <trkpt lat="46.46707" lon="5.71091">
        <ele>551.8</ele>
        <time>2022-08-03T05:42:10Z</time>
      </trkpt>
      <trkpt lat="46.46708" lon="5.71096">
        <ele>552</ele>
        <time>2022-08-03T05:42:11Z</time>
      </trkpt>
      <trkpt lat="46.46709" lon="5.71109">
        <ele>552.8</ele>
        <time>2022-08-03T05:42:14Z</time>
      </trkpt>
      <trkpt lat="46.46713" lon="5.71127">
        <ele>553.6</ele>
        <time>2022-08-03T05:42:18Z</time>
      </trkpt>
      <trkpt lat="46.46714" lon="5.71131">
        <ele>553.8</ele>
        <time>2022-08-03T05:42:19Z</time>
      </trkpt>
      <trkpt lat="46.46718" lon="5.71158">
        <ele>554.8</ele>
        <time>2022-08-03T05:42:25Z</time>
      </trkpt>
      <trkpt lat="46.46719" lon="5.71163">
        <ele>555</ele>
        <time>2022-08-03T05:42:26Z</time>
      </trkpt>
      <trkpt lat="46.46722" lon="5.71186">
        <ele>556.2</ele>
        <time>2022-08-03T05:42:31Z</time>
      </trkpt>
      <trkpt lat="46.46723" lon="5.71205">
        <ele>557.2</ele>
        <time>2022-08-03T05:42:35Z</time>
      </trkpt>
      <trkpt lat="46.46723" lon="5.7122">
        <ele>557.8</ele>
        <time>2022-08-03T05:42:38Z</time>
      </trkpt>
      <trkpt lat="46.4672" lon="5.71234">
        <ele>558.2</ele>
        <time>2022-08-03T05:42:41Z</time>
      </trkpt>
      <trkpt lat="46.46716" lon="5.71247">
        <ele>558.6</ele>
        <time>2022-08-03T05:42:44Z</time>
      </trkpt>
      <trkpt lat="46.46707" lon="5.71259">
        <ele>559.2</ele>
        <time>2022-08-03T05:42:48Z</time>
      </trkpt>
      <trkpt lat="46.46703" lon="5.7126">
        <ele>559.4</ele>
        <time>2022-08-03T05:42:49Z</time>
      </trkpt>
      <trkpt lat="46.46688" lon="5.71258">
        <ele>560.4</ele>
        <time>2022-08-03T05:42:53Z</time>
      </trkpt>
      <trkpt lat="46.46684" lon="5.71257">
        <ele>560.6</ele>
        <time>2022-08-03T05:42:54Z</time>
      </trkpt>
      <trkpt lat="46.46664" lon="5.71256">
        <ele>561.4</ele>
        <time>2022-08-03T05:42:59Z</time>
      </trkpt>
      <trkpt lat="46.46656" lon="5.71256">
        <ele>561.8</ele>
        <time>2022-08-03T05:43:01Z</time>
      </trkpt>
      <trkpt lat="46.46636" lon="5.71258">
        <ele>563</ele>
        <time>2022-08-03T05:43:06Z</time>
      </trkpt>
      <trkpt lat="46.46613" lon="5.71263">
        <ele>563.6</ele>
        <time>2022-08-03T05:43:12Z</time>
      </trkpt>
      <trkpt lat="46.46602" lon="5.71266">
        <ele>564</ele>
        <time>2022-08-03T05:43:15Z</time>
      </trkpt>
      <trkpt lat="46.46583" lon="5.7127">
        <ele>565</ele>
        <time>2022-08-03T05:43:20Z</time>
      </trkpt>
      <trkpt lat="46.4658" lon="5.71273">
        <ele>565.2</ele>
        <time>2022-08-03T05:43:21Z</time>
      </trkpt>
      <trkpt lat="46.46578" lon="5.71284">
        <ele>565.4</ele>
        <time>2022-08-03T05:43:23Z</time>
      </trkpt>
      <trkpt lat="46.46578" lon="5.71309">
        <ele>566.2</ele>
        <time>2022-08-03T05:43:27Z</time>
      </trkpt>
      <trkpt lat="46.46578" lon="5.7132">
        <ele>566.4</ele>
        <time>2022-08-03T05:43:29Z</time>
      </trkpt>
      <trkpt lat="46.46579" lon="5.71332">
        <ele>566.6</ele>
        <time>2022-08-03T05:43:31Z</time>
      </trkpt>
      <trkpt lat="46.46582" lon="5.7135">
        <ele>566.8</ele>
        <time>2022-08-03T05:43:34Z</time>
      </trkpt>
      <trkpt lat="46.46586" lon="5.71368">
        <ele>567</ele>
        <time>2022-08-03T05:43:37Z</time>
      </trkpt>
      <trkpt lat="46.46588" lon="5.71387">
        <ele>567</ele>
        <time>2022-08-03T05:43:40Z</time>
      </trkpt>
      <trkpt lat="46.4659" lon="5.714">
        <ele>567.2</ele>
        <time>2022-08-03T05:43:42Z</time>
      </trkpt>
      <trkpt lat="46.46591" lon="5.71406">
        <ele>567.2</ele>
        <time>2022-08-03T05:43:43Z</time>
      </trkpt>
      <trkpt lat="46.46594" lon="5.71419">
        <ele>567.4</ele>
        <time>2022-08-03T05:43:45Z</time>
      </trkpt>
      <trkpt lat="46.46597" lon="5.71425">
        <ele>567.6</ele>
        <time>2022-08-03T05:43:46Z</time>
      </trkpt>
      <trkpt lat="46.46605" lon="5.71447">
        <ele>567.8</ele>
        <time>2022-08-03T05:43:50Z</time>
      </trkpt>
      <trkpt lat="46.46605" lon="5.71452">
        <ele>568</ele>
        <time>2022-08-03T05:43:51Z</time>
      </trkpt>
      <trkpt lat="46.46604" lon="5.71457">
        <ele>568.2</ele>
        <time>2022-08-03T05:43:52Z</time>
      </trkpt>
      <trkpt lat="46.46602" lon="5.7146">
        <ele>568.2</ele>
        <time>2022-08-03T05:43:53Z</time>
      </trkpt>
      <trkpt lat="46.466" lon="5.71462">
        <ele>568.4</ele>
        <time>2022-08-03T05:43:54Z</time>
      </trkpt>
      <trkpt lat="46.46586" lon="5.7146">
        <ele>569.4</ele>
        <time>2022-08-03T05:43:58Z</time>
      </trkpt>
      <trkpt lat="46.46582" lon="5.7146">
        <ele>569.6</ele>
        <time>2022-08-03T05:43:59Z</time>
      </trkpt>
      <trkpt lat="46.46568" lon="5.71471">
        <ele>570.2</ele>
        <time>2022-08-03T05:44:03Z</time>
      </trkpt>
      <trkpt lat="46.46561" lon="5.7148">
        <ele>570.4</ele>
        <time>2022-08-03T05:44:05Z</time>
      </trkpt>
      <trkpt lat="46.46557" lon="5.71483">
        <ele>570.6</ele>
        <time>2022-08-03T05:44:06Z</time>
      </trkpt>
      <trkpt lat="46.46549" lon="5.71487">
        <ele>570.8</ele>
        <time>2022-08-03T05:44:08Z</time>
      </trkpt>
      <trkpt lat="46.46532" lon="5.71488">
        <ele>571.2</ele>
        <time>2022-08-03T05:44:12Z</time>
      </trkpt>
      <trkpt lat="46.46523" lon="5.71488">
        <ele>571.4</ele>
        <time>2022-08-03T05:44:14Z</time>
      </trkpt>
      <trkpt lat="46.46519" lon="5.71489">
        <ele>571.4</ele>
        <time>2022-08-03T05:44:15Z</time>
      </trkpt>
      <trkpt lat="46.46514" lon="5.71496">
        <ele>571.8</ele>
        <time>2022-08-03T05:44:17Z</time>
      </trkpt>
      <trkpt lat="46.46509" lon="5.71533">
        <ele>572.2</ele>
        <time>2022-08-03T05:44:24Z</time>
      </trkpt>
      <trkpt lat="46.46518" lon="5.71541">
        <ele>572.2</ele>
        <time>2022-08-03T05:44:27Z</time>
      </trkpt>
      <trkpt lat="46.46538" lon="5.71543">
        <ele>572.8</ele>
        <time>2022-08-03T05:44:32Z</time>
      </trkpt>
      <trkpt lat="46.46542" lon="5.71543">
        <ele>573</ele>
        <time>2022-08-03T05:44:33Z</time>
      </trkpt>
      <trkpt lat="46.46566" lon="5.71543">
        <ele>574</ele>
        <time>2022-08-03T05:44:38Z</time>
      </trkpt>
      <trkpt lat="46.46571" lon="5.71543">
        <ele>574.2</ele>
        <time>2022-08-03T05:44:39Z</time>
      </trkpt>
      <trkpt lat="46.46587" lon="5.71546">
        <ele>574.4</ele>
        <time>2022-08-03T05:44:42Z</time>
      </trkpt>
      <trkpt lat="46.46597" lon="5.71554">
        <ele>574.4</ele>
        <time>2022-08-03T05:44:44Z</time>
      </trkpt>
      <trkpt lat="46.46623" lon="5.71586">
        <ele>574</ele>
        <time>2022-08-03T05:44:49Z</time>
      </trkpt>
      <trkpt lat="46.46646" lon="5.71618">
        <ele>573</ele>
        <time>2022-08-03T05:44:53Z</time>
      </trkpt>
      <trkpt lat="46.4665" lon="5.71628">
        <ele>572</ele>
        <time>2022-08-03T05:44:54Z</time>
      </trkpt>
      <trkpt lat="46.46652" lon="5.71639">
        <ele>571.6</ele>
        <time>2022-08-03T05:44:55Z</time>
      </trkpt>
      <trkpt lat="46.46655" lon="5.71663">
        <ele>571</ele>
        <time>2022-08-03T05:44:57Z</time>
      </trkpt>
      <trkpt lat="46.46663" lon="5.71708">
        <ele>569.6</ele>
        <time>2022-08-03T05:45:01Z</time>
      </trkpt>
      <trkpt lat="46.46668" lon="5.71729">
        <ele>569.4</ele>
        <time>2022-08-03T05:45:03Z</time>
      </trkpt>
      <trkpt lat="46.4669" lon="5.71797">
        <ele>570</ele>
        <time>2022-08-03T05:45:10Z</time>
      </trkpt>
      <trkpt lat="46.46705" lon="5.71836">
        <ele>570.6</ele>
        <time>2022-08-03T05:45:15Z</time>
      </trkpt>
      <trkpt lat="46.46708" lon="5.71844">
        <ele>571</ele>
        <time>2022-08-03T05:45:16Z</time>
      </trkpt>
      <trkpt lat="46.46713" lon="5.71858">
        <ele>571.6</ele>
        <time>2022-08-03T05:45:18Z</time>
      </trkpt>
      <trkpt lat="46.4672" lon="5.7188">
        <ele>572.6</ele>
        <time>2022-08-03T05:45:21Z</time>
      </trkpt>
      <trkpt lat="46.46724" lon="5.71902">
        <ele>573.6</ele>
        <time>2022-08-03T05:45:24Z</time>
      </trkpt>
      <trkpt lat="46.46726" lon="5.71927">
        <ele>574.8</ele>
        <time>2022-08-03T05:45:27Z</time>
      </trkpt>
      <trkpt lat="46.46725" lon="5.71952">
        <ele>575.4</ele>
        <time>2022-08-03T05:45:30Z</time>
      </trkpt>
      <trkpt lat="46.46723" lon="5.71985">
        <ele>576</ele>
        <time>2022-08-03T05:45:34Z</time>
      </trkpt>
      <trkpt lat="46.4672" lon="5.72">
        <ele>576.2</ele>
        <time>2022-08-03T05:45:36Z</time>
      </trkpt>
      <trkpt lat="46.46716" lon="5.72013">
        <ele>576.4</ele>
        <time>2022-08-03T05:45:38Z</time>
      </trkpt>
      <trkpt lat="46.46712" lon="5.72024">
        <ele>577</ele>
        <time>2022-08-03T05:45:40Z</time>
      </trkpt>
      <trkpt lat="46.46699" lon="5.7205">
        <ele>578.2</ele>
        <time>2022-08-03T05:45:45Z</time>
      </trkpt>
      <trkpt lat="46.46694" lon="5.72059">
        <ele>579</ele>
        <time>2022-08-03T05:45:47Z</time>
      </trkpt>
      <trkpt lat="46.46692" lon="5.72064">
        <ele>579.6</ele>
        <time>2022-08-03T05:45:48Z</time>
      </trkpt>
      <trkpt lat="46.4668" lon="5.7209">
        <ele>580.8</ele>
        <time>2022-08-03T05:45:53Z</time>
      </trkpt>
      <trkpt lat="46.46672" lon="5.72107">
        <ele>581.2</ele>
        <time>2022-08-03T05:45:56Z</time>
      </trkpt>
      <trkpt lat="46.46664" lon="5.72123">
        <ele>581.8</ele>
        <time>2022-08-03T05:45:59Z</time>
      </trkpt>
      <trkpt lat="46.46647" lon="5.72159">
        <ele>583</ele>
        <time>2022-08-03T05:46:06Z</time>
      </trkpt>
      <trkpt lat="46.46645" lon="5.72164">
        <ele>583</ele>
        <time>2022-08-03T05:46:07Z</time>
      </trkpt>
      <trkpt lat="46.46633" lon="5.72193">
        <ele>584</ele>
        <time>2022-08-03T05:46:13Z</time>
      </trkpt>
      <trkpt lat="46.46631" lon="5.72198">
        <ele>584.2</ele>
        <time>2022-08-03T05:46:14Z</time>
      </trkpt>
      <trkpt lat="46.46624" lon="5.72226">
        <ele>585.2</ele>
        <time>2022-08-03T05:46:19Z</time>
      </trkpt>
      <trkpt lat="46.46619" lon="5.72246">
        <ele>585.4</ele>
        <time>2022-08-03T05:46:22Z</time>
      </trkpt>
      <trkpt lat="46.46611" lon="5.72267">
        <ele>585.4</ele>
        <time>2022-08-03T05:46:25Z</time>
      </trkpt>
      <trkpt lat="46.46604" lon="5.72278">
        <ele>585.2</ele>
        <time>2022-08-03T05:46:27Z</time>
      </trkpt>
      <trkpt lat="46.46569" lon="5.72314">
        <ele>585</ele>
        <time>2022-08-03T05:46:35Z</time>
      </trkpt>
      <trkpt lat="46.46532" lon="5.72358">
        <ele>584.8</ele>
        <time>2022-08-03T05:46:43Z</time>
      </trkpt>
      <trkpt lat="46.46497" lon="5.72396">
        <ele>584</ele>
        <time>2022-08-03T05:46:50Z</time>
      </trkpt>
      <trkpt lat="46.46493" lon="5.72403">
        <ele>584</ele>
        <time>2022-08-03T05:46:51Z</time>
      </trkpt>
      <trkpt lat="46.46489" lon="5.72409">
        <ele>583.8</ele>
        <time>2022-08-03T05:46:52Z</time>
      </trkpt>
      <trkpt lat="46.46485" lon="5.72416">
        <ele>583.8</ele>
        <time>2022-08-03T05:46:53Z</time>
      </trkpt>
      <trkpt lat="46.46477" lon="5.72441">
        <ele>583.6</ele>
        <time>2022-08-03T05:46:56Z</time>
      </trkpt>
      <trkpt lat="46.46468" lon="5.72492">
        <ele>583.6</ele>
        <time>2022-08-03T05:47:02Z</time>
      </trkpt>
      <trkpt lat="46.46463" lon="5.72515">
        <ele>583.8</ele>
        <time>2022-08-03T05:47:05Z</time>
      </trkpt>
      <trkpt lat="46.46458" lon="5.72528">
        <ele>584.2</ele>
        <time>2022-08-03T05:47:07Z</time>
      </trkpt>
      <trkpt lat="46.46446" lon="5.72544">
        <ele>584.8</ele>
        <time>2022-08-03T05:47:10Z</time>
      </trkpt>
      <trkpt lat="46.46442" lon="5.72548">
        <ele>585</ele>
        <time>2022-08-03T05:47:11Z</time>
      </trkpt>
      <trkpt lat="46.46419" lon="5.7256">
        <ele>586.4</ele>
        <time>2022-08-03T05:47:16Z</time>
      </trkpt>
      <trkpt lat="46.46409" lon="5.72564">
        <ele>587.2</ele>
        <time>2022-08-03T05:47:18Z</time>
      </trkpt>
      <trkpt lat="46.46399" lon="5.72567">
        <ele>587.6</ele>
        <time>2022-08-03T05:47:20Z</time>
      </trkpt>
      <trkpt lat="46.46394" lon="5.72569">
        <ele>587.8</ele>
        <time>2022-08-03T05:47:21Z</time>
      </trkpt>
      <trkpt lat="46.46379" lon="5.7257">
        <ele>588.2</ele>
        <time>2022-08-03T05:47:24Z</time>
      </trkpt>
      <trkpt lat="46.46373" lon="5.72569">
        <ele>588.4</ele>
        <time>2022-08-03T05:47:25Z</time>
      </trkpt>
      <trkpt lat="46.46364" lon="5.72566">
        <ele>589</ele>
        <time>2022-08-03T05:47:27Z</time>
      </trkpt>
      <trkpt lat="46.46344" lon="5.72557">
        <ele>589.8</ele>
        <time>2022-08-03T05:47:31Z</time>
      </trkpt>
      <trkpt lat="46.4634" lon="5.72555">
        <ele>590.2</ele>
        <time>2022-08-03T05:47:32Z</time>
      </trkpt>
      <trkpt lat="46.46316" lon="5.72545">
        <ele>591.2</ele>
        <time>2022-08-03T05:47:37Z</time>
      </trkpt>
      <trkpt lat="46.46307" lon="5.72544">
        <ele>591.4</ele>
        <time>2022-08-03T05:47:39Z</time>
      </trkpt>
      <trkpt lat="46.46302" lon="5.72544">
        <ele>591.6</ele>
        <time>2022-08-03T05:47:40Z</time>
      </trkpt>
      <trkpt lat="46.46286" lon="5.72548">
        <ele>592.8</ele>
        <time>2022-08-03T05:47:44Z</time>
      </trkpt>
      <trkpt lat="46.46282" lon="5.72549">
        <ele>592.8</ele>
        <time>2022-08-03T05:47:45Z</time>
      </trkpt>
      <trkpt lat="46.46274" lon="5.72552">
        <ele>593.4</ele>
        <time>2022-08-03T05:47:47Z</time>
      </trkpt>
      <trkpt lat="46.46271" lon="5.72552">
        <ele>593.8</ele>
        <time>2022-08-03T05:47:48Z</time>
      </trkpt>
      <trkpt lat="46.46267" lon="5.72552">
        <ele>593.8</ele>
        <time>2022-08-03T05:47:49Z</time>
      </trkpt>
      <trkpt lat="46.46252" lon="5.72552">
        <ele>594.8</ele>
        <time>2022-08-03T05:47:53Z</time>
      </trkpt>
      <trkpt lat="46.46237" lon="5.72549">
        <ele>595.8</ele>
        <time>2022-08-03T05:47:57Z</time>
      </trkpt>
      <trkpt lat="46.46233" lon="5.72548">
        <ele>596</ele>
        <time>2022-08-03T05:47:58Z</time>
      </trkpt>
      <trkpt lat="46.4622" lon="5.72542">
        <ele>597.2</ele>
        <time>2022-08-03T05:48:02Z</time>
      </trkpt>
      <trkpt lat="46.46213" lon="5.7254">
        <ele>597.6</ele>
        <time>2022-08-03T05:48:04Z</time>
      </trkpt>
      <trkpt lat="46.46203" lon="5.72539">
        <ele>598.2</ele>
        <time>2022-08-03T05:48:07Z</time>
      </trkpt>
      <trkpt lat="46.46192" lon="5.72541">
        <ele>599</ele>
        <time>2022-08-03T05:48:10Z</time>
      </trkpt>
      <trkpt lat="46.46185" lon="5.72545">
        <ele>599.2</ele>
        <time>2022-08-03T05:48:12Z</time>
      </trkpt>
      <trkpt lat="46.46169" lon="5.72557">
        <ele>600</ele>
        <time>2022-08-03T05:48:17Z</time>
      </trkpt>
      <trkpt lat="46.46163" lon="5.72562">
        <ele>600.4</ele>
        <time>2022-08-03T05:48:19Z</time>
      </trkpt>
      <trkpt lat="46.46146" lon="5.72574">
        <ele>601.4</ele>
        <time>2022-08-03T05:48:24Z</time>
      </trkpt>
      <trkpt lat="46.4614" lon="5.72579">
        <ele>601.6</ele>
        <time>2022-08-03T05:48:26Z</time>
      </trkpt>
      <trkpt lat="46.46129" lon="5.72591">
        <ele>602.2</ele>
        <time>2022-08-03T05:48:30Z</time>
      </trkpt>
      <trkpt lat="46.46125" lon="5.72599">
        <ele>602.4</ele>
        <time>2022-08-03T05:48:32Z</time>
      </trkpt>
      <trkpt lat="46.46121" lon="5.72613">
        <ele>603.4</ele>
        <time>2022-08-03T05:48:35Z</time>
      </trkpt>
      <trkpt lat="46.46117" lon="5.72628">
        <ele>604</ele>
        <time>2022-08-03T05:48:38Z</time>
      </trkpt>
      <trkpt lat="46.4611" lon="5.72645">
        <ele>604.6</ele>
        <time>2022-08-03T05:48:42Z</time>
      </trkpt>
      <trkpt lat="46.46104" lon="5.72655">
        <ele>605.6</ele>
        <time>2022-08-03T05:48:45Z</time>
      </trkpt>
      <trkpt lat="46.46102" lon="5.72659">
        <ele>605.8</ele>
        <time>2022-08-03T05:48:46Z</time>
      </trkpt>
      <trkpt lat="46.46094" lon="5.72673">
        <ele>607</ele>
        <time>2022-08-03T05:48:50Z</time>
      </trkpt>
      <trkpt lat="46.46089" lon="5.72683">
        <ele>607.8</ele>
        <time>2022-08-03T05:48:53Z</time>
      </trkpt>
      <trkpt lat="46.46085" lon="5.72691">
        <ele>608.2</ele>
        <time>2022-08-03T05:48:55Z</time>
      </trkpt>
      <trkpt lat="46.46077" lon="5.72711">
        <ele>609.4</ele>
        <time>2022-08-03T05:49:00Z</time>
      </trkpt>
      <trkpt lat="46.46076" lon="5.72716">
        <ele>609.4</ele>
        <time>2022-08-03T05:49:01Z</time>
      </trkpt>
      <trkpt lat="46.46071" lon="5.72743">
        <ele>610.6</ele>
        <time>2022-08-03T05:49:07Z</time>
      </trkpt>
      <trkpt lat="46.4607" lon="5.72753">
        <ele>610.8</ele>
        <time>2022-08-03T05:49:09Z</time>
      </trkpt>
      <trkpt lat="46.46068" lon="5.72772">
        <ele>611.6</ele>
        <time>2022-08-03T05:49:13Z</time>
      </trkpt>
      <trkpt lat="46.46066" lon="5.728">
        <ele>612.8</ele>
        <time>2022-08-03T05:49:19Z</time>
      </trkpt>
      <trkpt lat="46.46065" lon="5.72827">
        <ele>614</ele>
        <time>2022-08-03T05:49:25Z</time>
      </trkpt>
      <trkpt lat="46.46063" lon="5.7285">
        <ele>615</ele>
        <time>2022-08-03T05:49:30Z</time>
      </trkpt>
      <trkpt lat="46.46063" lon="5.72855">
        <ele>615.2</ele>
        <time>2022-08-03T05:49:31Z</time>
      </trkpt>
      <trkpt lat="46.46062" lon="5.72874">
        <ele>616.4</ele>
        <time>2022-08-03T05:49:35Z</time>
      </trkpt>
      <trkpt lat="46.46062" lon="5.72883">
        <ele>616.8</ele>
        <time>2022-08-03T05:49:37Z</time>
      </trkpt>
      <trkpt lat="46.46062" lon="5.72901">
        <ele>617.4</ele>
        <time>2022-08-03T05:49:41Z</time>
      </trkpt>
      <trkpt lat="46.46063" lon="5.72918">
        <ele>618.6</ele>
        <time>2022-08-03T05:49:45Z</time>
      </trkpt>
      <trkpt lat="46.46063" lon="5.72928">
        <ele>619</ele>
        <time>2022-08-03T05:49:47Z</time>
      </trkpt>
      <trkpt lat="46.46065" lon="5.72946">
        <ele>619.8</ele>
        <time>2022-08-03T05:49:51Z</time>
      </trkpt>
      <trkpt lat="46.46066" lon="5.72964">
        <ele>620.6</ele>
        <time>2022-08-03T05:49:55Z</time>
      </trkpt>
      <trkpt lat="46.46066" lon="5.72977">
        <ele>621</ele>
        <time>2022-08-03T05:49:58Z</time>
      </trkpt>
      <trkpt lat="46.46067" lon="5.72999">
        <ele>622.6</ele>
        <time>2022-08-03T05:50:03Z</time>
      </trkpt>
      <trkpt lat="46.46067" lon="5.73004">
        <ele>622.8</ele>
        <time>2022-08-03T05:50:04Z</time>
      </trkpt>
      <trkpt lat="46.46066" lon="5.73027">
        <ele>623.8</ele>
        <time>2022-08-03T05:50:09Z</time>
      </trkpt>
      <trkpt lat="46.46063" lon="5.73045">
        <ele>624.6</ele>
        <time>2022-08-03T05:50:13Z</time>
      </trkpt>
      <trkpt lat="46.4606" lon="5.73053">
        <ele>624.8</ele>
        <time>2022-08-03T05:50:15Z</time>
      </trkpt>
      <trkpt lat="46.46052" lon="5.7307">
        <ele>625.8</ele>
        <time>2022-08-03T05:50:19Z</time>
      </trkpt>
      <trkpt lat="46.4605" lon="5.73075">
        <ele>626</ele>
        <time>2022-08-03T05:50:20Z</time>
      </trkpt>
      <trkpt lat="46.46041" lon="5.73093">
        <ele>626.8</ele>
        <time>2022-08-03T05:50:25Z</time>
      </trkpt>
      <trkpt lat="46.46031" lon="5.73113">
        <ele>628.2</ele>
        <time>2022-08-03T05:50:30Z</time>
      </trkpt>
      <trkpt lat="46.46024" lon="5.73129">
        <ele>629.2</ele>
        <time>2022-08-03T05:50:34Z</time>
      </trkpt>
      <trkpt lat="46.46017" lon="5.73146">
        <ele>630</ele>
        <time>2022-08-03T05:50:38Z</time>
      </trkpt>
      <trkpt lat="46.46015" lon="5.73151">
        <ele>630.4</ele>
        <time>2022-08-03T05:50:39Z</time>
      </trkpt>
      <trkpt lat="46.46004" lon="5.73177">
        <ele>631.4</ele>
        <time>2022-08-03T05:50:45Z</time>
      </trkpt>
      <trkpt lat="46.46001" lon="5.73186">
        <ele>631.8</ele>
        <time>2022-08-03T05:50:47Z</time>
      </trkpt>
      <trkpt lat="46.45995" lon="5.73197">
        <ele>632.6</ele>
        <time>2022-08-03T05:50:50Z</time>
      </trkpt>
      <trkpt lat="46.4599" lon="5.73207">
        <ele>633.8</ele>
        <time>2022-08-03T05:50:53Z</time>
      </trkpt>
      <trkpt lat="46.45987" lon="5.73214">
        <ele>634</ele>
        <time>2022-08-03T05:50:55Z</time>
      </trkpt>
      <trkpt lat="46.45982" lon="5.73219">
        <ele>634.6</ele>
        <time>2022-08-03T05:50:57Z</time>
      </trkpt>
      <trkpt lat="46.45969" lon="5.73231">
        <ele>635.8</ele>
        <time>2022-08-03T05:51:02Z</time>
      </trkpt>
      <trkpt lat="46.45966" lon="5.73232">
        <ele>636.2</ele>
        <time>2022-08-03T05:51:03Z</time>
      </trkpt>
      <trkpt lat="46.4595" lon="5.73241">
        <ele>637.2</ele>
        <time>2022-08-03T05:51:09Z</time>
      </trkpt>
      <trkpt lat="46.45944" lon="5.73243">
        <ele>637.4</ele>
        <time>2022-08-03T05:51:11Z</time>
      </trkpt>
      <trkpt lat="46.45937" lon="5.73247">
        <ele>638.2</ele>
        <time>2022-08-03T05:51:14Z</time>
      </trkpt>
      <trkpt lat="46.45927" lon="5.73254">
        <ele>639.2</ele>
        <time>2022-08-03T05:51:18Z</time>
      </trkpt>
      <trkpt lat="46.45923" lon="5.7326">
        <ele>639.4</ele>
        <time>2022-08-03T05:51:20Z</time>
      </trkpt>
      <trkpt lat="46.45915" lon="5.73273">
        <ele>640.4</ele>
        <time>2022-08-03T05:51:24Z</time>
      </trkpt>
      <trkpt lat="46.45909" lon="5.73284">
        <ele>641</ele>
        <time>2022-08-03T05:51:27Z</time>
      </trkpt>
      <trkpt lat="46.45904" lon="5.73295">
        <ele>641.4</ele>
        <time>2022-08-03T05:51:30Z</time>
      </trkpt>
      <trkpt lat="46.45895" lon="5.73319">
        <ele>642.4</ele>
        <time>2022-08-03T05:51:36Z</time>
      </trkpt>
      <trkpt lat="46.45893" lon="5.73322">
        <ele>642.6</ele>
        <time>2022-08-03T05:51:37Z</time>
      </trkpt>
      <trkpt lat="46.4588" lon="5.73349">
        <ele>643.6</ele>
        <time>2022-08-03T05:51:44Z</time>
      </trkpt>
      <trkpt lat="46.45876" lon="5.73355">
        <ele>644</ele>
        <time>2022-08-03T05:51:46Z</time>
      </trkpt>
      <trkpt lat="46.45868" lon="5.73366">
        <ele>644.8</ele>
        <time>2022-08-03T05:51:49Z</time>
      </trkpt>
      <trkpt lat="46.45852" lon="5.73387">
        <ele>645.8</ele>
        <time>2022-08-03T05:51:55Z</time>
      </trkpt>
      <trkpt lat="46.45846" lon="5.73394">
        <ele>646.2</ele>
        <time>2022-08-03T05:51:57Z</time>
      </trkpt>
      <trkpt lat="46.45835" lon="5.7341">
        <ele>647</ele>
        <time>2022-08-03T05:52:01Z</time>
      </trkpt>
      <trkpt lat="46.4583" lon="5.73419">
        <ele>647.2</ele>
        <time>2022-08-03T05:52:03Z</time>
      </trkpt>
      <trkpt lat="46.45828" lon="5.73424">
        <ele>647.2</ele>
        <time>2022-08-03T05:52:04Z</time>
      </trkpt>
      <trkpt lat="46.45815" lon="5.73449">
        <ele>648</ele>
        <time>2022-08-03T05:52:09Z</time>
      </trkpt>
      <trkpt lat="46.45811" lon="5.73453">
        <ele>648.2</ele>
        <time>2022-08-03T05:52:10Z</time>
      </trkpt>
      <trkpt lat="46.45782" lon="5.73465">
        <ele>648</ele>
        <time>2022-08-03T05:52:15Z</time>
      </trkpt>
      <trkpt lat="46.45769" lon="5.73461">
        <ele>647.6</ele>
        <time>2022-08-03T05:52:17Z</time>
      </trkpt>
      <trkpt lat="46.45763" lon="5.73455">
        <ele>647.4</ele>
        <time>2022-08-03T05:52:18Z</time>
      </trkpt>
      <trkpt lat="46.45757" lon="5.73448">
        <ele>647</ele>
        <time>2022-08-03T05:52:19Z</time>
      </trkpt>
      <trkpt lat="46.45752" lon="5.7344">
        <ele>646.8</ele>
        <time>2022-08-03T05:52:20Z</time>
      </trkpt>
      <trkpt lat="46.45741" lon="5.73424">
        <ele>645.8</ele>
        <time>2022-08-03T05:52:22Z</time>
      </trkpt>
      <trkpt lat="46.45708" lon="5.73374">
        <ele>644.6</ele>
        <time>2022-08-03T05:52:28Z</time>
      </trkpt>
      <trkpt lat="46.45691" lon="5.73348">
        <ele>643.4</ele>
        <time>2022-08-03T05:52:31Z</time>
      </trkpt>
      <trkpt lat="46.45664" lon="5.7331">
        <ele>642</ele>
        <time>2022-08-03T05:52:35Z</time>
      </trkpt>
      <trkpt lat="46.45649" lon="5.7329">
        <ele>641.2</ele>
        <time>2022-08-03T05:52:37Z</time>
      </trkpt>
      <trkpt lat="46.45641" lon="5.7328">
        <ele>640.4</ele>
        <time>2022-08-03T05:52:38Z</time>
      </trkpt>
      <trkpt lat="46.45626" lon="5.73259">
        <ele>639.2</ele>
        <time>2022-08-03T05:52:40Z</time>
      </trkpt>
      <trkpt lat="46.45619" lon="5.73247">
        <ele>638.8</ele>
        <time>2022-08-03T05:52:41Z</time>
      </trkpt>
      <trkpt lat="46.45614" lon="5.73234">
        <ele>638.2</ele>
        <time>2022-08-03T05:52:42Z</time>
      </trkpt>
      <trkpt lat="46.45609" lon="5.7322">
        <ele>638</ele>
        <time>2022-08-03T05:52:43Z</time>
      </trkpt>
      <trkpt lat="46.45604" lon="5.7319">
        <ele>637</ele>
        <time>2022-08-03T05:52:45Z</time>
      </trkpt>
      <trkpt lat="46.45601" lon="5.73161">
        <ele>635.8</ele>
        <time>2022-08-03T05:52:47Z</time>
      </trkpt>
      <trkpt lat="46.45599" lon="5.73146">
        <ele>635.6</ele>
        <time>2022-08-03T05:52:48Z</time>
      </trkpt>
      <trkpt lat="46.45592" lon="5.7312">
        <ele>634.8</ele>
        <time>2022-08-03T05:52:50Z</time>
      </trkpt>
      <trkpt lat="46.45587" lon="5.73109">
        <ele>634.2</ele>
        <time>2022-08-03T05:52:51Z</time>
      </trkpt>
      <trkpt lat="46.45569" lon="5.73078">
        <ele>633.6</ele>
        <time>2022-08-03T05:52:54Z</time>
      </trkpt>
      <trkpt lat="46.45542" lon="5.73019">
        <ele>632.6</ele>
        <time>2022-08-03T05:52:59Z</time>
      </trkpt>
      <trkpt lat="46.45536" lon="5.73008">
        <ele>632.4</ele>
        <time>2022-08-03T05:53:00Z</time>
      </trkpt>
      <trkpt lat="46.45509" lon="5.7296">
        <ele>631.4</ele>
        <time>2022-08-03T05:53:04Z</time>
      </trkpt>
      <trkpt lat="46.45501" lon="5.72949">
        <ele>630.4</ele>
        <time>2022-08-03T05:53:05Z</time>
      </trkpt>
      <trkpt lat="46.45493" lon="5.72937">
        <ele>630</ele>
        <time>2022-08-03T05:53:06Z</time>
      </trkpt>
      <trkpt lat="46.45476" lon="5.72917">
        <ele>628.6</ele>
        <time>2022-08-03T05:53:08Z</time>
      </trkpt>
      <trkpt lat="46.45458" lon="5.729">
        <ele>627.6</ele>
        <time>2022-08-03T05:53:10Z</time>
      </trkpt>
      <trkpt lat="46.4544" lon="5.72887">
        <ele>626</ele>
        <time>2022-08-03T05:53:12Z</time>
      </trkpt>
      <trkpt lat="46.4542" lon="5.72877">
        <ele>625</ele>
        <time>2022-08-03T05:53:14Z</time>
      </trkpt>
      <trkpt lat="46.4541" lon="5.72873">
        <ele>624.8</ele>
        <time>2022-08-03T05:53:15Z</time>
      </trkpt>
      <trkpt lat="46.45381" lon="5.72869">
        <ele>623.8</ele>
        <time>2022-08-03T05:53:18Z</time>
      </trkpt>
      <trkpt lat="46.45371" lon="5.7287">
        <ele>623.4</ele>
        <time>2022-08-03T05:53:19Z</time>
      </trkpt>
      <trkpt lat="46.45345" lon="5.72877">
        <ele>622.8</ele>
        <time>2022-08-03T05:53:22Z</time>
      </trkpt>
      <trkpt lat="46.4532" lon="5.72884">
        <ele>623</ele>
        <time>2022-08-03T05:53:25Z</time>
      </trkpt>
      <trkpt lat="46.45313" lon="5.72883">
        <ele>623.2</ele>
        <time>2022-08-03T05:53:26Z</time>
      </trkpt>
      <trkpt lat="46.45306" lon="5.7288">
        <ele>623.4</ele>
        <time>2022-08-03T05:53:27Z</time>
      </trkpt>
      <trkpt lat="46.45289" lon="5.72869">
        <ele>624</ele>
        <time>2022-08-03T05:53:30Z</time>
      </trkpt>
      <trkpt lat="46.45262" lon="5.7284">
        <ele>624.8</ele>
        <time>2022-08-03T05:53:35Z</time>
      </trkpt>
      <trkpt lat="46.45252" lon="5.72827">
        <ele>625.4</ele>
        <time>2022-08-03T05:53:37Z</time>
      </trkpt>
      <trkpt lat="46.45242" lon="5.72814">
        <ele>625.8</ele>
        <time>2022-08-03T05:53:39Z</time>
      </trkpt>
      <trkpt lat="46.45224" lon="5.7279">
        <ele>626.8</ele>
        <time>2022-08-03T05:53:43Z</time>
      </trkpt>
      <trkpt lat="46.45215" lon="5.72777">
        <ele>627.4</ele>
        <time>2022-08-03T05:53:45Z</time>
      </trkpt>
      <trkpt lat="46.45201" lon="5.72749">
        <ele>627.8</ele>
        <time>2022-08-03T05:53:49Z</time>
      </trkpt>
      <trkpt lat="46.45192" lon="5.72727">
        <ele>628.4</ele>
        <time>2022-08-03T05:53:52Z</time>
      </trkpt>
      <trkpt lat="46.4517" lon="5.72656">
        <ele>629</ele>
        <time>2022-08-03T05:54:01Z</time>
      </trkpt>
      <trkpt lat="46.45154" lon="5.72583">
        <ele>629.6</ele>
        <time>2022-08-03T05:54:10Z</time>
      </trkpt>
      <trkpt lat="46.45144" lon="5.72554">
        <ele>630</ele>
        <time>2022-08-03T05:54:14Z</time>
      </trkpt>
      <trkpt lat="46.45133" lon="5.72532">
        <ele>630.4</ele>
        <time>2022-08-03T05:54:17Z</time>
      </trkpt>
      <trkpt lat="46.45102" lon="5.72472">
        <ele>630.8</ele>
        <time>2022-08-03T05:54:26Z</time>
      </trkpt>
      <trkpt lat="46.45096" lon="5.7246">
        <ele>631</ele>
        <time>2022-08-03T05:54:28Z</time>
      </trkpt>
      <trkpt lat="46.45094" lon="5.72452">
        <ele>631.2</ele>
        <time>2022-08-03T05:54:29Z</time>
      </trkpt>
      <trkpt lat="46.45092" lon="5.72437">
        <ele>631.6</ele>
        <time>2022-08-03T05:54:31Z</time>
      </trkpt>
      <trkpt lat="46.45092" lon="5.72408">
        <ele>632.2</ele>
        <time>2022-08-03T05:54:35Z</time>
      </trkpt>
      <trkpt lat="46.45093" lon="5.724">
        <ele>632.4</ele>
        <time>2022-08-03T05:54:36Z</time>
      </trkpt>
      <trkpt lat="46.45093" lon="5.72376">
        <ele>633.2</ele>
        <time>2022-08-03T05:54:39Z</time>
      </trkpt>
      <trkpt lat="46.45091" lon="5.72351">
        <ele>633.6</ele>
        <time>2022-08-03T05:54:42Z</time>
      </trkpt>
      <trkpt lat="46.45079" lon="5.72295">
        <ele>634.6</ele>
        <time>2022-08-03T05:54:50Z</time>
      </trkpt>
      <trkpt lat="46.4507" lon="5.72263">
        <ele>635.6</ele>
        <time>2022-08-03T05:54:55Z</time>
      </trkpt>
      <trkpt lat="46.45062" lon="5.72238">
        <ele>637</ele>
        <time>2022-08-03T05:54:59Z</time>
      </trkpt>
      <trkpt lat="46.45053" lon="5.72214">
        <ele>638.2</ele>
        <time>2022-08-03T05:55:03Z</time>
      </trkpt>
      <trkpt lat="46.45046" lon="5.72198">
        <ele>638.8</ele>
        <time>2022-08-03T05:55:06Z</time>
      </trkpt>
      <trkpt lat="46.45044" lon="5.72192">
        <ele>638.8</ele>
        <time>2022-08-03T05:55:07Z</time>
      </trkpt>
      <trkpt lat="46.4504" lon="5.72181">
        <ele>639.4</ele>
        <time>2022-08-03T05:55:09Z</time>
      </trkpt>
      <trkpt lat="46.45037" lon="5.72175">
        <ele>639.8</ele>
        <time>2022-08-03T05:55:10Z</time>
      </trkpt>
      <trkpt lat="46.4503" lon="5.7216">
        <ele>640.8</ele>
        <time>2022-08-03T05:55:13Z</time>
      </trkpt>
      <trkpt lat="46.45026" lon="5.7215">
        <ele>641.4</ele>
        <time>2022-08-03T05:55:15Z</time>
      </trkpt>
      <trkpt lat="46.45019" lon="5.72136">
        <ele>642</ele>
        <time>2022-08-03T05:55:18Z</time>
      </trkpt>
      <trkpt lat="46.45007" lon="5.72106">
        <ele>642.6</ele>
        <time>2022-08-03T05:55:24Z</time>
      </trkpt>
      <trkpt lat="46.45003" lon="5.72096">
        <ele>643</ele>
        <time>2022-08-03T05:55:26Z</time>
      </trkpt>
      <trkpt lat="46.44998" lon="5.72079">
        <ele>644.4</ele>
        <time>2022-08-03T05:55:29Z</time>
      </trkpt>
      <trkpt lat="46.44994" lon="5.72067">
        <ele>644.8</ele>
        <time>2022-08-03T05:55:31Z</time>
      </trkpt>
      <trkpt lat="46.44982" lon="5.72037">
        <ele>645.4</ele>
        <time>2022-08-03T05:55:36Z</time>
      </trkpt>
      <trkpt lat="46.44973" lon="5.72021">
        <ele>645.8</ele>
        <time>2022-08-03T05:55:39Z</time>
      </trkpt>
      <trkpt lat="46.44963" lon="5.72005">
        <ele>645.8</ele>
        <time>2022-08-03T05:55:42Z</time>
      </trkpt>
      <trkpt lat="46.44955" lon="5.71996">
        <ele>645.8</ele>
        <time>2022-08-03T05:55:44Z</time>
      </trkpt>
      <trkpt lat="46.44942" lon="5.71983">
        <ele>645.8</ele>
        <time>2022-08-03T05:55:49Z</time>
      </trkpt>
      <trkpt lat="46.4494" lon="5.71981">
        <ele>645.6</ele>
        <time>2022-08-03T05:55:53Z</time>
      </trkpt>
      <trkpt lat="46.4494" lon="5.71981">
        <ele>645.6</ele>
        <time>2022-08-03T05:55:56Z</time>
      </trkpt>
      <trkpt lat="46.44937" lon="5.71981">
        <ele>645.8</ele>
        <time>2022-08-03T05:56:39Z</time>
      </trkpt>
      <trkpt lat="46.4493" lon="5.71978">
        <ele>645.8</ele>
        <time>2022-08-03T05:56:41Z</time>
      </trkpt>
      <trkpt lat="46.44925" lon="5.71976">
        <ele>645.8</ele>
        <time>2022-08-03T05:56:42Z</time>
      </trkpt>
      <trkpt lat="46.44908" lon="5.71967">
        <ele>646</ele>
        <time>2022-08-03T05:56:45Z</time>
      </trkpt>
      <trkpt lat="46.44854" lon="5.71936">
        <ele>645</ele>
        <time>2022-08-03T05:56:54Z</time>
      </trkpt>
      <trkpt lat="46.44813" lon="5.71907">
        <ele>644.6</ele>
        <time>2022-08-03T05:57:01Z</time>
      </trkpt>
      <trkpt lat="46.44794" lon="5.71892">
        <ele>644</ele>
        <time>2022-08-03T05:57:04Z</time>
      </trkpt>
      <trkpt lat="46.44772" lon="5.71876">
        <ele>643.8</ele>
        <time>2022-08-03T05:57:07Z</time>
      </trkpt>
      <trkpt lat="46.44747" lon="5.71864">
        <ele>643</ele>
        <time>2022-08-03T05:57:10Z</time>
      </trkpt>
      <trkpt lat="46.44738" lon="5.71861">
        <ele>642.6</ele>
        <time>2022-08-03T05:57:11Z</time>
      </trkpt>
      <trkpt lat="46.4472" lon="5.71857">
        <ele>641.8</ele>
        <time>2022-08-03T05:57:13Z</time>
      </trkpt>
      <trkpt lat="46.44695" lon="5.71856">
        <ele>640.8</ele>
        <time>2022-08-03T05:57:16Z</time>
      </trkpt>
      <trkpt lat="46.44647" lon="5.71846">
        <ele>640.2</ele>
        <time>2022-08-03T05:57:22Z</time>
      </trkpt>
      <trkpt lat="46.4464" lon="5.71843">
        <ele>640</ele>
        <time>2022-08-03T05:57:23Z</time>
      </trkpt>
      <trkpt lat="46.44617" lon="5.71829">
        <ele>639.8</ele>
        <time>2022-08-03T05:57:26Z</time>
      </trkpt>
      <trkpt lat="46.4461" lon="5.71823">
        <ele>639.6</ele>
        <time>2022-08-03T05:57:27Z</time>
      </trkpt>
      <trkpt lat="46.44574" lon="5.71791">
        <ele>638.4</ele>
        <time>2022-08-03T05:57:32Z</time>
      </trkpt>
      <trkpt lat="46.44566" lon="5.71785">
        <ele>638.2</ele>
        <time>2022-08-03T05:57:33Z</time>
      </trkpt>
      <trkpt lat="46.44557" lon="5.7178">
        <ele>637.8</ele>
        <time>2022-08-03T05:57:34Z</time>
      </trkpt>
      <trkpt lat="46.44538" lon="5.71772">
        <ele>636.6</ele>
        <time>2022-08-03T05:57:36Z</time>
      </trkpt>
      <trkpt lat="46.44528" lon="5.71769">
        <ele>636.2</ele>
        <time>2022-08-03T05:57:37Z</time>
      </trkpt>
      <trkpt lat="46.44496" lon="5.7176">
        <ele>635.4</ele>
        <time>2022-08-03T05:57:40Z</time>
      </trkpt>
      <trkpt lat="46.44484" lon="5.71757">
        <ele>634.4</ele>
        <time>2022-08-03T05:57:41Z</time>
      </trkpt>
      <trkpt lat="46.44472" lon="5.71754">
        <ele>634</ele>
        <time>2022-08-03T05:57:42Z</time>
      </trkpt>
      <trkpt lat="46.4446" lon="5.7175">
        <ele>633</ele>
        <time>2022-08-03T05:57:43Z</time>
      </trkpt>
      <trkpt lat="46.44447" lon="5.71747">
        <ele>631.6</ele>
        <time>2022-08-03T05:57:44Z</time>
      </trkpt>
      <trkpt lat="46.44423" lon="5.71741">
        <ele>629.6</ele>
        <time>2022-08-03T05:57:46Z</time>
      </trkpt>
      <trkpt lat="46.44398" lon="5.71735">
        <ele>627.8</ele>
        <time>2022-08-03T05:57:48Z</time>
      </trkpt>
      <trkpt lat="46.44387" lon="5.71733">
        <ele>627.2</ele>
        <time>2022-08-03T05:57:49Z</time>
      </trkpt>
      <trkpt lat="46.44375" lon="5.71732">
        <ele>625.8</ele>
        <time>2022-08-03T05:57:50Z</time>
      </trkpt>
      <trkpt lat="46.44363" lon="5.71732">
        <ele>624.4</ele>
        <time>2022-08-03T05:57:51Z</time>
      </trkpt>
      <trkpt lat="46.4434" lon="5.71734">
        <ele>623</ele>
        <time>2022-08-03T05:57:53Z</time>
      </trkpt>
      <trkpt lat="46.4431" lon="5.71739">
        <ele>622</ele>
        <time>2022-08-03T05:57:56Z</time>
      </trkpt>
      <trkpt lat="46.44301" lon="5.71741">
        <ele>621</ele>
        <time>2022-08-03T05:57:57Z</time>
      </trkpt>
      <trkpt lat="46.44291" lon="5.71743">
        <ele>620.8</ele>
        <time>2022-08-03T05:57:58Z</time>
      </trkpt>
      <trkpt lat="46.44272" lon="5.71748">
        <ele>619.6</ele>
        <time>2022-08-03T05:58:00Z</time>
      </trkpt>
      <trkpt lat="46.44253" lon="5.71755">
        <ele>619</ele>
        <time>2022-08-03T05:58:02Z</time>
      </trkpt>
      <trkpt lat="46.44235" lon="5.71767">
        <ele>618.2</ele>
        <time>2022-08-03T05:58:04Z</time>
      </trkpt>
      <trkpt lat="46.44216" lon="5.71779">
        <ele>617.2</ele>
        <time>2022-08-03T05:58:06Z</time>
      </trkpt>
      <trkpt lat="46.44197" lon="5.71793">
        <ele>616.4</ele>
        <time>2022-08-03T05:58:08Z</time>
      </trkpt>
      <trkpt lat="46.44187" lon="5.718">
        <ele>615.8</ele>
        <time>2022-08-03T05:58:09Z</time>
      </trkpt>
      <trkpt lat="46.44158" lon="5.71821">
        <ele>614.4</ele>
        <time>2022-08-03T05:58:12Z</time>
      </trkpt>
      <trkpt lat="46.44139" lon="5.71835">
        <ele>613</ele>
        <time>2022-08-03T05:58:14Z</time>
      </trkpt>
      <trkpt lat="46.4413" lon="5.71842">
        <ele>612.6</ele>
        <time>2022-08-03T05:58:15Z</time>
      </trkpt>
      <trkpt lat="46.4412" lon="5.71849">
        <ele>612</ele>
        <time>2022-08-03T05:58:16Z</time>
      </trkpt>
      <trkpt lat="46.441" lon="5.71862">
        <ele>610.8</ele>
        <time>2022-08-03T05:58:18Z</time>
      </trkpt>
      <trkpt lat="46.44072" lon="5.71878">
        <ele>609.2</ele>
        <time>2022-08-03T05:58:21Z</time>
      </trkpt>
      <trkpt lat="46.44063" lon="5.71883">
        <ele>608.8</ele>
        <time>2022-08-03T05:58:22Z</time>
      </trkpt>
      <trkpt lat="46.44038" lon="5.719">
        <ele>607.8</ele>
        <time>2022-08-03T05:58:25Z</time>
      </trkpt>
      <trkpt lat="46.44032" lon="5.71907">
        <ele>607.6</ele>
        <time>2022-08-03T05:58:26Z</time>
      </trkpt>
      <trkpt lat="46.4402" lon="5.71923">
        <ele>607.6</ele>
        <time>2022-08-03T05:58:28Z</time>
      </trkpt>
      <trkpt lat="46.44009" lon="5.71941">
        <ele>607.6</ele>
        <time>2022-08-03T05:58:30Z</time>
      </trkpt>
      <trkpt lat="46.43969" lon="5.72008">
        <ele>606.6</ele>
        <time>2022-08-03T05:58:37Z</time>
      </trkpt>
      <trkpt lat="46.43963" lon="5.72017">
        <ele>606.2</ele>
        <time>2022-08-03T05:58:38Z</time>
      </trkpt>
      <trkpt lat="46.43952" lon="5.72035">
        <ele>605.4</ele>
        <time>2022-08-03T05:58:40Z</time>
      </trkpt>
      <trkpt lat="46.43934" lon="5.72068">
        <ele>604.6</ele>
        <time>2022-08-03T05:58:44Z</time>
      </trkpt>
      <trkpt lat="46.43909" lon="5.72109">
        <ele>604.6</ele>
        <time>2022-08-03T05:58:50Z</time>
      </trkpt>
      <trkpt lat="46.43902" lon="5.72116">
        <ele>604.6</ele>
        <time>2022-08-03T05:58:52Z</time>
      </trkpt>
      <trkpt lat="46.43898" lon="5.72117">
        <ele>604.6</ele>
        <time>2022-08-03T05:58:53Z</time>
      </trkpt>
      <trkpt lat="46.43891" lon="5.72114">
        <ele>604.6</ele>
        <time>2022-08-03T05:58:56Z</time>
      </trkpt>
      <trkpt lat="46.43887" lon="5.72123">
        <ele>604.2</ele>
        <time>2022-08-03T05:58:58Z</time>
      </trkpt>
      <trkpt lat="46.43885" lon="5.72129">
        <ele>604.2</ele>
        <time>2022-08-03T05:58:59Z</time>
      </trkpt>
      <trkpt lat="46.43875" lon="5.72158">
        <ele>603.8</ele>
        <time>2022-08-03T05:59:03Z</time>
      </trkpt>
      <trkpt lat="46.43853" lon="5.72215">
        <ele>603.4</ele>
        <time>2022-08-03T05:59:10Z</time>
      </trkpt>
      <trkpt lat="46.43818" lon="5.72279">
        <ele>603.4</ele>
        <time>2022-08-03T05:59:19Z</time>
      </trkpt>
      <trkpt lat="46.43785" lon="5.72329">
        <ele>603.6</ele>
        <time>2022-08-03T05:59:26Z</time>
      </trkpt>
      <trkpt lat="46.4376" lon="5.72363">
        <ele>603.2</ele>
        <time>2022-08-03T05:59:31Z</time>
      </trkpt>
      <trkpt lat="46.43755" lon="5.72369">
        <ele>603.2</ele>
        <time>2022-08-03T05:59:32Z</time>
      </trkpt>
      <trkpt lat="46.43718" lon="5.72395">
        <ele>603.2</ele>
        <time>2022-08-03T05:59:38Z</time>
      </trkpt>
      <trkpt lat="46.43669" lon="5.72422">
        <ele>603.4</ele>
        <time>2022-08-03T05:59:46Z</time>
      </trkpt>
      <trkpt lat="46.43632" lon="5.72441">
        <ele>603.8</ele>
        <time>2022-08-03T05:59:52Z</time>
      </trkpt>
      <trkpt lat="46.43595" lon="5.72459">
        <ele>604</ele>
        <time>2022-08-03T05:59:58Z</time>
      </trkpt>
      <trkpt lat="46.43577" lon="5.72469">
        <ele>604.2</ele>
        <time>2022-08-03T06:00:01Z</time>
      </trkpt>
      <trkpt lat="46.43547" lon="5.72484">
        <ele>604.6</ele>
        <time>2022-08-03T06:00:06Z</time>
      </trkpt>
      <trkpt lat="46.43492" lon="5.72509">
        <ele>605.2</ele>
        <time>2022-08-03T06:00:16Z</time>
      </trkpt>
      <trkpt lat="46.43475" lon="5.72516">
        <ele>605.4</ele>
        <time>2022-08-03T06:00:19Z</time>
      </trkpt>
      <trkpt lat="46.43466" lon="5.72515">
        <ele>605.8</ele>
        <time>2022-08-03T06:00:21Z</time>
      </trkpt>
      <trkpt lat="46.43458" lon="5.72507">
        <ele>606.2</ele>
        <time>2022-08-03T06:00:23Z</time>
      </trkpt>
      <trkpt lat="46.43454" lon="5.72504">
        <ele>606.4</ele>
        <time>2022-08-03T06:00:24Z</time>
      </trkpt>
      <trkpt lat="46.4345" lon="5.72503">
        <ele>606.6</ele>
        <time>2022-08-03T06:00:25Z</time>
      </trkpt>
      <trkpt lat="46.43444" lon="5.72503">
        <ele>606.8</ele>
        <time>2022-08-03T06:00:26Z</time>
      </trkpt>
      <trkpt lat="46.43435" lon="5.72507">
        <ele>607.2</ele>
        <time>2022-08-03T06:00:28Z</time>
      </trkpt>
      <trkpt lat="46.43429" lon="5.7251">
        <ele>607.4</ele>
        <time>2022-08-03T06:00:29Z</time>
      </trkpt>
      <trkpt lat="46.43424" lon="5.72512">
        <ele>607.6</ele>
        <time>2022-08-03T06:00:30Z</time>
      </trkpt>
      <trkpt lat="46.43412" lon="5.72512">
        <ele>607.8</ele>
        <time>2022-08-03T06:00:32Z</time>
      </trkpt>
      <trkpt lat="46.43407" lon="5.7251">
        <ele>608</ele>
        <time>2022-08-03T06:00:33Z</time>
      </trkpt>
      <trkpt lat="46.43357" lon="5.7249">
        <ele>608.2</ele>
        <time>2022-08-03T06:00:42Z</time>
      </trkpt>
      <trkpt lat="46.43348" lon="5.72486">
        <ele>608.4</ele>
        <time>2022-08-03T06:00:44Z</time>
      </trkpt>
      <trkpt lat="46.43309" lon="5.7247">
        <ele>609</ele>
        <time>2022-08-03T06:00:51Z</time>
      </trkpt>
      <trkpt lat="46.43287" lon="5.72462">
        <ele>609.4</ele>
        <time>2022-08-03T06:00:55Z</time>
      </trkpt>
      <trkpt lat="46.43255" lon="5.72451">
        <ele>610</ele>
        <time>2022-08-03T06:01:01Z</time>
      </trkpt>
      <trkpt lat="46.43209" lon="5.72449">
        <ele>610.6</ele>
        <time>2022-08-03T06:01:09Z</time>
      </trkpt>
      <trkpt lat="46.43176" lon="5.7245">
        <ele>611</ele>
        <time>2022-08-03T06:01:15Z</time>
      </trkpt>
      <trkpt lat="46.4317" lon="5.72451">
        <ele>611.2</ele>
        <time>2022-08-03T06:01:16Z</time>
      </trkpt>
      <trkpt lat="46.43132" lon="5.72454">
        <ele>611.6</ele>
        <time>2022-08-03T06:01:23Z</time>
      </trkpt>
      <trkpt lat="46.43127" lon="5.72455">
        <ele>611.8</ele>
        <time>2022-08-03T06:01:24Z</time>
      </trkpt>
      <trkpt lat="46.43116" lon="5.72457">
        <ele>612</ele>
        <time>2022-08-03T06:01:26Z</time>
      </trkpt>
      <trkpt lat="46.43101" lon="5.72459">
        <ele>612.4</ele>
        <time>2022-08-03T06:01:29Z</time>
      </trkpt>
      <trkpt lat="46.43073" lon="5.72462">
        <ele>612.6</ele>
        <time>2022-08-03T06:01:34Z</time>
      </trkpt>
      <trkpt lat="46.43067" lon="5.72463">
        <ele>612.6</ele>
        <time>2022-08-03T06:01:35Z</time>
      </trkpt>
      <trkpt lat="46.43026" lon="5.72466">
        <ele>612.8</ele>
        <time>2022-08-03T06:01:42Z</time>
      </trkpt>
      <trkpt lat="46.43021" lon="5.72468">
        <ele>612.8</ele>
        <time>2022-08-03T06:01:43Z</time>
      </trkpt>
      <trkpt lat="46.42992" lon="5.72476">
        <ele>613</ele>
        <time>2022-08-03T06:01:48Z</time>
      </trkpt>
      <trkpt lat="46.42981" lon="5.72476">
        <ele>613</ele>
        <time>2022-08-03T06:01:50Z</time>
      </trkpt>
      <trkpt lat="46.42958" lon="5.72473">
        <ele>613.4</ele>
        <time>2022-08-03T06:01:54Z</time>
      </trkpt>
      <trkpt lat="46.42927" lon="5.72473">
        <ele>613.6</ele>
        <time>2022-08-03T06:01:59Z</time>
      </trkpt>
      <trkpt lat="46.42909" lon="5.72475">
        <ele>613.6</ele>
        <time>2022-08-03T06:02:02Z</time>
      </trkpt>
      <trkpt lat="46.4289" lon="5.72476">
        <ele>613.6</ele>
        <time>2022-08-03T06:02:05Z</time>
      </trkpt>
      <trkpt lat="46.42878" lon="5.72477">
        <ele>613.6</ele>
        <time>2022-08-03T06:02:07Z</time>
      </trkpt>
      <trkpt lat="46.4286" lon="5.72478">
        <ele>613.6</ele>
        <time>2022-08-03T06:02:10Z</time>
      </trkpt>
      <trkpt lat="46.42812" lon="5.72481">
        <ele>613.8</ele>
        <time>2022-08-03T06:02:18Z</time>
      </trkpt>
      <trkpt lat="46.42807" lon="5.72482">
        <ele>613.8</ele>
        <time>2022-08-03T06:02:19Z</time>
      </trkpt>
      <trkpt lat="46.42778" lon="5.72484">
        <ele>614</ele>
        <time>2022-08-03T06:02:24Z</time>
      </trkpt>
      <trkpt lat="46.42726" lon="5.72488">
        <ele>614</ele>
        <time>2022-08-03T06:02:33Z</time>
      </trkpt>
      <trkpt lat="46.42696" lon="5.72491">
        <ele>614.2</ele>
        <time>2022-08-03T06:02:38Z</time>
      </trkpt>
      <trkpt lat="46.42673" lon="5.72492">
        <ele>614.4</ele>
        <time>2022-08-03T06:02:42Z</time>
      </trkpt>
      <trkpt lat="46.42632" lon="5.72496">
        <ele>614.6</ele>
        <time>2022-08-03T06:02:49Z</time>
      </trkpt>
      <trkpt lat="46.42626" lon="5.72496">
        <ele>614.6</ele>
        <time>2022-08-03T06:02:50Z</time>
      </trkpt>
      <trkpt lat="46.42591" lon="5.725">
        <ele>615.2</ele>
        <time>2022-08-03T06:02:56Z</time>
      </trkpt>
      <trkpt lat="46.42585" lon="5.72502">
        <ele>615.2</ele>
        <time>2022-08-03T06:02:57Z</time>
      </trkpt>
      <trkpt lat="46.4258" lon="5.72506">
        <ele>615.2</ele>
        <time>2022-08-03T06:02:58Z</time>
      </trkpt>
      <trkpt lat="46.42575" lon="5.7251">
        <ele>615.2</ele>
        <time>2022-08-03T06:02:59Z</time>
      </trkpt>
      <trkpt lat="46.42562" lon="5.7252">
        <ele>615.4</ele>
        <time>2022-08-03T06:03:02Z</time>
      </trkpt>
      <trkpt lat="46.42548" lon="5.72528">
        <ele>615.4</ele>
        <time>2022-08-03T06:03:07Z</time>
      </trkpt>
      <trkpt lat="46.42531" lon="5.72528">
        <ele>615.6</ele>
        <time>2022-08-03T06:03:11Z</time>
      </trkpt>
      <trkpt lat="46.42507" lon="5.72523">
        <ele>615.8</ele>
        <time>2022-08-03T06:03:16Z</time>
      </trkpt>
      <trkpt lat="46.42503" lon="5.72522">
        <ele>615.8</ele>
        <time>2022-08-03T06:03:17Z</time>
      </trkpt>
      <trkpt lat="46.42496" lon="5.72525">
        <ele>616</ele>
        <time>2022-08-03T06:03:19Z</time>
      </trkpt>
      <trkpt lat="46.42494" lon="5.72529">
        <ele>616</ele>
        <time>2022-08-03T06:03:20Z</time>
      </trkpt>
      <trkpt lat="46.42494" lon="5.72534">
        <ele>616.2</ele>
        <time>2022-08-03T06:03:21Z</time>
      </trkpt>
      <trkpt lat="46.42499" lon="5.72551">
        <ele>616.6</ele>
        <time>2022-08-03T06:03:24Z</time>
      </trkpt>
      <trkpt lat="46.42501" lon="5.72559">
        <ele>616.6</ele>
        <time>2022-08-03T06:03:25Z</time>
      </trkpt>
      <trkpt lat="46.42504" lon="5.7258">
        <ele>616.6</ele>
        <time>2022-08-03T06:03:28Z</time>
      </trkpt>
      <trkpt lat="46.42505" lon="5.72587">
        <ele>616.8</ele>
        <time>2022-08-03T06:03:29Z</time>
      </trkpt>
      <trkpt lat="46.42505" lon="5.72602">
        <ele>616.8</ele>
        <time>2022-08-03T06:03:31Z</time>
      </trkpt>
      <trkpt lat="46.42502" lon="5.7263">
        <ele>617.2</ele>
        <time>2022-08-03T06:03:35Z</time>
      </trkpt>
      <trkpt lat="46.42502" lon="5.72637">
        <ele>617.4</ele>
        <time>2022-08-03T06:03:36Z</time>
      </trkpt>
      <trkpt lat="46.42499" lon="5.72669">
        <ele>618.4</ele>
        <time>2022-08-03T06:03:41Z</time>
      </trkpt>
      <trkpt lat="46.42498" lon="5.72682">
        <ele>618.6</ele>
        <time>2022-08-03T06:03:43Z</time>
      </trkpt>
      <trkpt lat="46.42498" lon="5.72688">
        <ele>619.2</ele>
        <time>2022-08-03T06:03:44Z</time>
      </trkpt>
      <trkpt lat="46.42497" lon="5.72694">
        <ele>619.6</ele>
        <time>2022-08-03T06:03:45Z</time>
      </trkpt>
      <trkpt lat="46.42495" lon="5.72719">
        <ele>620.6</ele>
        <time>2022-08-03T06:03:49Z</time>
      </trkpt>
      <trkpt lat="46.42495" lon="5.72725">
        <ele>620.8</ele>
        <time>2022-08-03T06:03:50Z</time>
      </trkpt>
      <trkpt lat="46.42494" lon="5.72731">
        <ele>621</ele>
        <time>2022-08-03T06:03:51Z</time>
      </trkpt>
      <trkpt lat="46.42492" lon="5.72749">
        <ele>621.6</ele>
        <time>2022-08-03T06:03:54Z</time>
      </trkpt>
      <trkpt lat="46.42491" lon="5.72761">
        <ele>622</ele>
        <time>2022-08-03T06:03:56Z</time>
      </trkpt>
      <trkpt lat="46.4249" lon="5.72786">
        <ele>622.8</ele>
        <time>2022-08-03T06:04:00Z</time>
      </trkpt>
      <trkpt lat="46.42491" lon="5.72804">
        <ele>623.4</ele>
        <time>2022-08-03T06:04:03Z</time>
      </trkpt>
      <trkpt lat="46.42493" lon="5.72815">
        <ele>624</ele>
        <time>2022-08-03T06:04:05Z</time>
      </trkpt>
      <trkpt lat="46.42494" lon="5.7282">
        <ele>624.4</ele>
        <time>2022-08-03T06:04:06Z</time>
      </trkpt>
      <trkpt lat="46.42497" lon="5.72833">
        <ele>625.2</ele>
        <time>2022-08-03T06:04:08Z</time>
      </trkpt>
      <trkpt lat="46.42498" lon="5.72838">
        <ele>625.2</ele>
        <time>2022-08-03T06:04:09Z</time>
      </trkpt>
      <trkpt lat="46.42501" lon="5.72844">
        <ele>625.6</ele>
        <time>2022-08-03T06:04:10Z</time>
      </trkpt>
      <trkpt lat="46.42512" lon="5.72864">
        <ele>626.4</ele>
        <time>2022-08-03T06:04:14Z</time>
      </trkpt>
      <trkpt lat="46.42515" lon="5.72869">
        <ele>626.6</ele>
        <time>2022-08-03T06:04:15Z</time>
      </trkpt>
      <trkpt lat="46.42521" lon="5.72877">
        <ele>627</ele>
        <time>2022-08-03T06:04:17Z</time>
      </trkpt>
      <trkpt lat="46.42525" lon="5.72881">
        <ele>627.2</ele>
        <time>2022-08-03T06:04:18Z</time>
      </trkpt>
      <trkpt lat="46.42528" lon="5.72884">
        <ele>627.4</ele>
        <time>2022-08-03T06:04:19Z</time>
      </trkpt>
      <trkpt lat="46.42538" lon="5.72894">
        <ele>628</ele>
        <time>2022-08-03T06:04:22Z</time>
      </trkpt>
      <trkpt lat="46.42548" lon="5.72902">
        <ele>628.6</ele>
        <time>2022-08-03T06:04:25Z</time>
      </trkpt>
      <trkpt lat="46.42562" lon="5.72911">
        <ele>629.6</ele>
        <time>2022-08-03T06:04:29Z</time>
      </trkpt>
      <trkpt lat="46.42583" lon="5.72925">
        <ele>630.6</ele>
        <time>2022-08-03T06:04:35Z</time>
      </trkpt>
      <trkpt lat="46.4259" lon="5.7293">
        <ele>631</ele>
        <time>2022-08-03T06:04:37Z</time>
      </trkpt>
      <trkpt lat="46.42599" lon="5.72936">
        <ele>631.8</ele>
        <time>2022-08-03T06:04:40Z</time>
      </trkpt>
      <trkpt lat="46.42616" lon="5.72946">
        <ele>632.4</ele>
        <time>2022-08-03T06:04:45Z</time>
      </trkpt>
      <trkpt lat="46.42623" lon="5.7295">
        <ele>632.8</ele>
        <time>2022-08-03T06:04:47Z</time>
      </trkpt>
      <trkpt lat="46.42639" lon="5.72962">
        <ele>634.2</ele>
        <time>2022-08-03T06:04:52Z</time>
      </trkpt>
      <trkpt lat="46.42658" lon="5.72976">
        <ele>635.4</ele>
        <time>2022-08-03T06:04:58Z</time>
      </trkpt>
      <trkpt lat="46.42666" lon="5.72986">
        <ele>636.2</ele>
        <time>2022-08-03T06:05:01Z</time>
      </trkpt>
      <trkpt lat="46.42671" lon="5.72993">
        <ele>636.6</ele>
        <time>2022-08-03T06:05:03Z</time>
      </trkpt>
      <trkpt lat="46.4268" lon="5.73007">
        <ele>637</ele>
        <time>2022-08-03T06:05:07Z</time>
      </trkpt>
      <trkpt lat="46.42688" lon="5.73023">
        <ele>637.6</ele>
        <time>2022-08-03T06:05:11Z</time>
      </trkpt>
      <trkpt lat="46.42695" lon="5.73037">
        <ele>638.4</ele>
        <time>2022-08-03T06:05:14Z</time>
      </trkpt>
      <trkpt lat="46.42697" lon="5.73041">
        <ele>638.6</ele>
        <time>2022-08-03T06:05:15Z</time>
      </trkpt>
      <trkpt lat="46.42713" lon="5.7307">
        <ele>639.8</ele>
        <time>2022-08-03T06:05:22Z</time>
      </trkpt>
      <trkpt lat="46.42716" lon="5.73073">
        <ele>640</ele>
        <time>2022-08-03T06:05:23Z</time>
      </trkpt>
      <trkpt lat="46.42729" lon="5.73092">
        <ele>641.2</ele>
        <time>2022-08-03T06:05:28Z</time>
      </trkpt>
      <trkpt lat="46.42737" lon="5.73103">
        <ele>641.8</ele>
        <time>2022-08-03T06:05:31Z</time>
      </trkpt>
      <trkpt lat="46.4274" lon="5.73106">
        <ele>642</ele>
        <time>2022-08-03T06:05:32Z</time>
      </trkpt>
      <trkpt lat="46.42743" lon="5.7311">
        <ele>642.2</ele>
        <time>2022-08-03T06:05:33Z</time>
      </trkpt>
      <trkpt lat="46.42758" lon="5.73126">
        <ele>643</ele>
        <time>2022-08-03T06:05:38Z</time>
      </trkpt>
      <trkpt lat="46.42764" lon="5.73132">
        <ele>643.2</ele>
        <time>2022-08-03T06:05:40Z</time>
      </trkpt>
      <trkpt lat="46.42779" lon="5.73148">
        <ele>644.2</ele>
        <time>2022-08-03T06:05:45Z</time>
      </trkpt>
      <trkpt lat="46.42782" lon="5.7315">
        <ele>644.4</ele>
        <time>2022-08-03T06:05:46Z</time>
      </trkpt>
      <trkpt lat="46.4279" lon="5.7316">
        <ele>645.4</ele>
        <time>2022-08-03T06:05:49Z</time>
      </trkpt>
      <trkpt lat="46.42804" lon="5.73176">
        <ele>646.2</ele>
        <time>2022-08-03T06:05:54Z</time>
      </trkpt>
      <trkpt lat="46.42807" lon="5.73179">
        <ele>646.4</ele>
        <time>2022-08-03T06:05:55Z</time>
      </trkpt>
      <trkpt lat="46.4282" lon="5.73193">
        <ele>647.4</ele>
        <time>2022-08-03T06:06:00Z</time>
      </trkpt>
      <trkpt lat="46.42828" lon="5.732">
        <ele>647.8</ele>
        <time>2022-08-03T06:06:02Z</time>
      </trkpt>
      <trkpt lat="46.42845" lon="5.73216">
        <ele>648.4</ele>
        <time>2022-08-03T06:06:07Z</time>
      </trkpt>
      <trkpt lat="46.42854" lon="5.73225">
        <ele>649.4</ele>
        <time>2022-08-03T06:06:10Z</time>
      </trkpt>
      <trkpt lat="46.42863" lon="5.73236">
        <ele>650</ele>
        <time>2022-08-03T06:06:13Z</time>
      </trkpt>
      <trkpt lat="46.42875" lon="5.73251">
        <ele>650.6</ele>
        <time>2022-08-03T06:06:17Z</time>
      </trkpt>
      <trkpt lat="46.42882" lon="5.73263">
        <ele>651.2</ele>
        <time>2022-08-03T06:06:20Z</time>
      </trkpt>
      <trkpt lat="46.42888" lon="5.73274">
        <ele>651.8</ele>
        <time>2022-08-03T06:06:23Z</time>
      </trkpt>
      <trkpt lat="46.42898" lon="5.73294">
        <ele>653</ele>
        <time>2022-08-03T06:06:28Z</time>
      </trkpt>
      <trkpt lat="46.42901" lon="5.73298">
        <ele>653</ele>
        <time>2022-08-03T06:06:29Z</time>
      </trkpt>
      <trkpt lat="46.4291" lon="5.73314">
        <ele>654</ele>
        <time>2022-08-03T06:06:33Z</time>
      </trkpt>
      <trkpt lat="46.42919" lon="5.73327">
        <ele>654.4</ele>
        <time>2022-08-03T06:06:36Z</time>
      </trkpt>
      <trkpt lat="46.4293" lon="5.73343">
        <ele>655</ele>
        <time>2022-08-03T06:06:40Z</time>
      </trkpt>
      <trkpt lat="46.42938" lon="5.73356">
        <ele>655.6</ele>
        <time>2022-08-03T06:06:43Z</time>
      </trkpt>
      <trkpt lat="46.42944" lon="5.73365">
        <ele>656</ele>
        <time>2022-08-03T06:06:45Z</time>
      </trkpt>
      <trkpt lat="46.42956" lon="5.73386">
        <ele>657</ele>
        <time>2022-08-03T06:06:50Z</time>
      </trkpt>
      <trkpt lat="46.42959" lon="5.73391">
        <ele>657.2</ele>
        <time>2022-08-03T06:06:51Z</time>
      </trkpt>
      <trkpt lat="46.42973" lon="5.73411">
        <ele>658.4</ele>
        <time>2022-08-03T06:06:56Z</time>
      </trkpt>
      <trkpt lat="46.42976" lon="5.73415">
        <ele>658.6</ele>
        <time>2022-08-03T06:06:57Z</time>
      </trkpt>
      <trkpt lat="46.42986" lon="5.73431">
        <ele>659.4</ele>
        <time>2022-08-03T06:07:01Z</time>
      </trkpt>
      <trkpt lat="46.42997" lon="5.73445">
        <ele>660.4</ele>
        <time>2022-08-03T06:07:05Z</time>
      </trkpt>
      <trkpt lat="46.42999" lon="5.7345">
        <ele>660.6</ele>
        <time>2022-08-03T06:07:06Z</time>
      </trkpt>
      <trkpt lat="46.43006" lon="5.73466">
        <ele>661.4</ele>
        <time>2022-08-03T06:07:10Z</time>
      </trkpt>
      <trkpt lat="46.4301" lon="5.73474">
        <ele>661.8</ele>
        <time>2022-08-03T06:07:12Z</time>
      </trkpt>
      <trkpt lat="46.43021" lon="5.73494">
        <ele>662.6</ele>
        <time>2022-08-03T06:07:17Z</time>
      </trkpt>
      <trkpt lat="46.43027" lon="5.73506">
        <ele>663.2</ele>
        <time>2022-08-03T06:07:20Z</time>
      </trkpt>
      <trkpt lat="46.43031" lon="5.73514">
        <ele>663.8</ele>
        <time>2022-08-03T06:07:22Z</time>
      </trkpt>
      <trkpt lat="46.43039" lon="5.7353">
        <ele>665</ele>
        <time>2022-08-03T06:07:26Z</time>
      </trkpt>
      <trkpt lat="46.43051" lon="5.7355">
        <ele>666</ele>
        <time>2022-08-03T06:07:31Z</time>
      </trkpt>
      <trkpt lat="46.43055" lon="5.73558">
        <ele>666</ele>
        <time>2022-08-03T06:07:33Z</time>
      </trkpt>
      <trkpt lat="46.43068" lon="5.73579">
        <ele>667</ele>
        <time>2022-08-03T06:07:39Z</time>
      </trkpt>
      <trkpt lat="46.43081" lon="5.73598">
        <ele>668</ele>
        <time>2022-08-03T06:07:44Z</time>
      </trkpt>
      <trkpt lat="46.43083" lon="5.73601">
        <ele>668.2</ele>
        <time>2022-08-03T06:07:45Z</time>
      </trkpt>
      <trkpt lat="46.43093" lon="5.73616">
        <ele>669.2</ele>
        <time>2022-08-03T06:07:49Z</time>
      </trkpt>
      <trkpt lat="46.43098" lon="5.73623">
        <ele>669.4</ele>
        <time>2022-08-03T06:07:51Z</time>
      </trkpt>
      <trkpt lat="46.4311" lon="5.73639">
        <ele>670.2</ele>
        <time>2022-08-03T06:07:55Z</time>
      </trkpt>
      <trkpt lat="46.43112" lon="5.73643">
        <ele>670.4</ele>
        <time>2022-08-03T06:07:56Z</time>
      </trkpt>
      <trkpt lat="46.43124" lon="5.73661">
        <ele>671.4</ele>
        <time>2022-08-03T06:08:01Z</time>
      </trkpt>
      <trkpt lat="46.43128" lon="5.73668">
        <ele>671.8</ele>
        <time>2022-08-03T06:08:03Z</time>
      </trkpt>
      <trkpt lat="46.43135" lon="5.7368">
        <ele>672.4</ele>
        <time>2022-08-03T06:08:06Z</time>
      </trkpt>
      <trkpt lat="46.43146" lon="5.73695">
        <ele>673</ele>
        <time>2022-08-03T06:08:10Z</time>
      </trkpt>
      <trkpt lat="46.43157" lon="5.73707">
        <ele>673.6</ele>
        <time>2022-08-03T06:08:14Z</time>
      </trkpt>
      <trkpt lat="46.4316" lon="5.7371">
        <ele>673.8</ele>
        <time>2022-08-03T06:08:15Z</time>
      </trkpt>
      <trkpt lat="46.43176" lon="5.73725">
        <ele>674.6</ele>
        <time>2022-08-03T06:08:20Z</time>
      </trkpt>
      <trkpt lat="46.43189" lon="5.73735">
        <ele>675.4</ele>
        <time>2022-08-03T06:08:24Z</time>
      </trkpt>
      <trkpt lat="46.43202" lon="5.73744">
        <ele>676.4</ele>
        <time>2022-08-03T06:08:28Z</time>
      </trkpt>
      <trkpt lat="46.43211" lon="5.73752">
        <ele>677.4</ele>
        <time>2022-08-03T06:08:31Z</time>
      </trkpt>
      <trkpt lat="46.43214" lon="5.73754">
        <ele>677.6</ele>
        <time>2022-08-03T06:08:32Z</time>
      </trkpt>
      <trkpt lat="46.43229" lon="5.73768">
        <ele>678.6</ele>
        <time>2022-08-03T06:08:38Z</time>
      </trkpt>
      <trkpt lat="46.43231" lon="5.7377">
        <ele>678.6</ele>
        <time>2022-08-03T06:08:39Z</time>
      </trkpt>
      <trkpt lat="46.43248" lon="5.73783">
        <ele>679.4</ele>
        <time>2022-08-03T06:08:45Z</time>
      </trkpt>
      <trkpt lat="46.43254" lon="5.73787">
        <ele>679.8</ele>
        <time>2022-08-03T06:08:47Z</time>
      </trkpt>
      <trkpt lat="46.43272" lon="5.73798">
        <ele>680.6</ele>
        <time>2022-08-03T06:08:53Z</time>
      </trkpt>
      <trkpt lat="46.43289" lon="5.73808">
        <ele>681.8</ele>
        <time>2022-08-03T06:08:58Z</time>
      </trkpt>
      <trkpt lat="46.433" lon="5.73814">
        <ele>682.2</ele>
        <time>2022-08-03T06:09:01Z</time>
      </trkpt>
      <trkpt lat="46.43311" lon="5.73821">
        <ele>682.8</ele>
        <time>2022-08-03T06:09:04Z</time>
      </trkpt>
      <trkpt lat="46.43322" lon="5.73825">
        <ele>683.6</ele>
        <time>2022-08-03T06:09:07Z</time>
      </trkpt>
      <trkpt lat="46.43326" lon="5.73826">
        <ele>683.8</ele>
        <time>2022-08-03T06:09:08Z</time>
      </trkpt>
      <trkpt lat="46.43347" lon="5.73835">
        <ele>684.6</ele>
        <time>2022-08-03T06:09:13Z</time>
      </trkpt>
      <trkpt lat="46.43356" lon="5.73841">
        <ele>685.2</ele>
        <time>2022-08-03T06:09:16Z</time>
      </trkpt>
      <trkpt lat="46.43364" lon="5.73847">
        <ele>685.8</ele>
        <time>2022-08-03T06:09:19Z</time>
      </trkpt>
      <trkpt lat="46.43378" lon="5.73858">
        <ele>686.8</ele>
        <time>2022-08-03T06:09:24Z</time>
      </trkpt>
      <trkpt lat="46.43381" lon="5.7386">
        <ele>686.8</ele>
        <time>2022-08-03T06:09:25Z</time>
      </trkpt>
      <trkpt lat="46.43396" lon="5.73872">
        <ele>687.8</ele>
        <time>2022-08-03T06:09:30Z</time>
      </trkpt>
      <trkpt lat="46.43412" lon="5.73887">
        <ele>688.6</ele>
        <time>2022-08-03T06:09:36Z</time>
      </trkpt>
      <trkpt lat="46.43415" lon="5.7389">
        <ele>688.8</ele>
        <time>2022-08-03T06:09:37Z</time>
      </trkpt>
      <trkpt lat="46.43428" lon="5.73902">
        <ele>689.4</ele>
        <time>2022-08-03T06:09:41Z</time>
      </trkpt>
      <trkpt lat="46.43431" lon="5.73906">
        <ele>689.8</ele>
        <time>2022-08-03T06:09:42Z</time>
      </trkpt>
      <trkpt lat="46.43434" lon="5.7391">
        <ele>690.2</ele>
        <time>2022-08-03T06:09:43Z</time>
      </trkpt>
      <trkpt lat="46.43441" lon="5.73916">
        <ele>690.4</ele>
        <time>2022-08-03T06:09:45Z</time>
      </trkpt>
      <trkpt lat="46.43448" lon="5.73923">
        <ele>691</ele>
        <time>2022-08-03T06:09:47Z</time>
      </trkpt>
      <trkpt lat="46.43462" lon="5.73936">
        <ele>691.4</ele>
        <time>2022-08-03T06:09:51Z</time>
      </trkpt>
      <trkpt lat="46.43469" lon="5.73941">
        <ele>692</ele>
        <time>2022-08-03T06:09:53Z</time>
      </trkpt>
      <trkpt lat="46.43482" lon="5.7395">
        <ele>692.8</ele>
        <time>2022-08-03T06:09:56Z</time>
      </trkpt>
      <trkpt lat="46.43484" lon="5.73953">
        <ele>693.2</ele>
        <time>2022-08-03T06:09:57Z</time>
      </trkpt>
      <trkpt lat="46.43496" lon="5.73965">
        <ele>694.2</ele>
        <time>2022-08-03T06:10:01Z</time>
      </trkpt>
      <trkpt lat="46.43499" lon="5.73967">
        <ele>694.4</ele>
        <time>2022-08-03T06:10:02Z</time>
      </trkpt>
      <trkpt lat="46.43514" lon="5.7398">
        <ele>695.2</ele>
        <time>2022-08-03T06:10:07Z</time>
      </trkpt>
      <trkpt lat="46.43517" lon="5.73982">
        <ele>695.4</ele>
        <time>2022-08-03T06:10:08Z</time>
      </trkpt>
      <trkpt lat="46.43532" lon="5.73994">
        <ele>696.4</ele>
        <time>2022-08-03T06:10:13Z</time>
      </trkpt>
      <trkpt lat="46.43535" lon="5.73996">
        <ele>696.6</ele>
        <time>2022-08-03T06:10:14Z</time>
      </trkpt>
      <trkpt lat="46.43544" lon="5.74003">
        <ele>697.6</ele>
        <time>2022-08-03T06:10:17Z</time>
      </trkpt>
      <trkpt lat="46.43557" lon="5.74013">
        <ele>698</ele>
        <time>2022-08-03T06:10:21Z</time>
      </trkpt>
      <trkpt lat="46.43568" lon="5.74019">
        <ele>698.4</ele>
        <time>2022-08-03T06:10:24Z</time>
      </trkpt>
      <trkpt lat="46.43579" lon="5.74025">
        <ele>699.2</ele>
        <time>2022-08-03T06:10:27Z</time>
      </trkpt>
      <trkpt lat="46.43586" lon="5.74028">
        <ele>699.4</ele>
        <time>2022-08-03T06:10:29Z</time>
      </trkpt>
      <trkpt lat="46.43603" lon="5.74034">
        <ele>700.2</ele>
        <time>2022-08-03T06:10:34Z</time>
      </trkpt>
      <trkpt lat="46.43609" lon="5.74038">
        <ele>700.6</ele>
        <time>2022-08-03T06:10:36Z</time>
      </trkpt>
      <trkpt lat="46.43627" lon="5.74042">
        <ele>701.6</ele>
        <time>2022-08-03T06:10:41Z</time>
      </trkpt>
      <trkpt lat="46.43653" lon="5.74056">
        <ele>702.6</ele>
        <time>2022-08-03T06:10:48Z</time>
      </trkpt>
      <trkpt lat="46.43656" lon="5.74059">
        <ele>702.8</ele>
        <time>2022-08-03T06:10:49Z</time>
      </trkpt>
      <trkpt lat="46.43674" lon="5.7407">
        <ele>704</ele>
        <time>2022-08-03T06:10:54Z</time>
      </trkpt>
      <trkpt lat="46.43692" lon="5.74083">
        <ele>704.8</ele>
        <time>2022-08-03T06:11:00Z</time>
      </trkpt>
      <trkpt lat="46.43695" lon="5.74085">
        <ele>704.8</ele>
        <time>2022-08-03T06:11:01Z</time>
      </trkpt>
      <trkpt lat="46.4371" lon="5.74095">
        <ele>705.6</ele>
        <time>2022-08-03T06:11:06Z</time>
      </trkpt>
      <trkpt lat="46.43715" lon="5.741">
        <ele>706</ele>
        <time>2022-08-03T06:11:08Z</time>
      </trkpt>
      <trkpt lat="46.43734" lon="5.74114">
        <ele>706.8</ele>
        <time>2022-08-03T06:11:14Z</time>
      </trkpt>
      <trkpt lat="46.43741" lon="5.74118">
        <ele>707.2</ele>
        <time>2022-08-03T06:11:16Z</time>
      </trkpt>
      <trkpt lat="46.43754" lon="5.74127">
        <ele>707.8</ele>
        <time>2022-08-03T06:11:20Z</time>
      </trkpt>
      <trkpt lat="46.43758" lon="5.74129">
        <ele>708</ele>
        <time>2022-08-03T06:11:21Z</time>
      </trkpt>
      <trkpt lat="46.4377" lon="5.74139">
        <ele>709</ele>
        <time>2022-08-03T06:11:25Z</time>
      </trkpt>
      <trkpt lat="46.43774" lon="5.74141">
        <ele>709.2</ele>
        <time>2022-08-03T06:11:26Z</time>
      </trkpt>
      <trkpt lat="46.43778" lon="5.74143">
        <ele>709.4</ele>
        <time>2022-08-03T06:11:27Z</time>
      </trkpt>
      <trkpt lat="46.438" lon="5.74156">
        <ele>710.2</ele>
        <time>2022-08-03T06:11:33Z</time>
      </trkpt>
      <trkpt lat="46.43807" lon="5.7416">
        <ele>710.6</ele>
        <time>2022-08-03T06:11:35Z</time>
      </trkpt>
      <trkpt lat="46.43824" lon="5.74169">
        <ele>711</ele>
        <time>2022-08-03T06:11:40Z</time>
      </trkpt>
      <trkpt lat="46.4383" lon="5.74172">
        <ele>711.6</ele>
        <time>2022-08-03T06:11:42Z</time>
      </trkpt>
      <trkpt lat="46.43841" lon="5.74175">
        <ele>712.4</ele>
        <time>2022-08-03T06:11:45Z</time>
      </trkpt>
      <trkpt lat="46.43855" lon="5.7418">
        <ele>713</ele>
        <time>2022-08-03T06:11:49Z</time>
      </trkpt>
      <trkpt lat="46.43864" lon="5.74184">
        <ele>713.6</ele>
        <time>2022-08-03T06:11:52Z</time>
      </trkpt>
      <trkpt lat="46.4388" lon="5.7419">
        <ele>714.6</ele>
        <time>2022-08-03T06:11:57Z</time>
      </trkpt>
      <trkpt lat="46.43883" lon="5.74191">
        <ele>714.8</ele>
        <time>2022-08-03T06:11:58Z</time>
      </trkpt>
      <trkpt lat="46.43898" lon="5.74195">
        <ele>715.6</ele>
        <time>2022-08-03T06:12:02Z</time>
      </trkpt>
      <trkpt lat="46.43907" lon="5.74201">
        <ele>716</ele>
        <time>2022-08-03T06:12:05Z</time>
      </trkpt>
      <trkpt lat="46.4392" lon="5.74212">
        <ele>716.8</ele>
        <time>2022-08-03T06:12:09Z</time>
      </trkpt>
      <trkpt lat="46.43925" lon="5.74218">
        <ele>717</ele>
        <time>2022-08-03T06:12:11Z</time>
      </trkpt>
      <trkpt lat="46.43932" lon="5.74227">
        <ele>717.8</ele>
        <time>2022-08-03T06:12:14Z</time>
      </trkpt>
      <trkpt lat="46.43939" lon="5.74238">
        <ele>718</ele>
        <time>2022-08-03T06:12:17Z</time>
      </trkpt>
      <trkpt lat="46.43946" lon="5.74249">
        <ele>718.8</ele>
        <time>2022-08-03T06:12:20Z</time>
      </trkpt>
      <trkpt lat="46.43956" lon="5.74264">
        <ele>719.8</ele>
        <time>2022-08-03T06:12:24Z</time>
      </trkpt>
      <trkpt lat="46.43959" lon="5.74269">
        <ele>719.8</ele>
        <time>2022-08-03T06:12:25Z</time>
      </trkpt>
      <trkpt lat="46.43965" lon="5.74283">
        <ele>720.2</ele>
        <time>2022-08-03T06:12:28Z</time>
      </trkpt>
      <trkpt lat="46.43966" lon="5.74288">
        <ele>720.2</ele>
        <time>2022-08-03T06:12:29Z</time>
      </trkpt>
      <trkpt lat="46.43968" lon="5.74299">
        <ele>720.8</ele>
        <time>2022-08-03T06:12:31Z</time>
      </trkpt>
      <trkpt lat="46.43969" lon="5.74317">
        <ele>721.8</ele>
        <time>2022-08-03T06:12:34Z</time>
      </trkpt>
      <trkpt lat="46.43974" lon="5.74352">
        <ele>722.8</ele>
        <time>2022-08-03T06:12:40Z</time>
      </trkpt>
      <trkpt lat="46.43976" lon="5.74362">
        <ele>723</ele>
        <time>2022-08-03T06:12:42Z</time>
      </trkpt>
      <trkpt lat="46.43981" lon="5.74387">
        <ele>724.2</ele>
        <time>2022-08-03T06:12:47Z</time>
      </trkpt>
      <trkpt lat="46.43985" lon="5.74401">
        <ele>725</ele>
        <time>2022-08-03T06:12:50Z</time>
      </trkpt>
      <trkpt lat="46.43987" lon="5.7441">
        <ele>725.4</ele>
        <time>2022-08-03T06:12:52Z</time>
      </trkpt>
      <trkpt lat="46.43993" lon="5.74434">
        <ele>726.6</ele>
        <time>2022-08-03T06:12:57Z</time>
      </trkpt>
      <trkpt lat="46.43995" lon="5.74444">
        <ele>726.8</ele>
        <time>2022-08-03T06:12:59Z</time>
      </trkpt>
      <trkpt lat="46.43998" lon="5.74459">
        <ele>727.4</ele>
        <time>2022-08-03T06:13:02Z</time>
      </trkpt>
      <trkpt lat="46.44004" lon="5.74483">
        <ele>728.4</ele>
        <time>2022-08-03T06:13:07Z</time>
      </trkpt>
      <trkpt lat="46.44006" lon="5.74488">
        <ele>728.6</ele>
        <time>2022-08-03T06:13:08Z</time>
      </trkpt>
      <trkpt lat="46.44021" lon="5.7452">
        <ele>729.6</ele>
        <time>2022-08-03T06:13:15Z</time>
      </trkpt>
      <trkpt lat="46.4403" lon="5.74537">
        <ele>730.6</ele>
        <time>2022-08-03T06:13:19Z</time>
      </trkpt>
      <trkpt lat="46.4404" lon="5.74552">
        <ele>731.4</ele>
        <time>2022-08-03T06:13:23Z</time>
      </trkpt>
      <trkpt lat="46.44045" lon="5.7456">
        <ele>731.8</ele>
        <time>2022-08-03T06:13:25Z</time>
      </trkpt>
      <trkpt lat="46.44058" lon="5.74575">
        <ele>732.6</ele>
        <time>2022-08-03T06:13:29Z</time>
      </trkpt>
      <trkpt lat="46.44064" lon="5.74583">
        <ele>732.8</ele>
        <time>2022-08-03T06:13:31Z</time>
      </trkpt>
      <trkpt lat="46.44078" lon="5.74603">
        <ele>733.2</ele>
        <time>2022-08-03T06:13:36Z</time>
      </trkpt>
      <trkpt lat="46.44085" lon="5.74615">
        <ele>733.6</ele>
        <time>2022-08-03T06:13:39Z</time>
      </trkpt>
      <trkpt lat="46.44102" lon="5.74638">
        <ele>734.2</ele>
        <time>2022-08-03T06:13:45Z</time>
      </trkpt>
      <trkpt lat="46.44105" lon="5.74642">
        <ele>734.4</ele>
        <time>2022-08-03T06:13:46Z</time>
      </trkpt>
      <trkpt lat="46.44113" lon="5.74653">
        <ele>734.6</ele>
        <time>2022-08-03T06:13:49Z</time>
      </trkpt>
      <trkpt lat="46.44115" lon="5.74657">
        <ele>735</ele>
        <time>2022-08-03T06:13:50Z</time>
      </trkpt>
      <trkpt lat="46.44126" lon="5.74672">
        <ele>735.4</ele>
        <time>2022-08-03T06:13:54Z</time>
      </trkpt>
      <trkpt lat="46.44133" lon="5.74683">
        <ele>736</ele>
        <time>2022-08-03T06:13:57Z</time>
      </trkpt>
      <trkpt lat="46.4414" lon="5.74693">
        <ele>736.8</ele>
        <time>2022-08-03T06:14:00Z</time>
      </trkpt>
      <trkpt lat="46.44149" lon="5.74707">
        <ele>738</ele>
        <time>2022-08-03T06:14:04Z</time>
      </trkpt>
      <trkpt lat="46.44153" lon="5.74711">
        <ele>738</ele>
        <time>2022-08-03T06:14:05Z</time>
      </trkpt>
      <trkpt lat="46.44166" lon="5.74728">
        <ele>738.8</ele>
        <time>2022-08-03T06:14:09Z</time>
      </trkpt>
      <trkpt lat="46.44173" lon="5.74737">
        <ele>739</ele>
        <time>2022-08-03T06:14:11Z</time>
      </trkpt>
      <trkpt lat="46.4418" lon="5.74745">
        <ele>739.4</ele>
        <time>2022-08-03T06:14:13Z</time>
      </trkpt>
      <trkpt lat="46.44187" lon="5.74752">
        <ele>739.6</ele>
        <time>2022-08-03T06:14:15Z</time>
      </trkpt>
      <trkpt lat="46.44204" lon="5.74771">
        <ele>740</ele>
        <time>2022-08-03T06:14:20Z</time>
      </trkpt>
      <trkpt lat="46.44207" lon="5.74775">
        <ele>740</ele>
        <time>2022-08-03T06:14:21Z</time>
      </trkpt>
      <trkpt lat="46.44216" lon="5.74787">
        <ele>740.8</ele>
        <time>2022-08-03T06:14:24Z</time>
      </trkpt>
      <trkpt lat="46.44222" lon="5.74793">
        <ele>741.4</ele>
        <time>2022-08-03T06:14:26Z</time>
      </trkpt>
      <trkpt lat="46.44234" lon="5.7481">
        <ele>742</ele>
        <time>2022-08-03T06:14:30Z</time>
      </trkpt>
      <trkpt lat="46.44248" lon="5.74826">
        <ele>742.6</ele>
        <time>2022-08-03T06:14:34Z</time>
      </trkpt>
      <trkpt lat="46.44255" lon="5.74835">
        <ele>743</ele>
        <time>2022-08-03T06:14:36Z</time>
      </trkpt>
      <trkpt lat="46.44264" lon="5.74843">
        <ele>743.4</ele>
        <time>2022-08-03T06:14:38Z</time>
      </trkpt>
      <trkpt lat="46.44268" lon="5.74849">
        <ele>743.4</ele>
        <time>2022-08-03T06:14:39Z</time>
      </trkpt>
      <trkpt lat="46.44296" lon="5.74878">
        <ele>743.6</ele>
        <time>2022-08-03T06:14:46Z</time>
      </trkpt>
      <trkpt lat="46.44312" lon="5.74894">
        <ele>743.8</ele>
        <time>2022-08-03T06:14:50Z</time>
      </trkpt>
      <trkpt lat="46.44332" lon="5.74912">
        <ele>744.4</ele>
        <time>2022-08-03T06:14:55Z</time>
      </trkpt>
      <trkpt lat="46.44339" lon="5.74918">
        <ele>744.6</ele>
        <time>2022-08-03T06:14:57Z</time>
      </trkpt>
      <trkpt lat="46.44346" lon="5.74923">
        <ele>745</ele>
        <time>2022-08-03T06:14:59Z</time>
      </trkpt>
      <trkpt lat="46.44349" lon="5.74927">
        <ele>745.2</ele>
        <time>2022-08-03T06:15:00Z</time>
      </trkpt>
      <trkpt lat="46.44357" lon="5.74935">
        <ele>745.2</ele>
        <time>2022-08-03T06:15:02Z</time>
      </trkpt>
      <trkpt lat="46.4437" lon="5.74941">
        <ele>745.8</ele>
        <time>2022-08-03T06:15:05Z</time>
      </trkpt>
      <trkpt lat="46.44374" lon="5.74944">
        <ele>746</ele>
        <time>2022-08-03T06:15:06Z</time>
      </trkpt>
      <trkpt lat="46.44379" lon="5.74946">
        <ele>746</ele>
        <time>2022-08-03T06:15:07Z</time>
      </trkpt>
      <trkpt lat="46.44387" lon="5.74952">
        <ele>746.6</ele>
        <time>2022-08-03T06:15:09Z</time>
      </trkpt>
      <trkpt lat="46.44391" lon="5.74956">
        <ele>746.6</ele>
        <time>2022-08-03T06:15:10Z</time>
      </trkpt>
      <trkpt lat="46.44395" lon="5.74961">
        <ele>746.8</ele>
        <time>2022-08-03T06:15:11Z</time>
      </trkpt>
      <trkpt lat="46.44401" lon="5.74971">
        <ele>747</ele>
        <time>2022-08-03T06:15:13Z</time>
      </trkpt>
      <trkpt lat="46.44407" lon="5.74981">
        <ele>747.6</ele>
        <time>2022-08-03T06:15:15Z</time>
      </trkpt>
      <trkpt lat="46.44412" lon="5.74991">
        <ele>748.2</ele>
        <time>2022-08-03T06:15:17Z</time>
      </trkpt>
      <trkpt lat="46.44415" lon="5.74997">
        <ele>748.4</ele>
        <time>2022-08-03T06:15:18Z</time>
      </trkpt>
      <trkpt lat="46.44422" lon="5.75011">
        <ele>749</ele>
        <time>2022-08-03T06:15:21Z</time>
      </trkpt>
      <trkpt lat="46.44429" lon="5.7502">
        <ele>749.2</ele>
        <time>2022-08-03T06:15:23Z</time>
      </trkpt>
      <trkpt lat="46.44449" lon="5.75049">
        <ele>750.4</ele>
        <time>2022-08-03T06:15:29Z</time>
      </trkpt>
      <trkpt lat="46.44459" lon="5.75063">
        <ele>750.6</ele>
        <time>2022-08-03T06:15:32Z</time>
      </trkpt>
      <trkpt lat="46.44473" lon="5.75081">
        <ele>751.2</ele>
        <time>2022-08-03T06:15:36Z</time>
      </trkpt>
      <trkpt lat="46.44477" lon="5.75086">
        <ele>751.4</ele>
        <time>2022-08-03T06:15:37Z</time>
      </trkpt>
      <trkpt lat="46.44484" lon="5.75094">
        <ele>751.8</ele>
        <time>2022-08-03T06:15:39Z</time>
      </trkpt>
      <trkpt lat="46.44504" lon="5.75114">
        <ele>752</ele>
        <time>2022-08-03T06:15:44Z</time>
      </trkpt>
      <trkpt lat="46.44512" lon="5.75123">
        <ele>752.2</ele>
        <time>2022-08-03T06:15:46Z</time>
      </trkpt>
      <trkpt lat="46.44552" lon="5.75165">
        <ele>753</ele>
        <time>2022-08-03T06:15:56Z</time>
      </trkpt>
      <trkpt lat="46.44556" lon="5.7517">
        <ele>753.2</ele>
        <time>2022-08-03T06:15:57Z</time>
      </trkpt>
      <trkpt lat="46.44576" lon="5.75191">
        <ele>754.4</ele>
        <time>2022-08-03T06:16:02Z</time>
      </trkpt>
      <trkpt lat="46.44584" lon="5.75199">
        <ele>754.6</ele>
        <time>2022-08-03T06:16:04Z</time>
      </trkpt>
      <trkpt lat="46.44595" lon="5.75208">
        <ele>755</ele>
        <time>2022-08-03T06:16:07Z</time>
      </trkpt>
      <trkpt lat="46.44602" lon="5.75215">
        <ele>755.4</ele>
        <time>2022-08-03T06:16:09Z</time>
      </trkpt>
      <trkpt lat="46.44607" lon="5.75219">
        <ele>755.4</ele>
        <time>2022-08-03T06:16:10Z</time>
      </trkpt>
      <trkpt lat="46.44628" lon="5.75238">
        <ele>756.2</ele>
        <time>2022-08-03T06:16:15Z</time>
      </trkpt>
      <trkpt lat="46.44633" lon="5.75241">
        <ele>756.2</ele>
        <time>2022-08-03T06:16:16Z</time>
      </trkpt>
      <trkpt lat="46.44637" lon="5.75243">
        <ele>756.4</ele>
        <time>2022-08-03T06:16:17Z</time>
      </trkpt>
      <trkpt lat="46.44647" lon="5.75249">
        <ele>756.8</ele>
        <time>2022-08-03T06:16:19Z</time>
      </trkpt>
      <trkpt lat="46.44652" lon="5.75253">
        <ele>756.8</ele>
        <time>2022-08-03T06:16:20Z</time>
      </trkpt>
      <trkpt lat="46.44663" lon="5.75265">
        <ele>757.6</ele>
        <time>2022-08-03T06:16:23Z</time>
      </trkpt>
      <trkpt lat="46.44669" lon="5.75273">
        <ele>758.6</ele>
        <time>2022-08-03T06:16:25Z</time>
      </trkpt>
      <trkpt lat="46.44672" lon="5.75279">
        <ele>758.8</ele>
        <time>2022-08-03T06:16:26Z</time>
      </trkpt>
      <trkpt lat="46.44681" lon="5.75294">
        <ele>759.4</ele>
        <time>2022-08-03T06:16:29Z</time>
      </trkpt>
      <trkpt lat="46.44685" lon="5.75298">
        <ele>759.2</ele>
        <time>2022-08-03T06:16:30Z</time>
      </trkpt>
      <trkpt lat="46.44689" lon="5.75303">
        <ele>759.4</ele>
        <time>2022-08-03T06:16:31Z</time>
      </trkpt>
      <trkpt lat="46.44694" lon="5.75308">
        <ele>759.6</ele>
        <time>2022-08-03T06:16:32Z</time>
      </trkpt>
      <trkpt lat="46.44697" lon="5.75313">
        <ele>759.6</ele>
        <time>2022-08-03T06:16:33Z</time>
      </trkpt>
      <trkpt lat="46.44708" lon="5.75325">
        <ele>759.8</ele>
        <time>2022-08-03T06:16:36Z</time>
      </trkpt>
      <trkpt lat="46.44715" lon="5.75333">
        <ele>760</ele>
        <time>2022-08-03T06:16:38Z</time>
      </trkpt>
      <trkpt lat="46.44722" lon="5.75342">
        <ele>760.4</ele>
        <time>2022-08-03T06:16:41Z</time>
      </trkpt>
      <trkpt lat="46.44726" lon="5.75346">
        <ele>760.6</ele>
        <time>2022-08-03T06:16:42Z</time>
      </trkpt>
      <trkpt lat="46.44728" lon="5.75353">
        <ele>760.6</ele>
        <time>2022-08-03T06:16:43Z</time>
      </trkpt>
      <trkpt lat="46.44732" lon="5.7536">
        <ele>760.8</ele>
        <time>2022-08-03T06:16:44Z</time>
      </trkpt>
      <trkpt lat="46.44742" lon="5.7537">
        <ele>760.8</ele>
        <time>2022-08-03T06:16:46Z</time>
      </trkpt>
      <trkpt lat="46.44761" lon="5.75395">
        <ele>761.6</ele>
        <time>2022-08-03T06:16:51Z</time>
      </trkpt>
      <trkpt lat="46.44764" lon="5.75399">
        <ele>761.8</ele>
        <time>2022-08-03T06:16:52Z</time>
      </trkpt>
      <trkpt lat="46.44782" lon="5.75423">
        <ele>762.4</ele>
        <time>2022-08-03T06:16:57Z</time>
      </trkpt>
      <trkpt lat="46.44794" lon="5.75438">
        <ele>762.6</ele>
        <time>2022-08-03T06:17:00Z</time>
      </trkpt>
      <trkpt lat="46.4482" lon="5.75474">
        <ele>763.2</ele>
        <time>2022-08-03T06:17:07Z</time>
      </trkpt>
      <trkpt lat="46.44833" lon="5.75494">
        <ele>763.4</ele>
        <time>2022-08-03T06:17:11Z</time>
      </trkpt>
      <trkpt lat="46.44837" lon="5.755">
        <ele>763.6</ele>
        <time>2022-08-03T06:17:12Z</time>
      </trkpt>
      <trkpt lat="46.44848" lon="5.75516">
        <ele>763.8</ele>
        <time>2022-08-03T06:17:15Z</time>
      </trkpt>
      <trkpt lat="46.44872" lon="5.75549">
        <ele>764.4</ele>
        <time>2022-08-03T06:17:21Z</time>
      </trkpt>
      <trkpt lat="46.4488" lon="5.75561">
        <ele>764.6</ele>
        <time>2022-08-03T06:17:23Z</time>
      </trkpt>
      <trkpt lat="46.449" lon="5.75584">
        <ele>765</ele>
        <time>2022-08-03T06:17:28Z</time>
      </trkpt>
      <trkpt lat="46.44931" lon="5.75617">
        <ele>765.2</ele>
        <time>2022-08-03T06:17:35Z</time>
      </trkpt>
      <trkpt lat="46.44939" lon="5.75624">
        <ele>765.4</ele>
        <time>2022-08-03T06:17:37Z</time>
      </trkpt>
      <trkpt lat="46.44967" lon="5.75652">
        <ele>766.2</ele>
        <time>2022-08-03T06:17:44Z</time>
      </trkpt>
      <trkpt lat="46.44975" lon="5.7566">
        <ele>766.4</ele>
        <time>2022-08-03T06:17:46Z</time>
      </trkpt>
      <trkpt lat="46.44987" lon="5.75673">
        <ele>766.6</ele>
        <time>2022-08-03T06:17:49Z</time>
      </trkpt>
      <trkpt lat="46.45009" lon="5.75696">
        <ele>767</ele>
        <time>2022-08-03T06:17:54Z</time>
      </trkpt>
      <trkpt lat="46.45018" lon="5.75702">
        <ele>767.4</ele>
        <time>2022-08-03T06:17:56Z</time>
      </trkpt>
      <trkpt lat="46.45026" lon="5.7571">
        <ele>767.6</ele>
        <time>2022-08-03T06:17:58Z</time>
      </trkpt>
      <trkpt lat="46.45058" lon="5.75739">
        <ele>768.4</ele>
        <time>2022-08-03T06:18:05Z</time>
      </trkpt>
      <trkpt lat="46.45062" lon="5.75743">
        <ele>768.6</ele>
        <time>2022-08-03T06:18:06Z</time>
      </trkpt>
      <trkpt lat="46.45083" lon="5.75761">
        <ele>769.2</ele>
        <time>2022-08-03T06:18:11Z</time>
      </trkpt>
      <trkpt lat="46.45092" lon="5.75767">
        <ele>769.6</ele>
        <time>2022-08-03T06:18:13Z</time>
      </trkpt>
      <trkpt lat="46.45101" lon="5.75772">
        <ele>769.8</ele>
        <time>2022-08-03T06:18:15Z</time>
      </trkpt>
      <trkpt lat="46.45144" lon="5.758">
        <ele>770.4</ele>
        <time>2022-08-03T06:18:24Z</time>
      </trkpt>
      <trkpt lat="46.45149" lon="5.75804">
        <ele>770.4</ele>
        <time>2022-08-03T06:18:25Z</time>
      </trkpt>
      <trkpt lat="46.45153" lon="5.75807">
        <ele>770.4</ele>
        <time>2022-08-03T06:18:26Z</time>
      </trkpt>
      <trkpt lat="46.45162" lon="5.75811">
        <ele>770.6</ele>
        <time>2022-08-03T06:18:28Z</time>
      </trkpt>
      <trkpt lat="46.45171" lon="5.75814">
        <ele>770.8</ele>
        <time>2022-08-03T06:18:30Z</time>
      </trkpt>
      <trkpt lat="46.45185" lon="5.75821">
        <ele>771.4</ele>
        <time>2022-08-03T06:18:33Z</time>
      </trkpt>
      <trkpt lat="46.45194" lon="5.75824">
        <ele>771.6</ele>
        <time>2022-08-03T06:18:35Z</time>
      </trkpt>
      <trkpt lat="46.45204" lon="5.75827">
        <ele>772</ele>
        <time>2022-08-03T06:18:37Z</time>
      </trkpt>
      <trkpt lat="46.45213" lon="5.75829">
        <ele>772.4</ele>
        <time>2022-08-03T06:18:39Z</time>
      </trkpt>
      <trkpt lat="46.45218" lon="5.7583">
        <ele>772.6</ele>
        <time>2022-08-03T06:18:40Z</time>
      </trkpt>
      <trkpt lat="46.45228" lon="5.75832">
        <ele>772.8</ele>
        <time>2022-08-03T06:18:42Z</time>
      </trkpt>
      <trkpt lat="46.45233" lon="5.75833">
        <ele>772.8</ele>
        <time>2022-08-03T06:18:43Z</time>
      </trkpt>
      <trkpt lat="46.45254" lon="5.75837">
        <ele>773</ele>
        <time>2022-08-03T06:18:47Z</time>
      </trkpt>
      <trkpt lat="46.45286" lon="5.75847">
        <ele>773.4</ele>
        <time>2022-08-03T06:18:53Z</time>
      </trkpt>
      <trkpt lat="46.45297" lon="5.75853">
        <ele>773.6</ele>
        <time>2022-08-03T06:18:55Z</time>
      </trkpt>
      <trkpt lat="46.45328" lon="5.75867">
        <ele>774</ele>
        <time>2022-08-03T06:19:01Z</time>
      </trkpt>
      <trkpt lat="46.45334" lon="5.7587">
        <ele>774.2</ele>
        <time>2022-08-03T06:19:02Z</time>
      </trkpt>
      <trkpt lat="46.45344" lon="5.75878">
        <ele>774.4</ele>
        <time>2022-08-03T06:19:04Z</time>
      </trkpt>
      <trkpt lat="46.45354" lon="5.75883">
        <ele>774.4</ele>
        <time>2022-08-03T06:19:06Z</time>
      </trkpt>
      <trkpt lat="46.45365" lon="5.7589">
        <ele>774.6</ele>
        <time>2022-08-03T06:19:08Z</time>
      </trkpt>
      <trkpt lat="46.45397" lon="5.75908">
        <ele>774.8</ele>
        <time>2022-08-03T06:19:14Z</time>
      </trkpt>
      <trkpt lat="46.45407" lon="5.75918">
        <ele>774.8</ele>
        <time>2022-08-03T06:19:16Z</time>
      </trkpt>
      <trkpt lat="46.45434" lon="5.75953">
        <ele>774.6</ele>
        <time>2022-08-03T06:19:22Z</time>
      </trkpt>
      <trkpt lat="46.4545" lon="5.75975">
        <ele>775.4</ele>
        <time>2022-08-03T06:19:26Z</time>
      </trkpt>
      <trkpt lat="46.45464" lon="5.75995">
        <ele>776</ele>
        <time>2022-08-03T06:19:30Z</time>
      </trkpt>
      <trkpt lat="46.45479" lon="5.76017">
        <ele>776.6</ele>
        <time>2022-08-03T06:19:34Z</time>
      </trkpt>
      <trkpt lat="46.45484" lon="5.76032">
        <ele>776.8</ele>
        <time>2022-08-03T06:19:36Z</time>
      </trkpt>
      <trkpt lat="46.45487" lon="5.76046">
        <ele>777.2</ele>
        <time>2022-08-03T06:19:38Z</time>
      </trkpt>
      <trkpt lat="46.45488" lon="5.76065">
        <ele>777.2</ele>
        <time>2022-08-03T06:19:41Z</time>
      </trkpt>
      <trkpt lat="46.4549" lon="5.76087">
        <ele>777.6</ele>
        <time>2022-08-03T06:19:44Z</time>
      </trkpt>
      <trkpt lat="46.45491" lon="5.76094">
        <ele>777.8</ele>
        <time>2022-08-03T06:19:45Z</time>
      </trkpt>
      <trkpt lat="46.45494" lon="5.76117">
        <ele>778</ele>
        <time>2022-08-03T06:19:48Z</time>
      </trkpt>
      <trkpt lat="46.45498" lon="5.76131">
        <ele>778</ele>
        <time>2022-08-03T06:19:50Z</time>
      </trkpt>
      <trkpt lat="46.455" lon="5.76138">
        <ele>778</ele>
        <time>2022-08-03T06:19:51Z</time>
      </trkpt>
      <trkpt lat="46.45503" lon="5.76144">
        <ele>778</ele>
        <time>2022-08-03T06:19:52Z</time>
      </trkpt>
      <trkpt lat="46.45511" lon="5.76154">
        <ele>778.2</ele>
        <time>2022-08-03T06:19:54Z</time>
      </trkpt>
      <trkpt lat="46.45516" lon="5.76159">
        <ele>778.2</ele>
        <time>2022-08-03T06:19:55Z</time>
      </trkpt>
      <trkpt lat="46.45521" lon="5.76163">
        <ele>778.2</ele>
        <time>2022-08-03T06:19:56Z</time>
      </trkpt>
      <trkpt lat="46.45546" lon="5.76179">
        <ele>778.4</ele>
        <time>2022-08-03T06:20:01Z</time>
      </trkpt>
      <trkpt lat="46.45579" lon="5.76203">
        <ele>779.2</ele>
        <time>2022-08-03T06:20:08Z</time>
      </trkpt>
      <trkpt lat="46.45593" lon="5.76213">
        <ele>779.4</ele>
        <time>2022-08-03T06:20:11Z</time>
      </trkpt>
      <trkpt lat="46.4561" lon="5.7623">
        <ele>780</ele>
        <time>2022-08-03T06:20:15Z</time>
      </trkpt>
      <trkpt lat="46.45619" lon="5.76238">
        <ele>780.6</ele>
        <time>2022-08-03T06:20:17Z</time>
      </trkpt>
      <trkpt lat="46.45648" lon="5.76268">
        <ele>781.6</ele>
        <time>2022-08-03T06:20:24Z</time>
      </trkpt>
      <trkpt lat="46.45652" lon="5.76273">
        <ele>781.6</ele>
        <time>2022-08-03T06:20:25Z</time>
      </trkpt>
      <trkpt lat="46.45676" lon="5.76298">
        <ele>782.6</ele>
        <time>2022-08-03T06:20:31Z</time>
      </trkpt>
      <trkpt lat="46.45684" lon="5.76307">
        <ele>782.6</ele>
        <time>2022-08-03T06:20:33Z</time>
      </trkpt>
      <trkpt lat="46.457" lon="5.76335">
        <ele>783.4</ele>
        <time>2022-08-03T06:20:38Z</time>
      </trkpt>
      <trkpt lat="46.45703" lon="5.7635">
        <ele>783.6</ele>
        <time>2022-08-03T06:20:40Z</time>
      </trkpt>
      <trkpt lat="46.45703" lon="5.76364">
        <ele>784</ele>
        <time>2022-08-03T06:20:42Z</time>
      </trkpt>
      <trkpt lat="46.45701" lon="5.76383">
        <ele>784.6</ele>
        <time>2022-08-03T06:20:45Z</time>
      </trkpt>
      <trkpt lat="46.45698" lon="5.76403">
        <ele>785.2</ele>
        <time>2022-08-03T06:20:48Z</time>
      </trkpt>
      <trkpt lat="46.45697" lon="5.76415">
        <ele>785.6</ele>
        <time>2022-08-03T06:20:50Z</time>
      </trkpt>
      <trkpt lat="46.45696" lon="5.7644">
        <ele>787</ele>
        <time>2022-08-03T06:20:54Z</time>
      </trkpt>
      <trkpt lat="46.45694" lon="5.76479">
        <ele>788.2</ele>
        <time>2022-08-03T06:21:01Z</time>
      </trkpt>
      <trkpt lat="46.45694" lon="5.76491">
        <ele>788.6</ele>
        <time>2022-08-03T06:21:03Z</time>
      </trkpt>
      <trkpt lat="46.45692" lon="5.76508">
        <ele>789.2</ele>
        <time>2022-08-03T06:21:06Z</time>
      </trkpt>
      <trkpt lat="46.45688" lon="5.76531">
        <ele>789.8</ele>
        <time>2022-08-03T06:21:10Z</time>
      </trkpt>
      <trkpt lat="46.45688" lon="5.7654">
        <ele>790.2</ele>
        <time>2022-08-03T06:21:12Z</time>
      </trkpt>
      <trkpt lat="46.45688" lon="5.76547">
        <ele>790.4</ele>
        <time>2022-08-03T06:21:14Z</time>
      </trkpt>
      <trkpt lat="46.45688" lon="5.7655">
        <ele>790.6</ele>
        <time>2022-08-03T06:21:15Z</time>
      </trkpt>
      <trkpt lat="46.4569" lon="5.76554">
        <ele>791.4</ele>
        <time>2022-08-03T06:21:17Z</time>
      </trkpt>
      <trkpt lat="46.45689" lon="5.76556">
        <ele>791.4</ele>
        <time>2022-08-03T06:21:18Z</time>
      </trkpt>
      <trkpt lat="46.45688" lon="5.76559">
        <ele>792</ele>
        <time>2022-08-03T06:21:19Z</time>
      </trkpt>
      <trkpt lat="46.45687" lon="5.76566">
        <ele>792.6</ele>
        <time>2022-08-03T06:21:21Z</time>
      </trkpt>
      <trkpt lat="46.45687" lon="5.76573">
        <ele>793</ele>
        <time>2022-08-03T06:21:23Z</time>
      </trkpt>
      <trkpt lat="46.45689" lon="5.76586">
        <ele>793.8</ele>
        <time>2022-08-03T06:21:26Z</time>
      </trkpt>
      <trkpt lat="46.45695" lon="5.766">
        <ele>794.6</ele>
        <time>2022-08-03T06:21:29Z</time>
      </trkpt>
      <trkpt lat="46.457" lon="5.76614">
        <ele>795</ele>
        <time>2022-08-03T06:21:31Z</time>
      </trkpt>
      <trkpt lat="46.45703" lon="5.7662">
        <ele>795.2</ele>
        <time>2022-08-03T06:21:32Z</time>
      </trkpt>
      <trkpt lat="46.45708" lon="5.7663">
        <ele>795.6</ele>
        <time>2022-08-03T06:21:34Z</time>
      </trkpt>
      <trkpt lat="46.45714" lon="5.7664">
        <ele>796</ele>
        <time>2022-08-03T06:21:36Z</time>
      </trkpt>
      <trkpt lat="46.45724" lon="5.76659">
        <ele>797.4</ele>
        <time>2022-08-03T06:21:40Z</time>
      </trkpt>
      <trkpt lat="46.45727" lon="5.76666">
        <ele>797.4</ele>
        <time>2022-08-03T06:21:41Z</time>
      </trkpt>
      <trkpt lat="46.45741" lon="5.76685">
        <ele>798.2</ele>
        <time>2022-08-03T06:21:45Z</time>
      </trkpt>
      <trkpt lat="46.45748" lon="5.76694">
        <ele>798.4</ele>
        <time>2022-08-03T06:21:47Z</time>
      </trkpt>
      <trkpt lat="46.45753" lon="5.76699">
        <ele>798.4</ele>
        <time>2022-08-03T06:21:48Z</time>
      </trkpt>
      <trkpt lat="46.45772" lon="5.76715">
        <ele>798.6</ele>
        <time>2022-08-03T06:21:52Z</time>
      </trkpt>
      <trkpt lat="46.45787" lon="5.76725">
        <ele>798.6</ele>
        <time>2022-08-03T06:21:55Z</time>
      </trkpt>
      <trkpt lat="46.45798" lon="5.7673">
        <ele>798.4</ele>
        <time>2022-08-03T06:21:57Z</time>
      </trkpt>
      <trkpt lat="46.45821" lon="5.76735">
        <ele>798.2</ele>
        <time>2022-08-03T06:22:01Z</time>
      </trkpt>
      <trkpt lat="46.45827" lon="5.76735">
        <ele>798.2</ele>
        <time>2022-08-03T06:22:02Z</time>
      </trkpt>
      <trkpt lat="46.45842" lon="5.76731">
        <ele>798.8</ele>
        <time>2022-08-03T06:22:05Z</time>
      </trkpt>
      <trkpt lat="46.45852" lon="5.76725">
        <ele>798.8</ele>
        <time>2022-08-03T06:22:07Z</time>
      </trkpt>
      <trkpt lat="46.45861" lon="5.76718">
        <ele>798.8</ele>
        <time>2022-08-03T06:22:09Z</time>
      </trkpt>
      <trkpt lat="46.45884" lon="5.76698">
        <ele>799</ele>
        <time>2022-08-03T06:22:14Z</time>
      </trkpt>
      <trkpt lat="46.45894" lon="5.76693">
        <ele>799.2</ele>
        <time>2022-08-03T06:22:16Z</time>
      </trkpt>
      <trkpt lat="46.45908" lon="5.76689">
        <ele>799.6</ele>
        <time>2022-08-03T06:22:19Z</time>
      </trkpt>
      <trkpt lat="46.45919" lon="5.76689">
        <ele>799.8</ele>
        <time>2022-08-03T06:22:21Z</time>
      </trkpt>
      <trkpt lat="46.45923" lon="5.76689">
        <ele>800.2</ele>
        <time>2022-08-03T06:22:22Z</time>
      </trkpt>
      <trkpt lat="46.45941" lon="5.76689">
        <ele>801</ele>
        <time>2022-08-03T06:22:26Z</time>
      </trkpt>
      <trkpt lat="46.45952" lon="5.76692">
        <ele>801.6</ele>
        <time>2022-08-03T06:22:28Z</time>
      </trkpt>
      <trkpt lat="46.45962" lon="5.76703">
        <ele>802.2</ele>
        <time>2022-08-03T06:22:31Z</time>
      </trkpt>
      <trkpt lat="46.45965" lon="5.7671">
        <ele>802.4</ele>
        <time>2022-08-03T06:22:32Z</time>
      </trkpt>
      <trkpt lat="46.45967" lon="5.76715">
        <ele>802.6</ele>
        <time>2022-08-03T06:22:33Z</time>
      </trkpt>
      <trkpt lat="46.4597" lon="5.76731">
        <ele>803.2</ele>
        <time>2022-08-03T06:22:36Z</time>
      </trkpt>
      <trkpt lat="46.45971" lon="5.76738">
        <ele>803.2</ele>
        <time>2022-08-03T06:22:37Z</time>
      </trkpt>
      <trkpt lat="46.45972" lon="5.76744">
        <ele>803.4</ele>
        <time>2022-08-03T06:22:38Z</time>
      </trkpt>
      <trkpt lat="46.45972" lon="5.7676">
        <ele>803.8</ele>
        <time>2022-08-03T06:22:41Z</time>
      </trkpt>
      <trkpt lat="46.45972" lon="5.76777">
        <ele>804.2</ele>
        <time>2022-08-03T06:22:44Z</time>
      </trkpt>
      <trkpt lat="46.4597" lon="5.76788">
        <ele>804.8</ele>
        <time>2022-08-03T06:22:46Z</time>
      </trkpt>
      <trkpt lat="46.45969" lon="5.76799">
        <ele>805.6</ele>
        <time>2022-08-03T06:22:48Z</time>
      </trkpt>
      <trkpt lat="46.45965" lon="5.76822">
        <ele>806.6</ele>
        <time>2022-08-03T06:22:52Z</time>
      </trkpt>
      <trkpt lat="46.45963" lon="5.76832">
        <ele>807.4</ele>
        <time>2022-08-03T06:22:54Z</time>
      </trkpt>
      <trkpt lat="46.45962" lon="5.76842">
        <ele>807.8</ele>
        <time>2022-08-03T06:22:56Z</time>
      </trkpt>
      <trkpt lat="46.45959" lon="5.76868">
        <ele>808.8</ele>
        <time>2022-08-03T06:23:01Z</time>
      </trkpt>
      <trkpt lat="46.45958" lon="5.76873">
        <ele>808.8</ele>
        <time>2022-08-03T06:23:02Z</time>
      </trkpt>
      <trkpt lat="46.4596" lon="5.76892">
        <ele>810.2</ele>
        <time>2022-08-03T06:23:06Z</time>
      </trkpt>
      <trkpt lat="46.45961" lon="5.76897">
        <ele>810.4</ele>
        <time>2022-08-03T06:23:07Z</time>
      </trkpt>
      <trkpt lat="46.45966" lon="5.76915">
        <ele>811.2</ele>
        <time>2022-08-03T06:23:11Z</time>
      </trkpt>
      <trkpt lat="46.4597" lon="5.76929">
        <ele>812</ele>
        <time>2022-08-03T06:23:14Z</time>
      </trkpt>
      <trkpt lat="46.45973" lon="5.76934">
        <ele>812.2</ele>
        <time>2022-08-03T06:23:15Z</time>
      </trkpt>
      <trkpt lat="46.45988" lon="5.76963">
        <ele>813.2</ele>
        <time>2022-08-03T06:23:21Z</time>
      </trkpt>
      <trkpt lat="46.45994" lon="5.76973">
        <ele>813.4</ele>
        <time>2022-08-03T06:23:23Z</time>
      </trkpt>
      <trkpt lat="46.45997" lon="5.76978">
        <ele>813.4</ele>
        <time>2022-08-03T06:23:24Z</time>
      </trkpt>
      <trkpt lat="46.46007" lon="5.7699">
        <ele>813.6</ele>
        <time>2022-08-03T06:23:27Z</time>
      </trkpt>
      <trkpt lat="46.4601" lon="5.76994">
        <ele>813.6</ele>
        <time>2022-08-03T06:23:28Z</time>
      </trkpt>
      <trkpt lat="46.46024" lon="5.77014">
        <ele>814.6</ele>
        <time>2022-08-03T06:23:33Z</time>
      </trkpt>
      <trkpt lat="46.46027" lon="5.77017">
        <ele>814.6</ele>
        <time>2022-08-03T06:23:34Z</time>
      </trkpt>
      <trkpt lat="46.46038" lon="5.77023">
        <ele>815.6</ele>
        <time>2022-08-03T06:23:37Z</time>
      </trkpt>
      <trkpt lat="46.46048" lon="5.77024">
        <ele>816.2</ele>
        <time>2022-08-03T06:23:40Z</time>
      </trkpt>
      <trkpt lat="46.46055" lon="5.77024">
        <ele>816.6</ele>
        <time>2022-08-03T06:23:42Z</time>
      </trkpt>
      <trkpt lat="46.46071" lon="5.77023">
        <ele>817.8</ele>
        <time>2022-08-03T06:23:46Z</time>
      </trkpt>
      <trkpt lat="46.46076" lon="5.77023">
        <ele>818.2</ele>
        <time>2022-08-03T06:23:47Z</time>
      </trkpt>
      <trkpt lat="46.46089" lon="5.77023">
        <ele>818.8</ele>
        <time>2022-08-03T06:23:50Z</time>
      </trkpt>
      <trkpt lat="46.46101" lon="5.77025">
        <ele>819.2</ele>
        <time>2022-08-03T06:23:53Z</time>
      </trkpt>
      <trkpt lat="46.46121" lon="5.7703">
        <ele>820</ele>
        <time>2022-08-03T06:23:58Z</time>
      </trkpt>
      <trkpt lat="46.46128" lon="5.77033">
        <ele>820.2</ele>
        <time>2022-08-03T06:24:00Z</time>
      </trkpt>
      <trkpt lat="46.46143" lon="5.77039">
        <ele>821</ele>
        <time>2022-08-03T06:24:04Z</time>
      </trkpt>
      <trkpt lat="46.46147" lon="5.77041">
        <ele>821.2</ele>
        <time>2022-08-03T06:24:05Z</time>
      </trkpt>
      <trkpt lat="46.46158" lon="5.77048">
        <ele>822</ele>
        <time>2022-08-03T06:24:09Z</time>
      </trkpt>
      <trkpt lat="46.46171" lon="5.7706">
        <ele>823.2</ele>
        <time>2022-08-03T06:24:13Z</time>
      </trkpt>
      <trkpt lat="46.46187" lon="5.77082">
        <ele>824.2</ele>
        <time>2022-08-03T06:24:19Z</time>
      </trkpt>
      <trkpt lat="46.46194" lon="5.77095">
        <ele>824.6</ele>
        <time>2022-08-03T06:24:22Z</time>
      </trkpt>
      <trkpt lat="46.46203" lon="5.77117">
        <ele>825.2</ele>
        <time>2022-08-03T06:24:27Z</time>
      </trkpt>
      <trkpt lat="46.46207" lon="5.77131">
        <ele>825.8</ele>
        <time>2022-08-03T06:24:30Z</time>
      </trkpt>
      <trkpt lat="46.46212" lon="5.77145">
        <ele>826.4</ele>
        <time>2022-08-03T06:24:33Z</time>
      </trkpt>
      <trkpt lat="46.46223" lon="5.77168">
        <ele>827.6</ele>
        <time>2022-08-03T06:24:38Z</time>
      </trkpt>
      <trkpt lat="46.46225" lon="5.77172">
        <ele>827.8</ele>
        <time>2022-08-03T06:24:39Z</time>
      </trkpt>
      <trkpt lat="46.46253" lon="5.77201">
        <ele>828.6</ele>
        <time>2022-08-03T06:24:47Z</time>
      </trkpt>
      <trkpt lat="46.46287" lon="5.77219">
        <ele>828.8</ele>
        <time>2022-08-03T06:24:54Z</time>
      </trkpt>
      <trkpt lat="46.46326" lon="5.77238">
        <ele>828.8</ele>
        <time>2022-08-03T06:25:01Z</time>
      </trkpt>
      <trkpt lat="46.46358" lon="5.77253">
        <ele>828</ele>
        <time>2022-08-03T06:25:06Z</time>
      </trkpt>
      <trkpt lat="46.46365" lon="5.77257">
        <ele>827.4</ele>
        <time>2022-08-03T06:25:07Z</time>
      </trkpt>
      <trkpt lat="46.46379" lon="5.77264">
        <ele>826.4</ele>
        <time>2022-08-03T06:25:09Z</time>
      </trkpt>
      <trkpt lat="46.46402" lon="5.77275">
        <ele>825.4</ele>
        <time>2022-08-03T06:25:12Z</time>
      </trkpt>
      <trkpt lat="46.4641" lon="5.77279">
        <ele>825.4</ele>
        <time>2022-08-03T06:25:13Z</time>
      </trkpt>
      <trkpt lat="46.46425" lon="5.77286">
        <ele>824.6</ele>
        <time>2022-08-03T06:25:15Z</time>
      </trkpt>
      <trkpt lat="46.46442" lon="5.77295">
        <ele>824</ele>
        <time>2022-08-03T06:25:17Z</time>
      </trkpt>
      <trkpt lat="46.46481" lon="5.77319">
        <ele>822.8</ele>
        <time>2022-08-03T06:25:22Z</time>
      </trkpt>
      <trkpt lat="46.46497" lon="5.77333">
        <ele>821.6</ele>
        <time>2022-08-03T06:25:24Z</time>
      </trkpt>
      <trkpt lat="46.46518" lon="5.77359">
        <ele>820.6</ele>
        <time>2022-08-03T06:25:27Z</time>
      </trkpt>
      <trkpt lat="46.46529" lon="5.77378">
        <ele>819.8</ele>
        <time>2022-08-03T06:25:29Z</time>
      </trkpt>
      <trkpt lat="46.46534" lon="5.77387">
        <ele>819.4</ele>
        <time>2022-08-03T06:25:30Z</time>
      </trkpt>
      <trkpt lat="46.46553" lon="5.77423">
        <ele>818.8</ele>
        <time>2022-08-03T06:25:34Z</time>
      </trkpt>
      <trkpt lat="46.46575" lon="5.77466">
        <ele>818.6</ele>
        <time>2022-08-03T06:25:39Z</time>
      </trkpt>
      <trkpt lat="46.46601" lon="5.77526">
        <ele>819</ele>
        <time>2022-08-03T06:25:46Z</time>
      </trkpt>
      <trkpt lat="46.46613" lon="5.77561">
        <ele>819.2</ele>
        <time>2022-08-03T06:25:50Z</time>
      </trkpt>
      <trkpt lat="46.46619" lon="5.77586">
        <ele>819.6</ele>
        <time>2022-08-03T06:25:53Z</time>
      </trkpt>
      <trkpt lat="46.46626" lon="5.77614">
        <ele>820</ele>
        <time>2022-08-03T06:25:56Z</time>
      </trkpt>
      <trkpt lat="46.46634" lon="5.77648">
        <ele>820.6</ele>
        <time>2022-08-03T06:26:00Z</time>
      </trkpt>
      <trkpt lat="46.4664" lon="5.77673">
        <ele>820.8</ele>
        <time>2022-08-03T06:26:03Z</time>
      </trkpt>
      <trkpt lat="46.46643" lon="5.777">
        <ele>821</ele>
        <time>2022-08-03T06:26:06Z</time>
      </trkpt>
      <trkpt lat="46.46639" lon="5.77734">
        <ele>821.4</ele>
        <time>2022-08-03T06:26:10Z</time>
      </trkpt>
      <trkpt lat="46.46637" lon="5.77742">
        <ele>821.4</ele>
        <time>2022-08-03T06:26:11Z</time>
      </trkpt>
      <trkpt lat="46.46619" lon="5.77786">
        <ele>822</ele>
        <time>2022-08-03T06:26:17Z</time>
      </trkpt>
      <trkpt lat="46.46602" lon="5.77821">
        <ele>822.4</ele>
        <time>2022-08-03T06:26:22Z</time>
      </trkpt>
      <trkpt lat="46.4659" lon="5.77849">
        <ele>822.8</ele>
        <time>2022-08-03T06:26:26Z</time>
      </trkpt>
      <trkpt lat="46.46573" lon="5.77891">
        <ele>823.4</ele>
        <time>2022-08-03T06:26:32Z</time>
      </trkpt>
      <trkpt lat="46.46569" lon="5.77898">
        <ele>823.4</ele>
        <time>2022-08-03T06:26:33Z</time>
      </trkpt>
      <trkpt lat="46.46547" lon="5.77943">
        <ele>823.6</ele>
        <time>2022-08-03T06:26:39Z</time>
      </trkpt>
      <trkpt lat="46.46526" lon="5.77994">
        <ele>823.4</ele>
        <time>2022-08-03T06:26:45Z</time>
      </trkpt>
      <trkpt lat="46.46508" lon="5.78067">
        <ele>823.2</ele>
        <time>2022-08-03T06:26:53Z</time>
      </trkpt>
      <trkpt lat="46.46483" lon="5.78105">
        <ele>823.4</ele>
        <time>2022-08-03T06:26:58Z</time>
      </trkpt>
      <trkpt lat="46.4645" lon="5.78153">
        <ele>823.8</ele>
        <time>2022-08-03T06:27:05Z</time>
      </trkpt>
      <trkpt lat="46.46439" lon="5.78173">
        <ele>823.8</ele>
        <time>2022-08-03T06:27:08Z</time>
      </trkpt>
      <trkpt lat="46.46433" lon="5.7819">
        <ele>823.8</ele>
        <time>2022-08-03T06:27:10Z</time>
      </trkpt>
      <trkpt lat="46.46428" lon="5.78205">
        <ele>824</ele>
        <time>2022-08-03T06:27:12Z</time>
      </trkpt>
      <trkpt lat="46.46421" lon="5.78229">
        <ele>824.6</ele>
        <time>2022-08-03T06:27:15Z</time>
      </trkpt>
      <trkpt lat="46.46419" lon="5.78237">
        <ele>824.6</ele>
        <time>2022-08-03T06:27:16Z</time>
      </trkpt>
      <trkpt lat="46.46415" lon="5.78254">
        <ele>824.8</ele>
        <time>2022-08-03T06:27:18Z</time>
      </trkpt>
      <trkpt lat="46.46412" lon="5.78261">
        <ele>825</ele>
        <time>2022-08-03T06:27:19Z</time>
      </trkpt>
      <trkpt lat="46.46386" lon="5.7831">
        <ele>825.4</ele>
        <time>2022-08-03T06:27:26Z</time>
      </trkpt>
      <trkpt lat="46.46361" lon="5.78349">
        <ele>825.8</ele>
        <time>2022-08-03T06:27:32Z</time>
      </trkpt>
      <trkpt lat="46.46357" lon="5.78355">
        <ele>826</ele>
        <time>2022-08-03T06:27:33Z</time>
      </trkpt>
      <trkpt lat="46.46354" lon="5.78361">
        <ele>826</ele>
        <time>2022-08-03T06:27:34Z</time>
      </trkpt>
      <trkpt lat="46.46335" lon="5.78398">
        <ele>826.8</ele>
        <time>2022-08-03T06:27:40Z</time>
      </trkpt>
      <trkpt lat="46.46333" lon="5.78407">
        <ele>826.8</ele>
        <time>2022-08-03T06:27:41Z</time>
      </trkpt>
      <trkpt lat="46.46331" lon="5.78413">
        <ele>827</ele>
        <time>2022-08-03T06:27:42Z</time>
      </trkpt>
      <trkpt lat="46.46326" lon="5.7843">
        <ele>827.6</ele>
        <time>2022-08-03T06:27:45Z</time>
      </trkpt>
      <trkpt lat="46.46323" lon="5.78434">
        <ele>828</ele>
        <time>2022-08-03T06:27:46Z</time>
      </trkpt>
      <trkpt lat="46.46308" lon="5.7846">
        <ele>829</ele>
        <time>2022-08-03T06:27:51Z</time>
      </trkpt>
      <trkpt lat="46.4628" lon="5.78498">
        <ele>830</ele>
        <time>2022-08-03T06:27:57Z</time>
      </trkpt>
      <trkpt lat="46.46275" lon="5.78504">
        <ele>830</ele>
        <time>2022-08-03T06:27:58Z</time>
      </trkpt>
      <trkpt lat="46.46261" lon="5.78527">
        <ele>831</ele>
        <time>2022-08-03T06:28:02Z</time>
      </trkpt>
      <trkpt lat="46.46257" lon="5.78533">
        <ele>831.4</ele>
        <time>2022-08-03T06:28:03Z</time>
      </trkpt>
      <trkpt lat="46.46249" lon="5.78552">
        <ele>832</ele>
        <time>2022-08-03T06:28:06Z</time>
      </trkpt>
      <trkpt lat="46.46242" lon="5.78568">
        <ele>832.8</ele>
        <time>2022-08-03T06:28:09Z</time>
      </trkpt>
      <trkpt lat="46.4624" lon="5.78578">
        <ele>833</ele>
        <time>2022-08-03T06:28:11Z</time>
      </trkpt>
      <trkpt lat="46.46239" lon="5.78586">
        <ele>833.6</ele>
        <time>2022-08-03T06:28:12Z</time>
      </trkpt>
      <trkpt lat="46.46241" lon="5.78599">
        <ele>834.2</ele>
        <time>2022-08-03T06:28:14Z</time>
      </trkpt>
      <trkpt lat="46.46246" lon="5.78639">
        <ele>834.8</ele>
        <time>2022-08-03T06:28:21Z</time>
      </trkpt>
      <trkpt lat="46.46248" lon="5.78646">
        <ele>835</ele>
        <time>2022-08-03T06:28:22Z</time>
      </trkpt>
      <trkpt lat="46.46251" lon="5.78671">
        <ele>836</ele>
        <time>2022-08-03T06:28:26Z</time>
      </trkpt>
      <trkpt lat="46.46252" lon="5.78686">
        <ele>836.6</ele>
        <time>2022-08-03T06:28:29Z</time>
      </trkpt>
      <trkpt lat="46.46255" lon="5.78699">
        <ele>837.2</ele>
        <time>2022-08-03T06:28:32Z</time>
      </trkpt>
      <trkpt lat="46.46258" lon="5.78726">
        <ele>838.2</ele>
        <time>2022-08-03T06:28:37Z</time>
      </trkpt>
      <trkpt lat="46.46256" lon="5.78745">
        <ele>839.2</ele>
        <time>2022-08-03T06:28:40Z</time>
      </trkpt>
      <trkpt lat="46.46256" lon="5.78749">
        <ele>839.4</ele>
        <time>2022-08-03T06:28:41Z</time>
      </trkpt>
      <trkpt lat="46.46257" lon="5.78754">
        <ele>839.6</ele>
        <time>2022-08-03T06:28:42Z</time>
      </trkpt>
      <trkpt lat="46.46257" lon="5.7876">
        <ele>839.8</ele>
        <time>2022-08-03T06:28:43Z</time>
      </trkpt>
      <trkpt lat="46.46256" lon="5.78764">
        <ele>840.2</ele>
        <time>2022-08-03T06:28:44Z</time>
      </trkpt>
      <trkpt lat="46.46254" lon="5.78778">
        <ele>840.8</ele>
        <time>2022-08-03T06:28:46Z</time>
      </trkpt>
      <trkpt lat="46.46251" lon="5.78791">
        <ele>841.2</ele>
        <time>2022-08-03T06:28:48Z</time>
      </trkpt>
      <trkpt lat="46.46248" lon="5.78805">
        <ele>842.2</ele>
        <time>2022-08-03T06:28:51Z</time>
      </trkpt>
      <trkpt lat="46.46247" lon="5.7881">
        <ele>842.2</ele>
        <time>2022-08-03T06:28:52Z</time>
      </trkpt>
      <trkpt lat="46.46246" lon="5.78817">
        <ele>842.8</ele>
        <time>2022-08-03T06:28:56Z</time>
      </trkpt>
      <trkpt lat="46.46246" lon="5.78817">
        <ele>842.8</ele>
        <time>2022-08-03T06:28:57Z</time>
      </trkpt>
      <trkpt lat="46.46244" lon="5.78822">
        <ele>843.2</ele>
        <time>2022-08-03T06:29:45Z</time>
      </trkpt>
      <trkpt lat="46.46239" lon="5.78831">
        <ele>843.2</ele>
        <time>2022-08-03T06:29:47Z</time>
      </trkpt>
      <trkpt lat="46.46236" lon="5.78838">
        <ele>843</ele>
        <time>2022-08-03T06:29:48Z</time>
      </trkpt>
      <trkpt lat="46.46227" lon="5.78863">
        <ele>842.8</ele>
        <time>2022-08-03T06:29:51Z</time>
      </trkpt>
      <trkpt lat="46.46218" lon="5.78889">
        <ele>842.4</ele>
        <time>2022-08-03T06:29:54Z</time>
      </trkpt>
      <trkpt lat="46.46218" lon="5.78911">
        <ele>842.2</ele>
        <time>2022-08-03T06:29:56Z</time>
      </trkpt>
      <trkpt lat="46.46218" lon="5.78923">
        <ele>842</ele>
        <time>2022-08-03T06:29:57Z</time>
      </trkpt>
      <trkpt lat="46.46223" lon="5.78959">
        <ele>840.6</ele>
        <time>2022-08-03T06:30:00Z</time>
      </trkpt>
      <trkpt lat="46.46224" lon="5.78972">
        <ele>840</ele>
        <time>2022-08-03T06:30:01Z</time>
      </trkpt>
      <trkpt lat="46.46225" lon="5.78998">
        <ele>839.4</ele>
        <time>2022-08-03T06:30:03Z</time>
      </trkpt>
      <trkpt lat="46.46224" lon="5.79011">
        <ele>839.2</ele>
        <time>2022-08-03T06:30:04Z</time>
      </trkpt>
      <trkpt lat="46.46219" lon="5.79036">
        <ele>837.8</ele>
        <time>2022-08-03T06:30:06Z</time>
      </trkpt>
      <trkpt lat="46.46215" lon="5.79048">
        <ele>836.8</ele>
        <time>2022-08-03T06:30:07Z</time>
      </trkpt>
      <trkpt lat="46.46207" lon="5.79074">
        <ele>835.8</ele>
        <time>2022-08-03T06:30:09Z</time>
      </trkpt>
      <trkpt lat="46.46198" lon="5.79102">
        <ele>834.2</ele>
        <time>2022-08-03T06:30:11Z</time>
      </trkpt>
      <trkpt lat="46.46193" lon="5.79116">
        <ele>833.6</ele>
        <time>2022-08-03T06:30:12Z</time>
      </trkpt>
      <trkpt lat="46.46187" lon="5.7913">
        <ele>833</ele>
        <time>2022-08-03T06:30:13Z</time>
      </trkpt>
      <trkpt lat="46.46182" lon="5.79144">
        <ele>832</ele>
        <time>2022-08-03T06:30:14Z</time>
      </trkpt>
      <trkpt lat="46.46172" lon="5.7917">
        <ele>830.6</ele>
        <time>2022-08-03T06:30:16Z</time>
      </trkpt>
      <trkpt lat="46.46163" lon="5.79196">
        <ele>829.4</ele>
        <time>2022-08-03T06:30:18Z</time>
      </trkpt>
      <trkpt lat="46.46158" lon="5.79208">
        <ele>828.8</ele>
        <time>2022-08-03T06:30:19Z</time>
      </trkpt>
      <trkpt lat="46.46153" lon="5.79221">
        <ele>828.4</ele>
        <time>2022-08-03T06:30:20Z</time>
      </trkpt>
      <trkpt lat="46.46143" lon="5.79247">
        <ele>827</ele>
        <time>2022-08-03T06:30:22Z</time>
      </trkpt>
      <trkpt lat="46.46131" lon="5.79273">
        <ele>826</ele>
        <time>2022-08-03T06:30:24Z</time>
      </trkpt>
      <trkpt lat="46.46125" lon="5.79285">
        <ele>825.6</ele>
        <time>2022-08-03T06:30:25Z</time>
      </trkpt>
      <trkpt lat="46.46112" lon="5.7931">
        <ele>824.6</ele>
        <time>2022-08-03T06:30:27Z</time>
      </trkpt>
      <trkpt lat="46.46105" lon="5.79321">
        <ele>823.4</ele>
        <time>2022-08-03T06:30:28Z</time>
      </trkpt>
      <trkpt lat="46.46098" lon="5.79332">
        <ele>823</ele>
        <time>2022-08-03T06:30:29Z</time>
      </trkpt>
      <trkpt lat="46.4609" lon="5.79342">
        <ele>822.4</ele>
        <time>2022-08-03T06:30:30Z</time>
      </trkpt>
      <trkpt lat="46.46082" lon="5.79349">
        <ele>821.4</ele>
        <time>2022-08-03T06:30:31Z</time>
      </trkpt>
      <trkpt lat="46.46064" lon="5.7936">
        <ele>820.2</ele>
        <time>2022-08-03T06:30:33Z</time>
      </trkpt>
      <trkpt lat="46.46043" lon="5.79365">
        <ele>819.4</ele>
        <time>2022-08-03T06:30:35Z</time>
      </trkpt>
      <trkpt lat="46.46033" lon="5.79365">
        <ele>819.2</ele>
        <time>2022-08-03T06:30:36Z</time>
      </trkpt>
      <trkpt lat="46.46015" lon="5.79363">
        <ele>817.8</ele>
        <time>2022-08-03T06:30:38Z</time>
      </trkpt>
      <trkpt lat="46.45998" lon="5.79362">
        <ele>816.8</ele>
        <time>2022-08-03T06:30:40Z</time>
      </trkpt>
      <trkpt lat="46.45989" lon="5.79362">
        <ele>816.4</ele>
        <time>2022-08-03T06:30:41Z</time>
      </trkpt>
      <trkpt lat="46.4598" lon="5.79365">
        <ele>816</ele>
        <time>2022-08-03T06:30:42Z</time>
      </trkpt>
      <trkpt lat="46.45964" lon="5.7937">
        <ele>815.4</ele>
        <time>2022-08-03T06:30:44Z</time>
      </trkpt>
      <trkpt lat="46.45941" lon="5.79381">
        <ele>813.8</ele>
        <time>2022-08-03T06:30:47Z</time>
      </trkpt>
      <trkpt lat="46.45935" lon="5.79386">
        <ele>813.4</ele>
        <time>2022-08-03T06:30:48Z</time>
      </trkpt>
      <trkpt lat="46.45928" lon="5.79401">
        <ele>812.2</ele>
        <time>2022-08-03T06:30:50Z</time>
      </trkpt>
      <trkpt lat="46.45926" lon="5.79409">
        <ele>811.4</ele>
        <time>2022-08-03T06:30:51Z</time>
      </trkpt>
      <trkpt lat="46.45931" lon="5.79419">
        <ele>810.6</ele>
        <time>2022-08-03T06:30:52Z</time>
      </trkpt>
      <trkpt lat="46.45934" lon="5.79428">
        <ele>810.2</ele>
        <time>2022-08-03T06:30:53Z</time>
      </trkpt>
      <trkpt lat="46.45945" lon="5.79454">
        <ele>809.2</ele>
        <time>2022-08-03T06:30:56Z</time>
      </trkpt>
      <trkpt lat="46.45956" lon="5.79481">
        <ele>808.8</ele>
        <time>2022-08-03T06:30:59Z</time>
      </trkpt>
      <trkpt lat="46.45967" lon="5.79498">
        <ele>807.8</ele>
        <time>2022-08-03T06:31:01Z</time>
      </trkpt>
      <trkpt lat="46.45992" lon="5.79525">
        <ele>806.4</ele>
        <time>2022-08-03T06:31:05Z</time>
      </trkpt>
      <trkpt lat="46.45997" lon="5.79531">
        <ele>806</ele>
        <time>2022-08-03T06:31:06Z</time>
      </trkpt>
      <trkpt lat="46.46005" lon="5.79544">
        <ele>805</ele>
        <time>2022-08-03T06:31:08Z</time>
      </trkpt>
      <trkpt lat="46.4601" lon="5.79553">
        <ele>804.4</ele>
        <time>2022-08-03T06:31:10Z</time>
      </trkpt>
      <trkpt lat="46.46019" lon="5.79557">
        <ele>804.2</ele>
        <time>2022-08-03T06:31:12Z</time>
      </trkpt>
      <trkpt lat="46.46023" lon="5.79556">
        <ele>804.2</ele>
        <time>2022-08-03T06:31:13Z</time>
      </trkpt>
      <trkpt lat="46.46028" lon="5.79553">
        <ele>804</ele>
        <time>2022-08-03T06:31:14Z</time>
      </trkpt>
      <trkpt lat="46.46045" lon="5.79542">
        <ele>804.4</ele>
        <time>2022-08-03T06:31:17Z</time>
      </trkpt>
      <trkpt lat="46.46056" lon="5.79536">
        <ele>804.4</ele>
        <time>2022-08-03T06:31:19Z</time>
      </trkpt>
      <trkpt lat="46.46096" lon="5.79514">
        <ele>806</ele>
        <time>2022-08-03T06:31:27Z</time>
      </trkpt>
      <trkpt lat="46.4613" lon="5.79509">
        <ele>807.2</ele>
        <time>2022-08-03T06:31:34Z</time>
      </trkpt>
      <trkpt lat="46.46157" lon="5.7952">
        <ele>808</ele>
        <time>2022-08-03T06:31:40Z</time>
      </trkpt>
      <trkpt lat="46.46161" lon="5.79523">
        <ele>808.2</ele>
        <time>2022-08-03T06:31:41Z</time>
      </trkpt>
      <trkpt lat="46.46165" lon="5.79527">
        <ele>808.4</ele>
        <time>2022-08-03T06:31:42Z</time>
      </trkpt>
      <trkpt lat="46.46171" lon="5.79537">
        <ele>808.6</ele>
        <time>2022-08-03T06:31:44Z</time>
      </trkpt>
      <trkpt lat="46.46173" lon="5.79542">
        <ele>808.8</ele>
        <time>2022-08-03T06:31:45Z</time>
      </trkpt>
      <trkpt lat="46.46175" lon="5.79546">
        <ele>809.2</ele>
        <time>2022-08-03T06:31:46Z</time>
      </trkpt>
      <trkpt lat="46.46184" lon="5.79564">
        <ele>809.8</ele>
        <time>2022-08-03T06:31:50Z</time>
      </trkpt>
      <trkpt lat="46.46189" lon="5.79573">
        <ele>810.4</ele>
        <time>2022-08-03T06:31:52Z</time>
      </trkpt>
      <trkpt lat="46.46201" lon="5.79594">
        <ele>812</ele>
        <time>2022-08-03T06:31:58Z</time>
      </trkpt>
      <trkpt lat="46.46206" lon="5.79605">
        <ele>813.2</ele>
        <time>2022-08-03T06:32:01Z</time>
      </trkpt>
      <trkpt lat="46.46209" lon="5.7962">
        <ele>813.8</ele>
        <time>2022-08-03T06:32:04Z</time>
      </trkpt>
      <trkpt lat="46.4621" lon="5.79631">
        <ele>814.4</ele>
        <time>2022-08-03T06:32:06Z</time>
      </trkpt>
      <trkpt lat="46.4621" lon="5.79658">
        <ele>815.2</ele>
        <time>2022-08-03T06:32:12Z</time>
      </trkpt>
      <trkpt lat="46.4621" lon="5.79665">
        <ele>815.4</ele>
        <time>2022-08-03T06:32:14Z</time>
      </trkpt>
      <trkpt lat="46.46209" lon="5.79685">
        <ele>815.8</ele>
        <time>2022-08-03T06:32:18Z</time>
      </trkpt>
      <trkpt lat="46.46207" lon="5.79728">
        <ele>816.4</ele>
        <time>2022-08-03T06:32:25Z</time>
      </trkpt>
      <trkpt lat="46.46207" lon="5.79734">
        <ele>816.4</ele>
        <time>2022-08-03T06:32:26Z</time>
      </trkpt>
      <trkpt lat="46.462" lon="5.79782">
        <ele>817.4</ele>
        <time>2022-08-03T06:32:34Z</time>
      </trkpt>
      <trkpt lat="46.46199" lon="5.79789">
        <ele>817.6</ele>
        <time>2022-08-03T06:32:35Z</time>
      </trkpt>
      <trkpt lat="46.46193" lon="5.79818">
        <ele>818.6</ele>
        <time>2022-08-03T06:32:40Z</time>
      </trkpt>
      <trkpt lat="46.46192" lon="5.79824">
        <ele>819</ele>
        <time>2022-08-03T06:32:41Z</time>
      </trkpt>
      <trkpt lat="46.46192" lon="5.79828">
        <ele>819.2</ele>
        <time>2022-08-03T06:32:42Z</time>
      </trkpt>
      <trkpt lat="46.46188" lon="5.79839">
        <ele>819.6</ele>
        <time>2022-08-03T06:32:44Z</time>
      </trkpt>
      <trkpt lat="46.46186" lon="5.79844">
        <ele>820</ele>
        <time>2022-08-03T06:32:45Z</time>
      </trkpt>
      <trkpt lat="46.4618" lon="5.79851">
        <ele>820.4</ele>
        <time>2022-08-03T06:32:47Z</time>
      </trkpt>
      <trkpt lat="46.46174" lon="5.79855">
        <ele>821</ele>
        <time>2022-08-03T06:32:49Z</time>
      </trkpt>
      <trkpt lat="46.46163" lon="5.79858">
        <ele>821.6</ele>
        <time>2022-08-03T06:32:52Z</time>
      </trkpt>
      <trkpt lat="46.46151" lon="5.7986">
        <ele>822.2</ele>
        <time>2022-08-03T06:32:55Z</time>
      </trkpt>
      <trkpt lat="46.46131" lon="5.79863">
        <ele>823.2</ele>
        <time>2022-08-03T06:33:00Z</time>
      </trkpt>
      <trkpt lat="46.46116" lon="5.79867">
        <ele>824.4</ele>
        <time>2022-08-03T06:33:04Z</time>
      </trkpt>
      <trkpt lat="46.46105" lon="5.7987">
        <ele>824.6</ele>
        <time>2022-08-03T06:33:07Z</time>
      </trkpt>
      <trkpt lat="46.46089" lon="5.79871">
        <ele>825.4</ele>
        <time>2022-08-03T06:33:11Z</time>
      </trkpt>
      <trkpt lat="46.46075" lon="5.79868">
        <ele>826</ele>
        <time>2022-08-03T06:33:15Z</time>
      </trkpt>
      <trkpt lat="46.46069" lon="5.79867">
        <ele>826.4</ele>
        <time>2022-08-03T06:33:17Z</time>
      </trkpt>
      <trkpt lat="46.46052" lon="5.79864">
        <ele>827.6</ele>
        <time>2022-08-03T06:33:22Z</time>
      </trkpt>
      <trkpt lat="46.46048" lon="5.79864">
        <ele>827.6</ele>
        <time>2022-08-03T06:33:23Z</time>
      </trkpt>
      <trkpt lat="46.46033" lon="5.79867">
        <ele>828.6</ele>
        <time>2022-08-03T06:33:27Z</time>
      </trkpt>
      <trkpt lat="46.46024" lon="5.79874">
        <ele>828.8</ele>
        <time>2022-08-03T06:33:30Z</time>
      </trkpt>
      <trkpt lat="46.46015" lon="5.79889">
        <ele>829.8</ele>
        <time>2022-08-03T06:33:34Z</time>
      </trkpt>
      <trkpt lat="46.46011" lon="5.79897">
        <ele>830</ele>
        <time>2022-08-03T06:33:36Z</time>
      </trkpt>
      <trkpt lat="46.46008" lon="5.79936">
        <ele>830.8</ele>
        <time>2022-08-03T06:33:43Z</time>
      </trkpt>
      <trkpt lat="46.46008" lon="5.79942">
        <ele>831</ele>
        <time>2022-08-03T06:33:44Z</time>
      </trkpt>
      <trkpt lat="46.46012" lon="5.79971">
        <ele>831.6</ele>
        <time>2022-08-03T06:33:49Z</time>
      </trkpt>
      <trkpt lat="46.46015" lon="5.79982">
        <ele>832</ele>
        <time>2022-08-03T06:33:51Z</time>
      </trkpt>
      <trkpt lat="46.46024" lon="5.80005">
        <ele>832.8</ele>
        <time>2022-08-03T06:33:56Z</time>
      </trkpt>
      <trkpt lat="46.46027" lon="5.80009">
        <ele>833</ele>
        <time>2022-08-03T06:33:57Z</time>
      </trkpt>
      <trkpt lat="46.46044" lon="5.80024">
        <ele>833.6</ele>
        <time>2022-08-03T06:34:02Z</time>
      </trkpt>
      <trkpt lat="46.46051" lon="5.80026">
        <ele>834</ele>
        <time>2022-08-03T06:34:04Z</time>
      </trkpt>
      <trkpt lat="46.46068" lon="5.80025">
        <ele>834.6</ele>
        <time>2022-08-03T06:34:08Z</time>
      </trkpt>
      <trkpt lat="46.46084" lon="5.80021">
        <ele>835.2</ele>
        <time>2022-08-03T06:34:12Z</time>
      </trkpt>
      <trkpt lat="46.461" lon="5.80018">
        <ele>835.6</ele>
        <time>2022-08-03T06:34:16Z</time>
      </trkpt>
      <trkpt lat="46.46105" lon="5.80018">
        <ele>835.6</ele>
        <time>2022-08-03T06:34:17Z</time>
      </trkpt>
      <trkpt lat="46.46117" lon="5.8002">
        <ele>836.2</ele>
        <time>2022-08-03T06:34:20Z</time>
      </trkpt>
      <trkpt lat="46.46133" lon="5.80022">
        <ele>837</ele>
        <time>2022-08-03T06:34:24Z</time>
      </trkpt>
      <trkpt lat="46.46141" lon="5.80023">
        <ele>837.2</ele>
        <time>2022-08-03T06:34:26Z</time>
      </trkpt>
      <trkpt lat="46.46159" lon="5.80026">
        <ele>837.6</ele>
        <time>2022-08-03T06:34:30Z</time>
      </trkpt>
      <trkpt lat="46.46171" lon="5.80032">
        <ele>838.4</ele>
        <time>2022-08-03T06:34:33Z</time>
      </trkpt>
      <trkpt lat="46.46191" lon="5.8004">
        <ele>839.6</ele>
        <time>2022-08-03T06:34:38Z</time>
      </trkpt>
      <trkpt lat="46.46199" lon="5.80042">
        <ele>839.8</ele>
        <time>2022-08-03T06:34:40Z</time>
      </trkpt>
      <trkpt lat="46.46215" lon="5.80044">
        <ele>840.8</ele>
        <time>2022-08-03T06:34:44Z</time>
      </trkpt>
      <trkpt lat="46.46231" lon="5.80045">
        <ele>842</ele>
        <time>2022-08-03T06:34:48Z</time>
      </trkpt>
      <trkpt lat="46.46248" lon="5.80042">
        <ele>843</ele>
        <time>2022-08-03T06:34:53Z</time>
      </trkpt>
      <trkpt lat="46.46251" lon="5.80042">
        <ele>843.4</ele>
        <time>2022-08-03T06:34:54Z</time>
      </trkpt>
      <trkpt lat="46.46262" lon="5.80042">
        <ele>844.2</ele>
        <time>2022-08-03T06:34:57Z</time>
      </trkpt>
      <trkpt lat="46.46269" lon="5.80045">
        <ele>844.8</ele>
        <time>2022-08-03T06:34:59Z</time>
      </trkpt>
      <trkpt lat="46.46273" lon="5.80047">
        <ele>845</ele>
        <time>2022-08-03T06:35:00Z</time>
      </trkpt>
      <trkpt lat="46.46277" lon="5.80051">
        <ele>845.4</ele>
        <time>2022-08-03T06:35:01Z</time>
      </trkpt>
      <trkpt lat="46.46293" lon="5.80064">
        <ele>845.8</ele>
        <time>2022-08-03T06:35:05Z</time>
      </trkpt>
      <trkpt lat="46.46324" lon="5.80079">
        <ele>845.8</ele>
        <time>2022-08-03T06:35:11Z</time>
      </trkpt>
      <trkpt lat="46.4637" lon="5.80098">
        <ele>845</ele>
        <time>2022-08-03T06:35:19Z</time>
      </trkpt>
      <trkpt lat="46.46381" lon="5.80103">
        <ele>844.8</ele>
        <time>2022-08-03T06:35:21Z</time>
      </trkpt>
      <trkpt lat="46.4639" lon="5.80112">
        <ele>844.8</ele>
        <time>2022-08-03T06:35:23Z</time>
      </trkpt>
      <trkpt lat="46.46393" lon="5.80118">
        <ele>844.8</ele>
        <time>2022-08-03T06:35:24Z</time>
      </trkpt>
      <trkpt lat="46.46395" lon="5.80126">
        <ele>844.8</ele>
        <time>2022-08-03T06:35:25Z</time>
      </trkpt>
      <trkpt lat="46.46396" lon="5.80142">
        <ele>845</ele>
        <time>2022-08-03T06:35:27Z</time>
      </trkpt>
      <trkpt lat="46.46394" lon="5.80166">
        <ele>845.4</ele>
        <time>2022-08-03T06:35:30Z</time>
      </trkpt>
      <trkpt lat="46.4639" lon="5.8018">
        <ele>845.8</ele>
        <time>2022-08-03T06:35:32Z</time>
      </trkpt>
      <trkpt lat="46.46386" lon="5.80192">
        <ele>846.2</ele>
        <time>2022-08-03T06:35:34Z</time>
      </trkpt>
      <trkpt lat="46.46382" lon="5.80199">
        <ele>846.4</ele>
        <time>2022-08-03T06:35:35Z</time>
      </trkpt>
      <trkpt lat="46.46376" lon="5.8021">
        <ele>847.2</ele>
        <time>2022-08-03T06:35:37Z</time>
      </trkpt>
      <trkpt lat="46.46368" lon="5.80221">
        <ele>847.6</ele>
        <time>2022-08-03T06:35:39Z</time>
      </trkpt>
      <trkpt lat="46.46352" lon="5.80238">
        <ele>848.4</ele>
        <time>2022-08-03T06:35:43Z</time>
      </trkpt>
      <trkpt lat="46.46344" lon="5.80246">
        <ele>848.6</ele>
        <time>2022-08-03T06:35:45Z</time>
      </trkpt>
      <trkpt lat="46.4633" lon="5.8026">
        <ele>849.2</ele>
        <time>2022-08-03T06:35:48Z</time>
      </trkpt>
      <trkpt lat="46.46321" lon="5.80267">
        <ele>849.6</ele>
        <time>2022-08-03T06:35:50Z</time>
      </trkpt>
      <trkpt lat="46.46317" lon="5.8027">
        <ele>849.8</ele>
        <time>2022-08-03T06:35:51Z</time>
      </trkpt>
      <trkpt lat="46.46302" lon="5.80284">
        <ele>850.8</ele>
        <time>2022-08-03T06:35:55Z</time>
      </trkpt>
      <trkpt lat="46.46292" lon="5.80297">
        <ele>851.8</ele>
        <time>2022-08-03T06:35:58Z</time>
      </trkpt>
      <trkpt lat="46.4629" lon="5.803">
        <ele>852</ele>
        <time>2022-08-03T06:35:59Z</time>
      </trkpt>
      <trkpt lat="46.46281" lon="5.80314">
        <ele>853</ele>
        <time>2022-08-03T06:36:02Z</time>
      </trkpt>
      <trkpt lat="46.46275" lon="5.80322">
        <ele>853.2</ele>
        <time>2022-08-03T06:36:04Z</time>
      </trkpt>
      <trkpt lat="46.46272" lon="5.80327">
        <ele>853.4</ele>
        <time>2022-08-03T06:36:05Z</time>
      </trkpt>
      <trkpt lat="46.46262" lon="5.80345">
        <ele>854.2</ele>
        <time>2022-08-03T06:36:09Z</time>
      </trkpt>
      <trkpt lat="46.46251" lon="5.8036">
        <ele>854.6</ele>
        <time>2022-08-03T06:36:13Z</time>
      </trkpt>
      <trkpt lat="46.46235" lon="5.80363">
        <ele>855.2</ele>
        <time>2022-08-03T06:36:17Z</time>
      </trkpt>
      <trkpt lat="46.46231" lon="5.80361">
        <ele>855.4</ele>
        <time>2022-08-03T06:36:18Z</time>
      </trkpt>
      <trkpt lat="46.46219" lon="5.8035">
        <ele>855.6</ele>
        <time>2022-08-03T06:36:22Z</time>
      </trkpt>
      <trkpt lat="46.46207" lon="5.80345">
        <ele>856.4</ele>
        <time>2022-08-03T06:36:25Z</time>
      </trkpt>
      <trkpt lat="46.46199" lon="5.80341">
        <ele>856.8</ele>
        <time>2022-08-03T06:36:27Z</time>
      </trkpt>
      <trkpt lat="46.46187" lon="5.80342">
        <ele>857.6</ele>
        <time>2022-08-03T06:36:30Z</time>
      </trkpt>
      <trkpt lat="46.46178" lon="5.80346">
        <ele>858</ele>
        <time>2022-08-03T06:36:32Z</time>
      </trkpt>
      <trkpt lat="46.46171" lon="5.80352">
        <ele>858.2</ele>
        <time>2022-08-03T06:36:34Z</time>
      </trkpt>
      <trkpt lat="46.46162" lon="5.80362">
        <ele>858.8</ele>
        <time>2022-08-03T06:36:37Z</time>
      </trkpt>
      <trkpt lat="46.46159" lon="5.80364">
        <ele>858.8</ele>
        <time>2022-08-03T06:36:38Z</time>
      </trkpt>
      <trkpt lat="46.46144" lon="5.80378">
        <ele>859.8</ele>
        <time>2022-08-03T06:36:43Z</time>
      </trkpt>
      <trkpt lat="46.46141" lon="5.8038">
        <ele>860.2</ele>
        <time>2022-08-03T06:36:44Z</time>
      </trkpt>
      <trkpt lat="46.46134" lon="5.80382">
        <ele>861</ele>
        <time>2022-08-03T06:36:46Z</time>
      </trkpt>
      <trkpt lat="46.46118" lon="5.80385">
        <ele>862</ele>
        <time>2022-08-03T06:36:51Z</time>
      </trkpt>
      <trkpt lat="46.46114" lon="5.80385">
        <ele>862.2</ele>
        <time>2022-08-03T06:36:52Z</time>
      </trkpt>
      <trkpt lat="46.46099" lon="5.80386">
        <ele>863.2</ele>
        <time>2022-08-03T06:36:56Z</time>
      </trkpt>
      <trkpt lat="46.46087" lon="5.80384">
        <ele>863.4</ele>
        <time>2022-08-03T06:36:59Z</time>
      </trkpt>
      <trkpt lat="46.4607" lon="5.80373">
        <ele>864</ele>
        <time>2022-08-03T06:37:04Z</time>
      </trkpt>
      <trkpt lat="46.46066" lon="5.80371">
        <ele>864.2</ele>
        <time>2022-08-03T06:37:05Z</time>
      </trkpt>
      <trkpt lat="46.46044" lon="5.80369">
        <ele>864.8</ele>
        <time>2022-08-03T06:37:10Z</time>
      </trkpt>
      <trkpt lat="46.46035" lon="5.80372">
        <ele>865.4</ele>
        <time>2022-08-03T06:37:12Z</time>
      </trkpt>
      <trkpt lat="46.46025" lon="5.80382">
        <ele>865.8</ele>
        <time>2022-08-03T06:37:15Z</time>
      </trkpt>
      <trkpt lat="46.46017" lon="5.80408">
        <ele>866</ele>
        <time>2022-08-03T06:37:19Z</time>
      </trkpt>
      <trkpt lat="46.46011" lon="5.80439">
        <ele>866.2</ele>
        <time>2022-08-03T06:37:23Z</time>
      </trkpt>
      <trkpt lat="46.46009" lon="5.80454">
        <ele>866.4</ele>
        <time>2022-08-03T06:37:25Z</time>
      </trkpt>
      <trkpt lat="46.46004" lon="5.80471">
        <ele>866.8</ele>
        <time>2022-08-03T06:37:27Z</time>
      </trkpt>
      <trkpt lat="46.45997" lon="5.80485">
        <ele>867</ele>
        <time>2022-08-03T06:37:29Z</time>
      </trkpt>
      <trkpt lat="46.45987" lon="5.80496">
        <ele>867.2</ele>
        <time>2022-08-03T06:37:31Z</time>
      </trkpt>
      <trkpt lat="46.45977" lon="5.80497">
        <ele>867.2</ele>
        <time>2022-08-03T06:37:33Z</time>
      </trkpt>
      <trkpt lat="46.45962" lon="5.80496">
        <ele>867.4</ele>
        <time>2022-08-03T06:37:36Z</time>
      </trkpt>
      <trkpt lat="46.45953" lon="5.80493">
        <ele>867.6</ele>
        <time>2022-08-03T06:37:38Z</time>
      </trkpt>
      <trkpt lat="46.45943" lon="5.80499">
        <ele>867.8</ele>
        <time>2022-08-03T06:37:40Z</time>
      </trkpt>
      <trkpt lat="46.45939" lon="5.80505">
        <ele>867.8</ele>
        <time>2022-08-03T06:37:41Z</time>
      </trkpt>
      <trkpt lat="46.45937" lon="5.80512">
        <ele>867.8</ele>
        <time>2022-08-03T06:37:42Z</time>
      </trkpt>
      <trkpt lat="46.45934" lon="5.80529">
        <ele>867.8</ele>
        <time>2022-08-03T06:37:44Z</time>
      </trkpt>
      <trkpt lat="46.45934" lon="5.80565">
        <ele>867.8</ele>
        <time>2022-08-03T06:37:48Z</time>
      </trkpt>
      <trkpt lat="46.45933" lon="5.80574">
        <ele>867.6</ele>
        <time>2022-08-03T06:37:49Z</time>
      </trkpt>
      <trkpt lat="46.45927" lon="5.80632">
        <ele>867</ele>
        <time>2022-08-03T06:37:55Z</time>
      </trkpt>
      <trkpt lat="46.45922" lon="5.8067">
        <ele>866.8</ele>
        <time>2022-08-03T06:37:59Z</time>
      </trkpt>
      <trkpt lat="46.4592" lon="5.80687">
        <ele>867</ele>
        <time>2022-08-03T06:38:01Z</time>
      </trkpt>
      <trkpt lat="46.45916" lon="5.80712">
        <ele>867</ele>
        <time>2022-08-03T06:38:04Z</time>
      </trkpt>
      <trkpt lat="46.45914" lon="5.80727">
        <ele>867.6</ele>
        <time>2022-08-03T06:38:06Z</time>
      </trkpt>
      <trkpt lat="46.45908" lon="5.80756">
        <ele>868.6</ele>
        <time>2022-08-03T06:38:10Z</time>
      </trkpt>
      <trkpt lat="46.45905" lon="5.80772">
        <ele>869.2</ele>
        <time>2022-08-03T06:38:12Z</time>
      </trkpt>
      <trkpt lat="46.45902" lon="5.80784">
        <ele>869.4</ele>
        <time>2022-08-03T06:38:14Z</time>
      </trkpt>
      <trkpt lat="46.45898" lon="5.80806">
        <ele>869.8</ele>
        <time>2022-08-03T06:38:17Z</time>
      </trkpt>
      <trkpt lat="46.45894" lon="5.80822">
        <ele>870.2</ele>
        <time>2022-08-03T06:38:19Z</time>
      </trkpt>
      <trkpt lat="46.45894" lon="5.80845">
        <ele>870.2</ele>
        <time>2022-08-03T06:38:22Z</time>
      </trkpt>
      <trkpt lat="46.45895" lon="5.80852">
        <ele>870.2</ele>
        <time>2022-08-03T06:38:23Z</time>
      </trkpt>
      <trkpt lat="46.45902" lon="5.80871">
        <ele>870.4</ele>
        <time>2022-08-03T06:38:26Z</time>
      </trkpt>
      <trkpt lat="46.45922" lon="5.80893">
        <ele>870.8</ele>
        <time>2022-08-03T06:38:31Z</time>
      </trkpt>
      <trkpt lat="46.45949" lon="5.8092">
        <ele>871.4</ele>
        <time>2022-08-03T06:38:37Z</time>
      </trkpt>
      <trkpt lat="46.45961" lon="5.80934">
        <ele>871.6</ele>
        <time>2022-08-03T06:38:40Z</time>
      </trkpt>
      <trkpt lat="46.45965" lon="5.80941">
        <ele>871.6</ele>
        <time>2022-08-03T06:38:41Z</time>
      </trkpt>
      <trkpt lat="46.45972" lon="5.80955">
        <ele>871.6</ele>
        <time>2022-08-03T06:38:43Z</time>
      </trkpt>
      <trkpt lat="46.45975" lon="5.80962">
        <ele>871.6</ele>
        <time>2022-08-03T06:38:44Z</time>
      </trkpt>
      <trkpt lat="46.45986" lon="5.80988">
        <ele>871.8</ele>
        <time>2022-08-03T06:38:48Z</time>
      </trkpt>
      <trkpt lat="46.45991" lon="5.81001">
        <ele>872</ele>
        <time>2022-08-03T06:38:50Z</time>
      </trkpt>
      <trkpt lat="46.45996" lon="5.81011">
        <ele>872.4</ele>
        <time>2022-08-03T06:38:52Z</time>
      </trkpt>
      <trkpt lat="46.45999" lon="5.81017">
        <ele>872.8</ele>
        <time>2022-08-03T06:38:53Z</time>
      </trkpt>
      <trkpt lat="46.46006" lon="5.81029">
        <ele>873.2</ele>
        <time>2022-08-03T06:38:55Z</time>
      </trkpt>
      <trkpt lat="46.46021" lon="5.81051">
        <ele>873.8</ele>
        <time>2022-08-03T06:38:59Z</time>
      </trkpt>
      <trkpt lat="46.46026" lon="5.81064">
        <ele>874.2</ele>
        <time>2022-08-03T06:39:01Z</time>
      </trkpt>
      <trkpt lat="46.46028" lon="5.81078">
        <ele>874.6</ele>
        <time>2022-08-03T06:39:03Z</time>
      </trkpt>
      <trkpt lat="46.4603" lon="5.81091">
        <ele>875</ele>
        <time>2022-08-03T06:39:05Z</time>
      </trkpt>
      <trkpt lat="46.46033" lon="5.81103">
        <ele>875.2</ele>
        <time>2022-08-03T06:39:07Z</time>
      </trkpt>
      <trkpt lat="46.46034" lon="5.81109">
        <ele>875.2</ele>
        <time>2022-08-03T06:39:08Z</time>
      </trkpt>
      <trkpt lat="46.46037" lon="5.81119">
        <ele>876</ele>
        <time>2022-08-03T06:39:10Z</time>
      </trkpt>
      <trkpt lat="46.46041" lon="5.81129">
        <ele>876.6</ele>
        <time>2022-08-03T06:39:12Z</time>
      </trkpt>
      <trkpt lat="46.46046" lon="5.81139">
        <ele>877.2</ele>
        <time>2022-08-03T06:39:14Z</time>
      </trkpt>
      <trkpt lat="46.46049" lon="5.81144">
        <ele>877.2</ele>
        <time>2022-08-03T06:39:15Z</time>
      </trkpt>
      <trkpt lat="46.46062" lon="5.81159">
        <ele>877.8</ele>
        <time>2022-08-03T06:39:19Z</time>
      </trkpt>
      <trkpt lat="46.46072" lon="5.81169">
        <ele>878.4</ele>
        <time>2022-08-03T06:39:22Z</time>
      </trkpt>
      <trkpt lat="46.46079" lon="5.81175">
        <ele>878.6</ele>
        <time>2022-08-03T06:39:24Z</time>
      </trkpt>
      <trkpt lat="46.4609" lon="5.81182">
        <ele>879.2</ele>
        <time>2022-08-03T06:39:27Z</time>
      </trkpt>
      <trkpt lat="46.46094" lon="5.81185">
        <ele>879.6</ele>
        <time>2022-08-03T06:39:28Z</time>
      </trkpt>
      <trkpt lat="46.46116" lon="5.81203">
        <ele>880.6</ele>
        <time>2022-08-03T06:39:34Z</time>
      </trkpt>
      <trkpt lat="46.46123" lon="5.81209">
        <ele>881</ele>
        <time>2022-08-03T06:39:36Z</time>
      </trkpt>
      <trkpt lat="46.4614" lon="5.81226">
        <ele>881.6</ele>
        <time>2022-08-03T06:39:41Z</time>
      </trkpt>
      <trkpt lat="46.46153" lon="5.81238">
        <ele>882.4</ele>
        <time>2022-08-03T06:39:45Z</time>
      </trkpt>
      <trkpt lat="46.4616" lon="5.81244">
        <ele>882.8</ele>
        <time>2022-08-03T06:39:47Z</time>
      </trkpt>
      <trkpt lat="46.46177" lon="5.81258">
        <ele>883.8</ele>
        <time>2022-08-03T06:39:52Z</time>
      </trkpt>
      <trkpt lat="46.4618" lon="5.8126">
        <ele>884</ele>
        <time>2022-08-03T06:39:53Z</time>
      </trkpt>
      <trkpt lat="46.46197" lon="5.81272">
        <ele>885</ele>
        <time>2022-08-03T06:39:58Z</time>
      </trkpt>
      <trkpt lat="46.46215" lon="5.81287">
        <ele>886</ele>
        <time>2022-08-03T06:40:03Z</time>
      </trkpt>
      <trkpt lat="46.46228" lon="5.81301">
        <ele>886.4</ele>
        <time>2022-08-03T06:40:07Z</time>
      </trkpt>
      <trkpt lat="46.46247" lon="5.81317">
        <ele>887</ele>
        <time>2022-08-03T06:40:12Z</time>
      </trkpt>
      <trkpt lat="46.46264" lon="5.81329">
        <ele>887.2</ele>
        <time>2022-08-03T06:40:16Z</time>
      </trkpt>
      <trkpt lat="46.46278" lon="5.81337">
        <ele>887.2</ele>
        <time>2022-08-03T06:40:19Z</time>
      </trkpt>
      <trkpt lat="46.46288" lon="5.81339">
        <ele>887.6</ele>
        <time>2022-08-03T06:40:21Z</time>
      </trkpt>
      <trkpt lat="46.46298" lon="5.8134">
        <ele>887.8</ele>
        <time>2022-08-03T06:40:23Z</time>
      </trkpt>
      <trkpt lat="46.46319" lon="5.81344">
        <ele>887.8</ele>
        <time>2022-08-03T06:40:27Z</time>
      </trkpt>
      <trkpt lat="46.46339" lon="5.81351">
        <ele>887.8</ele>
        <time>2022-08-03T06:40:31Z</time>
      </trkpt>
      <trkpt lat="46.46348" lon="5.81356">
        <ele>887.8</ele>
        <time>2022-08-03T06:40:33Z</time>
      </trkpt>
      <trkpt lat="46.46359" lon="5.81358">
        <ele>888</ele>
        <time>2022-08-03T06:40:35Z</time>
      </trkpt>
      <trkpt lat="46.46364" lon="5.81359">
        <ele>888.2</ele>
        <time>2022-08-03T06:40:36Z</time>
      </trkpt>
      <trkpt lat="46.46381" lon="5.81359">
        <ele>888.4</ele>
        <time>2022-08-03T06:40:39Z</time>
      </trkpt>
      <trkpt lat="46.46398" lon="5.81353">
        <ele>888.8</ele>
        <time>2022-08-03T06:40:42Z</time>
      </trkpt>
      <trkpt lat="46.46403" lon="5.81351">
        <ele>888.8</ele>
        <time>2022-08-03T06:40:43Z</time>
      </trkpt>
      <trkpt lat="46.4642" lon="5.81344">
        <ele>889</ele>
        <time>2022-08-03T06:40:46Z</time>
      </trkpt>
      <trkpt lat="46.46434" lon="5.81339">
        <ele>889</ele>
        <time>2022-08-03T06:40:48Z</time>
      </trkpt>
      <trkpt lat="46.46454" lon="5.8133">
        <ele>889</ele>
        <time>2022-08-03T06:40:51Z</time>
      </trkpt>
      <trkpt lat="46.46473" lon="5.81329">
        <ele>888.8</ele>
        <time>2022-08-03T06:40:54Z</time>
      </trkpt>
      <trkpt lat="46.46488" lon="5.81329">
        <ele>888.4</ele>
        <time>2022-08-03T06:40:57Z</time>
      </trkpt>
      <trkpt lat="46.46505" lon="5.81328">
        <ele>888.4</ele>
        <time>2022-08-03T06:41:00Z</time>
      </trkpt>
      <trkpt lat="46.46511" lon="5.81329">
        <ele>888.6</ele>
        <time>2022-08-03T06:41:01Z</time>
      </trkpt>
      <trkpt lat="46.46522" lon="5.81334">
        <ele>889</ele>
        <time>2022-08-03T06:41:03Z</time>
      </trkpt>
      <trkpt lat="46.46527" lon="5.81337">
        <ele>889.2</ele>
        <time>2022-08-03T06:41:04Z</time>
      </trkpt>
      <trkpt lat="46.46548" lon="5.81359">
        <ele>889.6</ele>
        <time>2022-08-03T06:41:09Z</time>
      </trkpt>
      <trkpt lat="46.46553" lon="5.81362">
        <ele>889.6</ele>
        <time>2022-08-03T06:41:10Z</time>
      </trkpt>
      <trkpt lat="46.46565" lon="5.81371">
        <ele>890</ele>
        <time>2022-08-03T06:41:13Z</time>
      </trkpt>
      <trkpt lat="46.4657" lon="5.81372">
        <ele>890</ele>
        <time>2022-08-03T06:41:14Z</time>
      </trkpt>
      <trkpt lat="46.46575" lon="5.81374">
        <ele>890.2</ele>
        <time>2022-08-03T06:41:15Z</time>
      </trkpt>
      <trkpt lat="46.4659" lon="5.81377">
        <ele>890.8</ele>
        <time>2022-08-03T06:41:18Z</time>
      </trkpt>
      <trkpt lat="46.46626" lon="5.81382">
        <ele>892.2</ele>
        <time>2022-08-03T06:41:25Z</time>
      </trkpt>
      <trkpt lat="46.46636" lon="5.81384">
        <ele>892.4</ele>
        <time>2022-08-03T06:41:27Z</time>
      </trkpt>
      <trkpt lat="46.46645" lon="5.81387">
        <ele>892.6</ele>
        <time>2022-08-03T06:41:29Z</time>
      </trkpt>
      <trkpt lat="46.46656" lon="5.81387">
        <ele>893</ele>
        <time>2022-08-03T06:41:31Z</time>
      </trkpt>
      <trkpt lat="46.46665" lon="5.81385">
        <ele>893.2</ele>
        <time>2022-08-03T06:41:33Z</time>
      </trkpt>
      <trkpt lat="46.46681" lon="5.81378">
        <ele>893.8</ele>
        <time>2022-08-03T06:41:36Z</time>
      </trkpt>
      <trkpt lat="46.4669" lon="5.81375">
        <ele>894.4</ele>
        <time>2022-08-03T06:41:38Z</time>
      </trkpt>
      <trkpt lat="46.46695" lon="5.81373">
        <ele>894.6</ele>
        <time>2022-08-03T06:41:39Z</time>
      </trkpt>
      <trkpt lat="46.46699" lon="5.81371">
        <ele>895</ele>
        <time>2022-08-03T06:41:40Z</time>
      </trkpt>
      <trkpt lat="46.46708" lon="5.81366">
        <ele>895.4</ele>
        <time>2022-08-03T06:41:42Z</time>
      </trkpt>
      <trkpt lat="46.46712" lon="5.81365">
        <ele>895.8</ele>
        <time>2022-08-03T06:41:43Z</time>
      </trkpt>
      <trkpt lat="46.46717" lon="5.81364">
        <ele>896</ele>
        <time>2022-08-03T06:41:44Z</time>
      </trkpt>
      <trkpt lat="46.46722" lon="5.81364">
        <ele>896.2</ele>
        <time>2022-08-03T06:41:45Z</time>
      </trkpt>
      <trkpt lat="46.46732" lon="5.81366">
        <ele>896.6</ele>
        <time>2022-08-03T06:41:47Z</time>
      </trkpt>
      <trkpt lat="46.4674" lon="5.81368">
        <ele>896.8</ele>
        <time>2022-08-03T06:41:49Z</time>
      </trkpt>
      <trkpt lat="46.46751" lon="5.8137">
        <ele>897.6</ele>
        <time>2022-08-03T06:41:52Z</time>
      </trkpt>
      <trkpt lat="46.46759" lon="5.81372">
        <ele>898.2</ele>
        <time>2022-08-03T06:41:54Z</time>
      </trkpt>
      <trkpt lat="46.46768" lon="5.8138">
        <ele>898.4</ele>
        <time>2022-08-03T06:41:57Z</time>
      </trkpt>
      <trkpt lat="46.46774" lon="5.81389">
        <ele>898.8</ele>
        <time>2022-08-03T06:41:59Z</time>
      </trkpt>
      <trkpt lat="46.46783" lon="5.81403">
        <ele>899.4</ele>
        <time>2022-08-03T06:42:02Z</time>
      </trkpt>
      <trkpt lat="46.46788" lon="5.81413">
        <ele>900</ele>
        <time>2022-08-03T06:42:04Z</time>
      </trkpt>
      <trkpt lat="46.46798" lon="5.81433">
        <ele>900.6</ele>
        <time>2022-08-03T06:42:08Z</time>
      </trkpt>
      <trkpt lat="46.46801" lon="5.81437">
        <ele>900.8</ele>
        <time>2022-08-03T06:42:09Z</time>
      </trkpt>
      <trkpt lat="46.46817" lon="5.81457">
        <ele>901.8</ele>
        <time>2022-08-03T06:42:14Z</time>
      </trkpt>
      <trkpt lat="46.4682" lon="5.81461">
        <ele>902</ele>
        <time>2022-08-03T06:42:15Z</time>
      </trkpt>
      <trkpt lat="46.46839" lon="5.81479">
        <ele>902.8</ele>
        <time>2022-08-03T06:42:20Z</time>
      </trkpt>
      <trkpt lat="46.46846" lon="5.81486">
        <ele>903</ele>
        <time>2022-08-03T06:42:22Z</time>
      </trkpt>
      <trkpt lat="46.4686" lon="5.81499">
        <ele>903.8</ele>
        <time>2022-08-03T06:42:26Z</time>
      </trkpt>
      <trkpt lat="46.46879" lon="5.81518">
        <ele>905</ele>
        <time>2022-08-03T06:42:31Z</time>
      </trkpt>
      <trkpt lat="46.46899" lon="5.81535">
        <ele>906.2</ele>
        <time>2022-08-03T06:42:37Z</time>
      </trkpt>
      <trkpt lat="46.46916" lon="5.81548">
        <ele>907</ele>
        <time>2022-08-03T06:42:42Z</time>
      </trkpt>
      <trkpt lat="46.4692" lon="5.81551">
        <ele>907.2</ele>
        <time>2022-08-03T06:42:43Z</time>
      </trkpt>
      <trkpt lat="46.46938" lon="5.81569">
        <ele>908.2</ele>
        <time>2022-08-03T06:42:49Z</time>
      </trkpt>
      <trkpt lat="46.46947" lon="5.8158">
        <ele>908.8</ele>
        <time>2022-08-03T06:42:52Z</time>
      </trkpt>
      <trkpt lat="46.46951" lon="5.81584">
        <ele>909.2</ele>
        <time>2022-08-03T06:42:53Z</time>
      </trkpt>
      <trkpt lat="46.46969" lon="5.816">
        <ele>910</ele>
        <time>2022-08-03T06:42:58Z</time>
      </trkpt>
      <trkpt lat="46.46973" lon="5.81603">
        <ele>910.4</ele>
        <time>2022-08-03T06:42:59Z</time>
      </trkpt>
      <trkpt lat="46.46995" lon="5.8162">
        <ele>911.4</ele>
        <time>2022-08-03T06:43:05Z</time>
      </trkpt>
      <trkpt lat="46.47" lon="5.81623">
        <ele>911.4</ele>
        <time>2022-08-03T06:43:06Z</time>
      </trkpt>
      <trkpt lat="46.47015" lon="5.81634">
        <ele>912.4</ele>
        <time>2022-08-03T06:43:10Z</time>
      </trkpt>
      <trkpt lat="46.47022" lon="5.8164">
        <ele>912.8</ele>
        <time>2022-08-03T06:43:12Z</time>
      </trkpt>
      <trkpt lat="46.47035" lon="5.81655">
        <ele>913.6</ele>
        <time>2022-08-03T06:43:16Z</time>
      </trkpt>
      <trkpt lat="46.47043" lon="5.81662">
        <ele>914.2</ele>
        <time>2022-08-03T06:43:18Z</time>
      </trkpt>
      <trkpt lat="46.47052" lon="5.81674">
        <ele>914.6</ele>
        <time>2022-08-03T06:43:21Z</time>
      </trkpt>
      <trkpt lat="46.47062" lon="5.81685">
        <ele>915</ele>
        <time>2022-08-03T06:43:24Z</time>
      </trkpt>
      <trkpt lat="46.47072" lon="5.81698">
        <ele>915.6</ele>
        <time>2022-08-03T06:43:27Z</time>
      </trkpt>
      <trkpt lat="46.47083" lon="5.81715">
        <ele>916.4</ele>
        <time>2022-08-03T06:43:31Z</time>
      </trkpt>
      <trkpt lat="46.47086" lon="5.81719">
        <ele>916.8</ele>
        <time>2022-08-03T06:43:32Z</time>
      </trkpt>
      <trkpt lat="46.47097" lon="5.81732">
        <ele>917.6</ele>
        <time>2022-08-03T06:43:36Z</time>
      </trkpt>
      <trkpt lat="46.47102" lon="5.81739">
        <ele>917.8</ele>
        <time>2022-08-03T06:43:38Z</time>
      </trkpt>
      <trkpt lat="46.47122" lon="5.81759">
        <ele>918.8</ele>
        <time>2022-08-03T06:43:44Z</time>
      </trkpt>
      <trkpt lat="46.47129" lon="5.81766">
        <ele>919.2</ele>
        <time>2022-08-03T06:43:46Z</time>
      </trkpt>
      <trkpt lat="46.47146" lon="5.81781">
        <ele>919.8</ele>
        <time>2022-08-03T06:43:51Z</time>
      </trkpt>
      <trkpt lat="46.47153" lon="5.81787">
        <ele>920.2</ele>
        <time>2022-08-03T06:43:53Z</time>
      </trkpt>
      <trkpt lat="46.47168" lon="5.81798">
        <ele>921</ele>
        <time>2022-08-03T06:43:57Z</time>
      </trkpt>
      <trkpt lat="46.47182" lon="5.81809">
        <ele>921.4</ele>
        <time>2022-08-03T06:44:01Z</time>
      </trkpt>
      <trkpt lat="46.47194" lon="5.81817">
        <ele>922.2</ele>
        <time>2022-08-03T06:44:04Z</time>
      </trkpt>
      <trkpt lat="46.47213" lon="5.81831">
        <ele>923.2</ele>
        <time>2022-08-03T06:44:09Z</time>
      </trkpt>
      <trkpt lat="46.47216" lon="5.81833">
        <ele>923.6</ele>
        <time>2022-08-03T06:44:10Z</time>
      </trkpt>
      <trkpt lat="46.47223" lon="5.81837">
        <ele>924</ele>
        <time>2022-08-03T06:44:12Z</time>
      </trkpt>
      <trkpt lat="46.47234" lon="5.81843">
        <ele>924.4</ele>
        <time>2022-08-03T06:44:15Z</time>
      </trkpt>
      <trkpt lat="46.47248" lon="5.81855">
        <ele>925.4</ele>
        <time>2022-08-03T06:44:19Z</time>
      </trkpt>
      <trkpt lat="46.47255" lon="5.81861">
        <ele>925.8</ele>
        <time>2022-08-03T06:44:21Z</time>
      </trkpt>
      <trkpt lat="46.47261" lon="5.81866">
        <ele>926.2</ele>
        <time>2022-08-03T06:44:23Z</time>
      </trkpt>
      <trkpt lat="46.47283" lon="5.81881">
        <ele>927.2</ele>
        <time>2022-08-03T06:44:29Z</time>
      </trkpt>
      <trkpt lat="46.4731" lon="5.81899">
        <ele>928.2</ele>
        <time>2022-08-03T06:44:36Z</time>
      </trkpt>
      <trkpt lat="46.47313" lon="5.81901">
        <ele>928.4</ele>
        <time>2022-08-03T06:44:37Z</time>
      </trkpt>
      <trkpt lat="46.47332" lon="5.81914">
        <ele>929.4</ele>
        <time>2022-08-03T06:44:42Z</time>
      </trkpt>
      <trkpt lat="46.47358" lon="5.81931">
        <ele>930.8</ele>
        <time>2022-08-03T06:44:49Z</time>
      </trkpt>
      <trkpt lat="46.47368" lon="5.81939">
        <ele>931.4</ele>
        <time>2022-08-03T06:44:52Z</time>
      </trkpt>
      <trkpt lat="46.47376" lon="5.81943">
        <ele>932</ele>
        <time>2022-08-03T06:44:54Z</time>
      </trkpt>
      <trkpt lat="46.47392" lon="5.81951">
        <ele>933</ele>
        <time>2022-08-03T06:44:58Z</time>
      </trkpt>
      <trkpt lat="46.47409" lon="5.81958">
        <ele>933.6</ele>
        <time>2022-08-03T06:45:02Z</time>
      </trkpt>
      <trkpt lat="46.47428" lon="5.81965">
        <ele>933.8</ele>
        <time>2022-08-03T06:45:06Z</time>
      </trkpt>
      <trkpt lat="46.47442" lon="5.81971">
        <ele>934</ele>
        <time>2022-08-03T06:45:09Z</time>
      </trkpt>
      <trkpt lat="46.47457" lon="5.81979">
        <ele>934.2</ele>
        <time>2022-08-03T06:45:12Z</time>
      </trkpt>
      <trkpt lat="46.47462" lon="5.81983">
        <ele>934.2</ele>
        <time>2022-08-03T06:45:13Z</time>
      </trkpt>
      <trkpt lat="46.4747" lon="5.81992">
        <ele>934.2</ele>
        <time>2022-08-03T06:45:15Z</time>
      </trkpt>
      <trkpt lat="46.47495" lon="5.82027">
        <ele>934.4</ele>
        <time>2022-08-03T06:45:22Z</time>
      </trkpt>
      <trkpt lat="46.47498" lon="5.82032">
        <ele>934.8</ele>
        <time>2022-08-03T06:45:23Z</time>
      </trkpt>
      <trkpt lat="46.47517" lon="5.82063">
        <ele>935.8</ele>
        <time>2022-08-03T06:45:29Z</time>
      </trkpt>
      <trkpt lat="46.47526" lon="5.82079">
        <ele>936.4</ele>
        <time>2022-08-03T06:45:32Z</time>
      </trkpt>
      <trkpt lat="46.47542" lon="5.82104">
        <ele>936.8</ele>
        <time>2022-08-03T06:45:37Z</time>
      </trkpt>
      <trkpt lat="46.47546" lon="5.82109">
        <ele>936.8</ele>
        <time>2022-08-03T06:45:38Z</time>
      </trkpt>
      <trkpt lat="46.47549" lon="5.82114">
        <ele>937</ele>
        <time>2022-08-03T06:45:39Z</time>
      </trkpt>
      <trkpt lat="46.47574" lon="5.82157">
        <ele>937.2</ele>
        <time>2022-08-03T06:45:46Z</time>
      </trkpt>
      <trkpt lat="46.47578" lon="5.82163">
        <ele>937.2</ele>
        <time>2022-08-03T06:45:47Z</time>
      </trkpt>
      <trkpt lat="46.47607" lon="5.8221">
        <ele>937</ele>
        <time>2022-08-03T06:45:55Z</time>
      </trkpt>
      <trkpt lat="46.47623" lon="5.82231">
        <ele>937.2</ele>
        <time>2022-08-03T06:46:01Z</time>
      </trkpt>
      <trkpt lat="46.47623" lon="5.82231">
        <ele>937.6</ele>
        <time>2022-08-03T06:46:04Z</time>
      </trkpt>
      <trkpt lat="46.47628" lon="5.82234">
        <ele>937.6</ele>
        <time>2022-08-03T06:47:38Z</time>
      </trkpt>
      <trkpt lat="46.47645" lon="5.82246">
        <ele>937.4</ele>
        <time>2022-08-03T06:47:42Z</time>
      </trkpt>
      <trkpt lat="46.47675" lon="5.82268">
        <ele>936.8</ele>
        <time>2022-08-03T06:47:47Z</time>
      </trkpt>
      <trkpt lat="46.47689" lon="5.82278">
        <ele>936.4</ele>
        <time>2022-08-03T06:47:49Z</time>
      </trkpt>
      <trkpt lat="46.47712" lon="5.8229">
        <ele>935.4</ele>
        <time>2022-08-03T06:47:52Z</time>
      </trkpt>
      <trkpt lat="46.4775" lon="5.82297">
        <ele>934.2</ele>
        <time>2022-08-03T06:47:56Z</time>
      </trkpt>
      <trkpt lat="46.4777" lon="5.823">
        <ele>932.6</ele>
        <time>2022-08-03T06:47:58Z</time>
      </trkpt>
      <trkpt lat="46.4778" lon="5.82301">
        <ele>931.2</ele>
        <time>2022-08-03T06:47:59Z</time>
      </trkpt>
      <trkpt lat="46.478" lon="5.82305">
        <ele>930.2</ele>
        <time>2022-08-03T06:48:01Z</time>
      </trkpt>
      <trkpt lat="46.4781" lon="5.82307">
        <ele>930</ele>
        <time>2022-08-03T06:48:02Z</time>
      </trkpt>
      <trkpt lat="46.4784" lon="5.82312">
        <ele>929</ele>
        <time>2022-08-03T06:48:05Z</time>
      </trkpt>
      <trkpt lat="46.4787" lon="5.82318">
        <ele>928</ele>
        <time>2022-08-03T06:48:08Z</time>
      </trkpt>
      <trkpt lat="46.4788" lon="5.82319">
        <ele>927.8</ele>
        <time>2022-08-03T06:48:09Z</time>
      </trkpt>
      <trkpt lat="46.47918" lon="5.82324">
        <ele>926.8</ele>
        <time>2022-08-03T06:48:13Z</time>
      </trkpt>
      <trkpt lat="46.47959" lon="5.82329">
        <ele>926.2</ele>
        <time>2022-08-03T06:48:17Z</time>
      </trkpt>
      <trkpt lat="46.4799" lon="5.82333">
        <ele>925.6</ele>
        <time>2022-08-03T06:48:20Z</time>
      </trkpt>
      <trkpt lat="46.4803" lon="5.82338">
        <ele>924.4</ele>
        <time>2022-08-03T06:48:24Z</time>
      </trkpt>
      <trkpt lat="46.48039" lon="5.82339">
        <ele>924.2</ele>
        <time>2022-08-03T06:48:25Z</time>
      </trkpt>
      <trkpt lat="46.48093" lon="5.82349">
        <ele>923.8</ele>
        <time>2022-08-03T06:48:31Z</time>
      </trkpt>
      <trkpt lat="46.48102" lon="5.82352">
        <ele>923.8</ele>
        <time>2022-08-03T06:48:32Z</time>
      </trkpt>
      <trkpt lat="46.48135" lon="5.8237">
        <ele>923.4</ele>
        <time>2022-08-03T06:48:36Z</time>
      </trkpt>
      <trkpt lat="46.48161" lon="5.82381">
        <ele>923</ele>
        <time>2022-08-03T06:48:39Z</time>
      </trkpt>
      <trkpt lat="46.48197" lon="5.82388">
        <ele>922.4</ele>
        <time>2022-08-03T06:48:43Z</time>
      </trkpt>
      <trkpt lat="46.48207" lon="5.82388">
        <ele>922.4</ele>
        <time>2022-08-03T06:48:44Z</time>
      </trkpt>
      <trkpt lat="46.48249" lon="5.82389">
        <ele>921.6</ele>
        <time>2022-08-03T06:48:48Z</time>
      </trkpt>
      <trkpt lat="46.4827" lon="5.8239">
        <ele>921.2</ele>
        <time>2022-08-03T06:48:50Z</time>
      </trkpt>
      <trkpt lat="46.48292" lon="5.82391">
        <ele>919.6</ele>
        <time>2022-08-03T06:48:52Z</time>
      </trkpt>
      <trkpt lat="46.48325" lon="5.82392">
        <ele>918.4</ele>
        <time>2022-08-03T06:48:55Z</time>
      </trkpt>
      <trkpt lat="46.48336" lon="5.82392">
        <ele>918.2</ele>
        <time>2022-08-03T06:48:56Z</time>
      </trkpt>
      <trkpt lat="46.48347" lon="5.82393">
        <ele>917.2</ele>
        <time>2022-08-03T06:48:57Z</time>
      </trkpt>
      <trkpt lat="46.4839" lon="5.82398">
        <ele>915.6</ele>
        <time>2022-08-03T06:49:01Z</time>
      </trkpt>
      <trkpt lat="46.48411" lon="5.82403">
        <ele>914.8</ele>
        <time>2022-08-03T06:49:03Z</time>
      </trkpt>
      <trkpt lat="46.48422" lon="5.82405">
        <ele>914.6</ele>
        <time>2022-08-03T06:49:04Z</time>
      </trkpt>
      <trkpt lat="46.48477" lon="5.82414">
        <ele>913.8</ele>
        <time>2022-08-03T06:49:09Z</time>
      </trkpt>
      <trkpt lat="46.48488" lon="5.82417">
        <ele>913.6</ele>
        <time>2022-08-03T06:49:10Z</time>
      </trkpt>
      <trkpt lat="46.48508" lon="5.82424">
        <ele>913</ele>
        <time>2022-08-03T06:49:12Z</time>
      </trkpt>
      <trkpt lat="46.48537" lon="5.82433">
        <ele>912.2</ele>
        <time>2022-08-03T06:49:15Z</time>
      </trkpt>
      <trkpt lat="46.48556" lon="5.82439">
        <ele>912</ele>
        <time>2022-08-03T06:49:17Z</time>
      </trkpt>
      <trkpt lat="46.48614" lon="5.82458">
        <ele>911.2</ele>
        <time>2022-08-03T06:49:23Z</time>
      </trkpt>
      <trkpt lat="46.48624" lon="5.82461">
        <ele>911.2</ele>
        <time>2022-08-03T06:49:24Z</time>
      </trkpt>
      <trkpt lat="46.48633" lon="5.82465">
        <ele>911</ele>
        <time>2022-08-03T06:49:25Z</time>
      </trkpt>
      <trkpt lat="46.48672" lon="5.82482">
        <ele>910.2</ele>
        <time>2022-08-03T06:49:29Z</time>
      </trkpt>
      <trkpt lat="46.487" lon="5.82493">
        <ele>909.2</ele>
        <time>2022-08-03T06:49:32Z</time>
      </trkpt>
      <trkpt lat="46.48719" lon="5.825">
        <ele>908.6</ele>
        <time>2022-08-03T06:49:34Z</time>
      </trkpt>
      <trkpt lat="46.48729" lon="5.82504">
        <ele>908.2</ele>
        <time>2022-08-03T06:49:35Z</time>
      </trkpt>
      <trkpt lat="46.48762" lon="5.8252">
        <ele>906.2</ele>
        <time>2022-08-03T06:49:38Z</time>
      </trkpt>
      <trkpt lat="46.48772" lon="5.82525">
        <ele>905.2</ele>
        <time>2022-08-03T06:49:39Z</time>
      </trkpt>
      <trkpt lat="46.48783" lon="5.82531">
        <ele>904.8</ele>
        <time>2022-08-03T06:49:40Z</time>
      </trkpt>
      <trkpt lat="46.48805" lon="5.82546">
        <ele>903.4</ele>
        <time>2022-08-03T06:49:42Z</time>
      </trkpt>
      <trkpt lat="46.48826" lon="5.82562">
        <ele>902.4</ele>
        <time>2022-08-03T06:49:44Z</time>
      </trkpt>
      <trkpt lat="46.48848" lon="5.82579">
        <ele>900.4</ele>
        <time>2022-08-03T06:49:46Z</time>
      </trkpt>
      <trkpt lat="46.4887" lon="5.82597">
        <ele>899</ele>
        <time>2022-08-03T06:49:48Z</time>
      </trkpt>
      <trkpt lat="46.48891" lon="5.82614">
        <ele>897.4</ele>
        <time>2022-08-03T06:49:50Z</time>
      </trkpt>
      <trkpt lat="46.48901" lon="5.82622">
        <ele>896.8</ele>
        <time>2022-08-03T06:49:51Z</time>
      </trkpt>
      <trkpt lat="46.48911" lon="5.82629">
        <ele>896.2</ele>
        <time>2022-08-03T06:49:52Z</time>
      </trkpt>
      <trkpt lat="46.48942" lon="5.82647">
        <ele>895</ele>
        <time>2022-08-03T06:49:55Z</time>
      </trkpt>
      <trkpt lat="46.48993" lon="5.8268">
        <ele>893.6</ele>
        <time>2022-08-03T06:50:00Z</time>
      </trkpt>
      <trkpt lat="46.49003" lon="5.82687">
        <ele>893.4</ele>
        <time>2022-08-03T06:50:01Z</time>
      </trkpt>
      <trkpt lat="46.49021" lon="5.82704">
        <ele>892.4</ele>
        <time>2022-08-03T06:50:03Z</time>
      </trkpt>
      <trkpt lat="46.49029" lon="5.82712">
        <ele>892</ele>
        <time>2022-08-03T06:50:04Z</time>
      </trkpt>
      <trkpt lat="46.49038" lon="5.82719">
        <ele>891.8</ele>
        <time>2022-08-03T06:50:05Z</time>
      </trkpt>
      <trkpt lat="46.49055" lon="5.82729">
        <ele>891.2</ele>
        <time>2022-08-03T06:50:07Z</time>
      </trkpt>
      <trkpt lat="46.49073" lon="5.82737">
        <ele>890.8</ele>
        <time>2022-08-03T06:50:09Z</time>
      </trkpt>
      <trkpt lat="46.49134" lon="5.82758">
        <ele>890.6</ele>
        <time>2022-08-03T06:50:16Z</time>
      </trkpt>
      <trkpt lat="46.49184" lon="5.82778">
        <ele>890.4</ele>
        <time>2022-08-03T06:50:22Z</time>
      </trkpt>
      <trkpt lat="46.4924" lon="5.82796">
        <ele>890.6</ele>
        <time>2022-08-03T06:50:29Z</time>
      </trkpt>
      <trkpt lat="46.49255" lon="5.82801">
        <ele>890.6</ele>
        <time>2022-08-03T06:50:31Z</time>
      </trkpt>
      <trkpt lat="46.4929" lon="5.82812">
        <ele>890.8</ele>
        <time>2022-08-03T06:50:36Z</time>
      </trkpt>
      <trkpt lat="46.49324" lon="5.82836">
        <ele>890.6</ele>
        <time>2022-08-03T06:50:41Z</time>
      </trkpt>
      <trkpt lat="46.49355" lon="5.82862">
        <ele>890.6</ele>
        <time>2022-08-03T06:50:46Z</time>
      </trkpt>
      <trkpt lat="46.49372" lon="5.82876">
        <ele>890.2</ele>
        <time>2022-08-03T06:50:49Z</time>
      </trkpt>
      <trkpt lat="46.49385" lon="5.82881">
        <ele>889.8</ele>
        <time>2022-08-03T06:50:51Z</time>
      </trkpt>
      <trkpt lat="46.49399" lon="5.82879">
        <ele>889.8</ele>
        <time>2022-08-03T06:50:53Z</time>
      </trkpt>
      <trkpt lat="46.49405" lon="5.82875">
        <ele>889.8</ele>
        <time>2022-08-03T06:50:54Z</time>
      </trkpt>
      <trkpt lat="46.49435" lon="5.82845">
        <ele>890.6</ele>
        <time>2022-08-03T06:51:00Z</time>
      </trkpt>
      <trkpt lat="46.49456" lon="5.82833">
        <ele>891.6</ele>
        <time>2022-08-03T06:51:04Z</time>
      </trkpt>
      <trkpt lat="46.49461" lon="5.82832">
        <ele>892</ele>
        <time>2022-08-03T06:51:05Z</time>
      </trkpt>
      <trkpt lat="46.49473" lon="5.82832">
        <ele>893</ele>
        <time>2022-08-03T06:51:07Z</time>
      </trkpt>
      <trkpt lat="46.49494" lon="5.82829">
        <ele>894</ele>
        <time>2022-08-03T06:51:11Z</time>
      </trkpt>
      <trkpt lat="46.49513" lon="5.82826">
        <ele>895.2</ele>
        <time>2022-08-03T06:51:15Z</time>
      </trkpt>
      <trkpt lat="46.49517" lon="5.82826">
        <ele>895.6</ele>
        <time>2022-08-03T06:51:16Z</time>
      </trkpt>
      <trkpt lat="46.49525" lon="5.82827">
        <ele>895.8</ele>
        <time>2022-08-03T06:51:18Z</time>
      </trkpt>
      <trkpt lat="46.4954" lon="5.82835">
        <ele>896.6</ele>
        <time>2022-08-03T06:51:21Z</time>
      </trkpt>
      <trkpt lat="46.49554" lon="5.82847">
        <ele>897.4</ele>
        <time>2022-08-03T06:51:24Z</time>
      </trkpt>
      <trkpt lat="46.4957" lon="5.82857">
        <ele>897.6</ele>
        <time>2022-08-03T06:51:27Z</time>
      </trkpt>
      <trkpt lat="46.49587" lon="5.82864">
        <ele>897.2</ele>
        <time>2022-08-03T06:51:30Z</time>
      </trkpt>
      <trkpt lat="46.49637" lon="5.82876">
        <ele>897.2</ele>
        <time>2022-08-03T06:51:38Z</time>
      </trkpt>
      <trkpt lat="46.49643" lon="5.82879">
        <ele>897.2</ele>
        <time>2022-08-03T06:51:39Z</time>
      </trkpt>
      <trkpt lat="46.49653" lon="5.82892">
        <ele>897</ele>
        <time>2022-08-03T06:51:41Z</time>
      </trkpt>
      <trkpt lat="46.49658" lon="5.82912">
        <ele>897</ele>
        <time>2022-08-03T06:51:43Z</time>
      </trkpt>
      <trkpt lat="46.4966" lon="5.82923">
        <ele>896.8</ele>
        <time>2022-08-03T06:51:44Z</time>
      </trkpt>
      <trkpt lat="46.49662" lon="5.82984">
        <ele>895.6</ele>
        <time>2022-08-03T06:51:49Z</time>
      </trkpt>
      <trkpt lat="46.49663" lon="5.82996">
        <ele>895.4</ele>
        <time>2022-08-03T06:51:50Z</time>
      </trkpt>
      <trkpt lat="46.49667" lon="5.83033">
        <ele>894.6</ele>
        <time>2022-08-03T06:51:53Z</time>
      </trkpt>
      <trkpt lat="46.49671" lon="5.83044">
        <ele>894.6</ele>
        <time>2022-08-03T06:51:54Z</time>
      </trkpt>
      <trkpt lat="46.49696" lon="5.83088">
        <ele>893.8</ele>
        <time>2022-08-03T06:51:59Z</time>
      </trkpt>
      <trkpt lat="46.49708" lon="5.83101">
        <ele>893.8</ele>
        <time>2022-08-03T06:52:01Z</time>
      </trkpt>
      <trkpt lat="46.49722" lon="5.83111">
        <ele>894</ele>
        <time>2022-08-03T06:52:03Z</time>
      </trkpt>
      <trkpt lat="46.49774" lon="5.8314">
        <ele>894.2</ele>
        <time>2022-08-03T06:52:10Z</time>
      </trkpt>
      <trkpt lat="46.49783" lon="5.83144">
        <ele>894.2</ele>
        <time>2022-08-03T06:52:11Z</time>
      </trkpt>
      <trkpt lat="46.4981" lon="5.83158">
        <ele>893.2</ele>
        <time>2022-08-03T06:52:14Z</time>
      </trkpt>
      <trkpt lat="46.49839" lon="5.8317">
        <ele>891.8</ele>
        <time>2022-08-03T06:52:17Z</time>
      </trkpt>
      <trkpt lat="46.49849" lon="5.83174">
        <ele>891.6</ele>
        <time>2022-08-03T06:52:18Z</time>
      </trkpt>
      <trkpt lat="46.4986" lon="5.83178">
        <ele>890.8</ele>
        <time>2022-08-03T06:52:19Z</time>
      </trkpt>
      <trkpt lat="46.49892" lon="5.83189">
        <ele>889.6</ele>
        <time>2022-08-03T06:52:22Z</time>
      </trkpt>
      <trkpt lat="46.49914" lon="5.83196">
        <ele>887.8</ele>
        <time>2022-08-03T06:52:24Z</time>
      </trkpt>
      <trkpt lat="46.49946" lon="5.83207">
        <ele>886.6</ele>
        <time>2022-08-03T06:52:27Z</time>
      </trkpt>
      <trkpt lat="46.49977" lon="5.83218">
        <ele>885</ele>
        <time>2022-08-03T06:52:30Z</time>
      </trkpt>
      <trkpt lat="46.50017" lon="5.83231">
        <ele>883.8</ele>
        <time>2022-08-03T06:52:34Z</time>
      </trkpt>
      <trkpt lat="46.50057" lon="5.83245">
        <ele>882.6</ele>
        <time>2022-08-03T06:52:38Z</time>
      </trkpt>
      <trkpt lat="46.50086" lon="5.83258">
        <ele>881.6</ele>
        <time>2022-08-03T06:52:41Z</time>
      </trkpt>
      <trkpt lat="46.50115" lon="5.83275">
        <ele>880.2</ele>
        <time>2022-08-03T06:52:44Z</time>
      </trkpt>
      <trkpt lat="46.50142" lon="5.83294">
        <ele>879.4</ele>
        <time>2022-08-03T06:52:47Z</time>
      </trkpt>
      <trkpt lat="46.50159" lon="5.83306">
        <ele>879.2</ele>
        <time>2022-08-03T06:52:49Z</time>
      </trkpt>
      <trkpt lat="46.50168" lon="5.8331">
        <ele>879</ele>
        <time>2022-08-03T06:52:50Z</time>
      </trkpt>
      <trkpt lat="46.50176" lon="5.83312">
        <ele>879</ele>
        <time>2022-08-03T06:52:51Z</time>
      </trkpt>
      <trkpt lat="46.5022" lon="5.83314">
        <ele>879.8</ele>
        <time>2022-08-03T06:52:56Z</time>
      </trkpt>
      <trkpt lat="46.50235" lon="5.83318">
        <ele>880.2</ele>
        <time>2022-08-03T06:52:58Z</time>
      </trkpt>
      <trkpt lat="46.5025" lon="5.83326">
        <ele>880.6</ele>
        <time>2022-08-03T06:53:00Z</time>
      </trkpt>
      <trkpt lat="46.50263" lon="5.83339">
        <ele>880.8</ele>
        <time>2022-08-03T06:53:02Z</time>
      </trkpt>
      <trkpt lat="46.50274" lon="5.83355">
        <ele>881.2</ele>
        <time>2022-08-03T06:53:04Z</time>
      </trkpt>
      <trkpt lat="46.50315" lon="5.83407">
        <ele>881.6</ele>
        <time>2022-08-03T06:53:11Z</time>
      </trkpt>
      <trkpt lat="46.50335" lon="5.83423">
        <ele>881.8</ele>
        <time>2022-08-03T06:53:14Z</time>
      </trkpt>
      <trkpt lat="46.50349" lon="5.83429">
        <ele>881.8</ele>
        <time>2022-08-03T06:53:16Z</time>
      </trkpt>
      <trkpt lat="46.50368" lon="5.83434">
        <ele>882.2</ele>
        <time>2022-08-03T06:53:19Z</time>
      </trkpt>
      <trkpt lat="46.50386" lon="5.83437">
        <ele>882.6</ele>
        <time>2022-08-03T06:53:22Z</time>
      </trkpt>
      <trkpt lat="46.50411" lon="5.83438">
        <ele>883.4</ele>
        <time>2022-08-03T06:53:26Z</time>
      </trkpt>
      <trkpt lat="46.50422" lon="5.83438">
        <ele>883.8</ele>
        <time>2022-08-03T06:53:28Z</time>
      </trkpt>
      <trkpt lat="46.5045" lon="5.83442">
        <ele>884.8</ele>
        <time>2022-08-03T06:53:33Z</time>
      </trkpt>
      <trkpt lat="46.5046" lon="5.83444">
        <ele>885.6</ele>
        <time>2022-08-03T06:53:35Z</time>
      </trkpt>
      <trkpt lat="46.50465" lon="5.83446">
        <ele>886.2</ele>
        <time>2022-08-03T06:53:36Z</time>
      </trkpt>
      <trkpt lat="46.5047" lon="5.83447">
        <ele>886.4</ele>
        <time>2022-08-03T06:53:37Z</time>
      </trkpt>
      <trkpt lat="46.50484" lon="5.83455">
        <ele>887.2</ele>
        <time>2022-08-03T06:53:40Z</time>
      </trkpt>
      <trkpt lat="46.50488" lon="5.83458">
        <ele>887.4</ele>
        <time>2022-08-03T06:53:41Z</time>
      </trkpt>
      <trkpt lat="46.50512" lon="5.83479">
        <ele>888.4</ele>
        <time>2022-08-03T06:53:47Z</time>
      </trkpt>
      <trkpt lat="46.50519" lon="5.83486">
        <ele>889</ele>
        <time>2022-08-03T06:53:49Z</time>
      </trkpt>
      <trkpt lat="46.50527" lon="5.83491">
        <ele>889.8</ele>
        <time>2022-08-03T06:53:51Z</time>
      </trkpt>
      <trkpt lat="46.50538" lon="5.83498">
        <ele>890.8</ele>
        <time>2022-08-03T06:53:54Z</time>
      </trkpt>
      <trkpt lat="46.50542" lon="5.835">
        <ele>891</ele>
        <time>2022-08-03T06:53:55Z</time>
      </trkpt>
      <trkpt lat="46.50546" lon="5.83501">
        <ele>891.2</ele>
        <time>2022-08-03T06:53:56Z</time>
      </trkpt>
      <trkpt lat="46.50558" lon="5.83504">
        <ele>892</ele>
        <time>2022-08-03T06:53:59Z</time>
      </trkpt>
      <trkpt lat="46.50578" lon="5.83505">
        <ele>893</ele>
        <time>2022-08-03T06:54:04Z</time>
      </trkpt>
      <trkpt lat="46.50582" lon="5.83506">
        <ele>893</ele>
        <time>2022-08-03T06:54:05Z</time>
      </trkpt>
      <trkpt lat="46.50604" lon="5.83509">
        <ele>894</ele>
        <time>2022-08-03T06:54:10Z</time>
      </trkpt>
      <trkpt lat="46.50622" lon="5.83512">
        <ele>894.6</ele>
        <time>2022-08-03T06:54:14Z</time>
      </trkpt>
      <trkpt lat="46.50636" lon="5.83515">
        <ele>894.8</ele>
        <time>2022-08-03T06:54:17Z</time>
      </trkpt>
      <trkpt lat="46.50667" lon="5.83522">
        <ele>895.8</ele>
        <time>2022-08-03T06:54:24Z</time>
      </trkpt>
      <trkpt lat="46.50682" lon="5.83528">
        <ele>896.2</ele>
        <time>2022-08-03T06:54:27Z</time>
      </trkpt>
      <trkpt lat="46.50695" lon="5.8354">
        <ele>896.2</ele>
        <time>2022-08-03T06:54:30Z</time>
      </trkpt>
      <trkpt lat="46.50733" lon="5.83577">
        <ele>896.4</ele>
        <time>2022-08-03T06:54:38Z</time>
      </trkpt>
      <trkpt lat="46.50762" lon="5.83602">
        <ele>896.4</ele>
        <time>2022-08-03T06:54:43Z</time>
      </trkpt>
      <trkpt lat="46.50768" lon="5.83607">
        <ele>896.4</ele>
        <time>2022-08-03T06:54:44Z</time>
      </trkpt>
      <trkpt lat="46.50814" lon="5.83645">
        <ele>895</ele>
        <time>2022-08-03T06:54:51Z</time>
      </trkpt>
      <trkpt lat="46.50821" lon="5.83651">
        <ele>894.4</ele>
        <time>2022-08-03T06:54:52Z</time>
      </trkpt>
      <trkpt lat="46.50874" lon="5.83696">
        <ele>893.8</ele>
        <time>2022-08-03T06:55:00Z</time>
      </trkpt>
      <trkpt lat="46.50895" lon="5.83716">
        <ele>893.4</ele>
        <time>2022-08-03T06:55:03Z</time>
      </trkpt>
      <trkpt lat="46.50918" lon="5.83738">
        <ele>892.2</ele>
        <time>2022-08-03T06:55:06Z</time>
      </trkpt>
      <trkpt lat="46.50952" lon="5.83761">
        <ele>890.4</ele>
        <time>2022-08-03T06:55:10Z</time>
      </trkpt>
      <trkpt lat="46.50961" lon="5.83768">
        <ele>889.8</ele>
        <time>2022-08-03T06:55:11Z</time>
      </trkpt>
      <trkpt lat="46.50979" lon="5.83782">
        <ele>888.6</ele>
        <time>2022-08-03T06:55:13Z</time>
      </trkpt>
      <trkpt lat="46.50996" lon="5.83797">
        <ele>887.2</ele>
        <time>2022-08-03T06:55:15Z</time>
      </trkpt>
      <trkpt lat="46.51014" lon="5.8381">
        <ele>886</ele>
        <time>2022-08-03T06:55:17Z</time>
      </trkpt>
      <trkpt lat="46.51023" lon="5.83815">
        <ele>885.6</ele>
        <time>2022-08-03T06:55:18Z</time>
      </trkpt>
      <trkpt lat="46.51059" lon="5.83835">
        <ele>885</ele>
        <time>2022-08-03T06:55:22Z</time>
      </trkpt>
      <trkpt lat="46.51075" lon="5.83848">
        <ele>884.6</ele>
        <time>2022-08-03T06:55:24Z</time>
      </trkpt>
      <trkpt lat="46.51087" lon="5.83866">
        <ele>884</ele>
        <time>2022-08-03T06:55:26Z</time>
      </trkpt>
      <trkpt lat="46.51092" lon="5.83877">
        <ele>884</ele>
        <time>2022-08-03T06:55:27Z</time>
      </trkpt>
      <trkpt lat="46.51095" lon="5.83888">
        <ele>883.8</ele>
        <time>2022-08-03T06:55:28Z</time>
      </trkpt>
      <trkpt lat="46.511" lon="5.8392">
        <ele>883.6</ele>
        <time>2022-08-03T06:55:31Z</time>
      </trkpt>
      <trkpt lat="46.51104" lon="5.83943">
        <ele>883.6</ele>
        <time>2022-08-03T06:55:33Z</time>
      </trkpt>
      <trkpt lat="46.51111" lon="5.8396">
        <ele>883.8</ele>
        <time>2022-08-03T06:55:35Z</time>
      </trkpt>
      <trkpt lat="46.51119" lon="5.83973">
        <ele>884</ele>
        <time>2022-08-03T06:55:37Z</time>
      </trkpt>
      <trkpt lat="46.51124" lon="5.83978">
        <ele>884.2</ele>
        <time>2022-08-03T06:55:38Z</time>
      </trkpt>
      <trkpt lat="46.51129" lon="5.83981">
        <ele>884.6</ele>
        <time>2022-08-03T06:55:39Z</time>
      </trkpt>
      <trkpt lat="46.51141" lon="5.83984">
        <ele>885.2</ele>
        <time>2022-08-03T06:55:41Z</time>
      </trkpt>
      <trkpt lat="46.51146" lon="5.83985">
        <ele>885.4</ele>
        <time>2022-08-03T06:55:42Z</time>
      </trkpt>
      <trkpt lat="46.51158" lon="5.83986">
        <ele>886.2</ele>
        <time>2022-08-03T06:55:44Z</time>
      </trkpt>
      <trkpt lat="46.51164" lon="5.83985">
        <ele>886.6</ele>
        <time>2022-08-03T06:55:45Z</time>
      </trkpt>
      <trkpt lat="46.5117" lon="5.83983">
        <ele>886.8</ele>
        <time>2022-08-03T06:55:46Z</time>
      </trkpt>
      <trkpt lat="46.51204" lon="5.83961">
        <ele>886.8</ele>
        <time>2022-08-03T06:55:51Z</time>
      </trkpt>
      <trkpt lat="46.51227" lon="5.83946">
        <ele>886.4</ele>
        <time>2022-08-03T06:55:54Z</time>
      </trkpt>
      <trkpt lat="46.51235" lon="5.83944">
        <ele>885.6</ele>
        <time>2022-08-03T06:55:55Z</time>
      </trkpt>
      <trkpt lat="46.51244" lon="5.83945">
        <ele>885.2</ele>
        <time>2022-08-03T06:55:56Z</time>
      </trkpt>
      <trkpt lat="46.5126" lon="5.83951">
        <ele>884.6</ele>
        <time>2022-08-03T06:55:58Z</time>
      </trkpt>
      <trkpt lat="46.51276" lon="5.83958">
        <ele>884.2</ele>
        <time>2022-08-03T06:56:00Z</time>
      </trkpt>
      <trkpt lat="46.51305" lon="5.8398">
        <ele>883.8</ele>
        <time>2022-08-03T06:56:04Z</time>
      </trkpt>
      <trkpt lat="46.51315" lon="5.83999">
        <ele>883.6</ele>
        <time>2022-08-03T06:56:06Z</time>
      </trkpt>
      <trkpt lat="46.51319" lon="5.8401">
        <ele>883.4</ele>
        <time>2022-08-03T06:56:07Z</time>
      </trkpt>
      <trkpt lat="46.5132" lon="5.84022">
        <ele>883.4</ele>
        <time>2022-08-03T06:56:08Z</time>
      </trkpt>
      <trkpt lat="46.51319" lon="5.84044">
        <ele>883.4</ele>
        <time>2022-08-03T06:56:10Z</time>
      </trkpt>
      <trkpt lat="46.51319" lon="5.84055">
        <ele>883.2</ele>
        <time>2022-08-03T06:56:11Z</time>
      </trkpt>
      <trkpt lat="46.51321" lon="5.84075">
        <ele>883.4</ele>
        <time>2022-08-03T06:56:13Z</time>
      </trkpt>
      <trkpt lat="46.51329" lon="5.84093">
        <ele>883.4</ele>
        <time>2022-08-03T06:56:15Z</time>
      </trkpt>
      <trkpt lat="46.51335" lon="5.841">
        <ele>883.6</ele>
        <time>2022-08-03T06:56:16Z</time>
      </trkpt>
      <trkpt lat="46.51339" lon="5.84104">
        <ele>883.6</ele>
        <time>2022-08-03T06:56:17Z</time>
      </trkpt>
      <trkpt lat="46.5136" lon="5.84118">
        <ele>883.8</ele>
        <time>2022-08-03T06:56:20Z</time>
      </trkpt>
      <trkpt lat="46.51408" lon="5.84154">
        <ele>884.4</ele>
        <time>2022-08-03T06:56:28Z</time>
      </trkpt>
      <trkpt lat="46.51429" lon="5.84171">
        <ele>885.2</ele>
        <time>2022-08-03T06:56:32Z</time>
      </trkpt>
      <trkpt lat="46.5144" lon="5.84177">
        <ele>885.4</ele>
        <time>2022-08-03T06:56:34Z</time>
      </trkpt>
      <trkpt lat="46.51463" lon="5.84184">
        <ele>886.6</ele>
        <time>2022-08-03T06:56:38Z</time>
      </trkpt>
      <trkpt lat="46.51475" lon="5.84185">
        <ele>886.8</ele>
        <time>2022-08-03T06:56:40Z</time>
      </trkpt>
      <trkpt lat="46.51494" lon="5.84189">
        <ele>887.2</ele>
        <time>2022-08-03T06:56:43Z</time>
      </trkpt>
      <trkpt lat="46.51505" lon="5.84196">
        <ele>887</ele>
        <time>2022-08-03T06:56:45Z</time>
      </trkpt>
      <trkpt lat="46.51511" lon="5.842">
        <ele>887.2</ele>
        <time>2022-08-03T06:56:46Z</time>
      </trkpt>
      <trkpt lat="46.51516" lon="5.84205">
        <ele>887.2</ele>
        <time>2022-08-03T06:56:47Z</time>
      </trkpt>
      <trkpt lat="46.51531" lon="5.84225">
        <ele>887.2</ele>
        <time>2022-08-03T06:56:50Z</time>
      </trkpt>
      <trkpt lat="46.51564" lon="5.84261">
        <ele>887.2</ele>
        <time>2022-08-03T06:56:56Z</time>
      </trkpt>
      <trkpt lat="46.51612" lon="5.84301">
        <ele>886.4</ele>
        <time>2022-08-03T06:57:04Z</time>
      </trkpt>
      <trkpt lat="46.51659" lon="5.84346">
        <ele>885.2</ele>
        <time>2022-08-03T06:57:13Z</time>
      </trkpt>
      <trkpt lat="46.51671" lon="5.84357">
        <ele>884.2</ele>
        <time>2022-08-03T06:57:15Z</time>
      </trkpt>
      <trkpt lat="46.51692" lon="5.84374">
        <ele>884.4</ele>
        <time>2022-08-03T06:57:19Z</time>
      </trkpt>
      <trkpt lat="46.5171" lon="5.8439">
        <ele>885</ele>
        <time>2022-08-03T06:57:22Z</time>
      </trkpt>
      <trkpt lat="46.51721" lon="5.84403">
        <ele>885.2</ele>
        <time>2022-08-03T06:57:24Z</time>
      </trkpt>
      <trkpt lat="46.51726" lon="5.84411">
        <ele>885.2</ele>
        <time>2022-08-03T06:57:25Z</time>
      </trkpt>
      <trkpt lat="46.5173" lon="5.84419">
        <ele>885.2</ele>
        <time>2022-08-03T06:57:26Z</time>
      </trkpt>
      <trkpt lat="46.51736" lon="5.84439">
        <ele>885.2</ele>
        <time>2022-08-03T06:57:28Z</time>
      </trkpt>
      <trkpt lat="46.51738" lon="5.84449">
        <ele>885.2</ele>
        <time>2022-08-03T06:57:29Z</time>
      </trkpt>
      <trkpt lat="46.51738" lon="5.8446">
        <ele>885</ele>
        <time>2022-08-03T06:57:30Z</time>
      </trkpt>
      <trkpt lat="46.51739" lon="5.84503">
        <ele>884.4</ele>
        <time>2022-08-03T06:57:34Z</time>
      </trkpt>
      <trkpt lat="46.51735" lon="5.84565">
        <ele>884.6</ele>
        <time>2022-08-03T06:57:40Z</time>
      </trkpt>
      <trkpt lat="46.51727" lon="5.84651">
        <ele>885</ele>
        <time>2022-08-03T06:57:49Z</time>
      </trkpt>
      <trkpt lat="46.51729" lon="5.8467">
        <ele>885.2</ele>
        <time>2022-08-03T06:57:51Z</time>
      </trkpt>
      <trkpt lat="46.51734" lon="5.847">
        <ele>885.4</ele>
        <time>2022-08-03T06:57:54Z</time>
      </trkpt>
      <trkpt lat="46.51738" lon="5.84716">
        <ele>885.4</ele>
        <time>2022-08-03T06:57:56Z</time>
      </trkpt>
      <trkpt lat="46.51742" lon="5.84727">
        <ele>885.4</ele>
        <time>2022-08-03T06:57:57Z</time>
      </trkpt>
      <trkpt lat="46.51748" lon="5.84742">
        <ele>885.4</ele>
        <time>2022-08-03T06:57:59Z</time>
      </trkpt>
      <trkpt lat="46.51773" lon="5.84782">
        <ele>885.6</ele>
        <time>2022-08-03T06:58:04Z</time>
      </trkpt>
      <trkpt lat="46.5182" lon="5.84828">
        <ele>885.8</ele>
        <time>2022-08-03T06:58:12Z</time>
      </trkpt>
      <trkpt lat="46.51826" lon="5.84834">
        <ele>885.6</ele>
        <time>2022-08-03T06:58:13Z</time>
      </trkpt>
      <trkpt lat="46.51873" lon="5.84875">
        <ele>885.6</ele>
        <time>2022-08-03T06:58:21Z</time>
      </trkpt>
      <trkpt lat="46.51921" lon="5.84904">
        <ele>885.8</ele>
        <time>2022-08-03T06:58:29Z</time>
      </trkpt>
      <trkpt lat="46.51953" lon="5.84905">
        <ele>886.2</ele>
        <time>2022-08-03T06:58:34Z</time>
      </trkpt>
      <trkpt lat="46.51959" lon="5.84904">
        <ele>886.4</ele>
        <time>2022-08-03T06:58:35Z</time>
      </trkpt>
      <trkpt lat="46.51966" lon="5.84901">
        <ele>886.4</ele>
        <time>2022-08-03T06:58:36Z</time>
      </trkpt>
      <trkpt lat="46.51972" lon="5.84897">
        <ele>886.4</ele>
        <time>2022-08-03T06:58:37Z</time>
      </trkpt>
      <trkpt lat="46.51977" lon="5.84893">
        <ele>886.4</ele>
        <time>2022-08-03T06:58:38Z</time>
      </trkpt>
      <trkpt lat="46.51994" lon="5.84878">
        <ele>886.6</ele>
        <time>2022-08-03T06:58:41Z</time>
      </trkpt>
      <trkpt lat="46.52004" lon="5.84865">
        <ele>886.8</ele>
        <time>2022-08-03T06:58:43Z</time>
      </trkpt>
      <trkpt lat="46.52041" lon="5.84806">
        <ele>887</ele>
        <time>2022-08-03T06:58:51Z</time>
      </trkpt>
      <trkpt lat="46.52046" lon="5.84799">
        <ele>887</ele>
        <time>2022-08-03T06:58:52Z</time>
      </trkpt>
      <trkpt lat="46.52082" lon="5.84753">
        <ele>887</ele>
        <time>2022-08-03T06:58:59Z</time>
      </trkpt>
      <trkpt lat="46.52101" lon="5.84741">
        <ele>887.2</ele>
        <time>2022-08-03T06:59:02Z</time>
      </trkpt>
      <trkpt lat="46.52114" lon="5.84738">
        <ele>887.2</ele>
        <time>2022-08-03T06:59:04Z</time>
      </trkpt>
      <trkpt lat="46.52121" lon="5.84738">
        <ele>887</ele>
        <time>2022-08-03T06:59:05Z</time>
      </trkpt>
      <trkpt lat="46.52141" lon="5.84743">
        <ele>887</ele>
        <time>2022-08-03T06:59:08Z</time>
      </trkpt>
      <trkpt lat="46.52185" lon="5.84765">
        <ele>887.2</ele>
        <time>2022-08-03T06:59:15Z</time>
      </trkpt>
      <trkpt lat="46.52198" lon="5.84772">
        <ele>887.4</ele>
        <time>2022-08-03T06:59:17Z</time>
      </trkpt>
      <trkpt lat="46.52223" lon="5.84786">
        <ele>887.6</ele>
        <time>2022-08-03T06:59:21Z</time>
      </trkpt>
      <trkpt lat="46.52241" lon="5.84794">
        <ele>887.6</ele>
        <time>2022-08-03T06:59:24Z</time>
      </trkpt>
      <trkpt lat="46.52281" lon="5.84821">
        <ele>888.2</ele>
        <time>2022-08-03T06:59:31Z</time>
      </trkpt>
      <trkpt lat="46.52292" lon="5.84825">
        <ele>888.4</ele>
        <time>2022-08-03T06:59:33Z</time>
      </trkpt>
      <trkpt lat="46.52297" lon="5.84825">
        <ele>888.4</ele>
        <time>2022-08-03T06:59:34Z</time>
      </trkpt>
      <trkpt lat="46.52302" lon="5.84824">
        <ele>888.8</ele>
        <time>2022-08-03T06:59:35Z</time>
      </trkpt>
      <trkpt lat="46.5231" lon="5.84826">
        <ele>889.2</ele>
        <time>2022-08-03T06:59:37Z</time>
      </trkpt>
      <trkpt lat="46.52314" lon="5.84828">
        <ele>889.6</ele>
        <time>2022-08-03T06:59:38Z</time>
      </trkpt>
      <trkpt lat="46.52323" lon="5.84835">
        <ele>890</ele>
        <time>2022-08-03T06:59:40Z</time>
      </trkpt>
      <trkpt lat="46.52334" lon="5.84846">
        <ele>890.6</ele>
        <time>2022-08-03T06:59:43Z</time>
      </trkpt>
      <trkpt lat="46.52347" lon="5.84865">
        <ele>891.8</ele>
        <time>2022-08-03T06:59:47Z</time>
      </trkpt>
      <trkpt lat="46.52358" lon="5.84882">
        <ele>892.6</ele>
        <time>2022-08-03T06:59:51Z</time>
      </trkpt>
      <trkpt lat="46.52361" lon="5.84886">
        <ele>892.8</ele>
        <time>2022-08-03T06:59:52Z</time>
      </trkpt>
      <trkpt lat="46.52374" lon="5.84898">
        <ele>894</ele>
        <time>2022-08-03T06:59:56Z</time>
      </trkpt>
      <trkpt lat="46.52377" lon="5.84901">
        <ele>894.4</ele>
        <time>2022-08-03T06:59:57Z</time>
      </trkpt>
      <trkpt lat="46.52388" lon="5.84905">
        <ele>895.2</ele>
        <time>2022-08-03T07:00:00Z</time>
      </trkpt>
      <trkpt lat="46.52396" lon="5.84905">
        <ele>895.6</ele>
        <time>2022-08-03T07:00:02Z</time>
      </trkpt>
      <trkpt lat="46.524" lon="5.84905">
        <ele>896.2</ele>
        <time>2022-08-03T07:00:03Z</time>
      </trkpt>
      <trkpt lat="46.52419" lon="5.84905">
        <ele>897.4</ele>
        <time>2022-08-03T07:00:08Z</time>
      </trkpt>
      <trkpt lat="46.52427" lon="5.84904">
        <ele>897.8</ele>
        <time>2022-08-03T07:00:10Z</time>
      </trkpt>
      <trkpt lat="46.52439" lon="5.84903">
        <ele>898.6</ele>
        <time>2022-08-03T07:00:13Z</time>
      </trkpt>
      <trkpt lat="46.52459" lon="5.84902">
        <ele>899.8</ele>
        <time>2022-08-03T07:00:18Z</time>
      </trkpt>
      <trkpt lat="46.52463" lon="5.84902">
        <ele>899.8</ele>
        <time>2022-08-03T07:00:19Z</time>
      </trkpt>
      <trkpt lat="46.52488" lon="5.84901">
        <ele>901</ele>
        <time>2022-08-03T07:00:25Z</time>
      </trkpt>
      <trkpt lat="46.52496" lon="5.849">
        <ele>901.4</ele>
        <time>2022-08-03T07:00:27Z</time>
      </trkpt>
      <trkpt lat="46.52507" lon="5.84897">
        <ele>902</ele>
        <time>2022-08-03T07:00:30Z</time>
      </trkpt>
      <trkpt lat="46.52523" lon="5.84892">
        <ele>903</ele>
        <time>2022-08-03T07:00:34Z</time>
      </trkpt>
      <trkpt lat="46.52529" lon="5.84886">
        <ele>903.2</ele>
        <time>2022-08-03T07:00:36Z</time>
      </trkpt>
      <trkpt lat="46.52543" lon="5.84874">
        <ele>904</ele>
        <time>2022-08-03T07:00:40Z</time>
      </trkpt>
      <trkpt lat="46.52546" lon="5.84871">
        <ele>904.4</ele>
        <time>2022-08-03T07:00:41Z</time>
      </trkpt>
      <trkpt lat="46.52555" lon="5.84861">
        <ele>905</ele>
        <time>2022-08-03T07:00:44Z</time>
      </trkpt>
      <trkpt lat="46.52562" lon="5.84853">
        <ele>905.4</ele>
        <time>2022-08-03T07:00:46Z</time>
      </trkpt>
      <trkpt lat="46.52571" lon="5.84843">
        <ele>906</ele>
        <time>2022-08-03T07:00:49Z</time>
      </trkpt>
      <trkpt lat="46.52583" lon="5.8483">
        <ele>906.6</ele>
        <time>2022-08-03T07:00:53Z</time>
      </trkpt>
      <trkpt lat="46.52591" lon="5.84825">
        <ele>907</ele>
        <time>2022-08-03T07:00:55Z</time>
      </trkpt>
      <trkpt lat="46.52607" lon="5.84817">
        <ele>908.4</ele>
        <time>2022-08-03T07:00:59Z</time>
      </trkpt>
      <trkpt lat="46.52616" lon="5.84813">
        <ele>909</ele>
        <time>2022-08-03T07:01:01Z</time>
      </trkpt>
      <trkpt lat="46.52632" lon="5.84808">
        <ele>909.6</ele>
        <time>2022-08-03T07:01:04Z</time>
      </trkpt>
      <trkpt lat="46.52648" lon="5.84802">
        <ele>909.8</ele>
        <time>2022-08-03T07:01:07Z</time>
      </trkpt>
      <trkpt lat="46.52683" lon="5.84793">
        <ele>910</ele>
        <time>2022-08-03T07:01:13Z</time>
      </trkpt>
      <trkpt lat="46.52735" lon="5.84777">
        <ele>910.2</ele>
        <time>2022-08-03T07:01:22Z</time>
      </trkpt>
      <trkpt lat="46.5274" lon="5.84775">
        <ele>910.4</ele>
        <time>2022-08-03T07:01:23Z</time>
      </trkpt>
      <trkpt lat="46.5275" lon="5.8477">
        <ele>910.6</ele>
        <time>2022-08-03T07:01:25Z</time>
      </trkpt>
      <trkpt lat="46.5276" lon="5.84763">
        <ele>910.6</ele>
        <time>2022-08-03T07:01:27Z</time>
      </trkpt>
      <trkpt lat="46.52778" lon="5.84747">
        <ele>911.2</ele>
        <time>2022-08-03T07:01:31Z</time>
      </trkpt>
      <trkpt lat="46.52783" lon="5.84743">
        <ele>911.4</ele>
        <time>2022-08-03T07:01:32Z</time>
      </trkpt>
      <trkpt lat="46.52792" lon="5.84735">
        <ele>911.8</ele>
        <time>2022-08-03T07:01:34Z</time>
      </trkpt>
      <trkpt lat="46.52807" lon="5.84729">
        <ele>912</ele>
        <time>2022-08-03T07:01:37Z</time>
      </trkpt>
      <trkpt lat="46.52822" lon="5.84727">
        <ele>912.4</ele>
        <time>2022-08-03T07:01:40Z</time>
      </trkpt>
      <trkpt lat="46.52827" lon="5.84728">
        <ele>912.8</ele>
        <time>2022-08-03T07:01:41Z</time>
      </trkpt>
      <trkpt lat="46.52833" lon="5.84729">
        <ele>912.8</ele>
        <time>2022-08-03T07:01:42Z</time>
      </trkpt>
      <trkpt lat="46.52883" lon="5.8475">
        <ele>913.4</ele>
        <time>2022-08-03T07:01:51Z</time>
      </trkpt>
      <trkpt lat="46.52923" lon="5.8477">
        <ele>913.8</ele>
        <time>2022-08-03T07:01:58Z</time>
      </trkpt>
      <trkpt lat="46.52928" lon="5.84772">
        <ele>913.8</ele>
        <time>2022-08-03T07:01:59Z</time>
      </trkpt>
      <trkpt lat="46.52933" lon="5.84774">
        <ele>914</ele>
        <time>2022-08-03T07:02:00Z</time>
      </trkpt>
      <trkpt lat="46.52943" lon="5.84779">
        <ele>914</ele>
        <time>2022-08-03T07:02:02Z</time>
      </trkpt>
      <trkpt lat="46.52949" lon="5.8478">
        <ele>914</ele>
        <time>2022-08-03T07:02:03Z</time>
      </trkpt>
      <trkpt lat="46.52954" lon="5.84783">
        <ele>914</ele>
        <time>2022-08-03T07:02:04Z</time>
      </trkpt>
      <trkpt lat="46.52965" lon="5.84788">
        <ele>914</ele>
        <time>2022-08-03T07:02:06Z</time>
      </trkpt>
      <trkpt lat="46.52976" lon="5.84796">
        <ele>914</ele>
        <time>2022-08-03T07:02:08Z</time>
      </trkpt>
      <trkpt lat="46.52981" lon="5.848">
        <ele>913.8</ele>
        <time>2022-08-03T07:02:09Z</time>
      </trkpt>
      <trkpt lat="46.52991" lon="5.84811">
        <ele>913.8</ele>
        <time>2022-08-03T07:02:11Z</time>
      </trkpt>
      <trkpt lat="46.52996" lon="5.84816">
        <ele>913.8</ele>
        <time>2022-08-03T07:02:12Z</time>
      </trkpt>
      <trkpt lat="46.53001" lon="5.84821">
        <ele>913.8</ele>
        <time>2022-08-03T07:02:13Z</time>
      </trkpt>
      <trkpt lat="46.53015" lon="5.84836">
        <ele>913.4</ele>
        <time>2022-08-03T07:02:16Z</time>
      </trkpt>
      <trkpt lat="46.53036" lon="5.84851">
        <ele>914</ele>
        <time>2022-08-03T07:02:20Z</time>
      </trkpt>
      <trkpt lat="46.53042" lon="5.84854">
        <ele>914</ele>
        <time>2022-08-03T07:02:21Z</time>
      </trkpt>
      <trkpt lat="46.53052" lon="5.84862">
        <ele>914</ele>
        <time>2022-08-03T07:02:23Z</time>
      </trkpt>
      <trkpt lat="46.53063" lon="5.84866">
        <ele>913.8</ele>
        <time>2022-08-03T07:02:25Z</time>
      </trkpt>
      <trkpt lat="46.53112" lon="5.84896">
        <ele>914.6</ele>
        <time>2022-08-03T07:02:34Z</time>
      </trkpt>
      <trkpt lat="46.53141" lon="5.84906">
        <ele>916</ele>
        <time>2022-08-03T07:02:39Z</time>
      </trkpt>
      <trkpt lat="46.53159" lon="5.84912">
        <ele>916.2</ele>
        <time>2022-08-03T07:02:42Z</time>
      </trkpt>
      <trkpt lat="46.53174" lon="5.84919">
        <ele>916.6</ele>
        <time>2022-08-03T07:02:45Z</time>
      </trkpt>
      <trkpt lat="46.53178" lon="5.84923">
        <ele>916.8</ele>
        <time>2022-08-03T07:02:46Z</time>
      </trkpt>
      <trkpt lat="46.53183" lon="5.84926">
        <ele>917</ele>
        <time>2022-08-03T07:02:47Z</time>
      </trkpt>
      <trkpt lat="46.53189" lon="5.84929">
        <ele>917.4</ele>
        <time>2022-08-03T07:02:48Z</time>
      </trkpt>
      <trkpt lat="46.532" lon="5.84934">
        <ele>917.8</ele>
        <time>2022-08-03T07:02:50Z</time>
      </trkpt>
      <trkpt lat="46.53207" lon="5.84935">
        <ele>918</ele>
        <time>2022-08-03T07:02:51Z</time>
      </trkpt>
      <trkpt lat="46.53211" lon="5.84939">
        <ele>918</ele>
        <time>2022-08-03T07:02:52Z</time>
      </trkpt>
      <trkpt lat="46.53229" lon="5.8495">
        <ele>918.8</ele>
        <time>2022-08-03T07:02:56Z</time>
      </trkpt>
      <trkpt lat="46.53238" lon="5.84954">
        <ele>919</ele>
        <time>2022-08-03T07:02:58Z</time>
      </trkpt>
      <trkpt lat="46.53255" lon="5.84963">
        <ele>920</ele>
        <time>2022-08-03T07:03:02Z</time>
      </trkpt>
      <trkpt lat="46.53258" lon="5.84965">
        <ele>920.4</ele>
        <time>2022-08-03T07:03:03Z</time>
      </trkpt>
      <trkpt lat="46.53279" lon="5.84979">
        <ele>921</ele>
        <time>2022-08-03T07:03:08Z</time>
      </trkpt>
      <trkpt lat="46.53284" lon="5.84982">
        <ele>921.2</ele>
        <time>2022-08-03T07:03:09Z</time>
      </trkpt>
      <trkpt lat="46.53292" lon="5.84988">
        <ele>921.4</ele>
        <time>2022-08-03T07:03:11Z</time>
      </trkpt>
      <trkpt lat="46.53308" lon="5.84999">
        <ele>921.8</ele>
        <time>2022-08-03T07:03:15Z</time>
      </trkpt>
      <trkpt lat="46.53312" lon="5.85001">
        <ele>921.8</ele>
        <time>2022-08-03T07:03:16Z</time>
      </trkpt>
      <trkpt lat="46.53319" lon="5.85005">
        <ele>922.2</ele>
        <time>2022-08-03T07:03:18Z</time>
      </trkpt>
      <trkpt lat="46.53323" lon="5.85007">
        <ele>922.6</ele>
        <time>2022-08-03T07:03:19Z</time>
      </trkpt>
      <trkpt lat="46.53327" lon="5.85009">
        <ele>922.6</ele>
        <time>2022-08-03T07:03:20Z</time>
      </trkpt>
      <trkpt lat="46.53344" lon="5.8502">
        <ele>923.2</ele>
        <time>2022-08-03T07:03:24Z</time>
      </trkpt>
      <trkpt lat="46.53352" lon="5.85025">
        <ele>923.6</ele>
        <time>2022-08-03T07:03:26Z</time>
      </trkpt>
      <trkpt lat="46.53369" lon="5.85036">
        <ele>924.2</ele>
        <time>2022-08-03T07:03:30Z</time>
      </trkpt>
      <trkpt lat="46.53382" lon="5.85043">
        <ele>924.4</ele>
        <time>2022-08-03T07:03:33Z</time>
      </trkpt>
      <trkpt lat="46.53393" lon="5.85053">
        <ele>924.6</ele>
        <time>2022-08-03T07:03:36Z</time>
      </trkpt>
      <trkpt lat="46.53402" lon="5.85058">
        <ele>925.2</ele>
        <time>2022-08-03T07:03:38Z</time>
      </trkpt>
      <trkpt lat="46.53406" lon="5.85061">
        <ele>925.4</ele>
        <time>2022-08-03T07:03:39Z</time>
      </trkpt>
      <trkpt lat="46.5343" lon="5.85073">
        <ele>926.2</ele>
        <time>2022-08-03T07:03:45Z</time>
      </trkpt>
      <trkpt lat="46.53449" lon="5.85082">
        <ele>927.4</ele>
        <time>2022-08-03T07:03:49Z</time>
      </trkpt>
      <trkpt lat="46.53454" lon="5.85085">
        <ele>927.4</ele>
        <time>2022-08-03T07:03:50Z</time>
      </trkpt>
      <trkpt lat="46.53459" lon="5.85086">
        <ele>927.6</ele>
        <time>2022-08-03T07:03:51Z</time>
      </trkpt>
      <trkpt lat="46.53475" lon="5.85095">
        <ele>928.2</ele>
        <time>2022-08-03T07:03:55Z</time>
      </trkpt>
      <trkpt lat="46.53479" lon="5.85097">
        <ele>928.4</ele>
        <time>2022-08-03T07:03:56Z</time>
      </trkpt>
      <trkpt lat="46.53492" lon="5.85105">
        <ele>928.8</ele>
        <time>2022-08-03T07:03:59Z</time>
      </trkpt>
      <trkpt lat="46.53501" lon="5.8511">
        <ele>929.2</ele>
        <time>2022-08-03T07:04:01Z</time>
      </trkpt>
      <trkpt lat="46.53508" lon="5.85114">
        <ele>929.6</ele>
        <time>2022-08-03T07:04:03Z</time>
      </trkpt>
      <trkpt lat="46.53523" lon="5.85122">
        <ele>930.6</ele>
        <time>2022-08-03T07:04:07Z</time>
      </trkpt>
      <trkpt lat="46.5354" lon="5.8513">
        <ele>931.8</ele>
        <time>2022-08-03T07:04:12Z</time>
      </trkpt>
      <trkpt lat="46.53546" lon="5.85134">
        <ele>932.2</ele>
        <time>2022-08-03T07:04:14Z</time>
      </trkpt>
      <trkpt lat="46.53558" lon="5.8514">
        <ele>933</ele>
        <time>2022-08-03T07:04:18Z</time>
      </trkpt>
      <trkpt lat="46.53564" lon="5.85145">
        <ele>933.6</ele>
        <time>2022-08-03T07:04:20Z</time>
      </trkpt>
      <trkpt lat="46.53571" lon="5.85149">
        <ele>934</ele>
        <time>2022-08-03T07:04:22Z</time>
      </trkpt>
      <trkpt lat="46.53583" lon="5.85154">
        <ele>935</ele>
        <time>2022-08-03T07:04:26Z</time>
      </trkpt>
      <trkpt lat="46.53603" lon="5.85169">
        <ele>935.8</ele>
        <time>2022-08-03T07:04:32Z</time>
      </trkpt>
      <trkpt lat="46.53609" lon="5.85174">
        <ele>936</ele>
        <time>2022-08-03T07:04:34Z</time>
      </trkpt>
      <trkpt lat="46.53616" lon="5.85179">
        <ele>936.4</ele>
        <time>2022-08-03T07:04:36Z</time>
      </trkpt>
      <trkpt lat="46.53628" lon="5.85189">
        <ele>937.2</ele>
        <time>2022-08-03T07:04:40Z</time>
      </trkpt>
      <trkpt lat="46.53635" lon="5.85195">
        <ele>937.6</ele>
        <time>2022-08-03T07:04:42Z</time>
      </trkpt>
      <trkpt lat="46.53647" lon="5.85202">
        <ele>938.4</ele>
        <time>2022-08-03T07:04:45Z</time>
      </trkpt>
      <trkpt lat="46.53655" lon="5.85208">
        <ele>939.2</ele>
        <time>2022-08-03T07:04:48Z</time>
      </trkpt>
      <trkpt lat="46.53659" lon="5.85212">
        <ele>939.6</ele>
        <time>2022-08-03T07:04:49Z</time>
      </trkpt>
      <trkpt lat="46.53682" lon="5.85229">
        <ele>940.4</ele>
        <time>2022-08-03T07:04:55Z</time>
      </trkpt>
      <trkpt lat="46.53696" lon="5.8524">
        <ele>941.6</ele>
        <time>2022-08-03T07:04:58Z</time>
      </trkpt>
      <trkpt lat="46.53719" lon="5.85257">
        <ele>942.4</ele>
        <time>2022-08-03T07:05:04Z</time>
      </trkpt>
      <trkpt lat="46.53722" lon="5.85259">
        <ele>942.6</ele>
        <time>2022-08-03T07:05:05Z</time>
      </trkpt>
      <trkpt lat="46.53739" lon="5.85271">
        <ele>943.8</ele>
        <time>2022-08-03T07:05:10Z</time>
      </trkpt>
      <trkpt lat="46.53762" lon="5.85286">
        <ele>944.6</ele>
        <time>2022-08-03T07:05:17Z</time>
      </trkpt>
      <trkpt lat="46.53769" lon="5.85289">
        <ele>945.6</ele>
        <time>2022-08-03T07:05:19Z</time>
      </trkpt>
      <trkpt lat="46.53785" lon="5.85298">
        <ele>946.8</ele>
        <time>2022-08-03T07:05:23Z</time>
      </trkpt>
      <trkpt lat="46.53792" lon="5.853">
        <ele>947.2</ele>
        <time>2022-08-03T07:05:25Z</time>
      </trkpt>
      <trkpt lat="46.53802" lon="5.85304">
        <ele>948</ele>
        <time>2022-08-03T07:05:28Z</time>
      </trkpt>
      <trkpt lat="46.53812" lon="5.85313">
        <ele>948.6</ele>
        <time>2022-08-03T07:05:31Z</time>
      </trkpt>
      <trkpt lat="46.53823" lon="5.8532">
        <ele>949</ele>
        <time>2022-08-03T07:05:34Z</time>
      </trkpt>
      <trkpt lat="46.53831" lon="5.85323">
        <ele>949.4</ele>
        <time>2022-08-03T07:05:36Z</time>
      </trkpt>
      <trkpt lat="46.53839" lon="5.85327">
        <ele>950.2</ele>
        <time>2022-08-03T07:05:38Z</time>
      </trkpt>
      <trkpt lat="46.53852" lon="5.85332">
        <ele>950.8</ele>
        <time>2022-08-03T07:05:42Z</time>
      </trkpt>
      <trkpt lat="46.53859" lon="5.85335">
        <ele>951.2</ele>
        <time>2022-08-03T07:05:44Z</time>
      </trkpt>
      <trkpt lat="46.53877" lon="5.8534">
        <ele>951.8</ele>
        <time>2022-08-03T07:05:48Z</time>
      </trkpt>
      <trkpt lat="46.53886" lon="5.8534">
        <ele>952.2</ele>
        <time>2022-08-03T07:05:50Z</time>
      </trkpt>
      <trkpt lat="46.53901" lon="5.8534">
        <ele>953.2</ele>
        <time>2022-08-03T07:05:54Z</time>
      </trkpt>
      <trkpt lat="46.53906" lon="5.85339">
        <ele>953.4</ele>
        <time>2022-08-03T07:05:55Z</time>
      </trkpt>
      <trkpt lat="46.53923" lon="5.85341">
        <ele>954.2</ele>
        <time>2022-08-03T07:06:00Z</time>
      </trkpt>
      <trkpt lat="46.53927" lon="5.85343">
        <ele>954.6</ele>
        <time>2022-08-03T07:06:01Z</time>
      </trkpt>
      <trkpt lat="46.5394" lon="5.85354">
        <ele>955.2</ele>
        <time>2022-08-03T07:06:05Z</time>
      </trkpt>
      <trkpt lat="46.53945" lon="5.85361">
        <ele>955.6</ele>
        <time>2022-08-03T07:06:07Z</time>
      </trkpt>
      <trkpt lat="46.53951" lon="5.85373">
        <ele>956.6</ele>
        <time>2022-08-03T07:06:10Z</time>
      </trkpt>
      <trkpt lat="46.53955" lon="5.85382">
        <ele>957.4</ele>
        <time>2022-08-03T07:06:12Z</time>
      </trkpt>
      <trkpt lat="46.53958" lon="5.85389">
        <ele>957.8</ele>
        <time>2022-08-03T07:06:14Z</time>
      </trkpt>
      <trkpt lat="46.53971" lon="5.85404">
        <ele>958.8</ele>
        <time>2022-08-03T07:06:19Z</time>
      </trkpt>
      <trkpt lat="46.53987" lon="5.85414">
        <ele>959.8</ele>
        <time>2022-08-03T07:06:24Z</time>
      </trkpt>
      <trkpt lat="46.53989" lon="5.85415">
        <ele>960</ele>
        <time>2022-08-03T07:06:25Z</time>
      </trkpt>
      <trkpt lat="46.54008" lon="5.85424">
        <ele>961</ele>
        <time>2022-08-03T07:06:30Z</time>
      </trkpt>
      <trkpt lat="46.54029" lon="5.85433">
        <ele>962</ele>
        <time>2022-08-03T07:06:36Z</time>
      </trkpt>
      <trkpt lat="46.54033" lon="5.85434">
        <ele>962</ele>
        <time>2022-08-03T07:06:37Z</time>
      </trkpt>
      <trkpt lat="46.54051" lon="5.85442">
        <ele>962.8</ele>
        <time>2022-08-03T07:06:42Z</time>
      </trkpt>
      <trkpt lat="46.54058" lon="5.85447">
        <ele>963.2</ele>
        <time>2022-08-03T07:06:44Z</time>
      </trkpt>
      <trkpt lat="46.5407" lon="5.85451">
        <ele>964.2</ele>
        <time>2022-08-03T07:06:47Z</time>
      </trkpt>
      <trkpt lat="46.54079" lon="5.85456">
        <ele>964.8</ele>
        <time>2022-08-03T07:06:50Z</time>
      </trkpt>
      <trkpt lat="46.54085" lon="5.85459">
        <ele>965.2</ele>
        <time>2022-08-03T07:06:52Z</time>
      </trkpt>
      <trkpt lat="46.54101" lon="5.85469">
        <ele>966.2</ele>
        <time>2022-08-03T07:06:57Z</time>
      </trkpt>
      <trkpt lat="46.54104" lon="5.85472">
        <ele>966.6</ele>
        <time>2022-08-03T07:06:58Z</time>
      </trkpt>
      <trkpt lat="46.54119" lon="5.85483">
        <ele>967.4</ele>
        <time>2022-08-03T07:07:03Z</time>
      </trkpt>
      <trkpt lat="46.54126" lon="5.85488">
        <ele>967.8</ele>
        <time>2022-08-03T07:07:05Z</time>
      </trkpt>
      <trkpt lat="46.54135" lon="5.85495">
        <ele>968.4</ele>
        <time>2022-08-03T07:07:08Z</time>
      </trkpt>
      <trkpt lat="46.54137" lon="5.85495">
        <ele>968.4</ele>
        <time>2022-08-03T07:07:09Z</time>
      </trkpt>
      <trkpt lat="46.54155" lon="5.85502">
        <ele>969.4</ele>
        <time>2022-08-03T07:07:14Z</time>
      </trkpt>
      <trkpt lat="46.54159" lon="5.85503">
        <ele>969.8</ele>
        <time>2022-08-03T07:07:15Z</time>
      </trkpt>
      <trkpt lat="46.54176" lon="5.85511">
        <ele>970.4</ele>
        <time>2022-08-03T07:07:19Z</time>
      </trkpt>
      <trkpt lat="46.54186" lon="5.8552">
        <ele>971.2</ele>
        <time>2022-08-03T07:07:22Z</time>
      </trkpt>
      <trkpt lat="46.54189" lon="5.85522">
        <ele>971.6</ele>
        <time>2022-08-03T07:07:23Z</time>
      </trkpt>
      <trkpt lat="46.54201" lon="5.85533">
        <ele>972.6</ele>
        <time>2022-08-03T07:07:27Z</time>
      </trkpt>
      <trkpt lat="46.54204" lon="5.85536">
        <ele>973.2</ele>
        <time>2022-08-03T07:07:29Z</time>
      </trkpt>
      <trkpt lat="46.54207" lon="5.85537">
        <ele>973.2</ele>
        <time>2022-08-03T07:07:30Z</time>
      </trkpt>
      <trkpt lat="46.54215" lon="5.85543">
        <ele>973.6</ele>
        <time>2022-08-03T07:07:32Z</time>
      </trkpt>
      <trkpt lat="46.54226" lon="5.85546">
        <ele>974.2</ele>
        <time>2022-08-03T07:07:35Z</time>
      </trkpt>
      <trkpt lat="46.54234" lon="5.85538">
        <ele>974.6</ele>
        <time>2022-08-03T07:07:37Z</time>
      </trkpt>
      <trkpt lat="46.5424" lon="5.85528">
        <ele>975.2</ele>
        <time>2022-08-03T07:07:39Z</time>
      </trkpt>
      <trkpt lat="46.54241" lon="5.85523">
        <ele>975.6</ele>
        <time>2022-08-03T07:07:40Z</time>
      </trkpt>
      <trkpt lat="46.5424" lon="5.85517">
        <ele>975.6</ele>
        <time>2022-08-03T07:07:41Z</time>
      </trkpt>
      <trkpt lat="46.5424" lon="5.85512">
        <ele>976</ele>
        <time>2022-08-03T07:07:42Z</time>
      </trkpt>
      <trkpt lat="46.54239" lon="5.85506">
        <ele>976.2</ele>
        <time>2022-08-03T07:07:43Z</time>
      </trkpt>
      <trkpt lat="46.54234" lon="5.85498">
        <ele>976.4</ele>
        <time>2022-08-03T07:07:45Z</time>
      </trkpt>
      <trkpt lat="46.5422" lon="5.85484">
        <ele>976.8</ele>
        <time>2022-08-03T07:07:49Z</time>
      </trkpt>
      <trkpt lat="46.54207" lon="5.85467">
        <ele>977.4</ele>
        <time>2022-08-03T07:07:53Z</time>
      </trkpt>
      <trkpt lat="46.54197" lon="5.85454">
        <ele>977.8</ele>
        <time>2022-08-03T07:07:56Z</time>
      </trkpt>
      <trkpt lat="46.54195" lon="5.85451">
        <ele>978</ele>
        <time>2022-08-03T07:07:57Z</time>
      </trkpt>
      <trkpt lat="46.54189" lon="5.85444">
        <ele>978.8</ele>
        <time>2022-08-03T07:07:59Z</time>
      </trkpt>
      <trkpt lat="46.5417" lon="5.85427">
        <ele>979.8</ele>
        <time>2022-08-03T07:08:06Z</time>
      </trkpt>
      <trkpt lat="46.54167" lon="5.85423">
        <ele>979.8</ele>
        <time>2022-08-03T07:08:07Z</time>
      </trkpt>
      <trkpt lat="46.54157" lon="5.85408">
        <ele>981</ele>
        <time>2022-08-03T07:08:11Z</time>
      </trkpt>
      <trkpt lat="46.54156" lon="5.85404">
        <ele>981.2</ele>
        <time>2022-08-03T07:08:12Z</time>
      </trkpt>
      <trkpt lat="46.54154" lon="5.85393">
        <ele>981.4</ele>
        <time>2022-08-03T07:08:14Z</time>
      </trkpt>
      <trkpt lat="46.54155" lon="5.85382">
        <ele>981.8</ele>
        <time>2022-08-03T07:08:16Z</time>
      </trkpt>
      <trkpt lat="46.54157" lon="5.85377">
        <ele>982.2</ele>
        <time>2022-08-03T07:08:17Z</time>
      </trkpt>
      <trkpt lat="46.54159" lon="5.85362">
        <ele>983.6</ele>
        <time>2022-08-03T07:08:20Z</time>
      </trkpt>
      <trkpt lat="46.54158" lon="5.85356">
        <ele>983.6</ele>
        <time>2022-08-03T07:08:21Z</time>
      </trkpt>
      <trkpt lat="46.54156" lon="5.85339">
        <ele>984.4</ele>
        <time>2022-08-03T07:08:24Z</time>
      </trkpt>
      <trkpt lat="46.54152" lon="5.85328">
        <ele>984.6</ele>
        <time>2022-08-03T07:08:26Z</time>
      </trkpt>
      <trkpt lat="46.54149" lon="5.85323">
        <ele>985</ele>
        <time>2022-08-03T07:08:27Z</time>
      </trkpt>
      <trkpt lat="46.54144" lon="5.85316">
        <ele>985.8</ele>
        <time>2022-08-03T07:08:29Z</time>
      </trkpt>
      <trkpt lat="46.54134" lon="5.85312">
        <ele>986.2</ele>
        <time>2022-08-03T07:08:32Z</time>
      </trkpt>
      <trkpt lat="46.54122" lon="5.85309">
        <ele>986.8</ele>
        <time>2022-08-03T07:08:35Z</time>
      </trkpt>
      <trkpt lat="46.54112" lon="5.85301">
        <ele>987.6</ele>
        <time>2022-08-03T07:08:38Z</time>
      </trkpt>
      <trkpt lat="46.54108" lon="5.85294">
        <ele>988</ele>
        <time>2022-08-03T07:08:40Z</time>
      </trkpt>
      <trkpt lat="46.54103" lon="5.85281">
        <ele>988.2</ele>
        <time>2022-08-03T07:08:43Z</time>
      </trkpt>
      <trkpt lat="46.54103" lon="5.85276">
        <ele>988.2</ele>
        <time>2022-08-03T07:08:44Z</time>
      </trkpt>
      <trkpt lat="46.54104" lon="5.85267">
        <ele>988.4</ele>
        <time>2022-08-03T07:08:46Z</time>
      </trkpt>
      <trkpt lat="46.5411" lon="5.8525">
        <ele>989.4</ele>
        <time>2022-08-03T07:08:50Z</time>
      </trkpt>
      <trkpt lat="46.54113" lon="5.85241">
        <ele>990</ele>
        <time>2022-08-03T07:08:52Z</time>
      </trkpt>
      <trkpt lat="46.54116" lon="5.85233">
        <ele>990.6</ele>
        <time>2022-08-03T07:08:54Z</time>
      </trkpt>
      <trkpt lat="46.54122" lon="5.85216">
        <ele>991.2</ele>
        <time>2022-08-03T07:08:58Z</time>
      </trkpt>
      <trkpt lat="46.54125" lon="5.85203">
        <ele>991.8</ele>
        <time>2022-08-03T07:09:01Z</time>
      </trkpt>
      <trkpt lat="46.54128" lon="5.85194">
        <ele>992</ele>
        <time>2022-08-03T07:09:03Z</time>
      </trkpt>
      <trkpt lat="46.54129" lon="5.85188">
        <ele>992.4</ele>
        <time>2022-08-03T07:09:04Z</time>
      </trkpt>
      <trkpt lat="46.54131" lon="5.8518">
        <ele>992.8</ele>
        <time>2022-08-03T07:09:06Z</time>
      </trkpt>
      <trkpt lat="46.54135" lon="5.85156">
        <ele>993.8</ele>
        <time>2022-08-03T07:09:11Z</time>
      </trkpt>
      <trkpt lat="46.54136" lon="5.85145">
        <ele>994.4</ele>
        <time>2022-08-03T07:09:13Z</time>
      </trkpt>
      <trkpt lat="46.5414" lon="5.85131">
        <ele>994.8</ele>
        <time>2022-08-03T07:09:16Z</time>
      </trkpt>
      <trkpt lat="46.54146" lon="5.85118">
        <ele>995</ele>
        <time>2022-08-03T07:09:19Z</time>
      </trkpt>
      <trkpt lat="46.54152" lon="5.85106">
        <ele>996</ele>
        <time>2022-08-03T07:09:22Z</time>
      </trkpt>
      <trkpt lat="46.5416" lon="5.85095">
        <ele>996.8</ele>
        <time>2022-08-03T07:09:25Z</time>
      </trkpt>
      <trkpt lat="46.54167" lon="5.85088">
        <ele>997</ele>
        <time>2022-08-03T07:09:27Z</time>
      </trkpt>
      <trkpt lat="46.54177" lon="5.85081">
        <ele>997.4</ele>
        <time>2022-08-03T07:09:30Z</time>
      </trkpt>
      <trkpt lat="46.54187" lon="5.85072">
        <ele>998.2</ele>
        <time>2022-08-03T07:09:33Z</time>
      </trkpt>
      <trkpt lat="46.54201" lon="5.8507">
        <ele>999</ele>
        <time>2022-08-03T07:09:37Z</time>
      </trkpt>
      <trkpt lat="46.54203" lon="5.85071">
        <ele>999.2</ele>
        <time>2022-08-03T07:09:38Z</time>
      </trkpt>
      <trkpt lat="46.54214" lon="5.85078">
        <ele>999.6</ele>
        <time>2022-08-03T07:09:42Z</time>
      </trkpt>
      <trkpt lat="46.54225" lon="5.85085">
        <ele>1000.4</ele>
        <time>2022-08-03T07:09:45Z</time>
      </trkpt>
      <trkpt lat="46.54232" lon="5.85091">
        <ele>1000.8</ele>
        <time>2022-08-03T07:09:47Z</time>
      </trkpt>
      <trkpt lat="46.54244" lon="5.851">
        <ele>1001.6</ele>
        <time>2022-08-03T07:09:50Z</time>
      </trkpt>
      <trkpt lat="46.54258" lon="5.85109">
        <ele>1002.2</ele>
        <time>2022-08-03T07:09:53Z</time>
      </trkpt>
      <trkpt lat="46.54284" lon="5.85122">
        <ele>1002.2</ele>
        <time>2022-08-03T07:09:57Z</time>
      </trkpt>
      <trkpt lat="46.54301" lon="5.85122">
        <ele>1002</ele>
        <time>2022-08-03T07:09:59Z</time>
      </trkpt>
      <trkpt lat="46.54309" lon="5.8512">
        <ele>1001.8</ele>
        <time>2022-08-03T07:10:00Z</time>
      </trkpt>
      <trkpt lat="46.54317" lon="5.85116">
        <ele>1001.2</ele>
        <time>2022-08-03T07:10:01Z</time>
      </trkpt>
      <trkpt lat="46.54332" lon="5.85103">
        <ele>1000.4</ele>
        <time>2022-08-03T07:10:03Z</time>
      </trkpt>
      <trkpt lat="46.54338" lon="5.85097">
        <ele>1000</ele>
        <time>2022-08-03T07:10:04Z</time>
      </trkpt>
      <trkpt lat="46.54344" lon="5.85093">
        <ele>999.8</ele>
        <time>2022-08-03T07:10:05Z</time>
      </trkpt>
      <trkpt lat="46.54351" lon="5.85089">
        <ele>999.4</ele>
        <time>2022-08-03T07:10:06Z</time>
      </trkpt>
      <trkpt lat="46.54357" lon="5.85086">
        <ele>999</ele>
        <time>2022-08-03T07:10:07Z</time>
      </trkpt>
      <trkpt lat="46.54364" lon="5.85089">
        <ele>998.4</ele>
        <time>2022-08-03T07:10:08Z</time>
      </trkpt>
      <trkpt lat="46.54372" lon="5.85094">
        <ele>998</ele>
        <time>2022-08-03T07:10:09Z</time>
      </trkpt>
      <trkpt lat="46.54391" lon="5.85102">
        <ele>997.6</ele>
        <time>2022-08-03T07:10:11Z</time>
      </trkpt>
      <trkpt lat="46.54411" lon="5.85113">
        <ele>996.8</ele>
        <time>2022-08-03T07:10:13Z</time>
      </trkpt>
      <trkpt lat="46.54428" lon="5.85123">
        <ele>995.4</ele>
        <time>2022-08-03T07:10:15Z</time>
      </trkpt>
      <trkpt lat="46.54438" lon="5.85132">
        <ele>994.8</ele>
        <time>2022-08-03T07:10:16Z</time>
      </trkpt>
      <trkpt lat="46.54456" lon="5.85142">
        <ele>994.6</ele>
        <time>2022-08-03T07:10:18Z</time>
      </trkpt>
      <trkpt lat="46.54467" lon="5.85145">
        <ele>994.4</ele>
        <time>2022-08-03T07:10:19Z</time>
      </trkpt>
      <trkpt lat="46.54505" lon="5.85159">
        <ele>993.8</ele>
        <time>2022-08-03T07:10:23Z</time>
      </trkpt>
      <trkpt lat="46.54524" lon="5.85164">
        <ele>993.2</ele>
        <time>2022-08-03T07:10:25Z</time>
      </trkpt>
      <trkpt lat="46.54537" lon="5.85165">
        <ele>993.2</ele>
        <time>2022-08-03T07:10:26Z</time>
      </trkpt>
      <trkpt lat="46.54548" lon="5.85167">
        <ele>992.8</ele>
        <time>2022-08-03T07:10:27Z</time>
      </trkpt>
      <trkpt lat="46.54555" lon="5.85165">
        <ele>992.6</ele>
        <time>2022-08-03T07:10:28Z</time>
      </trkpt>
      <trkpt lat="46.54569" lon="5.85162">
        <ele>992</ele>
        <time>2022-08-03T07:10:30Z</time>
      </trkpt>
      <trkpt lat="46.54615" lon="5.85163">
        <ele>991.2</ele>
        <time>2022-08-03T07:10:35Z</time>
      </trkpt>
      <trkpt lat="46.54624" lon="5.85165">
        <ele>990.8</ele>
        <time>2022-08-03T07:10:36Z</time>
      </trkpt>
      <trkpt lat="46.54654" lon="5.85158">
        <ele>990.2</ele>
        <time>2022-08-03T07:10:38Z</time>
      </trkpt>
      <trkpt lat="46.54654" lon="5.85158">
        <ele>989.6</ele>
        <time>2022-08-03T07:10:39Z</time>
      </trkpt>
      <trkpt lat="46.54671" lon="5.85145">
        <ele>988.4</ele>
        <time>2022-08-03T07:10:41Z</time>
      </trkpt>
      <trkpt lat="46.54678" lon="5.85136">
        <ele>988</ele>
        <time>2022-08-03T07:10:42Z</time>
      </trkpt>
      <trkpt lat="46.54692" lon="5.85116">
        <ele>987.4</ele>
        <time>2022-08-03T07:10:43Z</time>
      </trkpt>
      <trkpt lat="46.54692" lon="5.85116">
        <ele>987.2</ele>
        <time>2022-08-03T07:10:44Z</time>
      </trkpt>
      <trkpt lat="46.54707" lon="5.85096">
        <ele>986.4</ele>
        <time>2022-08-03T07:10:46Z</time>
      </trkpt>
      <trkpt lat="46.54715" lon="5.85087">
        <ele>986.2</ele>
        <time>2022-08-03T07:10:47Z</time>
      </trkpt>
      <trkpt lat="46.54725" lon="5.85081">
        <ele>985.8</ele>
        <time>2022-08-03T07:10:48Z</time>
      </trkpt>
      <trkpt lat="46.54744" lon="5.85074">
        <ele>985.6</ele>
        <time>2022-08-03T07:10:50Z</time>
      </trkpt>
      <trkpt lat="46.54752" lon="5.85075">
        <ele>985.4</ele>
        <time>2022-08-03T07:10:51Z</time>
      </trkpt>
      <trkpt lat="46.54763" lon="5.85075">
        <ele>985</ele>
        <time>2022-08-03T07:10:52Z</time>
      </trkpt>
      <trkpt lat="46.54782" lon="5.85072">
        <ele>984.4</ele>
        <time>2022-08-03T07:10:54Z</time>
      </trkpt>
      <trkpt lat="46.54798" lon="5.85066">
        <ele>984</ele>
        <time>2022-08-03T07:10:56Z</time>
      </trkpt>
      <trkpt lat="46.54807" lon="5.85062">
        <ele>983.6</ele>
        <time>2022-08-03T07:10:57Z</time>
      </trkpt>
      <trkpt lat="46.54817" lon="5.85055">
        <ele>983.4</ele>
        <time>2022-08-03T07:10:58Z</time>
      </trkpt>
      <trkpt lat="46.54831" lon="5.85044">
        <ele>982.6</ele>
        <time>2022-08-03T07:11:00Z</time>
      </trkpt>
      <trkpt lat="46.54849" lon="5.85032">
        <ele>982</ele>
        <time>2022-08-03T07:11:02Z</time>
      </trkpt>
      <trkpt lat="46.54856" lon="5.85029">
        <ele>982</ele>
        <time>2022-08-03T07:11:03Z</time>
      </trkpt>
      <trkpt lat="46.54871" lon="5.85024">
        <ele>981.4</ele>
        <time>2022-08-03T07:11:05Z</time>
      </trkpt>
      <trkpt lat="46.54911" lon="5.85018">
        <ele>981.4</ele>
        <time>2022-08-03T07:11:10Z</time>
      </trkpt>
      <trkpt lat="46.54919" lon="5.85016">
        <ele>981.2</ele>
        <time>2022-08-03T07:11:11Z</time>
      </trkpt>
      <trkpt lat="46.54948" lon="5.85002">
        <ele>981.2</ele>
        <time>2022-08-03T07:11:15Z</time>
      </trkpt>
      <trkpt lat="46.54961" lon="5.84996">
        <ele>981</ele>
        <time>2022-08-03T07:11:17Z</time>
      </trkpt>
      <trkpt lat="46.54975" lon="5.84993">
        <ele>980.8</ele>
        <time>2022-08-03T07:11:19Z</time>
      </trkpt>
      <trkpt lat="46.54983" lon="5.84993">
        <ele>980.6</ele>
        <time>2022-08-03T07:11:20Z</time>
      </trkpt>
      <trkpt lat="46.54988" lon="5.84995">
        <ele>980.4</ele>
        <time>2022-08-03T07:11:21Z</time>
      </trkpt>
      <trkpt lat="46.54994" lon="5.84997">
        <ele>979.8</ele>
        <time>2022-08-03T07:11:22Z</time>
      </trkpt>
      <trkpt lat="46.55002" lon="5.84998">
        <ele>979.2</ele>
        <time>2022-08-03T07:11:23Z</time>
      </trkpt>
      <trkpt lat="46.55011" lon="5.85">
        <ele>978.8</ele>
        <time>2022-08-03T07:11:24Z</time>
      </trkpt>
      <trkpt lat="46.55017" lon="5.85002">
        <ele>978.2</ele>
        <time>2022-08-03T07:11:25Z</time>
      </trkpt>
      <trkpt lat="46.55026" lon="5.85003">
        <ele>977.8</ele>
        <time>2022-08-03T07:11:26Z</time>
      </trkpt>
      <trkpt lat="46.55034" lon="5.85006">
        <ele>977</ele>
        <time>2022-08-03T07:11:27Z</time>
      </trkpt>
      <trkpt lat="46.55042" lon="5.8501">
        <ele>976.4</ele>
        <time>2022-08-03T07:11:28Z</time>
      </trkpt>
      <trkpt lat="46.55056" lon="5.85011">
        <ele>975.8</ele>
        <time>2022-08-03T07:11:29Z</time>
      </trkpt>
      <trkpt lat="46.55059" lon="5.8501">
        <ele>975.2</ele>
        <time>2022-08-03T07:11:30Z</time>
      </trkpt>
      <trkpt lat="46.55066" lon="5.85005">
        <ele>974.2</ele>
        <time>2022-08-03T07:11:33Z</time>
      </trkpt>
      <trkpt lat="46.55067" lon="5.85005">
        <ele>973.8</ele>
        <time>2022-08-03T07:11:34Z</time>
      </trkpt>
      <trkpt lat="46.55067" lon="5.85007">
        <ele>973.6</ele>
        <time>2022-08-03T07:11:35Z</time>
      </trkpt>
      <trkpt lat="46.55063" lon="5.85007">
        <ele>972.8</ele>
        <time>2022-08-03T07:11:37Z</time>
      </trkpt>
      <trkpt lat="46.55063" lon="5.85008">
        <ele>972.8</ele>
        <time>2022-08-03T07:11:38Z</time>
      </trkpt>
      <trkpt lat="46.55057" lon="5.85">
        <ele>971.8</ele>
        <time>2022-08-03T07:11:39Z</time>
      </trkpt>
      <trkpt lat="46.5505" lon="5.84994">
        <ele>971.4</ele>
        <time>2022-08-03T07:11:40Z</time>
      </trkpt>
      <trkpt lat="46.55043" lon="5.84986">
        <ele>970.6</ele>
        <time>2022-08-03T07:11:41Z</time>
      </trkpt>
      <trkpt lat="46.55034" lon="5.84981">
        <ele>969.8</ele>
        <time>2022-08-03T07:11:42Z</time>
      </trkpt>
      <trkpt lat="46.55027" lon="5.84978">
        <ele>969.4</ele>
        <time>2022-08-03T07:11:43Z</time>
      </trkpt>
      <trkpt lat="46.55027" lon="5.84978">
        <ele>968.8</ele>
        <time>2022-08-03T07:11:44Z</time>
      </trkpt>
      <trkpt lat="46.55008" lon="5.84971">
        <ele>968.6</ele>
        <time>2022-08-03T07:11:45Z</time>
      </trkpt>
      <trkpt lat="46.54983" lon="5.84944">
        <ele>968</ele>
        <time>2022-08-03T07:11:47Z</time>
      </trkpt>
      <trkpt lat="46.54979" lon="5.84934">
        <ele>967</ele>
        <time>2022-08-03T07:11:48Z</time>
      </trkpt>
      <trkpt lat="46.54955" lon="5.84916">
        <ele>966.4</ele>
        <time>2022-08-03T07:11:49Z</time>
      </trkpt>
      <trkpt lat="46.54955" lon="5.84916">
        <ele>966</ele>
        <time>2022-08-03T07:11:50Z</time>
      </trkpt>
      <trkpt lat="46.54939" lon="5.84903">
        <ele>965</ele>
        <time>2022-08-03T07:11:51Z</time>
      </trkpt>
      <trkpt lat="46.54913" lon="5.84872">
        <ele>964</ele>
        <time>2022-08-03T07:11:53Z</time>
      </trkpt>
      <trkpt lat="46.54894" lon="5.84836">
        <ele>963.6</ele>
        <time>2022-08-03T07:11:54Z</time>
      </trkpt>
      <trkpt lat="46.54886" lon="5.84825">
        <ele>963</ele>
        <time>2022-08-03T07:11:55Z</time>
      </trkpt>
      <trkpt lat="46.54884" lon="5.84809">
        <ele>962.4</ele>
        <time>2022-08-03T07:11:57Z</time>
      </trkpt>
      <trkpt lat="46.54884" lon="5.84809">
        <ele>961.8</ele>
        <time>2022-08-03T07:11:58Z</time>
      </trkpt>
      <trkpt lat="46.54888" lon="5.84806">
        <ele>961.6</ele>
        <time>2022-08-03T07:11:59Z</time>
      </trkpt>
      <trkpt lat="46.54903" lon="5.84806">
        <ele>961</ele>
        <time>2022-08-03T07:12:01Z</time>
      </trkpt>
      <trkpt lat="46.54922" lon="5.8481">
        <ele>960.8</ele>
        <time>2022-08-03T07:12:02Z</time>
      </trkpt>
      <trkpt lat="46.54947" lon="5.84815">
        <ele>960.2</ele>
        <time>2022-08-03T07:12:05Z</time>
      </trkpt>
      <trkpt lat="46.54947" lon="5.84815">
        <ele>959.6</ele>
        <time>2022-08-03T07:12:06Z</time>
      </trkpt>
      <trkpt lat="46.54994" lon="5.84817">
        <ele>958.4</ele>
        <time>2022-08-03T07:12:09Z</time>
      </trkpt>
      <trkpt lat="46.54994" lon="5.84817">
        <ele>958.2</ele>
        <time>2022-08-03T07:12:10Z</time>
      </trkpt>
      <trkpt lat="46.55006" lon="5.84799">
        <ele>957.4</ele>
        <time>2022-08-03T07:12:11Z</time>
      </trkpt>
      <trkpt lat="46.55014" lon="5.84789">
        <ele>957</ele>
        <time>2022-08-03T07:12:12Z</time>
      </trkpt>
      <trkpt lat="46.55023" lon="5.84778">
        <ele>955.6</ele>
        <time>2022-08-03T07:12:14Z</time>
      </trkpt>
      <trkpt lat="46.55045" lon="5.84754">
        <ele>955.2</ele>
        <time>2022-08-03T07:12:15Z</time>
      </trkpt>
      <trkpt lat="46.55066" lon="5.84733">
        <ele>954.2</ele>
        <time>2022-08-03T07:12:17Z</time>
      </trkpt>
      <trkpt lat="46.55066" lon="5.84733">
        <ele>952.8</ele>
        <time>2022-08-03T07:12:18Z</time>
      </trkpt>
      <trkpt lat="46.55074" lon="5.84721">
        <ele>952.2</ele>
        <time>2022-08-03T07:12:19Z</time>
      </trkpt>
      <trkpt lat="46.5509" lon="5.84698">
        <ele>950.4</ele>
        <time>2022-08-03T07:12:20Z</time>
      </trkpt>
      <trkpt lat="46.55098" lon="5.84685">
        <ele>948.2</ele>
        <time>2022-08-03T07:12:21Z</time>
      </trkpt>
      <trkpt lat="46.55112" lon="5.84664">
        <ele>946.2</ele>
        <time>2022-08-03T07:12:23Z</time>
      </trkpt>
      <trkpt lat="46.55127" lon="5.84648">
        <ele>944.6</ele>
        <time>2022-08-03T07:12:25Z</time>
      </trkpt>
      <trkpt lat="46.55134" lon="5.84643">
        <ele>944.4</ele>
        <time>2022-08-03T07:12:26Z</time>
      </trkpt>
      <trkpt lat="46.55134" lon="5.84643">
        <ele>943.8</ele>
        <time>2022-08-03T07:12:27Z</time>
      </trkpt>
      <trkpt lat="46.55156" lon="5.8464">
        <ele>943</ele>
        <time>2022-08-03T07:12:28Z</time>
      </trkpt>
      <trkpt lat="46.5517" lon="5.84648">
        <ele>942.8</ele>
        <time>2022-08-03T07:12:29Z</time>
      </trkpt>
      <trkpt lat="46.55183" lon="5.84652">
        <ele>941.4</ele>
        <time>2022-08-03T07:12:30Z</time>
      </trkpt>
      <trkpt lat="46.55203" lon="5.84657">
        <ele>939.8</ele>
        <time>2022-08-03T07:12:32Z</time>
      </trkpt>
      <trkpt lat="46.55213" lon="5.84656">
        <ele>939.4</ele>
        <time>2022-08-03T07:12:33Z</time>
      </trkpt>
      <trkpt lat="46.55223" lon="5.84657">
        <ele>938.6</ele>
        <time>2022-08-03T07:12:34Z</time>
      </trkpt>
      <trkpt lat="46.55231" lon="5.84658">
        <ele>937.2</ele>
        <time>2022-08-03T07:12:35Z</time>
      </trkpt>
      <trkpt lat="46.55252" lon="5.84658">
        <ele>935.4</ele>
        <time>2022-08-03T07:12:37Z</time>
      </trkpt>
      <trkpt lat="46.55273" lon="5.84645">
        <ele>934.6</ele>
        <time>2022-08-03T07:12:39Z</time>
      </trkpt>
      <trkpt lat="46.55279" lon="5.84637">
        <ele>934.2</ele>
        <time>2022-08-03T07:12:40Z</time>
      </trkpt>
      <trkpt lat="46.55285" lon="5.84622">
        <ele>933.4</ele>
        <time>2022-08-03T07:12:41Z</time>
      </trkpt>
      <trkpt lat="46.55291" lon="5.84602">
        <ele>933</ele>
        <time>2022-08-03T07:12:42Z</time>
      </trkpt>
      <trkpt lat="46.55295" lon="5.84585">
        <ele>931.6</ele>
        <time>2022-08-03T07:12:43Z</time>
      </trkpt>
      <trkpt lat="46.553" lon="5.84571">
        <ele>930.6</ele>
        <time>2022-08-03T07:12:44Z</time>
      </trkpt>
      <trkpt lat="46.55309" lon="5.84545">
        <ele>929.4</ele>
        <time>2022-08-03T07:12:46Z</time>
      </trkpt>
      <trkpt lat="46.55314" lon="5.84535">
        <ele>929</ele>
        <time>2022-08-03T07:12:47Z</time>
      </trkpt>
      <trkpt lat="46.55319" lon="5.84524">
        <ele>928.2</ele>
        <time>2022-08-03T07:12:48Z</time>
      </trkpt>
      <trkpt lat="46.55326" lon="5.84514">
        <ele>926.8</ele>
        <time>2022-08-03T07:12:50Z</time>
      </trkpt>
      <trkpt lat="46.5534" lon="5.84494">
        <ele>926</ele>
        <time>2022-08-03T07:12:51Z</time>
      </trkpt>
      <trkpt lat="46.5534" lon="5.84494">
        <ele>925.6</ele>
        <time>2022-08-03T07:12:52Z</time>
      </trkpt>
      <trkpt lat="46.55355" lon="5.84484">
        <ele>924.4</ele>
        <time>2022-08-03T07:12:53Z</time>
      </trkpt>
      <trkpt lat="46.55364" lon="5.84482">
        <ele>922.6</ele>
        <time>2022-08-03T07:12:55Z</time>
      </trkpt>
      <trkpt lat="46.55396" lon="5.84488">
        <ele>921.2</ele>
        <time>2022-08-03T07:12:57Z</time>
      </trkpt>
      <trkpt lat="46.55416" lon="5.84502">
        <ele>920</ele>
        <time>2022-08-03T07:12:59Z</time>
      </trkpt>
      <trkpt lat="46.55416" lon="5.84502">
        <ele>919</ele>
        <time>2022-08-03T07:13:00Z</time>
      </trkpt>
      <trkpt lat="46.55438" lon="5.84518">
        <ele>918.6</ele>
        <time>2022-08-03T07:13:01Z</time>
      </trkpt>
      <trkpt lat="46.55438" lon="5.84518">
        <ele>917.6</ele>
        <time>2022-08-03T07:13:02Z</time>
      </trkpt>
      <trkpt lat="46.55458" lon="5.84535">
        <ele>915.8</ele>
        <time>2022-08-03T07:13:04Z</time>
      </trkpt>
      <trkpt lat="46.55469" lon="5.84543">
        <ele>915.2</ele>
        <time>2022-08-03T07:13:05Z</time>
      </trkpt>
      <trkpt lat="46.5548" lon="5.8455">
        <ele>914.8</ele>
        <time>2022-08-03T07:13:06Z</time>
      </trkpt>
      <trkpt lat="46.55505" lon="5.84564">
        <ele>914.4</ele>
        <time>2022-08-03T07:13:07Z</time>
      </trkpt>
      <trkpt lat="46.55513" lon="5.84568">
        <ele>913.6</ele>
        <time>2022-08-03T07:13:09Z</time>
      </trkpt>
      <trkpt lat="46.55524" lon="5.84572">
        <ele>913</ele>
        <time>2022-08-03T07:13:10Z</time>
      </trkpt>
      <trkpt lat="46.55543" lon="5.84572">
        <ele>912.4</ele>
        <time>2022-08-03T07:13:11Z</time>
      </trkpt>
      <trkpt lat="46.55543" lon="5.84572">
        <ele>911.2</ele>
        <time>2022-08-03T07:13:12Z</time>
      </trkpt>
      <trkpt lat="46.55554" lon="5.84556">
        <ele>911</ele>
        <time>2022-08-03T07:13:13Z</time>
      </trkpt>
      <trkpt lat="46.5555" lon="5.84548">
        <ele>910.4</ele>
        <time>2022-08-03T07:13:14Z</time>
      </trkpt>
      <trkpt lat="46.5555" lon="5.84548">
        <ele>910.2</ele>
        <time>2022-08-03T07:13:15Z</time>
      </trkpt>
      <trkpt lat="46.55539" lon="5.84533">
        <ele>909.8</ele>
        <time>2022-08-03T07:13:16Z</time>
      </trkpt>
      <trkpt lat="46.55531" lon="5.84525">
        <ele>909.4</ele>
        <time>2022-08-03T07:13:17Z</time>
      </trkpt>
      <trkpt lat="46.55531" lon="5.84525">
        <ele>909</ele>
        <time>2022-08-03T07:13:18Z</time>
      </trkpt>
      <trkpt lat="46.55515" lon="5.84507">
        <ele>908.4</ele>
        <time>2022-08-03T07:13:19Z</time>
      </trkpt>
      <trkpt lat="46.5551" lon="5.84499">
        <ele>907.8</ele>
        <time>2022-08-03T07:13:20Z</time>
      </trkpt>
      <trkpt lat="46.55501" lon="5.84487">
        <ele>906.8</ele>
        <time>2022-08-03T07:13:21Z</time>
      </trkpt>
      <trkpt lat="46.55486" lon="5.84468">
        <ele>905.2</ele>
        <time>2022-08-03T07:13:23Z</time>
      </trkpt>
      <trkpt lat="46.55471" lon="5.84449">
        <ele>904.4</ele>
        <time>2022-08-03T07:13:25Z</time>
      </trkpt>
      <trkpt lat="46.55463" lon="5.8444">
        <ele>903.8</ele>
        <time>2022-08-03T07:13:27Z</time>
      </trkpt>
      <trkpt lat="46.55447" lon="5.84423">
        <ele>903</ele>
        <time>2022-08-03T07:13:28Z</time>
      </trkpt>
      <trkpt lat="46.5544" lon="5.84416">
        <ele>902.4</ele>
        <time>2022-08-03T07:13:29Z</time>
      </trkpt>
      <trkpt lat="46.55431" lon="5.8441">
        <ele>901.2</ele>
        <time>2022-08-03T07:13:30Z</time>
      </trkpt>
      <trkpt lat="46.55416" lon="5.84397">
        <ele>900.2</ele>
        <time>2022-08-03T07:13:32Z</time>
      </trkpt>
      <trkpt lat="46.55412" lon="5.8439">
        <ele>899.8</ele>
        <time>2022-08-03T07:13:33Z</time>
      </trkpt>
      <trkpt lat="46.55407" lon="5.84377">
        <ele>899.4</ele>
        <time>2022-08-03T07:13:34Z</time>
      </trkpt>
      <trkpt lat="46.55404" lon="5.84368">
        <ele>899</ele>
        <time>2022-08-03T07:13:35Z</time>
      </trkpt>
      <trkpt lat="46.55402" lon="5.84358">
        <ele>898.6</ele>
        <time>2022-08-03T07:13:36Z</time>
      </trkpt>
      <trkpt lat="46.55399" lon="5.84344">
        <ele>898.2</ele>
        <time>2022-08-03T07:13:37Z</time>
      </trkpt>
      <trkpt lat="46.55409" lon="5.84307">
        <ele>897.8</ele>
        <time>2022-08-03T07:13:39Z</time>
      </trkpt>
      <trkpt lat="46.55419" lon="5.84285">
        <ele>896.8</ele>
        <time>2022-08-03T07:13:41Z</time>
      </trkpt>
      <trkpt lat="46.55427" lon="5.84278">
        <ele>895.6</ele>
        <time>2022-08-03T07:13:42Z</time>
      </trkpt>
      <trkpt lat="46.5544" lon="5.8427">
        <ele>895.2</ele>
        <time>2022-08-03T07:13:43Z</time>
      </trkpt>
      <trkpt lat="46.55459" lon="5.84261">
        <ele>894.4</ele>
        <time>2022-08-03T07:13:45Z</time>
      </trkpt>
      <trkpt lat="46.5547" lon="5.84254">
        <ele>894</ele>
        <time>2022-08-03T07:13:46Z</time>
      </trkpt>
      <trkpt lat="46.5548" lon="5.84247">
        <ele>893.4</ele>
        <time>2022-08-03T07:13:47Z</time>
      </trkpt>
      <trkpt lat="46.55488" lon="5.84241">
        <ele>892.4</ele>
        <time>2022-08-03T07:13:48Z</time>
      </trkpt>
      <trkpt lat="46.55488" lon="5.84241">
        <ele>891.2</ele>
        <time>2022-08-03T07:13:49Z</time>
      </trkpt>
      <trkpt lat="46.55508" lon="5.84227">
        <ele>889.8</ele>
        <time>2022-08-03T07:13:51Z</time>
      </trkpt>
      <trkpt lat="46.55527" lon="5.84213">
        <ele>889.6</ele>
        <time>2022-08-03T07:13:52Z</time>
      </trkpt>
      <trkpt lat="46.55548" lon="5.84197">
        <ele>888.6</ele>
        <time>2022-08-03T07:13:54Z</time>
      </trkpt>
      <trkpt lat="46.55575" lon="5.84174">
        <ele>886.8</ele>
        <time>2022-08-03T07:13:57Z</time>
      </trkpt>
      <trkpt lat="46.55585" lon="5.84169">
        <ele>885.4</ele>
        <time>2022-08-03T07:13:58Z</time>
      </trkpt>
      <trkpt lat="46.55594" lon="5.84164">
        <ele>885.4</ele>
        <time>2022-08-03T07:13:59Z</time>
      </trkpt>
      <trkpt lat="46.55604" lon="5.84161">
        <ele>885</ele>
        <time>2022-08-03T07:14:00Z</time>
      </trkpt>
      <trkpt lat="46.55604" lon="5.84161">
        <ele>884.4</ele>
        <time>2022-08-03T07:14:01Z</time>
      </trkpt>
      <trkpt lat="46.55632" lon="5.84154">
        <ele>883</ele>
        <time>2022-08-03T07:14:03Z</time>
      </trkpt>
      <trkpt lat="46.55649" lon="5.84151">
        <ele>881.6</ele>
        <time>2022-08-03T07:14:05Z</time>
      </trkpt>
      <trkpt lat="46.55663" lon="5.84152">
        <ele>880.4</ele>
        <time>2022-08-03T07:14:07Z</time>
      </trkpt>
      <trkpt lat="46.55681" lon="5.84161">
        <ele>879.4</ele>
        <time>2022-08-03T07:14:09Z</time>
      </trkpt>
      <trkpt lat="46.55681" lon="5.84161">
        <ele>879</ele>
        <time>2022-08-03T07:14:10Z</time>
      </trkpt>
      <trkpt lat="46.55704" lon="5.84175">
        <ele>877.8</ele>
        <time>2022-08-03T07:14:11Z</time>
      </trkpt>
      <trkpt lat="46.55712" lon="5.8418">
        <ele>875.4</ele>
        <time>2022-08-03T07:14:12Z</time>
      </trkpt>
      <trkpt lat="46.55734" lon="5.84195">
        <ele>873.4</ele>
        <time>2022-08-03T07:14:14Z</time>
      </trkpt>
      <trkpt lat="46.55747" lon="5.84201">
        <ele>872.6</ele>
        <time>2022-08-03T07:14:15Z</time>
      </trkpt>
      <trkpt lat="46.55758" lon="5.84206">
        <ele>871.2</ele>
        <time>2022-08-03T07:14:16Z</time>
      </trkpt>
      <trkpt lat="46.5577" lon="5.84211">
        <ele>870.8</ele>
        <time>2022-08-03T07:14:17Z</time>
      </trkpt>
      <trkpt lat="46.5577" lon="5.84211">
        <ele>870</ele>
        <time>2022-08-03T07:14:18Z</time>
      </trkpt>
      <trkpt lat="46.55806" lon="5.84225">
        <ele>868.4</ele>
        <time>2022-08-03T07:14:20Z</time>
      </trkpt>
      <trkpt lat="46.55806" lon="5.84225">
        <ele>866.4</ele>
        <time>2022-08-03T07:14:21Z</time>
      </trkpt>
      <trkpt lat="46.55839" lon="5.84245">
        <ele>865</ele>
        <time>2022-08-03T07:14:23Z</time>
      </trkpt>
      <trkpt lat="46.55857" lon="5.8426">
        <ele>863.6</ele>
        <time>2022-08-03T07:14:25Z</time>
      </trkpt>
      <trkpt lat="46.55865" lon="5.8427">
        <ele>862.6</ele>
        <time>2022-08-03T07:14:26Z</time>
      </trkpt>
      <trkpt lat="46.55872" lon="5.8428">
        <ele>862.4</ele>
        <time>2022-08-03T07:14:27Z</time>
      </trkpt>
      <trkpt lat="46.55878" lon="5.84292">
        <ele>861</ele>
        <time>2022-08-03T07:14:28Z</time>
      </trkpt>
      <trkpt lat="46.55887" lon="5.84303">
        <ele>860.4</ele>
        <time>2022-08-03T07:14:29Z</time>
      </trkpt>
      <trkpt lat="46.55895" lon="5.84311">
        <ele>859</ele>
        <time>2022-08-03T07:14:30Z</time>
      </trkpt>
      <trkpt lat="46.55908" lon="5.84315">
        <ele>858.4</ele>
        <time>2022-08-03T07:14:31Z</time>
      </trkpt>
      <trkpt lat="46.5592" lon="5.84318">
        <ele>857.4</ele>
        <time>2022-08-03T07:14:32Z</time>
      </trkpt>
      <trkpt lat="46.55932" lon="5.84322">
        <ele>856.6</ele>
        <time>2022-08-03T07:14:33Z</time>
      </trkpt>
      <trkpt lat="46.55944" lon="5.84325">
        <ele>856.2</ele>
        <time>2022-08-03T07:14:34Z</time>
      </trkpt>
      <trkpt lat="46.55956" lon="5.84329">
        <ele>854.6</ele>
        <time>2022-08-03T07:14:35Z</time>
      </trkpt>
      <trkpt lat="46.55978" lon="5.84334">
        <ele>852.6</ele>
        <time>2022-08-03T07:14:37Z</time>
      </trkpt>
      <trkpt lat="46.56005" lon="5.84333">
        <ele>850.8</ele>
        <time>2022-08-03T07:14:39Z</time>
      </trkpt>
      <trkpt lat="46.56019" lon="5.84331">
        <ele>850.4</ele>
        <time>2022-08-03T07:14:40Z</time>
      </trkpt>
      <trkpt lat="46.56019" lon="5.84331">
        <ele>849.2</ele>
        <time>2022-08-03T07:14:41Z</time>
      </trkpt>
      <trkpt lat="46.56047" lon="5.84325">
        <ele>848.4</ele>
        <time>2022-08-03T07:14:42Z</time>
      </trkpt>
      <trkpt lat="46.5606" lon="5.84321">
        <ele>848</ele>
        <time>2022-08-03T07:14:43Z</time>
      </trkpt>
      <trkpt lat="46.56072" lon="5.84315">
        <ele>846.8</ele>
        <time>2022-08-03T07:14:44Z</time>
      </trkpt>
      <trkpt lat="46.56081" lon="5.84312">
        <ele>846.2</ele>
        <time>2022-08-03T07:14:45Z</time>
      </trkpt>
      <trkpt lat="46.56096" lon="5.84306">
        <ele>845.6</ele>
        <time>2022-08-03T07:14:46Z</time>
      </trkpt>
      <trkpt lat="46.56104" lon="5.84297">
        <ele>845</ele>
        <time>2022-08-03T07:14:47Z</time>
      </trkpt>
      <trkpt lat="46.56104" lon="5.84297">
        <ele>843.8</ele>
        <time>2022-08-03T07:14:48Z</time>
      </trkpt>
      <trkpt lat="46.56124" lon="5.84283">
        <ele>842.8</ele>
        <time>2022-08-03T07:14:49Z</time>
      </trkpt>
      <trkpt lat="46.56138" lon="5.8427">
        <ele>840.6</ele>
        <time>2022-08-03T07:14:51Z</time>
      </trkpt>
      <trkpt lat="46.56152" lon="5.84248">
        <ele>839.6</ele>
        <time>2022-08-03T07:14:53Z</time>
      </trkpt>
      <trkpt lat="46.56155" lon="5.84237">
        <ele>839.4</ele>
        <time>2022-08-03T07:14:54Z</time>
      </trkpt>
      <trkpt lat="46.56156" lon="5.84215">
        <ele>838.8</ele>
        <time>2022-08-03T07:14:56Z</time>
      </trkpt>
      <trkpt lat="46.56154" lon="5.84205">
        <ele>838.4</ele>
        <time>2022-08-03T07:14:57Z</time>
      </trkpt>
      <trkpt lat="46.56149" lon="5.84196">
        <ele>838</ele>
        <time>2022-08-03T07:14:58Z</time>
      </trkpt>
      <trkpt lat="46.56127" lon="5.84172">
        <ele>837</ele>
        <time>2022-08-03T07:15:00Z</time>
      </trkpt>
      <trkpt lat="46.56118" lon="5.84163">
        <ele>836.8</ele>
        <time>2022-08-03T07:15:01Z</time>
      </trkpt>
      <trkpt lat="46.56096" lon="5.84131">
        <ele>835.8</ele>
        <time>2022-08-03T07:15:05Z</time>
      </trkpt>
      <trkpt lat="46.56051" lon="5.84085">
        <ele>834.8</ele>
        <time>2022-08-03T07:15:10Z</time>
      </trkpt>
      <trkpt lat="46.56043" lon="5.84077">
        <ele>834.6</ele>
        <time>2022-08-03T07:15:11Z</time>
      </trkpt>
      <trkpt lat="46.5602" lon="5.84054">
        <ele>833.4</ele>
        <time>2022-08-03T07:15:14Z</time>
      </trkpt>
      <trkpt lat="46.56" lon="5.84031">
        <ele>832.8</ele>
        <time>2022-08-03T07:15:17Z</time>
      </trkpt>
      <trkpt lat="46.55978" lon="5.84006">
        <ele>832.2</ele>
        <time>2022-08-03T07:15:20Z</time>
      </trkpt>
      <trkpt lat="46.55963" lon="5.83992">
        <ele>831.2</ele>
        <time>2022-08-03T07:15:22Z</time>
      </trkpt>
      <trkpt lat="46.55947" lon="5.83979">
        <ele>830.4</ele>
        <time>2022-08-03T07:15:24Z</time>
      </trkpt>
      <trkpt lat="46.55938" lon="5.83975">
        <ele>829.8</ele>
        <time>2022-08-03T07:15:25Z</time>
      </trkpt>
      <trkpt lat="46.55928" lon="5.83972">
        <ele>829.4</ele>
        <time>2022-08-03T07:15:26Z</time>
      </trkpt>
      <trkpt lat="46.55889" lon="5.83971">
        <ele>828.6</ele>
        <time>2022-08-03T07:15:30Z</time>
      </trkpt>
      <trkpt lat="46.55842" lon="5.83978">
        <ele>827.2</ele>
        <time>2022-08-03T07:15:35Z</time>
      </trkpt>
      <trkpt lat="46.55833" lon="5.83979">
        <ele>826.8</ele>
        <time>2022-08-03T07:15:36Z</time>
      </trkpt>
      <trkpt lat="46.55824" lon="5.83979">
        <ele>826</ele>
        <time>2022-08-03T07:15:37Z</time>
      </trkpt>
      <trkpt lat="46.55795" lon="5.83979">
        <ele>825</ele>
        <time>2022-08-03T07:15:41Z</time>
      </trkpt>
      <trkpt lat="46.55776" lon="5.83979">
        <ele>824.6</ele>
        <time>2022-08-03T07:15:42Z</time>
      </trkpt>
      <trkpt lat="46.5574" lon="5.83968">
        <ele>823.8</ele>
        <time>2022-08-03T07:15:46Z</time>
      </trkpt>
      <trkpt lat="46.55732" lon="5.83963">
        <ele>823.6</ele>
        <time>2022-08-03T07:15:47Z</time>
      </trkpt>
      <trkpt lat="46.55717" lon="5.83948">
        <ele>823.4</ele>
        <time>2022-08-03T07:15:49Z</time>
      </trkpt>
      <trkpt lat="46.55703" lon="5.83926">
        <ele>823</ele>
        <time>2022-08-03T07:15:51Z</time>
      </trkpt>
      <trkpt lat="46.55695" lon="5.83898">
        <ele>822.6</ele>
        <time>2022-08-03T07:15:53Z</time>
      </trkpt>
      <trkpt lat="46.55695" lon="5.83883">
        <ele>822.4</ele>
        <time>2022-08-03T07:15:54Z</time>
      </trkpt>
      <trkpt lat="46.55697" lon="5.83869">
        <ele>822.4</ele>
        <time>2022-08-03T07:15:55Z</time>
      </trkpt>
      <trkpt lat="46.55705" lon="5.83843">
        <ele>821.4</ele>
        <time>2022-08-03T07:15:57Z</time>
      </trkpt>
      <trkpt lat="46.55723" lon="5.83813">
        <ele>820.6</ele>
        <time>2022-08-03T07:16:00Z</time>
      </trkpt>
      <trkpt lat="46.55731" lon="5.83805">
        <ele>820.4</ele>
        <time>2022-08-03T07:16:01Z</time>
      </trkpt>
      <trkpt lat="46.55762" lon="5.83775">
        <ele>819.2</ele>
        <time>2022-08-03T07:16:05Z</time>
      </trkpt>
      <trkpt lat="46.5579" lon="5.83743">
        <ele>818</ele>
        <time>2022-08-03T07:16:09Z</time>
      </trkpt>
      <trkpt lat="46.55797" lon="5.83736">
        <ele>817.6</ele>
        <time>2022-08-03T07:16:10Z</time>
      </trkpt>
      <trkpt lat="46.55835" lon="5.83701">
        <ele>816.8</ele>
        <time>2022-08-03T07:16:16Z</time>
      </trkpt>
      <trkpt lat="46.55848" lon="5.83689">
        <ele>815.6</ele>
        <time>2022-08-03T07:16:17Z</time>
      </trkpt>
      <trkpt lat="46.55865" lon="5.83677">
        <ele>814.8</ele>
        <time>2022-08-03T07:16:19Z</time>
      </trkpt>
      <trkpt lat="46.55874" lon="5.83674">
        <ele>814.4</ele>
        <time>2022-08-03T07:16:20Z</time>
      </trkpt>
      <trkpt lat="46.55885" lon="5.83676">
        <ele>814</ele>
        <time>2022-08-03T07:16:21Z</time>
      </trkpt>
      <trkpt lat="46.55893" lon="5.83677">
        <ele>813.8</ele>
        <time>2022-08-03T07:16:22Z</time>
      </trkpt>
      <trkpt lat="46.55906" lon="5.83678">
        <ele>813.2</ele>
        <time>2022-08-03T07:16:23Z</time>
      </trkpt>
      <trkpt lat="46.55935" lon="5.83682">
        <ele>812.4</ele>
        <time>2022-08-03T07:16:26Z</time>
      </trkpt>
      <trkpt lat="46.55946" lon="5.83684">
        <ele>812.4</ele>
        <time>2022-08-03T07:16:27Z</time>
      </trkpt>
      <trkpt lat="46.55956" lon="5.83685">
        <ele>811.6</ele>
        <time>2022-08-03T07:16:28Z</time>
      </trkpt>
      <trkpt lat="46.55966" lon="5.83685">
        <ele>811.4</ele>
        <time>2022-08-03T07:16:29Z</time>
      </trkpt>
      <trkpt lat="46.55998" lon="5.83678">
        <ele>809.8</ele>
        <time>2022-08-03T07:16:32Z</time>
      </trkpt>
      <trkpt lat="46.5601" lon="5.83672">
        <ele>809.2</ele>
        <time>2022-08-03T07:16:33Z</time>
      </trkpt>
      <trkpt lat="46.5602" lon="5.83665">
        <ele>809</ele>
        <time>2022-08-03T07:16:34Z</time>
      </trkpt>
      <trkpt lat="46.5603" lon="5.83657">
        <ele>808.6</ele>
        <time>2022-08-03T07:16:35Z</time>
      </trkpt>
      <trkpt lat="46.56057" lon="5.83634">
        <ele>807.8</ele>
        <time>2022-08-03T07:16:38Z</time>
      </trkpt>
      <trkpt lat="46.56074" lon="5.83619">
        <ele>807.2</ele>
        <time>2022-08-03T07:16:40Z</time>
      </trkpt>
      <trkpt lat="46.56094" lon="5.83613">
        <ele>806.4</ele>
        <time>2022-08-03T07:16:42Z</time>
      </trkpt>
      <trkpt lat="46.56104" lon="5.83615">
        <ele>806.2</ele>
        <time>2022-08-03T07:16:43Z</time>
      </trkpt>
      <trkpt lat="46.56113" lon="5.83619">
        <ele>805.8</ele>
        <time>2022-08-03T07:16:44Z</time>
      </trkpt>
      <trkpt lat="46.56123" lon="5.83623">
        <ele>805.4</ele>
        <time>2022-08-03T07:16:45Z</time>
      </trkpt>
      <trkpt lat="46.56133" lon="5.83627">
        <ele>805</ele>
        <time>2022-08-03T07:16:46Z</time>
      </trkpt>
      <trkpt lat="46.56163" lon="5.83643">
        <ele>803.6</ele>
        <time>2022-08-03T07:16:49Z</time>
      </trkpt>
      <trkpt lat="46.56193" lon="5.83658">
        <ele>802.8</ele>
        <time>2022-08-03T07:16:52Z</time>
      </trkpt>
      <trkpt lat="46.56201" lon="5.8366">
        <ele>802.6</ele>
        <time>2022-08-03T07:16:53Z</time>
      </trkpt>
      <trkpt lat="46.56223" lon="5.83662">
        <ele>802</ele>
        <time>2022-08-03T07:16:55Z</time>
      </trkpt>
      <trkpt lat="46.56234" lon="5.83661">
        <ele>801.6</ele>
        <time>2022-08-03T07:16:56Z</time>
      </trkpt>
      <trkpt lat="46.56252" lon="5.83653">
        <ele>800.4</ele>
        <time>2022-08-03T07:16:58Z</time>
      </trkpt>
      <trkpt lat="46.56284" lon="5.83637">
        <ele>799.2</ele>
        <time>2022-08-03T07:17:01Z</time>
      </trkpt>
      <trkpt lat="46.56332" lon="5.83614">
        <ele>798</ele>
        <time>2022-08-03T07:17:06Z</time>
      </trkpt>
      <trkpt lat="46.5635" lon="5.83604">
        <ele>797.2</ele>
        <time>2022-08-03T07:17:08Z</time>
      </trkpt>
      <trkpt lat="46.56362" lon="5.83598">
        <ele>796.8</ele>
        <time>2022-08-03T07:17:09Z</time>
      </trkpt>
      <trkpt lat="46.5639" lon="5.8358">
        <ele>795.4</ele>
        <time>2022-08-03T07:17:12Z</time>
      </trkpt>
      <trkpt lat="46.56422" lon="5.8356">
        <ele>794.4</ele>
        <time>2022-08-03T07:17:15Z</time>
      </trkpt>
      <trkpt lat="46.56461" lon="5.83531">
        <ele>792.8</ele>
        <time>2022-08-03T07:17:19Z</time>
      </trkpt>
      <trkpt lat="46.5648" lon="5.83514">
        <ele>791.6</ele>
        <time>2022-08-03T07:17:21Z</time>
      </trkpt>
      <trkpt lat="46.56487" lon="5.83507">
        <ele>791.2</ele>
        <time>2022-08-03T07:17:22Z</time>
      </trkpt>
      <trkpt lat="46.56506" lon="5.83485">
        <ele>789.6</ele>
        <time>2022-08-03T07:17:24Z</time>
      </trkpt>
      <trkpt lat="46.56532" lon="5.83454">
        <ele>788.2</ele>
        <time>2022-08-03T07:17:27Z</time>
      </trkpt>
      <trkpt lat="46.5654" lon="5.83443">
        <ele>787.8</ele>
        <time>2022-08-03T07:17:28Z</time>
      </trkpt>
      <trkpt lat="46.56566" lon="5.83417">
        <ele>787.2</ele>
        <time>2022-08-03T07:17:31Z</time>
      </trkpt>
      <trkpt lat="46.56578" lon="5.83407">
        <ele>786.2</ele>
        <time>2022-08-03T07:17:33Z</time>
      </trkpt>
      <trkpt lat="46.56597" lon="5.83392">
        <ele>785.6</ele>
        <time>2022-08-03T07:17:34Z</time>
      </trkpt>
      <trkpt lat="46.56615" lon="5.83376">
        <ele>784.6</ele>
        <time>2022-08-03T07:17:36Z</time>
      </trkpt>
      <trkpt lat="46.56643" lon="5.83354">
        <ele>783.4</ele>
        <time>2022-08-03T07:17:39Z</time>
      </trkpt>
      <trkpt lat="46.56643" lon="5.83354">
        <ele>783</ele>
        <time>2022-08-03T07:17:40Z</time>
      </trkpt>
      <trkpt lat="46.56688" lon="5.83318">
        <ele>782.2</ele>
        <time>2022-08-03T07:17:44Z</time>
      </trkpt>
      <trkpt lat="46.56707" lon="5.83306">
        <ele>781.6</ele>
        <time>2022-08-03T07:17:47Z</time>
      </trkpt>
      <trkpt lat="46.56734" lon="5.8329">
        <ele>781</ele>
        <time>2022-08-03T07:17:49Z</time>
      </trkpt>
      <trkpt lat="46.56753" lon="5.83281">
        <ele>780.4</ele>
        <time>2022-08-03T07:17:52Z</time>
      </trkpt>
      <trkpt lat="46.56772" lon="5.83275">
        <ele>780</ele>
        <time>2022-08-03T07:17:53Z</time>
      </trkpt>
      <trkpt lat="46.56801" lon="5.83269">
        <ele>778.8</ele>
        <time>2022-08-03T07:17:56Z</time>
      </trkpt>
      <trkpt lat="46.56809" lon="5.83268">
        <ele>778.6</ele>
        <time>2022-08-03T07:17:57Z</time>
      </trkpt>
      <trkpt lat="46.56846" lon="5.83261">
        <ele>777.4</ele>
        <time>2022-08-03T07:18:01Z</time>
      </trkpt>
      <trkpt lat="46.56875" lon="5.83256">
        <ele>776.2</ele>
        <time>2022-08-03T07:18:04Z</time>
      </trkpt>
      <trkpt lat="46.56885" lon="5.83253">
        <ele>775.6</ele>
        <time>2022-08-03T07:18:05Z</time>
      </trkpt>
      <trkpt lat="46.56912" lon="5.83238">
        <ele>774.8</ele>
        <time>2022-08-03T07:18:08Z</time>
      </trkpt>
      <trkpt lat="46.56921" lon="5.83233">
        <ele>774.4</ele>
        <time>2022-08-03T07:18:09Z</time>
      </trkpt>
      <trkpt lat="46.56939" lon="5.83224">
        <ele>773.8</ele>
        <time>2022-08-03T07:18:11Z</time>
      </trkpt>
      <trkpt lat="46.56965" lon="5.83213">
        <ele>772.4</ele>
        <time>2022-08-03T07:18:14Z</time>
      </trkpt>
      <trkpt lat="46.56974" lon="5.83209">
        <ele>771.8</ele>
        <time>2022-08-03T07:18:15Z</time>
      </trkpt>
      <trkpt lat="46.56982" lon="5.83202">
        <ele>770.8</ele>
        <time>2022-08-03T07:18:16Z</time>
      </trkpt>
      <trkpt lat="46.56996" lon="5.83187">
        <ele>769.8</ele>
        <time>2022-08-03T07:18:18Z</time>
      </trkpt>
      <trkpt lat="46.57019" lon="5.83156">
        <ele>768.2</ele>
        <time>2022-08-03T07:18:21Z</time>
      </trkpt>
      <trkpt lat="46.57026" lon="5.83145">
        <ele>767.4</ele>
        <time>2022-08-03T07:18:22Z</time>
      </trkpt>
      <trkpt lat="46.57032" lon="5.83135">
        <ele>766.4</ele>
        <time>2022-08-03T07:18:23Z</time>
      </trkpt>
      <trkpt lat="46.57039" lon="5.83124">
        <ele>765.4</ele>
        <time>2022-08-03T07:18:24Z</time>
      </trkpt>
      <trkpt lat="46.57046" lon="5.83117">
        <ele>764.8</ele>
        <time>2022-08-03T07:18:25Z</time>
      </trkpt>
      <trkpt lat="46.57054" lon="5.83111">
        <ele>763.8</ele>
        <time>2022-08-03T07:18:26Z</time>
      </trkpt>
      <trkpt lat="46.57071" lon="5.83107">
        <ele>762.4</ele>
        <time>2022-08-03T07:18:28Z</time>
      </trkpt>
      <trkpt lat="46.57088" lon="5.83108">
        <ele>761.2</ele>
        <time>2022-08-03T07:18:30Z</time>
      </trkpt>
      <trkpt lat="46.57096" lon="5.83107">
        <ele>760.4</ele>
        <time>2022-08-03T07:18:31Z</time>
      </trkpt>
      <trkpt lat="46.57105" lon="5.83105">
        <ele>760.2</ele>
        <time>2022-08-03T07:18:32Z</time>
      </trkpt>
      <trkpt lat="46.57113" lon="5.83101">
        <ele>759.8</ele>
        <time>2022-08-03T07:18:33Z</time>
      </trkpt>
      <trkpt lat="46.57138" lon="5.83089">
        <ele>759.2</ele>
        <time>2022-08-03T07:18:36Z</time>
      </trkpt>
      <trkpt lat="46.57146" lon="5.83084">
        <ele>758.8</ele>
        <time>2022-08-03T07:18:37Z</time>
      </trkpt>
      <trkpt lat="46.57169" lon="5.83064">
        <ele>758.4</ele>
        <time>2022-08-03T07:18:40Z</time>
      </trkpt>
      <trkpt lat="46.57176" lon="5.83055">
        <ele>758.4</ele>
        <time>2022-08-03T07:18:41Z</time>
      </trkpt>
      <trkpt lat="46.5719" lon="5.83036">
        <ele>757.8</ele>
        <time>2022-08-03T07:18:43Z</time>
      </trkpt>
      <trkpt lat="46.572" lon="5.83011">
        <ele>757.2</ele>
        <time>2022-08-03T07:18:45Z</time>
      </trkpt>
      <trkpt lat="46.57202" lon="5.82996">
        <ele>756.6</ele>
        <time>2022-08-03T07:18:46Z</time>
      </trkpt>
      <trkpt lat="46.57204" lon="5.82981">
        <ele>755</ele>
        <time>2022-08-03T07:18:48Z</time>
      </trkpt>
      <trkpt lat="46.57206" lon="5.82953">
        <ele>754.4</ele>
        <time>2022-08-03T07:18:49Z</time>
      </trkpt>
      <trkpt lat="46.57208" lon="5.82935">
        <ele>753.8</ele>
        <time>2022-08-03T07:18:50Z</time>
      </trkpt>
      <trkpt lat="46.5721" lon="5.82909">
        <ele>752</ele>
        <time>2022-08-03T07:18:52Z</time>
      </trkpt>
      <trkpt lat="46.57208" lon="5.82891">
        <ele>750.8</ele>
        <time>2022-08-03T07:18:53Z</time>
      </trkpt>
      <trkpt lat="46.57206" lon="5.82877">
        <ele>750.2</ele>
        <time>2022-08-03T07:18:54Z</time>
      </trkpt>
      <trkpt lat="46.57203" lon="5.82862">
        <ele>749.8</ele>
        <time>2022-08-03T07:18:55Z</time>
      </trkpt>
      <trkpt lat="46.57201" lon="5.8285">
        <ele>748.6</ele>
        <time>2022-08-03T07:18:56Z</time>
      </trkpt>
      <trkpt lat="46.572" lon="5.82834">
        <ele>748</ele>
        <time>2022-08-03T07:18:57Z</time>
      </trkpt>
      <trkpt lat="46.57202" lon="5.8282">
        <ele>747</ele>
        <time>2022-08-03T07:18:58Z</time>
      </trkpt>
      <trkpt lat="46.57206" lon="5.82807">
        <ele>746.4</ele>
        <time>2022-08-03T07:18:59Z</time>
      </trkpt>
      <trkpt lat="46.57206" lon="5.82807">
        <ele>746</ele>
        <time>2022-08-03T07:19:00Z</time>
      </trkpt>
      <trkpt lat="46.57217" lon="5.82782">
        <ele>745</ele>
        <time>2022-08-03T07:19:01Z</time>
      </trkpt>
      <trkpt lat="46.57221" lon="5.82768">
        <ele>744.4</ele>
        <time>2022-08-03T07:19:02Z</time>
      </trkpt>
      <trkpt lat="46.57223" lon="5.82754">
        <ele>743.6</ele>
        <time>2022-08-03T07:19:03Z</time>
      </trkpt>
      <trkpt lat="46.57224" lon="5.82741">
        <ele>743.4</ele>
        <time>2022-08-03T07:19:04Z</time>
      </trkpt>
      <trkpt lat="46.5722" lon="5.82714">
        <ele>742.2</ele>
        <time>2022-08-03T07:19:06Z</time>
      </trkpt>
      <trkpt lat="46.57214" lon="5.8268">
        <ele>740.8</ele>
        <time>2022-08-03T07:19:08Z</time>
      </trkpt>
      <trkpt lat="46.57207" lon="5.82648">
        <ele>739</ele>
        <time>2022-08-03T07:19:10Z</time>
      </trkpt>
      <trkpt lat="46.57202" lon="5.82617">
        <ele>737.2</ele>
        <time>2022-08-03T07:19:12Z</time>
      </trkpt>
      <trkpt lat="46.57202" lon="5.82585">
        <ele>736</ele>
        <time>2022-08-03T07:19:14Z</time>
      </trkpt>
      <trkpt lat="46.57203" lon="5.82568">
        <ele>735.4</ele>
        <time>2022-08-03T07:19:15Z</time>
      </trkpt>
      <trkpt lat="46.57205" lon="5.82552">
        <ele>734.6</ele>
        <time>2022-08-03T07:19:16Z</time>
      </trkpt>
      <trkpt lat="46.57207" lon="5.8252">
        <ele>733</ele>
        <time>2022-08-03T07:19:18Z</time>
      </trkpt>
      <trkpt lat="46.57207" lon="5.82506">
        <ele>732</ele>
        <time>2022-08-03T07:19:20Z</time>
      </trkpt>
      <trkpt lat="46.57204" lon="5.82469">
        <ele>731.2</ele>
        <time>2022-08-03T07:19:21Z</time>
      </trkpt>
      <trkpt lat="46.57202" lon="5.82452">
        <ele>730.8</ele>
        <time>2022-08-03T07:19:22Z</time>
      </trkpt>
      <trkpt lat="46.57198" lon="5.82419">
        <ele>729.4</ele>
        <time>2022-08-03T07:19:24Z</time>
      </trkpt>
      <trkpt lat="46.57194" lon="5.82386">
        <ele>727.8</ele>
        <time>2022-08-03T07:19:26Z</time>
      </trkpt>
      <trkpt lat="46.57187" lon="5.82339">
        <ele>726.6</ele>
        <time>2022-08-03T07:19:29Z</time>
      </trkpt>
      <trkpt lat="46.57184" lon="5.8231">
        <ele>725.6</ele>
        <time>2022-08-03T07:19:31Z</time>
      </trkpt>
      <trkpt lat="46.57179" lon="5.82275">
        <ele>724.8</ele>
        <time>2022-08-03T07:19:33Z</time>
      </trkpt>
      <trkpt lat="46.57175" lon="5.82244">
        <ele>724.4</ele>
        <time>2022-08-03T07:19:35Z</time>
      </trkpt>
      <trkpt lat="46.57168" lon="5.82184">
        <ele>723.4</ele>
        <time>2022-08-03T07:19:39Z</time>
      </trkpt>
      <trkpt lat="46.57163" lon="5.82143">
        <ele>723</ele>
        <time>2022-08-03T07:19:42Z</time>
      </trkpt>
      <trkpt lat="46.57152" lon="5.82062">
        <ele>723</ele>
        <time>2022-08-03T07:19:48Z</time>
      </trkpt>
      <trkpt lat="46.57143" lon="5.81977">
        <ele>723.6</ele>
        <time>2022-08-03T07:19:55Z</time>
      </trkpt>
      <trkpt lat="46.5714" lon="5.81892">
        <ele>723.2</ele>
        <time>2022-08-03T07:20:02Z</time>
      </trkpt>
      <trkpt lat="46.5714" lon="5.81806">
        <ele>723</ele>
        <time>2022-08-03T07:20:09Z</time>
      </trkpt>
      <trkpt lat="46.57138" lon="5.81781">
        <ele>722.4</ele>
        <time>2022-08-03T07:20:11Z</time>
      </trkpt>
      <trkpt lat="46.57126" lon="5.81725">
        <ele>721.6</ele>
        <time>2022-08-03T07:20:16Z</time>
      </trkpt>
      <trkpt lat="46.57123" lon="5.81714">
        <ele>721.4</ele>
        <time>2022-08-03T07:20:17Z</time>
      </trkpt>
      <trkpt lat="46.57101" lon="5.81651">
        <ele>721.2</ele>
        <time>2022-08-03T07:20:23Z</time>
      </trkpt>
      <trkpt lat="46.57093" lon="5.81632">
        <ele>720.8</ele>
        <time>2022-08-03T07:20:25Z</time>
      </trkpt>
      <trkpt lat="46.57083" lon="5.81612">
        <ele>720.6</ele>
        <time>2022-08-03T07:20:27Z</time>
      </trkpt>
      <trkpt lat="46.57073" lon="5.81592">
        <ele>720.2</ele>
        <time>2022-08-03T07:20:29Z</time>
      </trkpt>
      <trkpt lat="46.57057" lon="5.8156">
        <ele>719.4</ele>
        <time>2022-08-03T07:20:32Z</time>
      </trkpt>
      <trkpt lat="46.57036" lon="5.81517">
        <ele>718.4</ele>
        <time>2022-08-03T07:20:36Z</time>
      </trkpt>
      <trkpt lat="46.57031" lon="5.81506">
        <ele>718.2</ele>
        <time>2022-08-03T07:20:37Z</time>
      </trkpt>
      <trkpt lat="46.57013" lon="5.81471">
        <ele>716.8</ele>
        <time>2022-08-03T07:20:40Z</time>
      </trkpt>
      <trkpt lat="46.56993" lon="5.81437">
        <ele>715.4</ele>
        <time>2022-08-03T07:20:43Z</time>
      </trkpt>
      <trkpt lat="46.56977" lon="5.81416">
        <ele>714.2</ele>
        <time>2022-08-03T07:20:45Z</time>
      </trkpt>
      <trkpt lat="46.56963" lon="5.81394">
        <ele>712.6</ele>
        <time>2022-08-03T07:20:47Z</time>
      </trkpt>
      <trkpt lat="46.56957" lon="5.8138">
        <ele>712.2</ele>
        <time>2022-08-03T07:20:48Z</time>
      </trkpt>
      <trkpt lat="46.56953" lon="5.81365">
        <ele>711.2</ele>
        <time>2022-08-03T07:20:49Z</time>
      </trkpt>
      <trkpt lat="46.56948" lon="5.81333">
        <ele>710.2</ele>
        <time>2022-08-03T07:20:51Z</time>
      </trkpt>
      <trkpt lat="46.56947" lon="5.81299">
        <ele>708.8</ele>
        <time>2022-08-03T07:20:53Z</time>
      </trkpt>
      <trkpt lat="46.56947" lon="5.81281">
        <ele>707</ele>
        <time>2022-08-03T07:20:54Z</time>
      </trkpt>
      <trkpt lat="46.56948" lon="5.81264">
        <ele>706.4</ele>
        <time>2022-08-03T07:20:55Z</time>
      </trkpt>
      <trkpt lat="46.5695" lon="5.81247">
        <ele>705.2</ele>
        <time>2022-08-03T07:20:56Z</time>
      </trkpt>
      <trkpt lat="46.56955" lon="5.81214">
        <ele>704.2</ele>
        <time>2022-08-03T07:20:58Z</time>
      </trkpt>
      <trkpt lat="46.56959" lon="5.81198">
        <ele>703.2</ele>
        <time>2022-08-03T07:20:59Z</time>
      </trkpt>
      <trkpt lat="46.56965" lon="5.81182">
        <ele>702.8</ele>
        <time>2022-08-03T07:21:00Z</time>
      </trkpt>
      <trkpt lat="46.56981" lon="5.81153">
        <ele>701.4</ele>
        <time>2022-08-03T07:21:02Z</time>
      </trkpt>
      <trkpt lat="46.5699" lon="5.8114">
        <ele>700</ele>
        <time>2022-08-03T07:21:03Z</time>
      </trkpt>
      <trkpt lat="46.56999" lon="5.81127">
        <ele>699</ele>
        <time>2022-08-03T07:21:04Z</time>
      </trkpt>
      <trkpt lat="46.57018" lon="5.811">
        <ele>697.4</ele>
        <time>2022-08-03T07:21:06Z</time>
      </trkpt>
      <trkpt lat="46.57036" lon="5.81071">
        <ele>694.6</ele>
        <time>2022-08-03T07:21:08Z</time>
      </trkpt>
      <trkpt lat="46.57055" lon="5.81043">
        <ele>693.2</ele>
        <time>2022-08-03T07:21:10Z</time>
      </trkpt>
      <trkpt lat="46.57073" lon="5.81014">
        <ele>691.4</ele>
        <time>2022-08-03T07:21:12Z</time>
      </trkpt>
      <trkpt lat="46.57073" lon="5.81014">
        <ele>690</ele>
        <time>2022-08-03T07:21:13Z</time>
      </trkpt>
      <trkpt lat="46.57097" lon="5.80968">
        <ele>688.2</ele>
        <time>2022-08-03T07:21:15Z</time>
      </trkpt>
      <trkpt lat="46.57116" lon="5.80941">
        <ele>686.2</ele>
        <time>2022-08-03T07:21:17Z</time>
      </trkpt>
      <trkpt lat="46.57137" lon="5.80918">
        <ele>684.6</ele>
        <time>2022-08-03T07:21:19Z</time>
      </trkpt>
      <trkpt lat="46.57165" lon="5.80882">
        <ele>682.6</ele>
        <time>2022-08-03T07:21:22Z</time>
      </trkpt>
      <trkpt lat="46.57181" lon="5.80853">
        <ele>681.2</ele>
        <time>2022-08-03T07:21:24Z</time>
      </trkpt>
      <trkpt lat="46.57196" lon="5.80822">
        <ele>680.2</ele>
        <time>2022-08-03T07:21:26Z</time>
      </trkpt>
      <trkpt lat="46.57219" lon="5.80778">
        <ele>678.6</ele>
        <time>2022-08-03T07:21:29Z</time>
      </trkpt>
      <trkpt lat="46.57234" lon="5.80749">
        <ele>677.6</ele>
        <time>2022-08-03T07:21:31Z</time>
      </trkpt>
      <trkpt lat="46.57242" lon="5.80734">
        <ele>677.4</ele>
        <time>2022-08-03T07:21:32Z</time>
      </trkpt>
      <trkpt lat="46.57256" lon="5.80703">
        <ele>676</ele>
        <time>2022-08-03T07:21:34Z</time>
      </trkpt>
      <trkpt lat="46.57264" lon="5.80689">
        <ele>675.6</ele>
        <time>2022-08-03T07:21:35Z</time>
      </trkpt>
      <trkpt lat="46.57273" lon="5.80676">
        <ele>674.2</ele>
        <time>2022-08-03T07:21:36Z</time>
      </trkpt>
      <trkpt lat="46.57283" lon="5.80663">
        <ele>673.6</ele>
        <time>2022-08-03T07:21:37Z</time>
      </trkpt>
      <trkpt lat="46.57293" lon="5.80652">
        <ele>672.6</ele>
        <time>2022-08-03T07:21:38Z</time>
      </trkpt>
      <trkpt lat="46.57312" lon="5.8063">
        <ele>671.4</ele>
        <time>2022-08-03T07:21:40Z</time>
      </trkpt>
      <trkpt lat="46.57322" lon="5.80618">
        <ele>670</ele>
        <time>2022-08-03T07:21:41Z</time>
      </trkpt>
      <trkpt lat="46.57331" lon="5.80606">
        <ele>669.2</ele>
        <time>2022-08-03T07:21:42Z</time>
      </trkpt>
      <trkpt lat="46.57339" lon="5.80593">
        <ele>668</ele>
        <time>2022-08-03T07:21:43Z</time>
      </trkpt>
      <trkpt lat="46.57351" lon="5.80562">
        <ele>667.2</ele>
        <time>2022-08-03T07:21:45Z</time>
      </trkpt>
      <trkpt lat="46.57355" lon="5.80545">
        <ele>666.8</ele>
        <time>2022-08-03T07:21:46Z</time>
      </trkpt>
      <trkpt lat="46.5736" lon="5.8051">
        <ele>665.8</ele>
        <time>2022-08-03T07:21:48Z</time>
      </trkpt>
      <trkpt lat="46.57362" lon="5.80492">
        <ele>665.6</ele>
        <time>2022-08-03T07:21:49Z</time>
      </trkpt>
      <trkpt lat="46.57363" lon="5.80474">
        <ele>664.4</ele>
        <time>2022-08-03T07:21:50Z</time>
      </trkpt>
      <trkpt lat="46.57367" lon="5.80438">
        <ele>662.6</ele>
        <time>2022-08-03T07:21:52Z</time>
      </trkpt>
      <trkpt lat="46.57373" lon="5.80387">
        <ele>661</ele>
        <time>2022-08-03T07:21:55Z</time>
      </trkpt>
      <trkpt lat="46.57377" lon="5.80353">
        <ele>659.6</ele>
        <time>2022-08-03T07:21:57Z</time>
      </trkpt>
      <trkpt lat="46.57384" lon="5.80285">
        <ele>658.4</ele>
        <time>2022-08-03T07:22:01Z</time>
      </trkpt>
      <trkpt lat="46.57385" lon="5.80269">
        <ele>657.4</ele>
        <time>2022-08-03T07:22:02Z</time>
      </trkpt>
      <trkpt lat="46.57387" lon="5.80255">
        <ele>656.4</ele>
        <time>2022-08-03T07:22:03Z</time>
      </trkpt>
      <trkpt lat="46.5739" lon="5.80241">
        <ele>655.4</ele>
        <time>2022-08-03T07:22:04Z</time>
      </trkpt>
      <trkpt lat="46.57394" lon="5.80229">
        <ele>654.8</ele>
        <time>2022-08-03T07:22:05Z</time>
      </trkpt>
      <trkpt lat="46.574" lon="5.80218">
        <ele>654.2</ele>
        <time>2022-08-03T07:22:06Z</time>
      </trkpt>
      <trkpt lat="46.57407" lon="5.8021">
        <ele>654</ele>
        <time>2022-08-03T07:22:07Z</time>
      </trkpt>
      <trkpt lat="46.5742" lon="5.80194">
        <ele>652.8</ele>
        <time>2022-08-03T07:22:09Z</time>
      </trkpt>
      <trkpt lat="46.57434" lon="5.80182">
        <ele>652</ele>
        <time>2022-08-03T07:22:11Z</time>
      </trkpt>
      <trkpt lat="46.57441" lon="5.80175">
        <ele>651.8</ele>
        <time>2022-08-03T07:22:12Z</time>
      </trkpt>
      <trkpt lat="46.57475" lon="5.80144">
        <ele>650.8</ele>
        <time>2022-08-03T07:22:17Z</time>
      </trkpt>
      <trkpt lat="46.57491" lon="5.80138">
        <ele>650.4</ele>
        <time>2022-08-03T07:22:19Z</time>
      </trkpt>
      <trkpt lat="46.57508" lon="5.80134">
        <ele>650.4</ele>
        <time>2022-08-03T07:22:21Z</time>
      </trkpt>
      <trkpt lat="46.57524" lon="5.80121">
        <ele>650.2</ele>
        <time>2022-08-03T07:22:23Z</time>
      </trkpt>
      <trkpt lat="46.5753" lon="5.80111">
        <ele>650</ele>
        <time>2022-08-03T07:22:24Z</time>
      </trkpt>
      <trkpt lat="46.57536" lon="5.801">
        <ele>649.4</ele>
        <time>2022-08-03T07:22:25Z</time>
      </trkpt>
      <trkpt lat="46.57556" lon="5.80066">
        <ele>648.8</ele>
        <time>2022-08-03T07:22:28Z</time>
      </trkpt>
      <trkpt lat="46.57564" lon="5.80055">
        <ele>648.6</ele>
        <time>2022-08-03T07:22:29Z</time>
      </trkpt>
      <trkpt lat="46.57581" lon="5.80036">
        <ele>647.6</ele>
        <time>2022-08-03T07:22:31Z</time>
      </trkpt>
      <trkpt lat="46.5759" lon="5.80026">
        <ele>646.8</ele>
        <time>2022-08-03T07:22:32Z</time>
      </trkpt>
      <trkpt lat="46.57598" lon="5.80016">
        <ele>646.2</ele>
        <time>2022-08-03T07:22:33Z</time>
      </trkpt>
      <trkpt lat="46.57606" lon="5.80005">
        <ele>644.6</ele>
        <time>2022-08-03T07:22:34Z</time>
      </trkpt>
      <trkpt lat="46.57622" lon="5.7998">
        <ele>643.4</ele>
        <time>2022-08-03T07:22:36Z</time>
      </trkpt>
      <trkpt lat="46.57629" lon="5.79967">
        <ele>643</ele>
        <time>2022-08-03T07:22:37Z</time>
      </trkpt>
      <trkpt lat="46.57643" lon="5.7994">
        <ele>642</ele>
        <time>2022-08-03T07:22:39Z</time>
      </trkpt>
      <trkpt lat="46.57657" lon="5.79913">
        <ele>640.8</ele>
        <time>2022-08-03T07:22:41Z</time>
      </trkpt>
      <trkpt lat="46.57662" lon="5.799">
        <ele>640.4</ele>
        <time>2022-08-03T07:22:42Z</time>
      </trkpt>
      <trkpt lat="46.57665" lon="5.79887">
        <ele>639.6</ele>
        <time>2022-08-03T07:22:43Z</time>
      </trkpt>
      <trkpt lat="46.57666" lon="5.79872">
        <ele>639</ele>
        <time>2022-08-03T07:22:44Z</time>
      </trkpt>
      <trkpt lat="46.57663" lon="5.79855">
        <ele>637.2</ele>
        <time>2022-08-03T07:22:45Z</time>
      </trkpt>
      <trkpt lat="46.57661" lon="5.79837">
        <ele>635.4</ele>
        <time>2022-08-03T07:22:46Z</time>
      </trkpt>
      <trkpt lat="46.57659" lon="5.79819">
        <ele>634.8</ele>
        <time>2022-08-03T07:22:47Z</time>
      </trkpt>
      <trkpt lat="46.57659" lon="5.798">
        <ele>633.8</ele>
        <time>2022-08-03T07:22:48Z</time>
      </trkpt>
      <trkpt lat="46.57662" lon="5.79764">
        <ele>632.6</ele>
        <time>2022-08-03T07:22:50Z</time>
      </trkpt>
      <trkpt lat="46.57664" lon="5.79745">
        <ele>632.2</ele>
        <time>2022-08-03T07:22:51Z</time>
      </trkpt>
      <trkpt lat="46.57663" lon="5.79725">
        <ele>630.6</ele>
        <time>2022-08-03T07:22:52Z</time>
      </trkpt>
      <trkpt lat="46.57661" lon="5.79707">
        <ele>629</ele>
        <time>2022-08-03T07:22:53Z</time>
      </trkpt>
      <trkpt lat="46.57656" lon="5.79691">
        <ele>628.4</ele>
        <time>2022-08-03T07:22:54Z</time>
      </trkpt>
      <trkpt lat="46.57649" lon="5.79673">
        <ele>627.4</ele>
        <time>2022-08-03T07:22:55Z</time>
      </trkpt>
      <trkpt lat="46.57641" lon="5.79656">
        <ele>626.8</ele>
        <time>2022-08-03T07:22:56Z</time>
      </trkpt>
      <trkpt lat="46.57635" lon="5.79637">
        <ele>625.8</ele>
        <time>2022-08-03T07:22:57Z</time>
      </trkpt>
      <trkpt lat="46.57633" lon="5.79617">
        <ele>625.6</ele>
        <time>2022-08-03T07:22:58Z</time>
      </trkpt>
      <trkpt lat="46.57632" lon="5.79596">
        <ele>624.8</ele>
        <time>2022-08-03T07:22:59Z</time>
      </trkpt>
      <trkpt lat="46.57633" lon="5.79577">
        <ele>624</ele>
        <time>2022-08-03T07:23:00Z</time>
      </trkpt>
      <trkpt lat="46.57638" lon="5.79559">
        <ele>622.6</ele>
        <time>2022-08-03T07:23:01Z</time>
      </trkpt>
      <trkpt lat="46.57644" lon="5.79543">
        <ele>620.4</ele>
        <time>2022-08-03T07:23:02Z</time>
      </trkpt>
      <trkpt lat="46.5766" lon="5.79515">
        <ele>618</ele>
        <time>2022-08-03T07:23:04Z</time>
      </trkpt>
      <trkpt lat="46.57667" lon="5.79501">
        <ele>617.6</ele>
        <time>2022-08-03T07:23:05Z</time>
      </trkpt>
      <trkpt lat="46.57671" lon="5.79487">
        <ele>617</ele>
        <time>2022-08-03T07:23:06Z</time>
      </trkpt>
      <trkpt lat="46.57673" lon="5.79472">
        <ele>616.2</ele>
        <time>2022-08-03T07:23:07Z</time>
      </trkpt>
      <trkpt lat="46.57673" lon="5.79456">
        <ele>615.6</ele>
        <time>2022-08-03T07:23:08Z</time>
      </trkpt>
      <trkpt lat="46.57674" lon="5.7944">
        <ele>614</ele>
        <time>2022-08-03T07:23:09Z</time>
      </trkpt>
      <trkpt lat="46.57675" lon="5.79402">
        <ele>612.2</ele>
        <time>2022-08-03T07:23:11Z</time>
      </trkpt>
      <trkpt lat="46.57678" lon="5.79384">
        <ele>612</ele>
        <time>2022-08-03T07:23:12Z</time>
      </trkpt>
      <trkpt lat="46.5768" lon="5.79359">
        <ele>610.2</ele>
        <time>2022-08-03T07:23:13Z</time>
      </trkpt>
      <trkpt lat="46.57684" lon="5.79336">
        <ele>608.6</ele>
        <time>2022-08-03T07:23:14Z</time>
      </trkpt>
      <trkpt lat="46.57687" lon="5.79315">
        <ele>608.2</ele>
        <time>2022-08-03T07:23:15Z</time>
      </trkpt>
      <trkpt lat="46.57693" lon="5.79297">
        <ele>607.4</ele>
        <time>2022-08-03T07:23:16Z</time>
      </trkpt>
      <trkpt lat="46.57711" lon="5.79266">
        <ele>605.2</ele>
        <time>2022-08-03T07:23:18Z</time>
      </trkpt>
      <trkpt lat="46.57728" lon="5.79234">
        <ele>603.2</ele>
        <time>2022-08-03T07:23:20Z</time>
      </trkpt>
      <trkpt lat="46.57741" lon="5.79198">
        <ele>601.2</ele>
        <time>2022-08-03T07:23:22Z</time>
      </trkpt>
      <trkpt lat="46.57746" lon="5.79178">
        <ele>598.6</ele>
        <time>2022-08-03T07:23:23Z</time>
      </trkpt>
      <trkpt lat="46.57754" lon="5.7914">
        <ele>596.2</ele>
        <time>2022-08-03T07:23:25Z</time>
      </trkpt>
      <trkpt lat="46.57761" lon="5.79098">
        <ele>595</ele>
        <time>2022-08-03T07:23:27Z</time>
      </trkpt>
      <trkpt lat="46.57772" lon="5.79036">
        <ele>593.4</ele>
        <time>2022-08-03T07:23:30Z</time>
      </trkpt>
      <trkpt lat="46.57777" lon="5.78996">
        <ele>591</ele>
        <time>2022-08-03T07:23:32Z</time>
      </trkpt>
      <trkpt lat="46.57781" lon="5.78956">
        <ele>588</ele>
        <time>2022-08-03T07:23:34Z</time>
      </trkpt>
      <trkpt lat="46.57782" lon="5.78935">
        <ele>585.8</ele>
        <time>2022-08-03T07:23:35Z</time>
      </trkpt>
      <trkpt lat="46.57782" lon="5.78914">
        <ele>585.2</ele>
        <time>2022-08-03T07:23:36Z</time>
      </trkpt>
      <trkpt lat="46.57783" lon="5.78893">
        <ele>583.8</ele>
        <time>2022-08-03T07:23:37Z</time>
      </trkpt>
      <trkpt lat="46.57784" lon="5.78854">
        <ele>582.8</ele>
        <time>2022-08-03T07:23:39Z</time>
      </trkpt>
      <trkpt lat="46.57783" lon="5.78819">
        <ele>580.6</ele>
        <time>2022-08-03T07:23:41Z</time>
      </trkpt>
      <trkpt lat="46.57781" lon="5.78799">
        <ele>579.4</ele>
        <time>2022-08-03T07:23:42Z</time>
      </trkpt>
      <trkpt lat="46.57778" lon="5.78757">
        <ele>577.4</ele>
        <time>2022-08-03T07:23:44Z</time>
      </trkpt>
      <trkpt lat="46.57775" lon="5.7872">
        <ele>574.8</ele>
        <time>2022-08-03T07:23:46Z</time>
      </trkpt>
      <trkpt lat="46.57776" lon="5.78701">
        <ele>574.2</ele>
        <time>2022-08-03T07:23:47Z</time>
      </trkpt>
      <trkpt lat="46.57778" lon="5.78684">
        <ele>573.6</ele>
        <time>2022-08-03T07:23:48Z</time>
      </trkpt>
      <trkpt lat="46.57782" lon="5.78626">
        <ele>572.4</ele>
        <time>2022-08-03T07:23:51Z</time>
      </trkpt>
      <trkpt lat="46.57784" lon="5.78588">
        <ele>570.4</ele>
        <time>2022-08-03T07:23:53Z</time>
      </trkpt>
      <trkpt lat="46.57787" lon="5.78551">
        <ele>568.6</ele>
        <time>2022-08-03T07:23:55Z</time>
      </trkpt>
      <trkpt lat="46.57792" lon="5.78515">
        <ele>567.6</ele>
        <time>2022-08-03T07:23:57Z</time>
      </trkpt>
      <trkpt lat="46.57799" lon="5.7848">
        <ele>566.2</ele>
        <time>2022-08-03T07:23:59Z</time>
      </trkpt>
      <trkpt lat="46.57808" lon="5.78444">
        <ele>565</ele>
        <time>2022-08-03T07:24:01Z</time>
      </trkpt>
      <trkpt lat="46.57812" lon="5.78426">
        <ele>564.2</ele>
        <time>2022-08-03T07:24:02Z</time>
      </trkpt>
      <trkpt lat="46.57817" lon="5.78408">
        <ele>563.6</ele>
        <time>2022-08-03T07:24:03Z</time>
      </trkpt>
      <trkpt lat="46.57825" lon="5.78372">
        <ele>561.8</ele>
        <time>2022-08-03T07:24:05Z</time>
      </trkpt>
      <trkpt lat="46.57833" lon="5.78334">
        <ele>560.2</ele>
        <time>2022-08-03T07:24:07Z</time>
      </trkpt>
      <trkpt lat="46.5784" lon="5.78297">
        <ele>558.6</ele>
        <time>2022-08-03T07:24:09Z</time>
      </trkpt>
      <trkpt lat="46.57847" lon="5.78259">
        <ele>556.6</ele>
        <time>2022-08-03T07:24:11Z</time>
      </trkpt>
      <trkpt lat="46.5785" lon="5.7824">
        <ele>555.4</ele>
        <time>2022-08-03T07:24:12Z</time>
      </trkpt>
      <trkpt lat="46.57855" lon="5.78203">
        <ele>554</ele>
        <time>2022-08-03T07:24:14Z</time>
      </trkpt>
      <trkpt lat="46.57857" lon="5.78184">
        <ele>553.4</ele>
        <time>2022-08-03T07:24:15Z</time>
      </trkpt>
      <trkpt lat="46.57858" lon="5.78167">
        <ele>552.2</ele>
        <time>2022-08-03T07:24:16Z</time>
      </trkpt>
      <trkpt lat="46.57859" lon="5.78149">
        <ele>551.2</ele>
        <time>2022-08-03T07:24:17Z</time>
      </trkpt>
      <trkpt lat="46.57857" lon="5.78131">
        <ele>549.6</ele>
        <time>2022-08-03T07:24:18Z</time>
      </trkpt>
      <trkpt lat="46.57854" lon="5.78114">
        <ele>548.2</ele>
        <time>2022-08-03T07:24:19Z</time>
      </trkpt>
      <trkpt lat="46.57844" lon="5.78082">
        <ele>547.2</ele>
        <time>2022-08-03T07:24:21Z</time>
      </trkpt>
      <trkpt lat="46.57834" lon="5.78051">
        <ele>546</ele>
        <time>2022-08-03T07:24:23Z</time>
      </trkpt>
      <trkpt lat="46.57825" lon="5.78019">
        <ele>544.8</ele>
        <time>2022-08-03T07:24:25Z</time>
      </trkpt>
      <trkpt lat="46.57811" lon="5.77971">
        <ele>542.6</ele>
        <time>2022-08-03T07:24:28Z</time>
      </trkpt>
      <trkpt lat="46.57802" lon="5.77942">
        <ele>541.2</ele>
        <time>2022-08-03T07:24:30Z</time>
      </trkpt>
      <trkpt lat="46.57794" lon="5.77915">
        <ele>540.2</ele>
        <time>2022-08-03T07:24:32Z</time>
      </trkpt>
      <trkpt lat="46.57783" lon="5.77877">
        <ele>538.8</ele>
        <time>2022-08-03T07:24:35Z</time>
      </trkpt>
      <trkpt lat="46.57774" lon="5.7785">
        <ele>538.2</ele>
        <time>2022-08-03T07:24:37Z</time>
      </trkpt>
      <trkpt lat="46.57768" lon="5.77834">
        <ele>538</ele>
        <time>2022-08-03T07:24:38Z</time>
      </trkpt>
      <trkpt lat="46.57755" lon="5.77804">
        <ele>536.8</ele>
        <time>2022-08-03T07:24:40Z</time>
      </trkpt>
      <trkpt lat="46.5773" lon="5.7777">
        <ele>536</ele>
        <time>2022-08-03T07:24:43Z</time>
      </trkpt>
      <trkpt lat="46.57721" lon="5.7776">
        <ele>535.4</ele>
        <time>2022-08-03T07:24:44Z</time>
      </trkpt>
      <trkpt lat="46.57692" lon="5.77735">
        <ele>534.2</ele>
        <time>2022-08-03T07:24:47Z</time>
      </trkpt>
      <trkpt lat="46.57674" lon="5.77723">
        <ele>533.4</ele>
        <time>2022-08-03T07:24:49Z</time>
      </trkpt>
      <trkpt lat="46.57665" lon="5.77716">
        <ele>533.2</ele>
        <time>2022-08-03T07:24:50Z</time>
      </trkpt>
      <trkpt lat="46.57643" lon="5.77695">
        <ele>532.8</ele>
        <time>2022-08-03T07:24:53Z</time>
      </trkpt>
      <trkpt lat="46.57637" lon="5.77687">
        <ele>532.6</ele>
        <time>2022-08-03T07:24:54Z</time>
      </trkpt>
      <trkpt lat="46.57634" lon="5.77677">
        <ele>532.6</ele>
        <time>2022-08-03T07:24:55Z</time>
      </trkpt>
      <trkpt lat="46.57632" lon="5.77657">
        <ele>532.6</ele>
        <time>2022-08-03T07:24:57Z</time>
      </trkpt>
      <trkpt lat="46.57634" lon="5.77647">
        <ele>532.8</ele>
        <time>2022-08-03T07:24:59Z</time>
      </trkpt>
      <trkpt lat="46.57634" lon="5.77643">
        <ele>533</ele>
        <time>2022-08-03T07:25:00Z</time>
      </trkpt>
      <trkpt lat="46.57632" lon="5.77622">
        <ele>533.4</ele>
        <time>2022-08-03T07:25:02Z</time>
      </trkpt>
      <trkpt lat="46.5763" lon="5.77592">
        <ele>534.4</ele>
        <time>2022-08-03T07:25:05Z</time>
      </trkpt>
      <trkpt lat="46.57629" lon="5.77571">
        <ele>534.8</ele>
        <time>2022-08-03T07:25:07Z</time>
      </trkpt>
      <trkpt lat="46.57628" lon="5.77551">
        <ele>535</ele>
        <time>2022-08-03T07:25:09Z</time>
      </trkpt>
      <trkpt lat="46.57626" lon="5.77527">
        <ele>535.2</ele>
        <time>2022-08-03T07:25:11Z</time>
      </trkpt>
      <trkpt lat="46.57624" lon="5.77515">
        <ele>535.4</ele>
        <time>2022-08-03T07:25:12Z</time>
      </trkpt>
      <trkpt lat="46.57616" lon="5.77454">
        <ele>535.6</ele>
        <time>2022-08-03T07:25:17Z</time>
      </trkpt>
      <trkpt lat="46.57601" lon="5.77371">
        <ele>536</ele>
        <time>2022-08-03T07:25:24Z</time>
      </trkpt>
      <trkpt lat="46.5759" lon="5.77289">
        <ele>534.8</ele>
        <time>2022-08-03T07:25:31Z</time>
      </trkpt>
      <trkpt lat="46.57586" lon="5.77268">
        <ele>534.4</ele>
        <time>2022-08-03T07:25:33Z</time>
      </trkpt>
      <trkpt lat="46.57577" lon="5.77206">
        <ele>533.6</ele>
        <time>2022-08-03T07:25:39Z</time>
      </trkpt>
      <trkpt lat="46.57564" lon="5.77132">
        <ele>533.6</ele>
        <time>2022-08-03T07:25:46Z</time>
      </trkpt>
      <trkpt lat="46.57554" lon="5.77066">
        <ele>534</ele>
        <time>2022-08-03T07:25:53Z</time>
      </trkpt>
      <trkpt lat="46.57543" lon="5.76989">
        <ele>534.6</ele>
        <time>2022-08-03T07:26:01Z</time>
      </trkpt>
      <trkpt lat="46.57541" lon="5.7698">
        <ele>534.6</ele>
        <time>2022-08-03T07:26:02Z</time>
      </trkpt>
      <trkpt lat="46.5754" lon="5.7697">
        <ele>534.8</ele>
        <time>2022-08-03T07:26:03Z</time>
      </trkpt>
      <trkpt lat="46.57529" lon="5.76899">
        <ele>535.4</ele>
        <time>2022-08-03T07:26:11Z</time>
      </trkpt>
      <trkpt lat="46.57523" lon="5.76866">
        <ele>535.8</ele>
        <time>2022-08-03T07:26:15Z</time>
      </trkpt>
      <trkpt lat="46.57517" lon="5.76842">
        <ele>536.2</ele>
        <time>2022-08-03T07:26:18Z</time>
      </trkpt>
      <trkpt lat="46.57511" lon="5.76817">
        <ele>536.8</ele>
        <time>2022-08-03T07:26:21Z</time>
      </trkpt>
      <trkpt lat="46.57504" lon="5.76785">
        <ele>537.4</ele>
        <time>2022-08-03T07:26:25Z</time>
      </trkpt>
      <trkpt lat="46.57501" lon="5.76771">
        <ele>537.8</ele>
        <time>2022-08-03T07:26:27Z</time>
      </trkpt>
      <trkpt lat="46.57497" lon="5.76757">
        <ele>538.2</ele>
        <time>2022-08-03T07:26:29Z</time>
      </trkpt>
      <trkpt lat="46.57496" lon="5.76751">
        <ele>538.2</ele>
        <time>2022-08-03T07:26:30Z</time>
      </trkpt>
      <trkpt lat="46.57493" lon="5.76712">
        <ele>539.2</ele>
        <time>2022-08-03T07:26:35Z</time>
      </trkpt>
      <trkpt lat="46.57492" lon="5.76703">
        <ele>539.4</ele>
        <time>2022-08-03T07:26:36Z</time>
      </trkpt>
      <trkpt lat="46.57492" lon="5.76694">
        <ele>539.4</ele>
        <time>2022-08-03T07:26:37Z</time>
      </trkpt>
      <trkpt lat="46.57492" lon="5.76676">
        <ele>539.4</ele>
        <time>2022-08-03T07:26:39Z</time>
      </trkpt>
      <trkpt lat="46.57491" lon="5.76619">
        <ele>539.8</ele>
        <time>2022-08-03T07:26:45Z</time>
      </trkpt>
      <trkpt lat="46.57492" lon="5.76598">
        <ele>539.8</ele>
        <time>2022-08-03T07:26:47Z</time>
      </trkpt>
      <trkpt lat="46.57491" lon="5.76578">
        <ele>539.8</ele>
        <time>2022-08-03T07:26:49Z</time>
      </trkpt>
      <trkpt lat="46.5749" lon="5.76567">
        <ele>539.8</ele>
        <time>2022-08-03T07:26:50Z</time>
      </trkpt>
      <trkpt lat="46.57488" lon="5.76522">
        <ele>539.6</ele>
        <time>2022-08-03T07:26:54Z</time>
      </trkpt>
      <trkpt lat="46.57484" lon="5.76498">
        <ele>539.2</ele>
        <time>2022-08-03T07:26:56Z</time>
      </trkpt>
      <trkpt lat="46.57477" lon="5.76475">
        <ele>538.6</ele>
        <time>2022-08-03T07:26:58Z</time>
      </trkpt>
      <trkpt lat="46.57461" lon="5.76435">
        <ele>538</ele>
        <time>2022-08-03T07:27:02Z</time>
      </trkpt>
      <trkpt lat="46.57448" lon="5.76399">
        <ele>537.6</ele>
        <time>2022-08-03T07:27:06Z</time>
      </trkpt>
      <trkpt lat="46.57436" lon="5.76347">
        <ele>537.6</ele>
        <time>2022-08-03T07:27:11Z</time>
      </trkpt>
      <trkpt lat="46.57423" lon="5.76299">
        <ele>537.6</ele>
        <time>2022-08-03T07:27:16Z</time>
      </trkpt>
      <trkpt lat="46.5741" lon="5.76262">
        <ele>537.8</ele>
        <time>2022-08-03T07:27:20Z</time>
      </trkpt>
      <trkpt lat="46.57406" lon="5.76253">
        <ele>537.8</ele>
        <time>2022-08-03T07:27:21Z</time>
      </trkpt>
      <trkpt lat="46.57387" lon="5.76206">
        <ele>538</ele>
        <time>2022-08-03T07:27:26Z</time>
      </trkpt>
      <trkpt lat="46.57376" lon="5.76145">
        <ele>538.2</ele>
        <time>2022-08-03T07:27:32Z</time>
      </trkpt>
      <trkpt lat="46.57375" lon="5.7609">
        <ele>538.8</ele>
        <time>2022-08-03T07:27:37Z</time>
      </trkpt>
      <trkpt lat="46.57374" lon="5.76078">
        <ele>538.8</ele>
        <time>2022-08-03T07:27:38Z</time>
      </trkpt>
      <trkpt lat="46.57372" lon="5.76066">
        <ele>538.8</ele>
        <time>2022-08-03T07:27:39Z</time>
      </trkpt>
      <trkpt lat="46.57363" lon="5.76034">
        <ele>538.8</ele>
        <time>2022-08-03T07:27:42Z</time>
      </trkpt>
      <trkpt lat="46.57352" lon="5.75973">
        <ele>538.6</ele>
        <time>2022-08-03T07:27:48Z</time>
      </trkpt>
      <trkpt lat="46.5735" lon="5.75929">
        <ele>538.2</ele>
        <time>2022-08-03T07:27:52Z</time>
      </trkpt>
      <trkpt lat="46.57351" lon="5.75917">
        <ele>538.2</ele>
        <time>2022-08-03T07:27:53Z</time>
      </trkpt>
      <trkpt lat="46.57352" lon="5.75906">
        <ele>538.2</ele>
        <time>2022-08-03T07:27:54Z</time>
      </trkpt>
      <trkpt lat="46.57357" lon="5.75875">
        <ele>538</ele>
        <time>2022-08-03T07:27:57Z</time>
      </trkpt>
      <trkpt lat="46.57358" lon="5.75864">
        <ele>537.8</ele>
        <time>2022-08-03T07:27:58Z</time>
      </trkpt>
      <trkpt lat="46.57358" lon="5.75832">
        <ele>537.6</ele>
        <time>2022-08-03T07:28:01Z</time>
      </trkpt>
      <trkpt lat="46.57351" lon="5.75792">
        <ele>537.6</ele>
        <time>2022-08-03T07:28:05Z</time>
      </trkpt>
      <trkpt lat="46.57348" lon="5.75783">
        <ele>537.8</ele>
        <time>2022-08-03T07:28:06Z</time>
      </trkpt>
      <trkpt lat="46.57331" lon="5.75728">
        <ele>538</ele>
        <time>2022-08-03T07:28:12Z</time>
      </trkpt>
      <trkpt lat="46.5733" lon="5.75718">
        <ele>538.2</ele>
        <time>2022-08-03T07:28:13Z</time>
      </trkpt>
      <trkpt lat="46.57329" lon="5.757">
        <ele>538.2</ele>
        <time>2022-08-03T07:28:15Z</time>
      </trkpt>
      <trkpt lat="46.57329" lon="5.7568">
        <ele>538.4</ele>
        <time>2022-08-03T07:28:17Z</time>
      </trkpt>
      <trkpt lat="46.57336" lon="5.75609">
        <ele>539</ele>
        <time>2022-08-03T07:28:24Z</time>
      </trkpt>
      <trkpt lat="46.57336" lon="5.75599">
        <ele>539</ele>
        <time>2022-08-03T07:28:25Z</time>
      </trkpt>
      <trkpt lat="46.57333" lon="5.7556">
        <ele>539.2</ele>
        <time>2022-08-03T07:28:29Z</time>
      </trkpt>
      <trkpt lat="46.57317" lon="5.75487">
        <ele>539.2</ele>
        <time>2022-08-03T07:28:37Z</time>
      </trkpt>
      <trkpt lat="46.57315" lon="5.75458">
        <ele>539.6</ele>
        <time>2022-08-03T07:28:40Z</time>
      </trkpt>
      <trkpt lat="46.57316" lon="5.7544">
        <ele>539.6</ele>
        <time>2022-08-03T07:28:42Z</time>
      </trkpt>
      <trkpt lat="46.57325" lon="5.75406">
        <ele>539.8</ele>
        <time>2022-08-03T07:28:46Z</time>
      </trkpt>
      <trkpt lat="46.57327" lon="5.75397">
        <ele>539.8</ele>
        <time>2022-08-03T07:28:47Z</time>
      </trkpt>
      <trkpt lat="46.57328" lon="5.75389">
        <ele>540</ele>
        <time>2022-08-03T07:28:48Z</time>
      </trkpt>
      <trkpt lat="46.57328" lon="5.75371">
        <ele>540.2</ele>
        <time>2022-08-03T07:28:50Z</time>
      </trkpt>
      <trkpt lat="46.57327" lon="5.75363">
        <ele>540.2</ele>
        <time>2022-08-03T07:28:51Z</time>
      </trkpt>
      <trkpt lat="46.57322" lon="5.75329">
        <ele>540.2</ele>
        <time>2022-08-03T07:28:56Z</time>
      </trkpt>
      <trkpt lat="46.57322" lon="5.75325">
        <ele>540</ele>
        <time>2022-08-03T07:28:59Z</time>
      </trkpt>
      <trkpt lat="46.57322" lon="5.75325">
        <ele>540.2</ele>
        <time>2022-08-03T07:29:00Z</time>
      </trkpt>
      <trkpt lat="46.57324" lon="5.75318">
        <ele>540</ele>
        <time>2022-08-03T07:29:04Z</time>
      </trkpt>
      <trkpt lat="46.57331" lon="5.75311">
        <ele>540</ele>
        <time>2022-08-03T07:29:06Z</time>
      </trkpt>
      <trkpt lat="46.57356" lon="5.75283">
        <ele>539.6</ele>
        <time>2022-08-03T07:29:11Z</time>
      </trkpt>
      <trkpt lat="46.57371" lon="5.75264">
        <ele>538.8</ele>
        <time>2022-08-03T07:29:14Z</time>
      </trkpt>
      <trkpt lat="46.57393" lon="5.75238">
        <ele>538.2</ele>
        <time>2022-08-03T07:29:18Z</time>
      </trkpt>
      <trkpt lat="46.5741" lon="5.75218">
        <ele>538</ele>
        <time>2022-08-03T07:29:21Z</time>
      </trkpt>
      <trkpt lat="46.57434" lon="5.75192">
        <ele>537.2</ele>
        <time>2022-08-03T07:29:25Z</time>
      </trkpt>
      <trkpt lat="46.5744" lon="5.75185">
        <ele>537</ele>
        <time>2022-08-03T07:29:26Z</time>
      </trkpt>
      <trkpt lat="46.57458" lon="5.75165">
        <ele>536.6</ele>
        <time>2022-08-03T07:29:29Z</time>
      </trkpt>
      <trkpt lat="46.57463" lon="5.75158">
        <ele>536.4</ele>
        <time>2022-08-03T07:29:30Z</time>
      </trkpt>
      <trkpt lat="46.57479" lon="5.75137">
        <ele>535.8</ele>
        <time>2022-08-03T07:29:33Z</time>
      </trkpt>
      <trkpt lat="46.57494" lon="5.75118">
        <ele>535.4</ele>
        <time>2022-08-03T07:29:36Z</time>
      </trkpt>
      <trkpt lat="46.57507" lon="5.75101">
        <ele>534.8</ele>
        <time>2022-08-03T07:29:39Z</time>
      </trkpt>
      <trkpt lat="46.57516" lon="5.75087">
        <ele>534.8</ele>
        <time>2022-08-03T07:29:42Z</time>
      </trkpt>
      <trkpt lat="46.57522" lon="5.75077">
        <ele>534.8</ele>
        <time>2022-08-03T07:29:45Z</time>
      </trkpt>
      <trkpt lat="46.57521" lon="5.75073">
        <ele>534.6</ele>
        <time>2022-08-03T07:29:46Z</time>
      </trkpt>
      <trkpt lat="46.57515" lon="5.75065">
        <ele>534.6</ele>
        <time>2022-08-03T07:29:48Z</time>
      </trkpt>
      <trkpt lat="46.5751" lon="5.75063">
        <ele>534.4</ele>
        <time>2022-08-03T07:29:49Z</time>
      </trkpt>
      <trkpt lat="46.57497" lon="5.75056">
        <ele>534.4</ele>
        <time>2022-08-03T07:29:51Z</time>
      </trkpt>
      <trkpt lat="46.57485" lon="5.75044">
        <ele>533.6</ele>
        <time>2022-08-03T07:29:53Z</time>
      </trkpt>
      <trkpt lat="46.57479" lon="5.75036">
        <ele>533.4</ele>
        <time>2022-08-03T07:29:54Z</time>
      </trkpt>
      <trkpt lat="46.57467" lon="5.75018">
        <ele>532.6</ele>
        <time>2022-08-03T07:29:56Z</time>
      </trkpt>
      <trkpt lat="46.57462" lon="5.7501">
        <ele>532.4</ele>
        <time>2022-08-03T07:29:57Z</time>
      </trkpt>
      <trkpt lat="46.57454" lon="5.74998">
        <ele>531.4</ele>
        <time>2022-08-03T07:29:59Z</time>
      </trkpt>
      <trkpt lat="46.57447" lon="5.74987">
        <ele>530.2</ele>
        <time>2022-08-03T07:30:01Z</time>
      </trkpt>
      <trkpt lat="46.57443" lon="5.74982">
        <ele>529.4</ele>
        <time>2022-08-03T07:30:02Z</time>
      </trkpt>
      <trkpt lat="46.5744" lon="5.74977">
        <ele>528.2</ele>
        <time>2022-08-03T07:30:03Z</time>
      </trkpt>
      <trkpt lat="46.57434" lon="5.74968">
        <ele>526.8</ele>
        <time>2022-08-03T07:30:05Z</time>
      </trkpt>
      <trkpt lat="46.57431" lon="5.74963">
        <ele>526.4</ele>
        <time>2022-08-03T07:30:06Z</time>
      </trkpt>
      <trkpt lat="46.57427" lon="5.74958">
        <ele>525.8</ele>
        <time>2022-08-03T07:30:07Z</time>
      </trkpt>
      <trkpt lat="46.57424" lon="5.74952">
        <ele>525.8</ele>
        <time>2022-08-03T07:30:08Z</time>
      </trkpt>
      <trkpt lat="46.57421" lon="5.74946">
        <ele>525.4</ele>
        <time>2022-08-03T07:30:09Z</time>
      </trkpt>
      <trkpt lat="46.57417" lon="5.74936">
        <ele>524.8</ele>
        <time>2022-08-03T07:30:11Z</time>
      </trkpt>
      <trkpt lat="46.57415" lon="5.74933">
        <ele>524</ele>
        <time>2022-08-03T07:30:12Z</time>
      </trkpt>
      <trkpt lat="46.57411" lon="5.74919">
        <ele>523</ele>
        <time>2022-08-03T07:30:15Z</time>
      </trkpt>
      <trkpt lat="46.57409" lon="5.74914">
        <ele>522.6</ele>
        <time>2022-08-03T07:30:16Z</time>
      </trkpt>
      <trkpt lat="46.57409" lon="5.749">
        <ele>522.2</ele>
        <time>2022-08-03T07:30:18Z</time>
      </trkpt>
      <trkpt lat="46.5741" lon="5.74894">
        <ele>521.8</ele>
        <time>2022-08-03T07:30:19Z</time>
      </trkpt>
      <trkpt lat="46.57412" lon="5.74878">
        <ele>521.2</ele>
        <time>2022-08-03T07:30:21Z</time>
      </trkpt>
      <trkpt lat="46.57414" lon="5.7486">
        <ele>521</ele>
        <time>2022-08-03T07:30:23Z</time>
      </trkpt>
      <trkpt lat="46.57417" lon="5.74847">
        <ele>520.8</ele>
        <time>2022-08-03T07:30:25Z</time>
      </trkpt>
      <trkpt lat="46.57418" lon="5.74829">
        <ele>520.6</ele>
        <time>2022-08-03T07:30:28Z</time>
      </trkpt>
      <trkpt lat="46.57421" lon="5.74819">
        <ele>520.6</ele>
        <time>2022-08-03T07:30:31Z</time>
      </trkpt>
      <trkpt lat="46.57422" lon="5.74814">
        <ele>520.6</ele>
        <time>2022-08-03T07:30:32Z</time>
      </trkpt>
      <trkpt lat="46.57422" lon="5.74802">
        <ele>521.2</ele>
        <time>2022-08-03T07:30:34Z</time>
      </trkpt>
      <trkpt lat="46.57422" lon="5.74782">
        <ele>522</ele>
        <time>2022-08-03T07:30:37Z</time>
      </trkpt>
      <trkpt lat="46.57423" lon="5.74776">
        <ele>522</ele>
        <time>2022-08-03T07:30:38Z</time>
      </trkpt>
      <trkpt lat="46.57429" lon="5.74754">
        <ele>522.2</ele>
        <time>2022-08-03T07:30:41Z</time>
      </trkpt>
      <trkpt lat="46.57428" lon="5.7474">
        <ele>522.2</ele>
        <time>2022-08-03T07:30:43Z</time>
      </trkpt>
      <trkpt lat="46.57421" lon="5.7473">
        <ele>522.4</ele>
        <time>2022-08-03T07:30:45Z</time>
      </trkpt>
      <trkpt lat="46.57416" lon="5.74726">
        <ele>522.6</ele>
        <time>2022-08-03T07:30:46Z</time>
      </trkpt>
      <trkpt lat="46.574" lon="5.74717">
        <ele>522.8</ele>
        <time>2022-08-03T07:30:49Z</time>
      </trkpt>
      <trkpt lat="46.5739" lon="5.74708">
        <ele>522.8</ele>
        <time>2022-08-03T07:30:51Z</time>
      </trkpt>
      <trkpt lat="46.57353" lon="5.74671">
        <ele>521.8</ele>
        <time>2022-08-03T07:30:58Z</time>
      </trkpt>
      <trkpt lat="46.57342" lon="5.74661">
        <ele>521.6</ele>
        <time>2022-08-03T07:31:00Z</time>
      </trkpt>
      <trkpt lat="46.57319" lon="5.74644">
        <ele>521.6</ele>
        <time>2022-08-03T07:31:04Z</time>
      </trkpt>
      <trkpt lat="46.57263" lon="5.74611">
        <ele>522</ele>
        <time>2022-08-03T07:31:13Z</time>
      </trkpt>
      <trkpt lat="46.57257" lon="5.74607">
        <ele>522</ele>
        <time>2022-08-03T07:31:14Z</time>
      </trkpt>
      <trkpt lat="46.57203" lon="5.74587">
        <ele>522</ele>
        <time>2022-08-03T07:31:22Z</time>
      </trkpt>
      <trkpt lat="46.57144" lon="5.74568">
        <ele>522</ele>
        <time>2022-08-03T07:31:30Z</time>
      </trkpt>
      <trkpt lat="46.57085" lon="5.74546">
        <ele>521.4</ele>
        <time>2022-08-03T07:31:38Z</time>
      </trkpt>
      <trkpt lat="46.57071" lon="5.74542">
        <ele>521.2</ele>
        <time>2022-08-03T07:31:40Z</time>
      </trkpt>
      <trkpt lat="46.57015" lon="5.74523">
        <ele>521.6</ele>
        <time>2022-08-03T07:31:48Z</time>
      </trkpt>
      <trkpt lat="46.57009" lon="5.74521">
        <ele>521.6</ele>
        <time>2022-08-03T07:31:49Z</time>
      </trkpt>
      <trkpt lat="46.56954" lon="5.74503">
        <ele>522.2</ele>
        <time>2022-08-03T07:31:57Z</time>
      </trkpt>
      <trkpt lat="46.56947" lon="5.74501">
        <ele>522.2</ele>
        <time>2022-08-03T07:31:58Z</time>
      </trkpt>
      <trkpt lat="46.56911" lon="5.74489">
        <ele>522.8</ele>
        <time>2022-08-03T07:32:03Z</time>
      </trkpt>
      <trkpt lat="46.56856" lon="5.74472">
        <ele>523</ele>
        <time>2022-08-03T07:32:11Z</time>
      </trkpt>
      <trkpt lat="46.56849" lon="5.7447">
        <ele>523</ele>
        <time>2022-08-03T07:32:12Z</time>
      </trkpt>
      <trkpt lat="46.56842" lon="5.74468">
        <ele>523.2</ele>
        <time>2022-08-03T07:32:13Z</time>
      </trkpt>
      <trkpt lat="46.56828" lon="5.74463">
        <ele>523.2</ele>
        <time>2022-08-03T07:32:15Z</time>
      </trkpt>
      <trkpt lat="46.56778" lon="5.74449">
        <ele>523.8</ele>
        <time>2022-08-03T07:32:22Z</time>
      </trkpt>
      <trkpt lat="46.5672" lon="5.74437">
        <ele>524.2</ele>
        <time>2022-08-03T07:32:30Z</time>
      </trkpt>
      <trkpt lat="46.56662" lon="5.74427">
        <ele>524.4</ele>
        <time>2022-08-03T07:32:38Z</time>
      </trkpt>
      <trkpt lat="46.5661" lon="5.7442">
        <ele>524.4</ele>
        <time>2022-08-03T07:32:45Z</time>
      </trkpt>
      <trkpt lat="46.56588" lon="5.74418">
        <ele>524.6</ele>
        <time>2022-08-03T07:32:48Z</time>
      </trkpt>
      <trkpt lat="46.56544" lon="5.74411">
        <ele>525</ele>
        <time>2022-08-03T07:32:54Z</time>
      </trkpt>
      <trkpt lat="46.5649" lon="5.74403">
        <ele>525.4</ele>
        <time>2022-08-03T07:33:01Z</time>
      </trkpt>
      <trkpt lat="46.5647" lon="5.744">
        <ele>525.6</ele>
        <time>2022-08-03T07:33:04Z</time>
      </trkpt>
      <trkpt lat="46.56425" lon="5.74394">
        <ele>525.8</ele>
        <time>2022-08-03T07:33:10Z</time>
      </trkpt>
      <trkpt lat="46.56411" lon="5.74392">
        <ele>526.2</ele>
        <time>2022-08-03T07:33:12Z</time>
      </trkpt>
      <trkpt lat="46.56355" lon="5.74385">
        <ele>526.8</ele>
        <time>2022-08-03T07:33:20Z</time>
      </trkpt>
      <trkpt lat="46.56341" lon="5.74382">
        <ele>527.2</ele>
        <time>2022-08-03T07:33:22Z</time>
      </trkpt>
      <trkpt lat="46.56308" lon="5.74378">
        <ele>528</ele>
        <time>2022-08-03T07:33:27Z</time>
      </trkpt>
      <trkpt lat="46.56296" lon="5.74378">
        <ele>528.4</ele>
        <time>2022-08-03T07:33:29Z</time>
      </trkpt>
      <trkpt lat="46.56252" lon="5.74382">
        <ele>529.4</ele>
        <time>2022-08-03T07:33:36Z</time>
      </trkpt>
      <trkpt lat="46.5624" lon="5.74385">
        <ele>529.6</ele>
        <time>2022-08-03T07:33:38Z</time>
      </trkpt>
      <trkpt lat="46.56215" lon="5.74392">
        <ele>530.4</ele>
        <time>2022-08-03T07:33:42Z</time>
      </trkpt>
      <trkpt lat="46.5618" lon="5.74403">
        <ele>531.2</ele>
        <time>2022-08-03T07:33:48Z</time>
      </trkpt>
      <trkpt lat="46.5615" lon="5.74412">
        <ele>531.8</ele>
        <time>2022-08-03T07:33:53Z</time>
      </trkpt>
      <trkpt lat="46.56117" lon="5.74422">
        <ele>532.8</ele>
        <time>2022-08-03T07:33:59Z</time>
      </trkpt>
      <trkpt lat="46.56111" lon="5.74423">
        <ele>533</ele>
        <time>2022-08-03T07:34:00Z</time>
      </trkpt>
      <trkpt lat="46.56065" lon="5.74437">
        <ele>533.8</ele>
        <time>2022-08-03T07:34:08Z</time>
      </trkpt>
      <trkpt lat="46.5606" lon="5.74439">
        <ele>533.8</ele>
        <time>2022-08-03T07:34:09Z</time>
      </trkpt>
      <trkpt lat="46.56043" lon="5.74444">
        <ele>534.6</ele>
        <time>2022-08-03T07:34:12Z</time>
      </trkpt>
      <trkpt lat="46.56037" lon="5.74446">
        <ele>535.2</ele>
        <time>2022-08-03T07:34:13Z</time>
      </trkpt>
      <trkpt lat="46.55993" lon="5.74459">
        <ele>536</ele>
        <time>2022-08-03T07:34:21Z</time>
      </trkpt>
      <trkpt lat="46.55989" lon="5.7446">
        <ele>536.2</ele>
        <time>2022-08-03T07:34:22Z</time>
      </trkpt>
      <trkpt lat="46.55961" lon="5.74467">
        <ele>537.4</ele>
        <time>2022-08-03T07:34:27Z</time>
      </trkpt>
      <trkpt lat="46.55922" lon="5.74478">
        <ele>538.6</ele>
        <time>2022-08-03T07:34:34Z</time>
      </trkpt>
      <trkpt lat="46.55916" lon="5.7448">
        <ele>538.6</ele>
        <time>2022-08-03T07:34:35Z</time>
      </trkpt>
      <trkpt lat="46.55863" lon="5.74493">
        <ele>539.4</ele>
        <time>2022-08-03T07:34:44Z</time>
      </trkpt>
      <trkpt lat="46.55816" lon="5.74492">
        <ele>539.6</ele>
        <time>2022-08-03T07:34:51Z</time>
      </trkpt>
      <trkpt lat="46.5577" lon="5.74489">
        <ele>540</ele>
        <time>2022-08-03T07:34:58Z</time>
      </trkpt>
      <trkpt lat="46.55711" lon="5.74485">
        <ele>540</ele>
        <time>2022-08-03T07:35:07Z</time>
      </trkpt>
      <trkpt lat="46.55705" lon="5.74484">
        <ele>540</ele>
        <time>2022-08-03T07:35:08Z</time>
      </trkpt>
      <trkpt lat="46.5565" lon="5.7448">
        <ele>540.2</ele>
        <time>2022-08-03T07:35:17Z</time>
      </trkpt>
      <trkpt lat="46.55644" lon="5.74479">
        <ele>540.6</ele>
        <time>2022-08-03T07:35:18Z</time>
      </trkpt>
      <trkpt lat="46.55628" lon="5.74478">
        <ele>541.2</ele>
        <time>2022-08-03T07:35:21Z</time>
      </trkpt>
      <trkpt lat="46.55621" lon="5.74476">
        <ele>541.2</ele>
        <time>2022-08-03T07:35:22Z</time>
      </trkpt>
      <trkpt lat="46.55616" lon="5.74471">
        <ele>541.2</ele>
        <time>2022-08-03T07:35:23Z</time>
      </trkpt>
      <trkpt lat="46.55606" lon="5.74461">
        <ele>541.6</ele>
        <time>2022-08-03T07:35:25Z</time>
      </trkpt>
      <trkpt lat="46.55595" lon="5.74453">
        <ele>541.6</ele>
        <time>2022-08-03T07:35:27Z</time>
      </trkpt>
      <trkpt lat="46.55582" lon="5.74452">
        <ele>541.8</ele>
        <time>2022-08-03T07:35:29Z</time>
      </trkpt>
      <trkpt lat="46.55575" lon="5.74454">
        <ele>541.8</ele>
        <time>2022-08-03T07:35:30Z</time>
      </trkpt>
      <trkpt lat="46.55541" lon="5.74469">
        <ele>541.6</ele>
        <time>2022-08-03T07:35:35Z</time>
      </trkpt>
      <trkpt lat="46.55485" lon="5.74494">
        <ele>541.2</ele>
        <time>2022-08-03T07:35:43Z</time>
      </trkpt>
      <trkpt lat="46.5547" lon="5.745">
        <ele>541</ele>
        <time>2022-08-03T07:35:45Z</time>
      </trkpt>
      <trkpt lat="46.55439" lon="5.74504">
        <ele>540.8</ele>
        <time>2022-08-03T07:35:49Z</time>
      </trkpt>
      <trkpt lat="46.55432" lon="5.74503">
        <ele>540.8</ele>
        <time>2022-08-03T07:35:50Z</time>
      </trkpt>
      <trkpt lat="46.55425" lon="5.74501">
        <ele>540.6</ele>
        <time>2022-08-03T07:35:51Z</time>
      </trkpt>
      <trkpt lat="46.5541" lon="5.74493">
        <ele>540.4</ele>
        <time>2022-08-03T07:35:53Z</time>
      </trkpt>
      <trkpt lat="46.55403" lon="5.74488">
        <ele>540.4</ele>
        <time>2022-08-03T07:35:54Z</time>
      </trkpt>
      <trkpt lat="46.5539" lon="5.74475">
        <ele>540.2</ele>
        <time>2022-08-03T07:35:56Z</time>
      </trkpt>
      <trkpt lat="46.55379" lon="5.74458">
        <ele>540.2</ele>
        <time>2022-08-03T07:35:58Z</time>
      </trkpt>
      <trkpt lat="46.55354" lon="5.74402">
        <ele>540</ele>
        <time>2022-08-03T07:36:04Z</time>
      </trkpt>
      <trkpt lat="46.55323" lon="5.7433">
        <ele>540.4</ele>
        <time>2022-08-03T07:36:12Z</time>
      </trkpt>
      <trkpt lat="46.55319" lon="5.74322">
        <ele>540.4</ele>
        <time>2022-08-03T07:36:13Z</time>
      </trkpt>
      <trkpt lat="46.55295" lon="5.7427">
        <ele>541.6</ele>
        <time>2022-08-03T07:36:20Z</time>
      </trkpt>
      <trkpt lat="46.55293" lon="5.74262">
        <ele>541.8</ele>
        <time>2022-08-03T07:36:21Z</time>
      </trkpt>
      <trkpt lat="46.55288" lon="5.74244">
        <ele>541.8</ele>
        <time>2022-08-03T07:36:23Z</time>
      </trkpt>
      <trkpt lat="46.55286" lon="5.74223">
        <ele>542</ele>
        <time>2022-08-03T07:36:25Z</time>
      </trkpt>
      <trkpt lat="46.55289" lon="5.74201">
        <ele>542.2</ele>
        <time>2022-08-03T07:36:27Z</time>
      </trkpt>
      <trkpt lat="46.55291" lon="5.74189">
        <ele>542</ele>
        <time>2022-08-03T07:36:28Z</time>
      </trkpt>
      <trkpt lat="46.55295" lon="5.74164">
        <ele>542</ele>
        <time>2022-08-03T07:36:30Z</time>
      </trkpt>
      <trkpt lat="46.55295" lon="5.74138">
        <ele>541.4</ele>
        <time>2022-08-03T07:36:32Z</time>
      </trkpt>
      <trkpt lat="46.55293" lon="5.74125">
        <ele>540.8</ele>
        <time>2022-08-03T07:36:33Z</time>
      </trkpt>
      <trkpt lat="46.55284" lon="5.74086">
        <ele>539.4</ele>
        <time>2022-08-03T07:36:36Z</time>
      </trkpt>
      <trkpt lat="46.55278" lon="5.74057">
        <ele>538.2</ele>
        <time>2022-08-03T07:36:38Z</time>
      </trkpt>
      <trkpt lat="46.55273" lon="5.74026">
        <ele>536.8</ele>
        <time>2022-08-03T07:36:40Z</time>
      </trkpt>
      <trkpt lat="46.5527" lon="5.7401">
        <ele>536</ele>
        <time>2022-08-03T07:36:41Z</time>
      </trkpt>
      <trkpt lat="46.55265" lon="5.73995">
        <ele>534.6</ele>
        <time>2022-08-03T07:36:42Z</time>
      </trkpt>
      <trkpt lat="46.55253" lon="5.73966">
        <ele>533.2</ele>
        <time>2022-08-03T07:36:44Z</time>
      </trkpt>
      <trkpt lat="46.55247" lon="5.7395">
        <ele>532.4</ele>
        <time>2022-08-03T07:36:45Z</time>
      </trkpt>
      <trkpt lat="46.55242" lon="5.73933">
        <ele>531.4</ele>
        <time>2022-08-03T07:36:46Z</time>
      </trkpt>
      <trkpt lat="46.55238" lon="5.73915">
        <ele>530.6</ele>
        <time>2022-08-03T07:36:47Z</time>
      </trkpt>
      <trkpt lat="46.55235" lon="5.73881">
        <ele>529.2</ele>
        <time>2022-08-03T07:36:49Z</time>
      </trkpt>
      <trkpt lat="46.55235" lon="5.73863">
        <ele>528.4</ele>
        <time>2022-08-03T07:36:50Z</time>
      </trkpt>
      <trkpt lat="46.55234" lon="5.73844">
        <ele>527.8</ele>
        <time>2022-08-03T07:36:51Z</time>
      </trkpt>
      <trkpt lat="46.55235" lon="5.73806">
        <ele>526.4</ele>
        <time>2022-08-03T07:36:53Z</time>
      </trkpt>
      <trkpt lat="46.55236" lon="5.73787">
        <ele>525</ele>
        <time>2022-08-03T07:36:54Z</time>
      </trkpt>
      <trkpt lat="46.55237" lon="5.73768">
        <ele>524.6</ele>
        <time>2022-08-03T07:36:55Z</time>
      </trkpt>
      <trkpt lat="46.55238" lon="5.73749">
        <ele>523.4</ele>
        <time>2022-08-03T07:36:56Z</time>
      </trkpt>
      <trkpt lat="46.55237" lon="5.73731">
        <ele>522.6</ele>
        <time>2022-08-03T07:36:57Z</time>
      </trkpt>
      <trkpt lat="46.55234" lon="5.73712">
        <ele>521</ele>
        <time>2022-08-03T07:36:58Z</time>
      </trkpt>
      <trkpt lat="46.55229" lon="5.73679">
        <ele>518.8</ele>
        <time>2022-08-03T07:37:00Z</time>
      </trkpt>
      <trkpt lat="46.55228" lon="5.73664">
        <ele>518.2</ele>
        <time>2022-08-03T07:37:01Z</time>
      </trkpt>
      <trkpt lat="46.55228" lon="5.73649">
        <ele>517.6</ele>
        <time>2022-08-03T07:37:02Z</time>
      </trkpt>
      <trkpt lat="46.5523" lon="5.73633">
        <ele>516.2</ele>
        <time>2022-08-03T07:37:03Z</time>
      </trkpt>
      <trkpt lat="46.55236" lon="5.73601">
        <ele>514.6</ele>
        <time>2022-08-03T07:37:05Z</time>
      </trkpt>
      <trkpt lat="46.55238" lon="5.73585">
        <ele>514.2</ele>
        <time>2022-08-03T07:37:06Z</time>
      </trkpt>
      <trkpt lat="46.55241" lon="5.73569">
        <ele>513.2</ele>
        <time>2022-08-03T07:37:07Z</time>
      </trkpt>
      <trkpt lat="46.55246" lon="5.73538">
        <ele>511.2</ele>
        <time>2022-08-03T07:37:09Z</time>
      </trkpt>
      <trkpt lat="46.55248" lon="5.73524">
        <ele>510</ele>
        <time>2022-08-03T07:37:10Z</time>
      </trkpt>
      <trkpt lat="46.5525" lon="5.7351">
        <ele>509.4</ele>
        <time>2022-08-03T07:37:11Z</time>
      </trkpt>
      <trkpt lat="46.55251" lon="5.73496">
        <ele>508.4</ele>
        <time>2022-08-03T07:37:12Z</time>
      </trkpt>
      <trkpt lat="46.5525" lon="5.73467">
        <ele>506.6</ele>
        <time>2022-08-03T07:37:14Z</time>
      </trkpt>
      <trkpt lat="46.55247" lon="5.73439">
        <ele>505.4</ele>
        <time>2022-08-03T07:37:16Z</time>
      </trkpt>
      <trkpt lat="46.55245" lon="5.73409">
        <ele>504</ele>
        <time>2022-08-03T07:37:18Z</time>
      </trkpt>
      <trkpt lat="46.55245" lon="5.73394">
        <ele>503</ele>
        <time>2022-08-03T07:37:19Z</time>
      </trkpt>
      <trkpt lat="46.55243" lon="5.73365">
        <ele>501</ele>
        <time>2022-08-03T07:37:21Z</time>
      </trkpt>
      <trkpt lat="46.55243" lon="5.73323">
        <ele>500</ele>
        <time>2022-08-03T07:37:24Z</time>
      </trkpt>
      <trkpt lat="46.55245" lon="5.73309">
        <ele>499.8</ele>
        <time>2022-08-03T07:37:25Z</time>
      </trkpt>
      <trkpt lat="46.55248" lon="5.73296">
        <ele>499.8</ele>
        <time>2022-08-03T07:37:26Z</time>
      </trkpt>
      <trkpt lat="46.55259" lon="5.73272">
        <ele>499.4</ele>
        <time>2022-08-03T07:37:28Z</time>
      </trkpt>
      <trkpt lat="46.55275" lon="5.73237">
        <ele>498.8</ele>
        <time>2022-08-03T07:37:31Z</time>
      </trkpt>
      <trkpt lat="46.55282" lon="5.73211">
        <ele>498.6</ele>
        <time>2022-08-03T07:37:33Z</time>
      </trkpt>
      <trkpt lat="46.55291" lon="5.73173">
        <ele>497.8</ele>
        <time>2022-08-03T07:37:36Z</time>
      </trkpt>
      <trkpt lat="46.55295" lon="5.73161">
        <ele>497.6</ele>
        <time>2022-08-03T07:37:37Z</time>
      </trkpt>
      <trkpt lat="46.55301" lon="5.7315">
        <ele>497.6</ele>
        <time>2022-08-03T07:37:38Z</time>
      </trkpt>
      <trkpt lat="46.55307" lon="5.73141">
        <ele>497.6</ele>
        <time>2022-08-03T07:37:39Z</time>
      </trkpt>
      <trkpt lat="46.55324" lon="5.73136">
        <ele>497.4</ele>
        <time>2022-08-03T07:37:41Z</time>
      </trkpt>
      <trkpt lat="46.55351" lon="5.73147">
        <ele>497.4</ele>
        <time>2022-08-03T07:37:44Z</time>
      </trkpt>
      <trkpt lat="46.55386" lon="5.73158">
        <ele>497.2</ele>
        <time>2022-08-03T07:37:48Z</time>
      </trkpt>
      <trkpt lat="46.55396" lon="5.73157">
        <ele>497.2</ele>
        <time>2022-08-03T07:37:49Z</time>
      </trkpt>
      <trkpt lat="46.55406" lon="5.73153">
        <ele>497.2</ele>
        <time>2022-08-03T07:37:50Z</time>
      </trkpt>
      <trkpt lat="46.55414" lon="5.73145">
        <ele>497</ele>
        <time>2022-08-03T07:37:51Z</time>
      </trkpt>
      <trkpt lat="46.55421" lon="5.73134">
        <ele>496.6</ele>
        <time>2022-08-03T07:37:52Z</time>
      </trkpt>
      <trkpt lat="46.55434" lon="5.73113">
        <ele>496.4</ele>
        <time>2022-08-03T07:37:54Z</time>
      </trkpt>
      <trkpt lat="46.55451" lon="5.73099">
        <ele>495.8</ele>
        <time>2022-08-03T07:37:56Z</time>
      </trkpt>
      <trkpt lat="46.55461" lon="5.73095">
        <ele>495.6</ele>
        <time>2022-08-03T07:37:57Z</time>
      </trkpt>
      <trkpt lat="46.55481" lon="5.73088">
        <ele>494.8</ele>
        <time>2022-08-03T07:37:59Z</time>
      </trkpt>
      <trkpt lat="46.5549" lon="5.73083">
        <ele>494.2</ele>
        <time>2022-08-03T07:38:00Z</time>
      </trkpt>
      <trkpt lat="46.55499" lon="5.73076">
        <ele>493.2</ele>
        <time>2022-08-03T07:38:01Z</time>
      </trkpt>
      <trkpt lat="46.55515" lon="5.73058">
        <ele>492</ele>
        <time>2022-08-03T07:38:03Z</time>
      </trkpt>
      <trkpt lat="46.5553" lon="5.73038">
        <ele>491.4</ele>
        <time>2022-08-03T07:38:05Z</time>
      </trkpt>
      <trkpt lat="46.55544" lon="5.73015">
        <ele>491</ele>
        <time>2022-08-03T07:38:07Z</time>
      </trkpt>
      <trkpt lat="46.55572" lon="5.72971">
        <ele>490.4</ele>
        <time>2022-08-03T07:38:11Z</time>
      </trkpt>
      <trkpt lat="46.55585" lon="5.72949">
        <ele>489.8</ele>
        <time>2022-08-03T07:38:13Z</time>
      </trkpt>
      <trkpt lat="46.55619" lon="5.72901">
        <ele>489.6</ele>
        <time>2022-08-03T07:38:18Z</time>
      </trkpt>
      <trkpt lat="46.55659" lon="5.72844">
        <ele>489.6</ele>
        <time>2022-08-03T07:38:24Z</time>
      </trkpt>
      <trkpt lat="46.55685" lon="5.72808">
        <ele>489.6</ele>
        <time>2022-08-03T07:38:28Z</time>
      </trkpt>
      <trkpt lat="46.55721" lon="5.72773">
        <ele>489.2</ele>
        <time>2022-08-03T07:38:33Z</time>
      </trkpt>
      <trkpt lat="46.55753" lon="5.72751">
        <ele>489.2</ele>
        <time>2022-08-03T07:38:37Z</time>
      </trkpt>
      <trkpt lat="46.55769" lon="5.72741">
        <ele>489.2</ele>
        <time>2022-08-03T07:38:39Z</time>
      </trkpt>
      <trkpt lat="46.55819" lon="5.72709">
        <ele>488.8</ele>
        <time>2022-08-03T07:38:45Z</time>
      </trkpt>
      <trkpt lat="46.55844" lon="5.72694">
        <ele>488.4</ele>
        <time>2022-08-03T07:38:48Z</time>
      </trkpt>
      <trkpt lat="46.55859" lon="5.72684">
        <ele>488.2</ele>
        <time>2022-08-03T07:38:50Z</time>
      </trkpt>
      <trkpt lat="46.55909" lon="5.72651">
        <ele>487</ele>
        <time>2022-08-03T07:38:56Z</time>
      </trkpt>
      <trkpt lat="46.55919" lon="5.72644">
        <ele>486.6</ele>
        <time>2022-08-03T07:38:57Z</time>
      </trkpt>
      <trkpt lat="46.55935" lon="5.72634">
        <ele>485.6</ele>
        <time>2022-08-03T07:38:59Z</time>
      </trkpt>
      <trkpt lat="46.55954" lon="5.72622">
        <ele>484.6</ele>
        <time>2022-08-03T07:39:01Z</time>
      </trkpt>
      <trkpt lat="46.55981" lon="5.72605">
        <ele>483.6</ele>
        <time>2022-08-03T07:39:04Z</time>
      </trkpt>
      <trkpt lat="46.5599" lon="5.72599">
        <ele>483.6</ele>
        <time>2022-08-03T07:39:05Z</time>
      </trkpt>
      <trkpt lat="46.56035" lon="5.7257">
        <ele>482.2</ele>
        <time>2022-08-03T07:39:10Z</time>
      </trkpt>
      <trkpt lat="46.56062" lon="5.72551">
        <ele>481.4</ele>
        <time>2022-08-03T07:39:13Z</time>
      </trkpt>
      <trkpt lat="46.56071" lon="5.72546">
        <ele>481.2</ele>
        <time>2022-08-03T07:39:14Z</time>
      </trkpt>
      <trkpt lat="46.56089" lon="5.72533">
        <ele>479.6</ele>
        <time>2022-08-03T07:39:16Z</time>
      </trkpt>
      <trkpt lat="46.56104" lon="5.72523">
        <ele>478.4</ele>
        <time>2022-08-03T07:39:18Z</time>
      </trkpt>
      <trkpt lat="46.56141" lon="5.72498">
        <ele>478</ele>
        <time>2022-08-03T07:39:22Z</time>
      </trkpt>
      <trkpt lat="46.56183" lon="5.72471">
        <ele>477.6</ele>
        <time>2022-08-03T07:39:27Z</time>
      </trkpt>
      <trkpt lat="46.56214" lon="5.7245">
        <ele>477.2</ele>
        <time>2022-08-03T07:39:31Z</time>
      </trkpt>
      <trkpt lat="46.56264" lon="5.72416">
        <ele>477</ele>
        <time>2022-08-03T07:39:37Z</time>
      </trkpt>
      <trkpt lat="46.56272" lon="5.72411">
        <ele>476.8</ele>
        <time>2022-08-03T07:39:38Z</time>
      </trkpt>
      <trkpt lat="46.56296" lon="5.72394">
        <ele>476.4</ele>
        <time>2022-08-03T07:39:41Z</time>
      </trkpt>
      <trkpt lat="46.56347" lon="5.72362">
        <ele>475.6</ele>
        <time>2022-08-03T07:39:47Z</time>
      </trkpt>
      <trkpt lat="46.56355" lon="5.72356">
        <ele>475.2</ele>
        <time>2022-08-03T07:39:48Z</time>
      </trkpt>
      <trkpt lat="46.56363" lon="5.72351">
        <ele>475.2</ele>
        <time>2022-08-03T07:39:49Z</time>
      </trkpt>
      <trkpt lat="46.56413" lon="5.72317">
        <ele>474.6</ele>
        <time>2022-08-03T07:39:55Z</time>
      </trkpt>
      <trkpt lat="46.56421" lon="5.72312">
        <ele>474.6</ele>
        <time>2022-08-03T07:39:56Z</time>
      </trkpt>
      <trkpt lat="46.56474" lon="5.72276">
        <ele>474.8</ele>
        <time>2022-08-03T07:40:03Z</time>
      </trkpt>
      <trkpt lat="46.56489" lon="5.72266">
        <ele>474.8</ele>
        <time>2022-08-03T07:40:05Z</time>
      </trkpt>
      <trkpt lat="46.5654" lon="5.72229">
        <ele>475.4</ele>
        <time>2022-08-03T07:40:12Z</time>
      </trkpt>
      <trkpt lat="46.56547" lon="5.72224">
        <ele>475.4</ele>
        <time>2022-08-03T07:40:13Z</time>
      </trkpt>
      <trkpt lat="46.56584" lon="5.72184">
        <ele>475.2</ele>
        <time>2022-08-03T07:40:19Z</time>
      </trkpt>
      <trkpt lat="46.5663" lon="5.72127">
        <ele>475.4</ele>
        <time>2022-08-03T07:40:27Z</time>
      </trkpt>
      <trkpt lat="46.56667" lon="5.72067">
        <ele>475.6</ele>
        <time>2022-08-03T07:40:34Z</time>
      </trkpt>
      <trkpt lat="46.567" lon="5.71999">
        <ele>475.2</ele>
        <time>2022-08-03T07:40:41Z</time>
      </trkpt>
      <trkpt lat="46.56704" lon="5.71991">
        <ele>475.2</ele>
        <time>2022-08-03T07:40:42Z</time>
      </trkpt>
      <trkpt lat="46.56732" lon="5.71929">
        <ele>474.8</ele>
        <time>2022-08-03T07:40:48Z</time>
      </trkpt>
      <trkpt lat="46.56746" lon="5.71902">
        <ele>474.8</ele>
        <time>2022-08-03T07:40:51Z</time>
      </trkpt>
      <trkpt lat="46.56775" lon="5.71836">
        <ele>475.4</ele>
        <time>2022-08-03T07:40:58Z</time>
      </trkpt>
      <trkpt lat="46.56807" lon="5.71766">
        <ele>475.8</ele>
        <time>2022-08-03T07:41:06Z</time>
      </trkpt>
      <trkpt lat="46.56814" lon="5.7175">
        <ele>476</ele>
        <time>2022-08-03T07:41:08Z</time>
      </trkpt>
      <trkpt lat="46.56818" lon="5.7174">
        <ele>476.2</ele>
        <time>2022-08-03T07:41:09Z</time>
      </trkpt>
      <trkpt lat="46.56845" lon="5.71679">
        <ele>477.2</ele>
        <time>2022-08-03T07:41:16Z</time>
      </trkpt>
      <trkpt lat="46.56853" lon="5.71662">
        <ele>477.4</ele>
        <time>2022-08-03T07:41:18Z</time>
      </trkpt>
      <trkpt lat="46.56885" lon="5.71593">
        <ele>477.6</ele>
        <time>2022-08-03T07:41:26Z</time>
      </trkpt>
      <trkpt lat="46.56894" lon="5.71573">
        <ele>477.6</ele>
        <time>2022-08-03T07:41:28Z</time>
      </trkpt>
      <trkpt lat="46.56925" lon="5.71505">
        <ele>478.2</ele>
        <time>2022-08-03T07:41:36Z</time>
      </trkpt>
      <trkpt lat="46.56939" lon="5.71472">
        <ele>478.6</ele>
        <time>2022-08-03T07:41:40Z</time>
      </trkpt>
      <trkpt lat="46.56944" lon="5.71461">
        <ele>479</ele>
        <time>2022-08-03T07:41:41Z</time>
      </trkpt>
      <trkpt lat="46.56954" lon="5.71433">
        <ele>479.8</ele>
        <time>2022-08-03T07:41:44Z</time>
      </trkpt>
      <trkpt lat="46.56962" lon="5.71403">
        <ele>480</ele>
        <time>2022-08-03T07:41:47Z</time>
      </trkpt>
      <trkpt lat="46.56972" lon="5.71322">
        <ele>479.4</ele>
        <time>2022-08-03T07:41:54Z</time>
      </trkpt>
      <trkpt lat="46.56975" lon="5.71289">
        <ele>478.8</ele>
        <time>2022-08-03T07:41:57Z</time>
      </trkpt>
      <trkpt lat="46.56979" lon="5.71226">
        <ele>478.2</ele>
        <time>2022-08-03T07:42:02Z</time>
      </trkpt>
      <trkpt lat="46.56981" lon="5.71178">
        <ele>477.8</ele>
        <time>2022-08-03T07:42:06Z</time>
      </trkpt>
      <trkpt lat="46.56983" lon="5.71099">
        <ele>477.8</ele>
        <time>2022-08-03T07:42:13Z</time>
      </trkpt>
      <trkpt lat="46.56986" lon="5.71057">
        <ele>477.8</ele>
        <time>2022-08-03T07:42:17Z</time>
      </trkpt>
      <trkpt lat="46.56988" lon="5.71047">
        <ele>478</ele>
        <time>2022-08-03T07:42:18Z</time>
      </trkpt>
      <trkpt lat="46.56992" lon="5.71037">
        <ele>478</ele>
        <time>2022-08-03T07:42:19Z</time>
      </trkpt>
      <trkpt lat="46.57002" lon="5.71023">
        <ele>477.8</ele>
        <time>2022-08-03T07:42:21Z</time>
      </trkpt>
      <trkpt lat="46.57023" lon="5.71014">
        <ele>477.8</ele>
        <time>2022-08-03T07:42:24Z</time>
      </trkpt>
      <trkpt lat="46.57081" lon="5.70994">
        <ele>478.2</ele>
        <time>2022-08-03T07:42:32Z</time>
      </trkpt>
      <trkpt lat="46.57089" lon="5.70991">
        <ele>478.4</ele>
        <time>2022-08-03T07:42:33Z</time>
      </trkpt>
      <trkpt lat="46.57145" lon="5.70966">
        <ele>478</ele>
        <time>2022-08-03T07:42:40Z</time>
      </trkpt>
      <trkpt lat="46.5718" lon="5.70949">
        <ele>477</ele>
        <time>2022-08-03T07:42:44Z</time>
      </trkpt>
      <trkpt lat="46.57216" lon="5.70931">
        <ele>476.4</ele>
        <time>2022-08-03T07:42:48Z</time>
      </trkpt>
      <trkpt lat="46.57225" lon="5.70926">
        <ele>476</ele>
        <time>2022-08-03T07:42:49Z</time>
      </trkpt>
      <trkpt lat="46.57267" lon="5.70898">
        <ele>475</ele>
        <time>2022-08-03T07:42:54Z</time>
      </trkpt>
      <trkpt lat="46.57284" lon="5.70886">
        <ele>474.8</ele>
        <time>2022-08-03T07:42:56Z</time>
      </trkpt>
      <trkpt lat="46.57322" lon="5.70857">
        <ele>473.8</ele>
        <time>2022-08-03T07:43:01Z</time>
      </trkpt>
      <trkpt lat="46.57365" lon="5.70824">
        <ele>473</ele>
        <time>2022-08-03T07:43:06Z</time>
      </trkpt>
      <trkpt lat="46.57371" lon="5.70819">
        <ele>472.8</ele>
        <time>2022-08-03T07:43:07Z</time>
      </trkpt>
      <trkpt lat="46.57412" lon="5.70785">
        <ele>471.6</ele>
        <time>2022-08-03T07:43:12Z</time>
      </trkpt>
      <trkpt lat="46.57447" lon="5.70755">
        <ele>470.6</ele>
        <time>2022-08-03T07:43:16Z</time>
      </trkpt>
      <trkpt lat="46.57473" lon="5.70732">
        <ele>469.6</ele>
        <time>2022-08-03T07:43:19Z</time>
      </trkpt>
      <trkpt lat="46.57484" lon="5.70723">
        <ele>469.4</ele>
        <time>2022-08-03T07:43:20Z</time>
      </trkpt>
      <trkpt lat="46.57501" lon="5.7071">
        <ele>468.6</ele>
        <time>2022-08-03T07:43:22Z</time>
      </trkpt>
      <trkpt lat="46.57512" lon="5.70703">
        <ele>468</ele>
        <time>2022-08-03T07:43:23Z</time>
      </trkpt>
      <trkpt lat="46.57523" lon="5.70699">
        <ele>467.4</ele>
        <time>2022-08-03T07:43:24Z</time>
      </trkpt>
      <trkpt lat="46.57533" lon="5.70695">
        <ele>467</ele>
        <time>2022-08-03T07:43:25Z</time>
      </trkpt>
      <trkpt lat="46.57542" lon="5.70692">
        <ele>465.8</ele>
        <time>2022-08-03T07:43:26Z</time>
      </trkpt>
      <trkpt lat="46.57564" lon="5.70682">
        <ele>464.4</ele>
        <time>2022-08-03T07:43:28Z</time>
      </trkpt>
      <trkpt lat="46.57574" lon="5.70676">
        <ele>463.6</ele>
        <time>2022-08-03T07:43:29Z</time>
      </trkpt>
      <trkpt lat="46.57583" lon="5.70668">
        <ele>463.2</ele>
        <time>2022-08-03T07:43:30Z</time>
      </trkpt>
      <trkpt lat="46.57601" lon="5.7065">
        <ele>462</ele>
        <time>2022-08-03T07:43:32Z</time>
      </trkpt>
      <trkpt lat="46.57629" lon="5.70621">
        <ele>460.8</ele>
        <time>2022-08-03T07:43:35Z</time>
      </trkpt>
      <trkpt lat="46.57648" lon="5.70602">
        <ele>459.4</ele>
        <time>2022-08-03T07:43:37Z</time>
      </trkpt>
      <trkpt lat="46.57657" lon="5.70592">
        <ele>459</ele>
        <time>2022-08-03T07:43:38Z</time>
      </trkpt>
      <trkpt lat="46.57674" lon="5.70575">
        <ele>457.6</ele>
        <time>2022-08-03T07:43:40Z</time>
      </trkpt>
      <trkpt lat="46.57694" lon="5.70554">
        <ele>456.6</ele>
        <time>2022-08-03T07:43:42Z</time>
      </trkpt>
      <trkpt lat="46.57711" lon="5.70536">
        <ele>455.6</ele>
        <time>2022-08-03T07:43:44Z</time>
      </trkpt>
      <trkpt lat="46.57729" lon="5.70517">
        <ele>454.4</ele>
        <time>2022-08-03T07:43:46Z</time>
      </trkpt>
      <trkpt lat="46.57748" lon="5.705">
        <ele>453.4</ele>
        <time>2022-08-03T07:43:48Z</time>
      </trkpt>
      <trkpt lat="46.57758" lon="5.70494">
        <ele>453</ele>
        <time>2022-08-03T07:43:49Z</time>
      </trkpt>
      <trkpt lat="46.57769" lon="5.70491">
        <ele>452.4</ele>
        <time>2022-08-03T07:43:50Z</time>
      </trkpt>
      <trkpt lat="46.5778" lon="5.7049">
        <ele>451.8</ele>
        <time>2022-08-03T07:43:51Z</time>
      </trkpt>
      <trkpt lat="46.57791" lon="5.7049">
        <ele>451.2</ele>
        <time>2022-08-03T07:43:52Z</time>
      </trkpt>
      <trkpt lat="46.57814" lon="5.70489">
        <ele>450.8</ele>
        <time>2022-08-03T07:43:54Z</time>
      </trkpt>
      <trkpt lat="46.57838" lon="5.70484">
        <ele>449.6</ele>
        <time>2022-08-03T07:43:56Z</time>
      </trkpt>
      <trkpt lat="46.57859" lon="5.70472">
        <ele>448.2</ele>
        <time>2022-08-03T07:43:58Z</time>
      </trkpt>
      <trkpt lat="46.57869" lon="5.70465">
        <ele>446.6</ele>
        <time>2022-08-03T07:43:59Z</time>
      </trkpt>
      <trkpt lat="46.57879" lon="5.70459">
        <ele>445.6</ele>
        <time>2022-08-03T07:44:00Z</time>
      </trkpt>
      <trkpt lat="46.57889" lon="5.70452">
        <ele>444.4</ele>
        <time>2022-08-03T07:44:01Z</time>
      </trkpt>
      <trkpt lat="46.57927" lon="5.70429">
        <ele>443.2</ele>
        <time>2022-08-03T07:44:05Z</time>
      </trkpt>
      <trkpt lat="46.57937" lon="5.70426">
        <ele>442.8</ele>
        <time>2022-08-03T07:44:06Z</time>
      </trkpt>
      <trkpt lat="46.57969" lon="5.70421">
        <ele>442.6</ele>
        <time>2022-08-03T07:44:09Z</time>
      </trkpt>
      <trkpt lat="46.57991" lon="5.70419">
        <ele>442</ele>
        <time>2022-08-03T07:44:11Z</time>
      </trkpt>
      <trkpt lat="46.58014" lon="5.70416">
        <ele>440.6</ele>
        <time>2022-08-03T07:44:13Z</time>
      </trkpt>
      <trkpt lat="46.58036" lon="5.70413">
        <ele>439</ele>
        <time>2022-08-03T07:44:15Z</time>
      </trkpt>
      <trkpt lat="46.58047" lon="5.70412">
        <ele>438.8</ele>
        <time>2022-08-03T07:44:16Z</time>
      </trkpt>
      <trkpt lat="46.5808" lon="5.70407">
        <ele>436.6</ele>
        <time>2022-08-03T07:44:19Z</time>
      </trkpt>
      <trkpt lat="46.5809" lon="5.70406">
        <ele>435.4</ele>
        <time>2022-08-03T07:44:20Z</time>
      </trkpt>
      <trkpt lat="46.58111" lon="5.704">
        <ele>434.6</ele>
        <time>2022-08-03T07:44:22Z</time>
      </trkpt>
      <trkpt lat="46.5812" lon="5.70395">
        <ele>434.2</ele>
        <time>2022-08-03T07:44:23Z</time>
      </trkpt>
      <trkpt lat="46.58162" lon="5.70363">
        <ele>433.4</ele>
        <time>2022-08-03T07:44:28Z</time>
      </trkpt>
      <trkpt lat="46.58213" lon="5.70325">
        <ele>433.2</ele>
        <time>2022-08-03T07:44:34Z</time>
      </trkpt>
      <trkpt lat="46.58222" lon="5.70319">
        <ele>433.2</ele>
        <time>2022-08-03T07:44:35Z</time>
      </trkpt>
      <trkpt lat="46.58232" lon="5.7031">
        <ele>433</ele>
        <time>2022-08-03T07:44:36Z</time>
      </trkpt>
      <trkpt lat="46.5828" lon="5.70272">
        <ele>432.4</ele>
        <time>2022-08-03T07:44:42Z</time>
      </trkpt>
      <trkpt lat="46.58297" lon="5.7026">
        <ele>432.4</ele>
        <time>2022-08-03T07:44:44Z</time>
      </trkpt>
      <trkpt lat="46.58305" lon="5.70253">
        <ele>432.2</ele>
        <time>2022-08-03T07:44:45Z</time>
      </trkpt>
      <trkpt lat="46.58337" lon="5.70229">
        <ele>431.4</ele>
        <time>2022-08-03T07:44:49Z</time>
      </trkpt>
      <trkpt lat="46.58352" lon="5.70216">
        <ele>431.2</ele>
        <time>2022-08-03T07:44:51Z</time>
      </trkpt>
      <trkpt lat="46.58388" lon="5.70193">
        <ele>432</ele>
        <time>2022-08-03T07:44:56Z</time>
      </trkpt>
      <trkpt lat="46.58426" lon="5.70173">
        <ele>432.4</ele>
        <time>2022-08-03T07:45:02Z</time>
      </trkpt>
      <trkpt lat="46.58433" lon="5.70171">
        <ele>432.8</ele>
        <time>2022-08-03T07:45:03Z</time>
      </trkpt>
      <trkpt lat="46.58464" lon="5.70165">
        <ele>434.2</ele>
        <time>2022-08-03T07:45:08Z</time>
      </trkpt>
      <trkpt lat="46.58493" lon="5.70163">
        <ele>435.2</ele>
        <time>2022-08-03T07:45:13Z</time>
      </trkpt>
      <trkpt lat="46.58499" lon="5.70163">
        <ele>435.4</ele>
        <time>2022-08-03T07:45:14Z</time>
      </trkpt>
      <trkpt lat="46.58513" lon="5.70162">
        <ele>436</ele>
        <time>2022-08-03T07:45:18Z</time>
      </trkpt>
      <trkpt lat="46.58515" lon="5.70163">
        <ele>436.2</ele>
        <time>2022-08-03T07:45:21Z</time>
      </trkpt>
      <trkpt lat="46.58515" lon="5.70163">
        <ele>436.4</ele>
        <time>2022-08-03T07:45:23Z</time>
      </trkpt>
      <trkpt lat="46.58518" lon="5.70159">
        <ele>436.8</ele>
        <time>2022-08-03T07:45:31Z</time>
      </trkpt>
      <trkpt lat="46.58519" lon="5.70152">
        <ele>436.8</ele>
        <time>2022-08-03T07:45:33Z</time>
      </trkpt>
      <trkpt lat="46.58515" lon="5.70131">
        <ele>436.6</ele>
        <time>2022-08-03T07:45:36Z</time>
      </trkpt>
      <trkpt lat="46.5851" lon="5.70087">
        <ele>435.6</ele>
        <time>2022-08-03T07:45:41Z</time>
      </trkpt>
      <trkpt lat="46.58504" lon="5.70018">
        <ele>435.2</ele>
        <time>2022-08-03T07:45:49Z</time>
      </trkpt>
      <trkpt lat="46.58502" lon="5.6995">
        <ele>434.8</ele>
        <time>2022-08-03T07:45:55Z</time>
      </trkpt>
      <trkpt lat="46.58506" lon="5.69926">
        <ele>434</ele>
        <time>2022-08-03T07:45:57Z</time>
      </trkpt>
      <trkpt lat="46.5851" lon="5.69915">
        <ele>433.8</ele>
        <time>2022-08-03T07:45:58Z</time>
      </trkpt>
      <trkpt lat="46.58513" lon="5.69905">
        <ele>433.2</ele>
        <time>2022-08-03T07:45:59Z</time>
      </trkpt>
      <trkpt lat="46.58523" lon="5.69875">
        <ele>432.6</ele>
        <time>2022-08-03T07:46:02Z</time>
      </trkpt>
      <trkpt lat="46.5853" lon="5.69846">
        <ele>432.4</ele>
        <time>2022-08-03T07:46:05Z</time>
      </trkpt>
      <trkpt lat="46.58552" lon="5.69776">
        <ele>432.8</ele>
        <time>2022-08-03T07:46:13Z</time>
      </trkpt>
      <trkpt lat="46.58556" lon="5.69763">
        <ele>433</ele>
        <time>2022-08-03T07:46:16Z</time>
      </trkpt>
      <trkpt lat="46.58557" lon="5.69759">
        <ele>433</ele>
        <time>2022-08-03T07:46:17Z</time>
      </trkpt>
      <trkpt lat="46.58558" lon="5.69751">
        <ele>433.2</ele>
        <time>2022-08-03T07:46:19Z</time>
      </trkpt>
      <trkpt lat="46.58566" lon="5.69722">
        <ele>433.4</ele>
        <time>2022-08-03T07:46:24Z</time>
      </trkpt>
      <trkpt lat="46.58581" lon="5.69674">
        <ele>433.4</ele>
        <time>2022-08-03T07:46:30Z</time>
      </trkpt>
      <trkpt lat="46.58598" lon="5.6962">
        <ele>433.4</ele>
        <time>2022-08-03T07:46:36Z</time>
      </trkpt>
      <trkpt lat="46.58613" lon="5.69567">
        <ele>433.4</ele>
        <time>2022-08-03T07:46:42Z</time>
      </trkpt>
      <trkpt lat="46.5863" lon="5.69509">
        <ele>433.8</ele>
        <time>2022-08-03T07:46:49Z</time>
      </trkpt>
      <trkpt lat="46.5864" lon="5.69474">
        <ele>434</ele>
        <time>2022-08-03T07:46:53Z</time>
      </trkpt>
      <trkpt lat="46.58645" lon="5.69457">
        <ele>434.2</ele>
        <time>2022-08-03T07:46:55Z</time>
      </trkpt>
      <trkpt lat="46.58663" lon="5.69396">
        <ele>435</ele>
        <time>2022-08-03T07:47:02Z</time>
      </trkpt>
      <trkpt lat="46.58666" lon="5.69389">
        <ele>435.2</ele>
        <time>2022-08-03T07:47:03Z</time>
      </trkpt>
      <trkpt lat="46.58682" lon="5.6934">
        <ele>436</ele>
        <time>2022-08-03T07:47:09Z</time>
      </trkpt>
      <trkpt lat="46.587" lon="5.69279">
        <ele>436</ele>
        <time>2022-08-03T07:47:16Z</time>
      </trkpt>
      <trkpt lat="46.58719" lon="5.6922">
        <ele>436.2</ele>
        <time>2022-08-03T07:47:23Z</time>
      </trkpt>
      <trkpt lat="46.58724" lon="5.69213">
        <ele>436.2</ele>
        <time>2022-08-03T07:47:24Z</time>
      </trkpt>
      <trkpt lat="46.58729" lon="5.69208">
        <ele>436.2</ele>
        <time>2022-08-03T07:47:25Z</time>
      </trkpt>
      <trkpt lat="46.58738" lon="5.69208">
        <ele>436.2</ele>
        <time>2022-08-03T07:47:26Z</time>
      </trkpt>
      <trkpt lat="46.58744" lon="5.6921">
        <ele>436.2</ele>
        <time>2022-08-03T07:47:27Z</time>
      </trkpt>
      <trkpt lat="46.58766" lon="5.69217">
        <ele>436</ele>
        <time>2022-08-03T07:47:30Z</time>
      </trkpt>
      <trkpt lat="46.58824" lon="5.69233">
        <ele>433.8</ele>
        <time>2022-08-03T07:47:37Z</time>
      </trkpt>
      <trkpt lat="46.58841" lon="5.69236">
        <ele>432.8</ele>
        <time>2022-08-03T07:47:39Z</time>
      </trkpt>
      <trkpt lat="46.58849" lon="5.69236">
        <ele>432.4</ele>
        <time>2022-08-03T07:47:40Z</time>
      </trkpt>
      <trkpt lat="46.58857" lon="5.69233">
        <ele>431.8</ele>
        <time>2022-08-03T07:47:41Z</time>
      </trkpt>
      <trkpt lat="46.58879" lon="5.69216">
        <ele>431.4</ele>
        <time>2022-08-03T07:47:44Z</time>
      </trkpt>
      <trkpt lat="46.58917" lon="5.69171">
        <ele>431.6</ele>
        <time>2022-08-03T07:47:50Z</time>
      </trkpt>
      <trkpt lat="46.58963" lon="5.69128">
        <ele>432</ele>
        <time>2022-08-03T07:47:57Z</time>
      </trkpt>
      <trkpt lat="46.58999" lon="5.69111">
        <ele>432</ele>
        <time>2022-08-03T07:48:02Z</time>
      </trkpt>
      <trkpt lat="46.59059" lon="5.69099">
        <ele>432</ele>
        <time>2022-08-03T07:48:10Z</time>
      </trkpt>
      <trkpt lat="46.59118" lon="5.69077">
        <ele>432.2</ele>
        <time>2022-08-03T07:48:18Z</time>
      </trkpt>
      <trkpt lat="46.59177" lon="5.69052">
        <ele>431.8</ele>
        <time>2022-08-03T07:48:26Z</time>
      </trkpt>
      <trkpt lat="46.59191" lon="5.69043">
        <ele>432</ele>
        <time>2022-08-03T07:48:28Z</time>
      </trkpt>
      <trkpt lat="46.59237" lon="5.69004">
        <ele>432.2</ele>
        <time>2022-08-03T07:48:35Z</time>
      </trkpt>
      <trkpt lat="46.59252" lon="5.68996">
        <ele>432.4</ele>
        <time>2022-08-03T07:48:37Z</time>
      </trkpt>
      <trkpt lat="46.59267" lon="5.68992">
        <ele>432.4</ele>
        <time>2022-08-03T07:48:39Z</time>
      </trkpt>
      <trkpt lat="46.59305" lon="5.68994">
        <ele>432.6</ele>
        <time>2022-08-03T07:48:44Z</time>
      </trkpt>
      <trkpt lat="46.59338" lon="5.68993">
        <ele>433.2</ele>
        <time>2022-08-03T07:48:49Z</time>
      </trkpt>
      <trkpt lat="46.59372" lon="5.68991">
        <ele>434</ele>
        <time>2022-08-03T07:48:54Z</time>
      </trkpt>
      <trkpt lat="46.59392" lon="5.68992">
        <ele>434.2</ele>
        <time>2022-08-03T07:48:57Z</time>
      </trkpt>
      <trkpt lat="46.59432" lon="5.68984">
        <ele>434.8</ele>
        <time>2022-08-03T07:49:03Z</time>
      </trkpt>
      <trkpt lat="46.59448" lon="5.68972">
        <ele>435.2</ele>
        <time>2022-08-03T07:49:06Z</time>
      </trkpt>
      <trkpt lat="46.59453" lon="5.68967">
        <ele>435.4</ele>
        <time>2022-08-03T07:49:07Z</time>
      </trkpt>
      <trkpt lat="46.59459" lon="5.68962">
        <ele>435.6</ele>
        <time>2022-08-03T07:49:08Z</time>
      </trkpt>
      <trkpt lat="46.59481" lon="5.68947">
        <ele>436.4</ele>
        <time>2022-08-03T07:49:12Z</time>
      </trkpt>
      <trkpt lat="46.59492" lon="5.68943">
        <ele>437</ele>
        <time>2022-08-03T07:49:14Z</time>
      </trkpt>
      <trkpt lat="46.59523" lon="5.68939">
        <ele>437.8</ele>
        <time>2022-08-03T07:49:19Z</time>
      </trkpt>
      <trkpt lat="46.59541" lon="5.68938">
        <ele>438.2</ele>
        <time>2022-08-03T07:49:22Z</time>
      </trkpt>
      <trkpt lat="46.59566" lon="5.68934">
        <ele>438.8</ele>
        <time>2022-08-03T07:49:26Z</time>
      </trkpt>
      <trkpt lat="46.59583" lon="5.68931">
        <ele>439.4</ele>
        <time>2022-08-03T07:49:29Z</time>
      </trkpt>
      <trkpt lat="46.59613" lon="5.68921">
        <ele>440.2</ele>
        <time>2022-08-03T07:49:34Z</time>
      </trkpt>
      <trkpt lat="46.59629" lon="5.68915">
        <ele>440.6</ele>
        <time>2022-08-03T07:49:37Z</time>
      </trkpt>
      <trkpt lat="46.59667" lon="5.68899">
        <ele>441</ele>
        <time>2022-08-03T07:49:43Z</time>
      </trkpt>
      <trkpt lat="46.59708" lon="5.68882">
        <ele>440.8</ele>
        <time>2022-08-03T07:49:49Z</time>
      </trkpt>
      <trkpt lat="46.5972" lon="5.68877">
        <ele>440.8</ele>
        <time>2022-08-03T07:49:51Z</time>
      </trkpt>
      <trkpt lat="46.59765" lon="5.68861">
        <ele>441.2</ele>
        <time>2022-08-03T07:49:58Z</time>
      </trkpt>
      <trkpt lat="46.5977" lon="5.68859">
        <ele>441.2</ele>
        <time>2022-08-03T07:49:59Z</time>
      </trkpt>
      <trkpt lat="46.59814" lon="5.68846">
        <ele>442.6</ele>
        <time>2022-08-03T07:50:06Z</time>
      </trkpt>
      <trkpt lat="46.59824" lon="5.68843">
        <ele>443</ele>
        <time>2022-08-03T07:50:08Z</time>
      </trkpt>
      <trkpt lat="46.59852" lon="5.68841">
        <ele>443.8</ele>
        <time>2022-08-03T07:50:13Z</time>
      </trkpt>
      <trkpt lat="46.59856" lon="5.68841">
        <ele>444</ele>
        <time>2022-08-03T07:50:14Z</time>
      </trkpt>
      <trkpt lat="46.5987" lon="5.6884">
        <ele>445</ele>
        <time>2022-08-03T07:50:17Z</time>
      </trkpt>
      <trkpt lat="46.59885" lon="5.6884">
        <ele>446</ele>
        <time>2022-08-03T07:50:20Z</time>
      </trkpt>
      <trkpt lat="46.59889" lon="5.68839">
        <ele>446</ele>
        <time>2022-08-03T07:50:21Z</time>
      </trkpt>
      <trkpt lat="46.59905" lon="5.68837">
        <ele>447</ele>
        <time>2022-08-03T07:50:25Z</time>
      </trkpt>
      <trkpt lat="46.59913" lon="5.68836">
        <ele>448</ele>
        <time>2022-08-03T07:50:27Z</time>
      </trkpt>
      <trkpt lat="46.59917" lon="5.68835">
        <ele>448.2</ele>
        <time>2022-08-03T07:50:28Z</time>
      </trkpt>
      <trkpt lat="46.59928" lon="5.68832">
        <ele>449.6</ele>
        <time>2022-08-03T07:50:31Z</time>
      </trkpt>
      <trkpt lat="46.59931" lon="5.68831">
        <ele>450</ele>
        <time>2022-08-03T07:50:32Z</time>
      </trkpt>
      <trkpt lat="46.59938" lon="5.6883">
        <ele>451</ele>
        <time>2022-08-03T07:50:34Z</time>
      </trkpt>
      <trkpt lat="46.59946" lon="5.68829">
        <ele>451.8</ele>
        <time>2022-08-03T07:50:36Z</time>
      </trkpt>
      <trkpt lat="46.59949" lon="5.68829">
        <ele>452</ele>
        <time>2022-08-03T07:50:37Z</time>
      </trkpt>
      <trkpt lat="46.59952" lon="5.6883">
        <ele>452.2</ele>
        <time>2022-08-03T07:50:38Z</time>
      </trkpt>
      <trkpt lat="46.59962" lon="5.68833">
        <ele>453.4</ele>
        <time>2022-08-03T07:50:41Z</time>
      </trkpt>
      <trkpt lat="46.59974" lon="5.68841">
        <ele>454.6</ele>
        <time>2022-08-03T07:50:45Z</time>
      </trkpt>
      <trkpt lat="46.59984" lon="5.6885">
        <ele>455.8</ele>
        <time>2022-08-03T07:50:48Z</time>
      </trkpt>
      <trkpt lat="46.59998" lon="5.6886">
        <ele>457.2</ele>
        <time>2022-08-03T07:50:52Z</time>
      </trkpt>
      <trkpt lat="46.60002" lon="5.68862">
        <ele>457.4</ele>
        <time>2022-08-03T07:50:53Z</time>
      </trkpt>
      <trkpt lat="46.60017" lon="5.68868">
        <ele>458.2</ele>
        <time>2022-08-03T07:50:57Z</time>
      </trkpt>
      <trkpt lat="46.60032" lon="5.68872">
        <ele>458.8</ele>
        <time>2022-08-03T07:51:01Z</time>
      </trkpt>
      <trkpt lat="46.6004" lon="5.68874">
        <ele>459.4</ele>
        <time>2022-08-03T07:51:03Z</time>
      </trkpt>
      <trkpt lat="46.60055" lon="5.68876">
        <ele>460.6</ele>
        <time>2022-08-03T07:51:07Z</time>
      </trkpt>
      <trkpt lat="46.60073" lon="5.68881">
        <ele>461.6</ele>
        <time>2022-08-03T07:51:11Z</time>
      </trkpt>
      <trkpt lat="46.60077" lon="5.68883">
        <ele>461.6</ele>
        <time>2022-08-03T07:51:12Z</time>
      </trkpt>
      <trkpt lat="46.6009" lon="5.68888">
        <ele>462.8</ele>
        <time>2022-08-03T07:51:15Z</time>
      </trkpt>
      <trkpt lat="46.60118" lon="5.68901">
        <ele>463.8</ele>
        <time>2022-08-03T07:51:21Z</time>
      </trkpt>
      <trkpt lat="46.60121" lon="5.68903">
        <ele>463.8</ele>
        <time>2022-08-03T07:51:22Z</time>
      </trkpt>
      <trkpt lat="46.60159" lon="5.68916">
        <ele>463.8</ele>
        <time>2022-08-03T07:51:29Z</time>
      </trkpt>
      <trkpt lat="46.60188" lon="5.68925">
        <ele>464</ele>
        <time>2022-08-03T07:51:34Z</time>
      </trkpt>
      <trkpt lat="46.60219" lon="5.68933">
        <ele>464.2</ele>
        <time>2022-08-03T07:51:39Z</time>
      </trkpt>
      <trkpt lat="46.60238" lon="5.68938">
        <ele>464.4</ele>
        <time>2022-08-03T07:51:42Z</time>
      </trkpt>
      <trkpt lat="46.60249" lon="5.68941">
        <ele>464.4</ele>
        <time>2022-08-03T07:51:44Z</time>
      </trkpt>
      <trkpt lat="46.60265" lon="5.68948">
        <ele>464.6</ele>
        <time>2022-08-03T07:51:47Z</time>
      </trkpt>
      <trkpt lat="46.60283" lon="5.68954">
        <ele>465.2</ele>
        <time>2022-08-03T07:51:50Z</time>
      </trkpt>
      <trkpt lat="46.60314" lon="5.68963">
        <ele>466.2</ele>
        <time>2022-08-03T07:51:55Z</time>
      </trkpt>
      <trkpt lat="46.60326" lon="5.68963">
        <ele>466.6</ele>
        <time>2022-08-03T07:51:57Z</time>
      </trkpt>
      <trkpt lat="46.60338" lon="5.68957">
        <ele>466.6</ele>
        <time>2022-08-03T07:51:59Z</time>
      </trkpt>
      <trkpt lat="46.60362" lon="5.68932">
        <ele>466.4</ele>
        <time>2022-08-03T07:52:03Z</time>
      </trkpt>
      <trkpt lat="46.60396" lon="5.68899">
        <ele>465.6</ele>
        <time>2022-08-03T07:52:08Z</time>
      </trkpt>
      <trkpt lat="46.60402" lon="5.68896">
        <ele>465.6</ele>
        <time>2022-08-03T07:52:09Z</time>
      </trkpt>
      <trkpt lat="46.60411" lon="5.68895">
        <ele>465.4</ele>
        <time>2022-08-03T07:52:10Z</time>
      </trkpt>
      <trkpt lat="46.60424" lon="5.689">
        <ele>465.2</ele>
        <time>2022-08-03T07:52:12Z</time>
      </trkpt>
      <trkpt lat="46.60457" lon="5.68925">
        <ele>465.2</ele>
        <time>2022-08-03T07:52:17Z</time>
      </trkpt>
      <trkpt lat="46.60494" lon="5.68958">
        <ele>466</ele>
        <time>2022-08-03T07:52:23Z</time>
      </trkpt>
      <trkpt lat="46.60529" lon="5.68991">
        <ele>466</ele>
        <time>2022-08-03T07:52:28Z</time>
      </trkpt>
      <trkpt lat="46.60561" lon="5.69026">
        <ele>465.6</ele>
        <time>2022-08-03T07:52:33Z</time>
      </trkpt>
      <trkpt lat="46.60567" lon="5.69034">
        <ele>465.6</ele>
        <time>2022-08-03T07:52:34Z</time>
      </trkpt>
      <trkpt lat="46.60592" lon="5.69073">
        <ele>465.2</ele>
        <time>2022-08-03T07:52:39Z</time>
      </trkpt>
      <trkpt lat="46.6061" lon="5.69102">
        <ele>466.4</ele>
        <time>2022-08-03T07:52:43Z</time>
      </trkpt>
      <trkpt lat="46.60628" lon="5.69128">
        <ele>467.4</ele>
        <time>2022-08-03T07:52:47Z</time>
      </trkpt>
      <trkpt lat="46.60639" lon="5.69142">
        <ele>467.6</ele>
        <time>2022-08-03T07:52:49Z</time>
      </trkpt>
      <trkpt lat="46.6067" lon="5.69174">
        <ele>467.6</ele>
        <time>2022-08-03T07:52:54Z</time>
      </trkpt>
      <trkpt lat="46.60691" lon="5.69193">
        <ele>466.4</ele>
        <time>2022-08-03T07:52:57Z</time>
      </trkpt>
      <trkpt lat="46.60722" lon="5.69224">
        <ele>465.6</ele>
        <time>2022-08-03T07:53:02Z</time>
      </trkpt>
      <trkpt lat="46.6075" lon="5.69253">
        <ele>465.2</ele>
        <time>2022-08-03T07:53:07Z</time>
      </trkpt>
      <trkpt lat="46.60788" lon="5.69293">
        <ele>464.4</ele>
        <time>2022-08-03T07:53:14Z</time>
      </trkpt>
      <trkpt lat="46.60795" lon="5.693">
        <ele>464.2</ele>
        <time>2022-08-03T07:53:15Z</time>
      </trkpt>
      <trkpt lat="46.60822" lon="5.69329">
        <ele>462.8</ele>
        <time>2022-08-03T07:53:19Z</time>
      </trkpt>
      <trkpt lat="46.60843" lon="5.69354">
        <ele>461.6</ele>
        <time>2022-08-03T07:53:22Z</time>
      </trkpt>
      <trkpt lat="46.60873" lon="5.69388">
        <ele>460.2</ele>
        <time>2022-08-03T07:53:26Z</time>
      </trkpt>
      <trkpt lat="46.60905" lon="5.69423">
        <ele>458.8</ele>
        <time>2022-08-03T07:53:30Z</time>
      </trkpt>
      <trkpt lat="46.60913" lon="5.69432">
        <ele>458.6</ele>
        <time>2022-08-03T07:53:31Z</time>
      </trkpt>
      <trkpt lat="46.6093" lon="5.6945">
        <ele>457.8</ele>
        <time>2022-08-03T07:53:33Z</time>
      </trkpt>
      <trkpt lat="46.60958" lon="5.69477">
        <ele>456.6</ele>
        <time>2022-08-03T07:53:36Z</time>
      </trkpt>
      <trkpt lat="46.60977" lon="5.69496">
        <ele>455.8</ele>
        <time>2022-08-03T07:53:38Z</time>
      </trkpt>
      <trkpt lat="46.60987" lon="5.69505">
        <ele>455</ele>
        <time>2022-08-03T07:53:39Z</time>
      </trkpt>
      <trkpt lat="46.61005" lon="5.69524">
        <ele>453.8</ele>
        <time>2022-08-03T07:53:41Z</time>
      </trkpt>
      <trkpt lat="46.61014" lon="5.69533">
        <ele>452.4</ele>
        <time>2022-08-03T07:53:42Z</time>
      </trkpt>
      <trkpt lat="46.61032" lon="5.69551">
        <ele>450.8</ele>
        <time>2022-08-03T07:53:44Z</time>
      </trkpt>
      <trkpt lat="46.61041" lon="5.69559">
        <ele>450.4</ele>
        <time>2022-08-03T07:53:45Z</time>
      </trkpt>
      <trkpt lat="46.61081" lon="5.6959">
        <ele>450</ele>
        <time>2022-08-03T07:53:50Z</time>
      </trkpt>
      <trkpt lat="46.61115" lon="5.69616">
        <ele>451.4</ele>
        <time>2022-08-03T07:53:55Z</time>
      </trkpt>
      <trkpt lat="46.61121" lon="5.69622">
        <ele>452</ele>
        <time>2022-08-03T07:53:56Z</time>
      </trkpt>
      <trkpt lat="46.61132" lon="5.69634">
        <ele>453.2</ele>
        <time>2022-08-03T07:53:58Z</time>
      </trkpt>
      <trkpt lat="46.61137" lon="5.69641">
        <ele>453.6</ele>
        <time>2022-08-03T07:53:59Z</time>
      </trkpt>
      <trkpt lat="46.61141" lon="5.69648">
        <ele>454.2</ele>
        <time>2022-08-03T07:54:00Z</time>
      </trkpt>
      <trkpt lat="46.61145" lon="5.69655">
        <ele>455</ele>
        <time>2022-08-03T07:54:01Z</time>
      </trkpt>
      <trkpt lat="46.61153" lon="5.69669">
        <ele>456.2</ele>
        <time>2022-08-03T07:54:03Z</time>
      </trkpt>
      <trkpt lat="46.61164" lon="5.69689">
        <ele>457.4</ele>
        <time>2022-08-03T07:54:06Z</time>
      </trkpt>
      <trkpt lat="46.61171" lon="5.69703">
        <ele>458.8</ele>
        <time>2022-08-03T07:54:08Z</time>
      </trkpt>
      <trkpt lat="46.61184" lon="5.69733">
        <ele>459.8</ele>
        <time>2022-08-03T07:54:12Z</time>
      </trkpt>
      <trkpt lat="46.6119" lon="5.69749">
        <ele>460.4</ele>
        <time>2022-08-03T07:54:14Z</time>
      </trkpt>
      <trkpt lat="46.61196" lon="5.69765">
        <ele>461</ele>
        <time>2022-08-03T07:54:16Z</time>
      </trkpt>
      <trkpt lat="46.61222" lon="5.69837">
        <ele>462</ele>
        <time>2022-08-03T07:54:25Z</time>
      </trkpt>
      <trkpt lat="46.61225" lon="5.69845">
        <ele>462</ele>
        <time>2022-08-03T07:54:26Z</time>
      </trkpt>
      <trkpt lat="46.61253" lon="5.69921">
        <ele>461.8</ele>
        <time>2022-08-03T07:54:35Z</time>
      </trkpt>
      <trkpt lat="46.61269" lon="5.69953">
        <ele>461.6</ele>
        <time>2022-08-03T07:54:39Z</time>
      </trkpt>
      <trkpt lat="46.61274" lon="5.69961">
        <ele>461.6</ele>
        <time>2022-08-03T07:54:40Z</time>
      </trkpt>
      <trkpt lat="46.6128" lon="5.69969">
        <ele>461.4</ele>
        <time>2022-08-03T07:54:41Z</time>
      </trkpt>
      <trkpt lat="46.61304" lon="5.69992">
        <ele>461.2</ele>
        <time>2022-08-03T07:54:45Z</time>
      </trkpt>
      <trkpt lat="46.61354" lon="5.70035">
        <ele>461.6</ele>
        <time>2022-08-03T07:54:53Z</time>
      </trkpt>
      <trkpt lat="46.61408" lon="5.70071">
        <ele>462</ele>
        <time>2022-08-03T07:55:01Z</time>
      </trkpt>
      <trkpt lat="46.61465" lon="5.70098">
        <ele>461.8</ele>
        <time>2022-08-03T07:55:09Z</time>
      </trkpt>
      <trkpt lat="46.61509" lon="5.70117">
        <ele>461.6</ele>
        <time>2022-08-03T07:55:15Z</time>
      </trkpt>
      <trkpt lat="46.61567" lon="5.70146">
        <ele>461.8</ele>
        <time>2022-08-03T07:55:23Z</time>
      </trkpt>
      <trkpt lat="46.61597" lon="5.70155">
        <ele>462</ele>
        <time>2022-08-03T07:55:27Z</time>
      </trkpt>
      <trkpt lat="46.61613" lon="5.70156">
        <ele>461.8</ele>
        <time>2022-08-03T07:55:29Z</time>
      </trkpt>
      <trkpt lat="46.61628" lon="5.70155">
        <ele>461.8</ele>
        <time>2022-08-03T07:55:31Z</time>
      </trkpt>
      <trkpt lat="46.61666" lon="5.70149">
        <ele>462</ele>
        <time>2022-08-03T07:55:36Z</time>
      </trkpt>
      <trkpt lat="46.61715" lon="5.70139">
        <ele>462.4</ele>
        <time>2022-08-03T07:55:43Z</time>
      </trkpt>
      <trkpt lat="46.61722" lon="5.70138">
        <ele>462.4</ele>
        <time>2022-08-03T07:55:44Z</time>
      </trkpt>
      <trkpt lat="46.6173" lon="5.70138">
        <ele>462.4</ele>
        <time>2022-08-03T07:55:45Z</time>
      </trkpt>
      <trkpt lat="46.61756" lon="5.70144">
        <ele>463.4</ele>
        <time>2022-08-03T07:55:49Z</time>
      </trkpt>
      <trkpt lat="46.61763" lon="5.70146">
        <ele>463.8</ele>
        <time>2022-08-03T07:55:50Z</time>
      </trkpt>
      <trkpt lat="46.61808" lon="5.70159">
        <ele>464.6</ele>
        <time>2022-08-03T07:55:57Z</time>
      </trkpt>
      <trkpt lat="46.61861" lon="5.70177">
        <ele>464.8</ele>
        <time>2022-08-03T07:56:05Z</time>
      </trkpt>
      <trkpt lat="46.61868" lon="5.70179">
        <ele>464.8</ele>
        <time>2022-08-03T07:56:06Z</time>
      </trkpt>
      <trkpt lat="46.61909" lon="5.70198">
        <ele>464.8</ele>
        <time>2022-08-03T07:56:12Z</time>
      </trkpt>
      <trkpt lat="46.61951" lon="5.70214">
        <ele>465</ele>
        <time>2022-08-03T07:56:18Z</time>
      </trkpt>
      <trkpt lat="46.6197" lon="5.70222">
        <ele>465</ele>
        <time>2022-08-03T07:56:21Z</time>
      </trkpt>
      <trkpt lat="46.62011" lon="5.70239">
        <ele>465.2</ele>
        <time>2022-08-03T07:56:27Z</time>
      </trkpt>
      <trkpt lat="46.62067" lon="5.70258">
        <ele>465.2</ele>
        <time>2022-08-03T07:56:35Z</time>
      </trkpt>
      <trkpt lat="46.62074" lon="5.70261">
        <ele>465.2</ele>
        <time>2022-08-03T07:56:36Z</time>
      </trkpt>
      <trkpt lat="46.62133" lon="5.70285">
        <ele>465</ele>
        <time>2022-08-03T07:56:44Z</time>
      </trkpt>
      <trkpt lat="46.6214" lon="5.70289">
        <ele>465</ele>
        <time>2022-08-03T07:56:45Z</time>
      </trkpt>
      <trkpt lat="46.62182" lon="5.7032">
        <ele>464.4</ele>
        <time>2022-08-03T07:56:51Z</time>
      </trkpt>
      <trkpt lat="46.62196" lon="5.70326">
        <ele>464.2</ele>
        <time>2022-08-03T07:56:53Z</time>
      </trkpt>
      <trkpt lat="46.6221" lon="5.70328">
        <ele>464</ele>
        <time>2022-08-03T07:56:55Z</time>
      </trkpt>
      <trkpt lat="46.62248" lon="5.70339">
        <ele>464.6</ele>
        <time>2022-08-03T07:57:01Z</time>
      </trkpt>
      <trkpt lat="46.62278" lon="5.70354">
        <ele>466.2</ele>
        <time>2022-08-03T07:57:06Z</time>
      </trkpt>
      <trkpt lat="46.62282" lon="5.7036">
        <ele>466.4</ele>
        <time>2022-08-03T07:57:07Z</time>
      </trkpt>
      <trkpt lat="46.62286" lon="5.70368">
        <ele>466.4</ele>
        <time>2022-08-03T07:57:08Z</time>
      </trkpt>
      <trkpt lat="46.62287" lon="5.70385">
        <ele>466.4</ele>
        <time>2022-08-03T07:57:10Z</time>
      </trkpt>
      <trkpt lat="46.62287" lon="5.70403">
        <ele>466.4</ele>
        <time>2022-08-03T07:57:12Z</time>
      </trkpt>
      <trkpt lat="46.6229" lon="5.70411">
        <ele>466.2</ele>
        <time>2022-08-03T07:57:13Z</time>
      </trkpt>
      <trkpt lat="46.62295" lon="5.70418">
        <ele>466</ele>
        <time>2022-08-03T07:57:14Z</time>
      </trkpt>
      <trkpt lat="46.62306" lon="5.70428">
        <ele>466</ele>
        <time>2022-08-03T07:57:16Z</time>
      </trkpt>
      <trkpt lat="46.62341" lon="5.70437">
        <ele>465.2</ele>
        <time>2022-08-03T07:57:21Z</time>
      </trkpt>
      <trkpt lat="46.62394" lon="5.70443">
        <ele>464.8</ele>
        <time>2022-08-03T07:57:28Z</time>
      </trkpt>
      <trkpt lat="46.62402" lon="5.70446">
        <ele>464.8</ele>
        <time>2022-08-03T07:57:29Z</time>
      </trkpt>
      <trkpt lat="46.62416" lon="5.70459">
        <ele>464.8</ele>
        <time>2022-08-03T07:57:31Z</time>
      </trkpt>
      <trkpt lat="46.62421" lon="5.70466">
        <ele>464.2</ele>
        <time>2022-08-03T07:57:32Z</time>
      </trkpt>
      <trkpt lat="46.62444" lon="5.70494">
        <ele>464</ele>
        <time>2022-08-03T07:57:36Z</time>
      </trkpt>
      <trkpt lat="46.6246" lon="5.7051">
        <ele>464.2</ele>
        <time>2022-08-03T07:57:39Z</time>
      </trkpt>
      <trkpt lat="46.62473" lon="5.70516">
        <ele>464.8</ele>
        <time>2022-08-03T07:57:41Z</time>
      </trkpt>
      <trkpt lat="46.62493" lon="5.70514">
        <ele>465.4</ele>
        <time>2022-08-03T07:57:44Z</time>
      </trkpt>
      <trkpt lat="46.62499" lon="5.70512">
        <ele>465.4</ele>
        <time>2022-08-03T07:57:45Z</time>
      </trkpt>
      <trkpt lat="46.62523" lon="5.70497">
        <ele>466.6</ele>
        <time>2022-08-03T07:57:49Z</time>
      </trkpt>
      <trkpt lat="46.62528" lon="5.70492">
        <ele>466.8</ele>
        <time>2022-08-03T07:57:50Z</time>
      </trkpt>
      <trkpt lat="46.62539" lon="5.70479">
        <ele>467.2</ele>
        <time>2022-08-03T07:57:52Z</time>
      </trkpt>
      <trkpt lat="46.62548" lon="5.70464">
        <ele>467.4</ele>
        <time>2022-08-03T07:57:54Z</time>
      </trkpt>
      <trkpt lat="46.62568" lon="5.70412">
        <ele>467.6</ele>
        <time>2022-08-03T07:58:00Z</time>
      </trkpt>
      <trkpt lat="46.62574" lon="5.70395">
        <ele>467.8</ele>
        <time>2022-08-03T07:58:02Z</time>
      </trkpt>
      <trkpt lat="46.62586" lon="5.70354">
        <ele>469</ele>
        <time>2022-08-03T07:58:07Z</time>
      </trkpt>
      <trkpt lat="46.62594" lon="5.7033">
        <ele>469.2</ele>
        <time>2022-08-03T07:58:10Z</time>
      </trkpt>
      <trkpt lat="46.62613" lon="5.7027">
        <ele>470</ele>
        <time>2022-08-03T07:58:17Z</time>
      </trkpt>
      <trkpt lat="46.62621" lon="5.70243">
        <ele>470</ele>
        <time>2022-08-03T07:58:20Z</time>
      </trkpt>
      <trkpt lat="46.62643" lon="5.70177">
        <ele>469.4</ele>
        <time>2022-08-03T07:58:27Z</time>
      </trkpt>
      <trkpt lat="46.62667" lon="5.70126">
        <ele>468.8</ele>
        <time>2022-08-03T07:58:32Z</time>
      </trkpt>
      <trkpt lat="46.62692" lon="5.70084">
        <ele>467.4</ele>
        <time>2022-08-03T07:58:36Z</time>
      </trkpt>
      <trkpt lat="46.62707" lon="5.70059">
        <ele>466</ele>
        <time>2022-08-03T07:58:38Z</time>
      </trkpt>
      <trkpt lat="46.62721" lon="5.70037">
        <ele>464</ele>
        <time>2022-08-03T07:58:40Z</time>
      </trkpt>
      <trkpt lat="46.62741" lon="5.70004">
        <ele>463</ele>
        <time>2022-08-03T07:58:43Z</time>
      </trkpt>
      <trkpt lat="46.62747" lon="5.69996">
        <ele>462.2</ele>
        <time>2022-08-03T07:58:44Z</time>
      </trkpt>
      <trkpt lat="46.62762" lon="5.69974">
        <ele>461.4</ele>
        <time>2022-08-03T07:58:46Z</time>
      </trkpt>
      <trkpt lat="46.62798" lon="5.69922">
        <ele>459.8</ele>
        <time>2022-08-03T07:58:51Z</time>
      </trkpt>
      <trkpt lat="46.62805" lon="5.69912">
        <ele>459.8</ele>
        <time>2022-08-03T07:58:52Z</time>
      </trkpt>
      <trkpt lat="46.62833" lon="5.69872">
        <ele>458.8</ele>
        <time>2022-08-03T07:58:56Z</time>
      </trkpt>
      <trkpt lat="46.62875" lon="5.69812">
        <ele>458.4</ele>
        <time>2022-08-03T07:59:02Z</time>
      </trkpt>
      <trkpt lat="46.62909" lon="5.69763">
        <ele>457.6</ele>
        <time>2022-08-03T07:59:07Z</time>
      </trkpt>
      <trkpt lat="46.62936" lon="5.69723">
        <ele>456.6</ele>
        <time>2022-08-03T07:59:11Z</time>
      </trkpt>
      <trkpt lat="46.6295" lon="5.69704">
        <ele>456.2</ele>
        <time>2022-08-03T07:59:13Z</time>
      </trkpt>
      <trkpt lat="46.62992" lon="5.69637">
        <ele>456</ele>
        <time>2022-08-03T07:59:20Z</time>
      </trkpt>
      <trkpt lat="46.63028" lon="5.6957">
        <ele>456.2</ele>
        <time>2022-08-03T07:59:27Z</time>
      </trkpt>
      <trkpt lat="46.63037" lon="5.6955">
        <ele>455.4</ele>
        <time>2022-08-03T07:59:29Z</time>
      </trkpt>
      <trkpt lat="46.63052" lon="5.69507">
        <ele>455.8</ele>
        <time>2022-08-03T07:59:33Z</time>
      </trkpt>
      <trkpt lat="46.6307" lon="5.69431">
        <ele>456</ele>
        <time>2022-08-03T07:59:40Z</time>
      </trkpt>
      <trkpt lat="46.63072" lon="5.69419">
        <ele>456</ele>
        <time>2022-08-03T07:59:41Z</time>
      </trkpt>
      <trkpt lat="46.6309" lon="5.69342">
        <ele>455.8</ele>
        <time>2022-08-03T07:59:48Z</time>
      </trkpt>
      <trkpt lat="46.63094" lon="5.69329">
        <ele>455.4</ele>
        <time>2022-08-03T07:59:49Z</time>
      </trkpt>
      <trkpt lat="46.63098" lon="5.69318">
        <ele>455.2</ele>
        <time>2022-08-03T07:59:50Z</time>
      </trkpt>
      <trkpt lat="46.63123" lon="5.69263">
        <ele>455</ele>
        <time>2022-08-03T07:59:56Z</time>
      </trkpt>
      <trkpt lat="46.63164" lon="5.69195">
        <ele>456.4</ele>
        <time>2022-08-03T08:00:04Z</time>
      </trkpt>
      <trkpt lat="46.63174" lon="5.69179">
        <ele>456.6</ele>
        <time>2022-08-03T08:00:06Z</time>
      </trkpt>
      <trkpt lat="46.63196" lon="5.69146">
        <ele>456.6</ele>
        <time>2022-08-03T08:00:10Z</time>
      </trkpt>
      <trkpt lat="46.632" lon="5.69138">
        <ele>456.6</ele>
        <time>2022-08-03T08:00:11Z</time>
      </trkpt>
      <trkpt lat="46.63232" lon="5.69072">
        <ele>457</ele>
        <time>2022-08-03T08:00:19Z</time>
      </trkpt>
      <trkpt lat="46.63242" lon="5.6905">
        <ele>457.8</ele>
        <time>2022-08-03T08:00:22Z</time>
      </trkpt>
      <trkpt lat="46.63253" lon="5.6902">
        <ele>458.8</ele>
        <time>2022-08-03T08:00:26Z</time>
      </trkpt>
      <trkpt lat="46.63269" lon="5.68972">
        <ele>460.2</ele>
        <time>2022-08-03T08:00:32Z</time>
      </trkpt>
      <trkpt lat="46.63273" lon="5.68963">
        <ele>460.2</ele>
        <time>2022-08-03T08:00:33Z</time>
      </trkpt>
      <trkpt lat="46.63283" lon="5.68942">
        <ele>461.2</ele>
        <time>2022-08-03T08:00:36Z</time>
      </trkpt>
      <trkpt lat="46.63291" lon="5.68928">
        <ele>461.6</ele>
        <time>2022-08-03T08:00:38Z</time>
      </trkpt>
      <trkpt lat="46.63295" lon="5.68922">
        <ele>461.8</ele>
        <time>2022-08-03T08:00:39Z</time>
      </trkpt>
      <trkpt lat="46.63313" lon="5.68898">
        <ele>462.2</ele>
        <time>2022-08-03T08:00:43Z</time>
      </trkpt>
      <trkpt lat="46.63331" lon="5.68876">
        <ele>462.4</ele>
        <time>2022-08-03T08:00:47Z</time>
      </trkpt>
      <trkpt lat="46.63356" lon="5.6884">
        <ele>463.2</ele>
        <time>2022-08-03T08:00:53Z</time>
      </trkpt>
      <trkpt lat="46.63363" lon="5.68828">
        <ele>464.2</ele>
        <time>2022-08-03T08:00:55Z</time>
      </trkpt>
      <trkpt lat="46.63369" lon="5.68814">
        <ele>464.4</ele>
        <time>2022-08-03T08:00:57Z</time>
      </trkpt>
      <trkpt lat="46.63381" lon="5.68777">
        <ele>464.8</ele>
        <time>2022-08-03T08:01:02Z</time>
      </trkpt>
      <trkpt lat="46.63389" lon="5.68755">
        <ele>465.2</ele>
        <time>2022-08-03T08:01:05Z</time>
      </trkpt>
      <trkpt lat="46.63393" lon="5.68748">
        <ele>465.6</ele>
        <time>2022-08-03T08:01:06Z</time>
      </trkpt>
      <trkpt lat="46.63398" lon="5.68741">
        <ele>465.8</ele>
        <time>2022-08-03T08:01:07Z</time>
      </trkpt>
      <trkpt lat="46.63407" lon="5.68728">
        <ele>466.2</ele>
        <time>2022-08-03T08:01:09Z</time>
      </trkpt>
      <trkpt lat="46.63423" lon="5.68713">
        <ele>466.4</ele>
        <time>2022-08-03T08:01:12Z</time>
      </trkpt>
      <trkpt lat="46.63463" lon="5.68683">
        <ele>466.6</ele>
        <time>2022-08-03T08:01:19Z</time>
      </trkpt>
      <trkpt lat="46.63469" lon="5.68679">
        <ele>466.8</ele>
        <time>2022-08-03T08:01:20Z</time>
      </trkpt>
      <trkpt lat="46.63522" lon="5.68646">
        <ele>467.6</ele>
        <time>2022-08-03T08:01:29Z</time>
      </trkpt>
      <trkpt lat="46.6353" lon="5.68642">
        <ele>467.4</ele>
        <time>2022-08-03T08:01:30Z</time>
      </trkpt>
      <trkpt lat="46.63586" lon="5.68614">
        <ele>467.4</ele>
        <time>2022-08-03T08:01:39Z</time>
      </trkpt>
      <trkpt lat="46.63603" lon="5.68607">
        <ele>467.8</ele>
        <time>2022-08-03T08:01:42Z</time>
      </trkpt>
      <trkpt lat="46.63614" lon="5.68602">
        <ele>468.4</ele>
        <time>2022-08-03T08:01:44Z</time>
      </trkpt>
      <trkpt lat="46.63631" lon="5.68594">
        <ele>469.2</ele>
        <time>2022-08-03T08:01:48Z</time>
      </trkpt>
      <trkpt lat="46.63639" lon="5.68589">
        <ele>469.6</ele>
        <time>2022-08-03T08:01:50Z</time>
      </trkpt>
      <trkpt lat="46.63644" lon="5.68586">
        <ele>470.2</ele>
        <time>2022-08-03T08:01:51Z</time>
      </trkpt>
      <trkpt lat="46.6366" lon="5.68575">
        <ele>471</ele>
        <time>2022-08-03T08:01:55Z</time>
      </trkpt>
      <trkpt lat="46.63664" lon="5.68571">
        <ele>471.2</ele>
        <time>2022-08-03T08:01:56Z</time>
      </trkpt>
      <trkpt lat="46.63678" lon="5.68557">
        <ele>472.2</ele>
        <time>2022-08-03T08:02:00Z</time>
      </trkpt>
      <trkpt lat="46.63686" lon="5.68546">
        <ele>472.6</ele>
        <time>2022-08-03T08:02:02Z</time>
      </trkpt>
      <trkpt lat="46.63693" lon="5.68536">
        <ele>472.8</ele>
        <time>2022-08-03T08:02:04Z</time>
      </trkpt>
      <trkpt lat="46.63703" lon="5.68518">
        <ele>473.2</ele>
        <time>2022-08-03T08:02:07Z</time>
      </trkpt>
      <trkpt lat="46.63706" lon="5.68513">
        <ele>473.4</ele>
        <time>2022-08-03T08:02:08Z</time>
      </trkpt>
      <trkpt lat="46.6373" lon="5.68468">
        <ele>474.4</ele>
        <time>2022-08-03T08:02:15Z</time>
      </trkpt>
      <trkpt lat="46.63734" lon="5.68462">
        <ele>474.6</ele>
        <time>2022-08-03T08:02:16Z</time>
      </trkpt>
      <trkpt lat="46.63758" lon="5.68419">
        <ele>474.8</ele>
        <time>2022-08-03T08:02:23Z</time>
      </trkpt>
      <trkpt lat="46.63768" lon="5.68392">
        <ele>475</ele>
        <time>2022-08-03T08:02:27Z</time>
      </trkpt>
      <trkpt lat="46.63771" lon="5.68376">
        <ele>475.2</ele>
        <time>2022-08-03T08:02:29Z</time>
      </trkpt>
      <trkpt lat="46.63772" lon="5.68369">
        <ele>475.2</ele>
        <time>2022-08-03T08:02:30Z</time>
      </trkpt>
      <trkpt lat="46.63773" lon="5.68356">
        <ele>475.8</ele>
        <time>2022-08-03T08:02:32Z</time>
      </trkpt>
      <trkpt lat="46.63773" lon="5.68339">
        <ele>476.4</ele>
        <time>2022-08-03T08:02:34Z</time>
      </trkpt>
      <trkpt lat="46.63773" lon="5.68323">
        <ele>476.8</ele>
        <time>2022-08-03T08:02:36Z</time>
      </trkpt>
      <trkpt lat="46.63773" lon="5.68279">
        <ele>477.6</ele>
        <time>2022-08-03T08:02:41Z</time>
      </trkpt>
      <trkpt lat="46.63773" lon="5.6827">
        <ele>477.6</ele>
        <time>2022-08-03T08:02:42Z</time>
      </trkpt>
      <trkpt lat="46.63767" lon="5.68197">
        <ele>478.2</ele>
        <time>2022-08-03T08:02:50Z</time>
      </trkpt>
      <trkpt lat="46.6376" lon="5.68173">
        <ele>478.2</ele>
        <time>2022-08-03T08:02:53Z</time>
      </trkpt>
      <trkpt lat="46.63753" lon="5.68157">
        <ele>478.2</ele>
        <time>2022-08-03T08:02:55Z</time>
      </trkpt>
      <trkpt lat="46.63735" lon="5.68123">
        <ele>478.6</ele>
        <time>2022-08-03T08:03:00Z</time>
      </trkpt>
      <trkpt lat="46.63721" lon="5.68101">
        <ele>479.4</ele>
        <time>2022-08-03T08:03:04Z</time>
      </trkpt>
      <trkpt lat="46.63718" lon="5.68095">
        <ele>480</ele>
        <time>2022-08-03T08:03:05Z</time>
      </trkpt>
      <trkpt lat="46.63704" lon="5.68071">
        <ele>481</ele>
        <time>2022-08-03T08:03:10Z</time>
      </trkpt>
      <trkpt lat="46.63685" lon="5.6804">
        <ele>482</ele>
        <time>2022-08-03T08:03:15Z</time>
      </trkpt>
      <trkpt lat="46.63681" lon="5.68033">
        <ele>482.2</ele>
        <time>2022-08-03T08:03:16Z</time>
      </trkpt>
      <trkpt lat="46.63657" lon="5.67987">
        <ele>483</ele>
        <time>2022-08-03T08:03:22Z</time>
      </trkpt>
      <trkpt lat="46.63639" lon="5.67949">
        <ele>483.2</ele>
        <time>2022-08-03T08:03:27Z</time>
      </trkpt>
      <trkpt lat="46.63634" lon="5.67937">
        <ele>483.2</ele>
        <time>2022-08-03T08:03:29Z</time>
      </trkpt>
      <trkpt lat="46.6363" lon="5.67931">
        <ele>483.6</ele>
        <time>2022-08-03T08:03:30Z</time>
      </trkpt>
      <trkpt lat="46.63614" lon="5.67907">
        <ele>483.8</ele>
        <time>2022-08-03T08:03:34Z</time>
      </trkpt>
      <trkpt lat="46.63601" lon="5.67892">
        <ele>484.4</ele>
        <time>2022-08-03T08:03:37Z</time>
      </trkpt>
      <trkpt lat="46.63585" lon="5.67872">
        <ele>484.6</ele>
        <time>2022-08-03T08:03:41Z</time>
      </trkpt>
      <trkpt lat="46.63579" lon="5.6786">
        <ele>485</ele>
        <time>2022-08-03T08:03:43Z</time>
      </trkpt>
      <trkpt lat="46.63578" lon="5.67853">
        <ele>485.4</ele>
        <time>2022-08-03T08:03:44Z</time>
      </trkpt>
      <trkpt lat="46.63578" lon="5.67845">
        <ele>485.6</ele>
        <time>2022-08-03T08:03:45Z</time>
      </trkpt>
      <trkpt lat="46.63578" lon="5.67838">
        <ele>485.8</ele>
        <time>2022-08-03T08:03:46Z</time>
      </trkpt>
      <trkpt lat="46.6358" lon="5.67832">
        <ele>486</ele>
        <time>2022-08-03T08:03:47Z</time>
      </trkpt>
      <trkpt lat="46.63587" lon="5.67821">
        <ele>486.2</ele>
        <time>2022-08-03T08:03:49Z</time>
      </trkpt>
      <trkpt lat="46.6359" lon="5.67817">
        <ele>486.6</ele>
        <time>2022-08-03T08:03:50Z</time>
      </trkpt>
      <trkpt lat="46.63596" lon="5.67808">
        <ele>487.6</ele>
        <time>2022-08-03T08:03:53Z</time>
      </trkpt>
      <trkpt lat="46.63602" lon="5.67812">
        <ele>488.6</ele>
        <time>2022-08-03T08:03:55Z</time>
      </trkpt>
      <trkpt lat="46.63607" lon="5.67816">
        <ele>489</ele>
        <time>2022-08-03T08:03:56Z</time>
      </trkpt>
      <trkpt lat="46.6362" lon="5.67827">
        <ele>490.2</ele>
        <time>2022-08-03T08:04:00Z</time>
      </trkpt>
      <trkpt lat="46.63634" lon="5.67843">
        <ele>491.4</ele>
        <time>2022-08-03T08:04:04Z</time>
      </trkpt>
      <trkpt lat="46.63642" lon="5.67851">
        <ele>491.8</ele>
        <time>2022-08-03T08:04:06Z</time>
      </trkpt>
      <trkpt lat="46.63657" lon="5.67863">
        <ele>492.6</ele>
        <time>2022-08-03T08:04:10Z</time>
      </trkpt>
      <trkpt lat="46.6367" lon="5.67877">
        <ele>493.8</ele>
        <time>2022-08-03T08:04:13Z</time>
      </trkpt>
      <trkpt lat="46.63689" lon="5.67902">
        <ele>494.8</ele>
        <time>2022-08-03T08:04:18Z</time>
      </trkpt>
      <trkpt lat="46.63697" lon="5.67913">
        <ele>496</ele>
        <time>2022-08-03T08:04:21Z</time>
      </trkpt>
      <trkpt lat="46.63704" lon="5.67921">
        <ele>496.6</ele>
        <time>2022-08-03T08:04:23Z</time>
      </trkpt>
      <trkpt lat="46.63711" lon="5.6793">
        <ele>497.2</ele>
        <time>2022-08-03T08:04:25Z</time>
      </trkpt>
      <trkpt lat="46.63719" lon="5.67943">
        <ele>498.2</ele>
        <time>2022-08-03T08:04:28Z</time>
      </trkpt>
      <trkpt lat="46.63727" lon="5.67956">
        <ele>498.8</ele>
        <time>2022-08-03T08:04:31Z</time>
      </trkpt>
      <trkpt lat="46.63732" lon="5.67963">
        <ele>499.2</ele>
        <time>2022-08-03T08:04:33Z</time>
      </trkpt>
      <trkpt lat="46.6374" lon="5.67973">
        <ele>500.2</ele>
        <time>2022-08-03T08:04:36Z</time>
      </trkpt>
      <trkpt lat="46.63749" lon="5.67981">
        <ele>500.8</ele>
        <time>2022-08-03T08:04:39Z</time>
      </trkpt>
      <trkpt lat="46.63755" lon="5.67985">
        <ele>501.2</ele>
        <time>2022-08-03T08:04:41Z</time>
      </trkpt>
      <trkpt lat="46.63769" lon="5.67992">
        <ele>502.2</ele>
        <time>2022-08-03T08:04:46Z</time>
      </trkpt>
      <trkpt lat="46.63779" lon="5.67994">
        <ele>503.4</ele>
        <time>2022-08-03T08:04:49Z</time>
      </trkpt>
      <trkpt lat="46.63789" lon="5.67991">
        <ele>504</ele>
        <time>2022-08-03T08:04:52Z</time>
      </trkpt>
      <trkpt lat="46.63796" lon="5.67989">
        <ele>504.8</ele>
        <time>2022-08-03T08:04:54Z</time>
      </trkpt>
      <trkpt lat="46.63816" lon="5.67984">
        <ele>505.6</ele>
        <time>2022-08-03T08:04:59Z</time>
      </trkpt>
      <trkpt lat="46.6382" lon="5.67983">
        <ele>505.8</ele>
        <time>2022-08-03T08:05:00Z</time>
      </trkpt>
      <trkpt lat="46.63839" lon="5.67977">
        <ele>506.2</ele>
        <time>2022-08-03T08:05:04Z</time>
      </trkpt>
      <trkpt lat="46.63848" lon="5.67975">
        <ele>506.6</ele>
        <time>2022-08-03T08:05:06Z</time>
      </trkpt>
      <trkpt lat="46.6387" lon="5.6797">
        <ele>506.8</ele>
        <time>2022-08-03T08:05:10Z</time>
      </trkpt>
      <trkpt lat="46.63876" lon="5.67968">
        <ele>506.8</ele>
        <time>2022-08-03T08:05:11Z</time>
      </trkpt>
      <trkpt lat="46.63882" lon="5.67967">
        <ele>506.8</ele>
        <time>2022-08-03T08:05:12Z</time>
      </trkpt>
      <trkpt lat="46.6391" lon="5.67967">
        <ele>507</ele>
        <time>2022-08-03T08:05:17Z</time>
      </trkpt>
      <trkpt lat="46.63915" lon="5.67969">
        <ele>507</ele>
        <time>2022-08-03T08:05:18Z</time>
      </trkpt>
      <trkpt lat="46.63929" lon="5.67975">
        <ele>507.4</ele>
        <time>2022-08-03T08:05:21Z</time>
      </trkpt>
      <trkpt lat="46.63941" lon="5.6798">
        <ele>507.6</ele>
        <time>2022-08-03T08:05:23Z</time>
      </trkpt>
      <trkpt lat="46.63947" lon="5.67981">
        <ele>507.6</ele>
        <time>2022-08-03T08:05:24Z</time>
      </trkpt>
      <trkpt lat="46.63952" lon="5.67982">
        <ele>508</ele>
        <time>2022-08-03T08:05:25Z</time>
      </trkpt>
      <trkpt lat="46.63961" lon="5.67983">
        <ele>508.4</ele>
        <time>2022-08-03T08:05:27Z</time>
      </trkpt>
      <trkpt lat="46.63976" lon="5.67982">
        <ele>509</ele>
        <time>2022-08-03T08:05:30Z</time>
      </trkpt>
      <trkpt lat="46.63993" lon="5.67985">
        <ele>509.8</ele>
        <time>2022-08-03T08:05:33Z</time>
      </trkpt>
      <trkpt lat="46.64" lon="5.67985">
        <ele>510</ele>
        <time>2022-08-03T08:05:34Z</time>
      </trkpt>
      <trkpt lat="46.64007" lon="5.67985">
        <ele>510.2</ele>
        <time>2022-08-03T08:05:35Z</time>
      </trkpt>
      <trkpt lat="46.6402" lon="5.67983">
        <ele>510.6</ele>
        <time>2022-08-03T08:05:37Z</time>
      </trkpt>
      <trkpt lat="46.64036" lon="5.67979">
        <ele>510.8</ele>
        <time>2022-08-03T08:05:39Z</time>
      </trkpt>
      <trkpt lat="46.64051" lon="5.67969">
        <ele>510.8</ele>
        <time>2022-08-03T08:05:41Z</time>
      </trkpt>
      <trkpt lat="46.64067" lon="5.67956">
        <ele>510.6</ele>
        <time>2022-08-03T08:05:43Z</time>
      </trkpt>
      <trkpt lat="46.64073" lon="5.67947">
        <ele>510.6</ele>
        <time>2022-08-03T08:05:44Z</time>
      </trkpt>
      <trkpt lat="46.64078" lon="5.67937">
        <ele>510.2</ele>
        <time>2022-08-03T08:05:45Z</time>
      </trkpt>
      <trkpt lat="46.64079" lon="5.67912">
        <ele>509.2</ele>
        <time>2022-08-03T08:05:47Z</time>
      </trkpt>
      <trkpt lat="46.64079" lon="5.67899">
        <ele>508.6</ele>
        <time>2022-08-03T08:05:48Z</time>
      </trkpt>
      <trkpt lat="46.64079" lon="5.67887">
        <ele>508.4</ele>
        <time>2022-08-03T08:05:49Z</time>
      </trkpt>
      <trkpt lat="46.64084" lon="5.67854">
        <ele>507.8</ele>
        <time>2022-08-03T08:05:52Z</time>
      </trkpt>
      <trkpt lat="46.64087" lon="5.67844">
        <ele>507.6</ele>
        <time>2022-08-03T08:05:53Z</time>
      </trkpt>
      <trkpt lat="46.6409" lon="5.67835">
        <ele>507.4</ele>
        <time>2022-08-03T08:05:54Z</time>
      </trkpt>
      <trkpt lat="46.64098" lon="5.67817">
        <ele>507.2</ele>
        <time>2022-08-03T08:05:56Z</time>
      </trkpt>
      <trkpt lat="46.64106" lon="5.67798">
        <ele>507</ele>
        <time>2022-08-03T08:05:58Z</time>
      </trkpt>
      <trkpt lat="46.64118" lon="5.67783">
        <ele>506.6</ele>
        <time>2022-08-03T08:06:00Z</time>
      </trkpt>
      <trkpt lat="46.6413" lon="5.67768">
        <ele>506.4</ele>
        <time>2022-08-03T08:06:02Z</time>
      </trkpt>
      <trkpt lat="46.64143" lon="5.67754">
        <ele>506.4</ele>
        <time>2022-08-03T08:06:04Z</time>
      </trkpt>
      <trkpt lat="46.64153" lon="5.67739">
        <ele>506.2</ele>
        <time>2022-08-03T08:06:06Z</time>
      </trkpt>
      <trkpt lat="46.64182" lon="5.67685">
        <ele>505.8</ele>
        <time>2022-08-03T08:06:12Z</time>
      </trkpt>
      <trkpt lat="46.64187" lon="5.67677">
        <ele>505.8</ele>
        <time>2022-08-03T08:06:13Z</time>
      </trkpt>
      <trkpt lat="46.64205" lon="5.67642">
        <ele>505.6</ele>
        <time>2022-08-03T08:06:17Z</time>
      </trkpt>
      <trkpt lat="46.64218" lon="5.67619">
        <ele>505.6</ele>
        <time>2022-08-03T08:06:20Z</time>
      </trkpt>
      <trkpt lat="46.64231" lon="5.6759">
        <ele>505.4</ele>
        <time>2022-08-03T08:06:23Z</time>
      </trkpt>
      <trkpt lat="46.64242" lon="5.67564">
        <ele>505.2</ele>
        <time>2022-08-03T08:06:26Z</time>
      </trkpt>
      <trkpt lat="46.64257" lon="5.67526">
        <ele>505.2</ele>
        <time>2022-08-03T08:06:30Z</time>
      </trkpt>
      <trkpt lat="46.6426" lon="5.67516">
        <ele>505.2</ele>
        <time>2022-08-03T08:06:31Z</time>
      </trkpt>
      <trkpt lat="46.64268" lon="5.67457">
        <ele>505</ele>
        <time>2022-08-03T08:06:36Z</time>
      </trkpt>
      <trkpt lat="46.64281" lon="5.67395">
        <ele>504</ele>
        <time>2022-08-03T08:06:41Z</time>
      </trkpt>
      <trkpt lat="46.64288" lon="5.67361">
        <ele>502.8</ele>
        <time>2022-08-03T08:06:44Z</time>
      </trkpt>
      <trkpt lat="46.64297" lon="5.67325">
        <ele>502</ele>
        <time>2022-08-03T08:06:47Z</time>
      </trkpt>
      <trkpt lat="46.64304" lon="5.67303">
        <ele>501.6</ele>
        <time>2022-08-03T08:06:49Z</time>
      </trkpt>
      <trkpt lat="46.6431" lon="5.6728">
        <ele>500.6</ele>
        <time>2022-08-03T08:06:51Z</time>
      </trkpt>
      <trkpt lat="46.64313" lon="5.6727">
        <ele>500.4</ele>
        <time>2022-08-03T08:06:52Z</time>
      </trkpt>
      <trkpt lat="46.64321" lon="5.67239">
        <ele>499.8</ele>
        <time>2022-08-03T08:06:56Z</time>
      </trkpt>
      <trkpt lat="46.64321" lon="5.67222">
        <ele>500</ele>
        <time>2022-08-03T08:06:59Z</time>
      </trkpt>
      <trkpt lat="46.64319" lon="5.67217">
        <ele>500.2</ele>
        <time>2022-08-03T08:07:00Z</time>
      </trkpt>
      <trkpt lat="46.64316" lon="5.67212">
        <ele>500.2</ele>
        <time>2022-08-03T08:07:01Z</time>
      </trkpt>
      <trkpt lat="46.64309" lon="5.67203">
        <ele>500.4</ele>
        <time>2022-08-03T08:07:03Z</time>
      </trkpt>
      <trkpt lat="46.64305" lon="5.67198">
        <ele>500.4</ele>
        <time>2022-08-03T08:07:04Z</time>
      </trkpt>
      <trkpt lat="46.64302" lon="5.67194">
        <ele>500.4</ele>
        <time>2022-08-03T08:07:05Z</time>
      </trkpt>
      <trkpt lat="46.64292" lon="5.67174">
        <ele>500.4</ele>
        <time>2022-08-03T08:07:09Z</time>
      </trkpt>
      <trkpt lat="46.64289" lon="5.67166">
        <ele>500.4</ele>
        <time>2022-08-03T08:07:10Z</time>
      </trkpt>
      <trkpt lat="46.64282" lon="5.6715">
        <ele>500.8</ele>
        <time>2022-08-03T08:07:12Z</time>
      </trkpt>
      <trkpt lat="46.64257" lon="5.67102">
        <ele>501.4</ele>
        <time>2022-08-03T08:07:18Z</time>
      </trkpt>
      <trkpt lat="46.64237" lon="5.67065">
        <ele>502.2</ele>
        <time>2022-08-03T08:07:23Z</time>
      </trkpt>
      <trkpt lat="46.6423" lon="5.6705">
        <ele>502.6</ele>
        <time>2022-08-03T08:07:25Z</time>
      </trkpt>
      <trkpt lat="46.6422" lon="5.67031">
        <ele>503.4</ele>
        <time>2022-08-03T08:07:28Z</time>
      </trkpt>
      <trkpt lat="46.6421" lon="5.6701">
        <ele>504</ele>
        <time>2022-08-03T08:07:31Z</time>
      </trkpt>
      <trkpt lat="46.64208" lon="5.67003">
        <ele>504.4</ele>
        <time>2022-08-03T08:07:32Z</time>
      </trkpt>
      <trkpt lat="46.64201" lon="5.66982">
        <ele>505.6</ele>
        <time>2022-08-03T08:07:35Z</time>
      </trkpt>
      <trkpt lat="46.64196" lon="5.66962">
        <ele>506.2</ele>
        <time>2022-08-03T08:07:38Z</time>
      </trkpt>
      <trkpt lat="46.64194" lon="5.66949">
        <ele>506.4</ele>
        <time>2022-08-03T08:07:40Z</time>
      </trkpt>
      <trkpt lat="46.6419" lon="5.66921">
        <ele>507.4</ele>
        <time>2022-08-03T08:07:44Z</time>
      </trkpt>
      <trkpt lat="46.64189" lon="5.66915">
        <ele>507.6</ele>
        <time>2022-08-03T08:07:45Z</time>
      </trkpt>
      <trkpt lat="46.64186" lon="5.66889">
        <ele>508.8</ele>
        <time>2022-08-03T08:07:49Z</time>
      </trkpt>
      <trkpt lat="46.6418" lon="5.66855">
        <ele>509.8</ele>
        <time>2022-08-03T08:07:54Z</time>
      </trkpt>
      <trkpt lat="46.64178" lon="5.66848">
        <ele>510</ele>
        <time>2022-08-03T08:07:55Z</time>
      </trkpt>
      <trkpt lat="46.64169" lon="5.66789">
        <ele>511</ele>
        <time>2022-08-03T08:08:03Z</time>
      </trkpt>
      <trkpt lat="46.64163" lon="5.66747">
        <ele>511.8</ele>
        <time>2022-08-03T08:08:09Z</time>
      </trkpt>
      <trkpt lat="46.6416" lon="5.66731">
        <ele>512.2</ele>
        <time>2022-08-03T08:08:11Z</time>
      </trkpt>
      <trkpt lat="46.64153" lon="5.66684">
        <ele>513.2</ele>
        <time>2022-08-03T08:08:17Z</time>
      </trkpt>
      <trkpt lat="46.64149" lon="5.66659">
        <ele>513.4</ele>
        <time>2022-08-03T08:08:20Z</time>
      </trkpt>
      <trkpt lat="46.6414" lon="5.66603">
        <ele>513.8</ele>
        <time>2022-08-03T08:08:27Z</time>
      </trkpt>
      <trkpt lat="46.64132" lon="5.66547">
        <ele>514.2</ele>
        <time>2022-08-03T08:08:34Z</time>
      </trkpt>
      <trkpt lat="46.6413" lon="5.66531">
        <ele>514.2</ele>
        <time>2022-08-03T08:08:36Z</time>
      </trkpt>
      <trkpt lat="46.6412" lon="5.66465">
        <ele>515</ele>
        <time>2022-08-03T08:08:44Z</time>
      </trkpt>
      <trkpt lat="46.64115" lon="5.66438">
        <ele>515.4</ele>
        <time>2022-08-03T08:08:47Z</time>
      </trkpt>
      <trkpt lat="46.64108" lon="5.66387">
        <ele>515.4</ele>
        <time>2022-08-03T08:08:52Z</time>
      </trkpt>
      <trkpt lat="46.64095" lon="5.66323">
        <ele>514.6</ele>
        <time>2022-08-03T08:08:58Z</time>
      </trkpt>
      <trkpt lat="46.64087" lon="5.66304">
        <ele>514.4</ele>
        <time>2022-08-03T08:09:00Z</time>
      </trkpt>
      <trkpt lat="46.64077" lon="5.66289">
        <ele>514.4</ele>
        <time>2022-08-03T08:09:02Z</time>
      </trkpt>
      <trkpt lat="46.64069" lon="5.66281">
        <ele>514.2</ele>
        <time>2022-08-03T08:09:03Z</time>
      </trkpt>
      <trkpt lat="46.64061" lon="5.66275">
        <ele>514.2</ele>
        <time>2022-08-03T08:09:04Z</time>
      </trkpt>
      <trkpt lat="46.64046" lon="5.66267">
        <ele>514</ele>
        <time>2022-08-03T08:09:06Z</time>
      </trkpt>
      <trkpt lat="46.64027" lon="5.66259">
        <ele>513</ele>
        <time>2022-08-03T08:09:08Z</time>
      </trkpt>
      <trkpt lat="46.63991" lon="5.66236">
        <ele>511.4</ele>
        <time>2022-08-03T08:09:12Z</time>
      </trkpt>
      <trkpt lat="46.63977" lon="5.66219">
        <ele>510.8</ele>
        <time>2022-08-03T08:09:14Z</time>
      </trkpt>
      <trkpt lat="46.63972" lon="5.66211">
        <ele>510.4</ele>
        <time>2022-08-03T08:09:15Z</time>
      </trkpt>
      <trkpt lat="46.63965" lon="5.66199">
        <ele>509.8</ele>
        <time>2022-08-03T08:09:16Z</time>
      </trkpt>
      <trkpt lat="46.6396" lon="5.66188">
        <ele>509.4</ele>
        <time>2022-08-03T08:09:17Z</time>
      </trkpt>
      <trkpt lat="46.63945" lon="5.6616">
        <ele>509</ele>
        <time>2022-08-03T08:09:20Z</time>
      </trkpt>
      <trkpt lat="46.63938" lon="5.6615">
        <ele>509</ele>
        <time>2022-08-03T08:09:21Z</time>
      </trkpt>
      <trkpt lat="46.63905" lon="5.66121">
        <ele>509.2</ele>
        <time>2022-08-03T08:09:26Z</time>
      </trkpt>
      <trkpt lat="46.63866" lon="5.66097">
        <ele>509.8</ele>
        <time>2022-08-03T08:09:32Z</time>
      </trkpt>
      <trkpt lat="46.63849" lon="5.66082">
        <ele>510.6</ele>
        <time>2022-08-03T08:09:35Z</time>
      </trkpt>
      <trkpt lat="46.63833" lon="5.66065">
        <ele>511.2</ele>
        <time>2022-08-03T08:09:38Z</time>
      </trkpt>
      <trkpt lat="46.63823" lon="5.66054">
        <ele>511.6</ele>
        <time>2022-08-03T08:09:40Z</time>
      </trkpt>
      <trkpt lat="46.63808" lon="5.66037">
        <ele>512.2</ele>
        <time>2022-08-03T08:09:43Z</time>
      </trkpt>
      <trkpt lat="46.63803" lon="5.6603">
        <ele>512.4</ele>
        <time>2022-08-03T08:09:44Z</time>
      </trkpt>
      <trkpt lat="46.63799" lon="5.66023">
        <ele>512.6</ele>
        <time>2022-08-03T08:09:45Z</time>
      </trkpt>
      <trkpt lat="46.63791" lon="5.6601">
        <ele>513</ele>
        <time>2022-08-03T08:09:47Z</time>
      </trkpt>
      <trkpt lat="46.63782" lon="5.66">
        <ele>513.6</ele>
        <time>2022-08-03T08:09:49Z</time>
      </trkpt>
      <trkpt lat="46.63777" lon="5.65996">
        <ele>513.6</ele>
        <time>2022-08-03T08:09:50Z</time>
      </trkpt>
      <trkpt lat="46.63758" lon="5.6598">
        <ele>514.8</ele>
        <time>2022-08-03T08:09:54Z</time>
      </trkpt>
      <trkpt lat="46.63755" lon="5.65977">
        <ele>515</ele>
        <time>2022-08-03T08:09:55Z</time>
      </trkpt>
      <trkpt lat="46.63747" lon="5.65968">
        <ele>515.4</ele>
        <time>2022-08-03T08:09:57Z</time>
      </trkpt>
      <trkpt lat="46.63737" lon="5.65954">
        <ele>515.8</ele>
        <time>2022-08-03T08:10:00Z</time>
      </trkpt>
      <trkpt lat="46.63733" lon="5.65947">
        <ele>516</ele>
        <time>2022-08-03T08:10:01Z</time>
      </trkpt>
      <trkpt lat="46.6373" lon="5.6594">
        <ele>516</ele>
        <time>2022-08-03T08:10:02Z</time>
      </trkpt>
      <trkpt lat="46.63713" lon="5.65918">
        <ele>516.8</ele>
        <time>2022-08-03T08:10:06Z</time>
      </trkpt>
      <trkpt lat="46.63709" lon="5.65913">
        <ele>517</ele>
        <time>2022-08-03T08:10:07Z</time>
      </trkpt>
      <trkpt lat="46.63677" lon="5.65882">
        <ele>517.8</ele>
        <time>2022-08-03T08:10:13Z</time>
      </trkpt>
      <trkpt lat="46.63672" lon="5.65876">
        <ele>517.8</ele>
        <time>2022-08-03T08:10:14Z</time>
      </trkpt>
      <trkpt lat="46.63661" lon="5.65861">
        <ele>517.6</ele>
        <time>2022-08-03T08:10:16Z</time>
      </trkpt>
      <trkpt lat="46.63656" lon="5.65852">
        <ele>517.6</ele>
        <time>2022-08-03T08:10:17Z</time>
      </trkpt>
      <trkpt lat="46.63654" lon="5.65845">
        <ele>517.4</ele>
        <time>2022-08-03T08:10:18Z</time>
      </trkpt>
      <trkpt lat="46.63646" lon="5.65806">
        <ele>517.4</ele>
        <time>2022-08-03T08:10:22Z</time>
      </trkpt>
      <trkpt lat="46.63644" lon="5.6576">
        <ele>517.8</ele>
        <time>2022-08-03T08:10:27Z</time>
      </trkpt>
      <trkpt lat="46.63642" lon="5.65733">
        <ele>518</ele>
        <time>2022-08-03T08:10:30Z</time>
      </trkpt>
      <trkpt lat="46.63641" lon="5.65724">
        <ele>518</ele>
        <time>2022-08-03T08:10:31Z</time>
      </trkpt>
      <trkpt lat="46.63639" lon="5.65715">
        <ele>518</ele>
        <time>2022-08-03T08:10:32Z</time>
      </trkpt>
      <trkpt lat="46.63629" lon="5.65672">
        <ele>517.8</ele>
        <time>2022-08-03T08:10:36Z</time>
      </trkpt>
      <trkpt lat="46.63621" lon="5.65646">
        <ele>517</ele>
        <time>2022-08-03T08:10:38Z</time>
      </trkpt>
      <trkpt lat="46.63616" lon="5.65633">
        <ele>516.8</ele>
        <time>2022-08-03T08:10:39Z</time>
      </trkpt>
      <trkpt lat="46.6361" lon="5.65621">
        <ele>516.2</ele>
        <time>2022-08-03T08:10:40Z</time>
      </trkpt>
      <trkpt lat="46.63603" lon="5.65611">
        <ele>515.6</ele>
        <time>2022-08-03T08:10:41Z</time>
      </trkpt>
      <trkpt lat="46.63595" lon="5.65601">
        <ele>515.4</ele>
        <time>2022-08-03T08:10:42Z</time>
      </trkpt>
      <trkpt lat="46.63587" lon="5.65592">
        <ele>514.2</ele>
        <time>2022-08-03T08:10:43Z</time>
      </trkpt>
      <trkpt lat="46.63571" lon="5.65572">
        <ele>512.2</ele>
        <time>2022-08-03T08:10:45Z</time>
      </trkpt>
      <trkpt lat="46.63558" lon="5.65548">
        <ele>510</ele>
        <time>2022-08-03T08:10:47Z</time>
      </trkpt>
      <trkpt lat="46.63551" lon="5.65523">
        <ele>509.2</ele>
        <time>2022-08-03T08:10:49Z</time>
      </trkpt>
      <trkpt lat="46.63549" lon="5.65506">
        <ele>508.6</ele>
        <time>2022-08-03T08:10:50Z</time>
      </trkpt>
      <trkpt lat="46.63545" lon="5.65478">
        <ele>508.2</ele>
        <time>2022-08-03T08:10:52Z</time>
      </trkpt>
      <trkpt lat="46.63537" lon="5.65454">
        <ele>508</ele>
        <time>2022-08-03T08:10:54Z</time>
      </trkpt>
      <trkpt lat="46.63515" lon="5.65406">
        <ele>507.8</ele>
        <time>2022-08-03T08:10:59Z</time>
      </trkpt>
      <trkpt lat="46.6349" lon="5.65357">
        <ele>508.2</ele>
        <time>2022-08-03T08:11:05Z</time>
      </trkpt>
      <trkpt lat="46.63475" lon="5.65327">
        <ele>510</ele>
        <time>2022-08-03T08:11:09Z</time>
      </trkpt>
      <trkpt lat="46.63472" lon="5.65319">
        <ele>510.4</ele>
        <time>2022-08-03T08:11:10Z</time>
      </trkpt>
      <trkpt lat="46.63467" lon="5.65302">
        <ele>511</ele>
        <time>2022-08-03T08:11:12Z</time>
      </trkpt>
      <trkpt lat="46.63464" lon="5.65293">
        <ele>511.4</ele>
        <time>2022-08-03T08:11:13Z</time>
      </trkpt>
      <trkpt lat="46.63463" lon="5.65283">
        <ele>511.6</ele>
        <time>2022-08-03T08:11:14Z</time>
      </trkpt>
      <trkpt lat="46.63463" lon="5.65274">
        <ele>512</ele>
        <time>2022-08-03T08:11:15Z</time>
      </trkpt>
      <trkpt lat="46.63463" lon="5.65265">
        <ele>512.4</ele>
        <time>2022-08-03T08:11:16Z</time>
      </trkpt>
      <trkpt lat="46.63466" lon="5.65248">
        <ele>512.6</ele>
        <time>2022-08-03T08:11:18Z</time>
      </trkpt>
      <trkpt lat="46.63469" lon="5.6524">
        <ele>512.8</ele>
        <time>2022-08-03T08:11:19Z</time>
      </trkpt>
      <trkpt lat="46.63471" lon="5.65233">
        <ele>513.4</ele>
        <time>2022-08-03T08:11:20Z</time>
      </trkpt>
      <trkpt lat="46.63477" lon="5.65219">
        <ele>514.4</ele>
        <time>2022-08-03T08:11:22Z</time>
      </trkpt>
      <trkpt lat="46.63489" lon="5.65189">
        <ele>515.4</ele>
        <time>2022-08-03T08:11:26Z</time>
      </trkpt>
      <trkpt lat="46.63492" lon="5.65181">
        <ele>515.8</ele>
        <time>2022-08-03T08:11:27Z</time>
      </trkpt>
      <trkpt lat="46.63518" lon="5.65104">
        <ele>516.6</ele>
        <time>2022-08-03T08:11:36Z</time>
      </trkpt>
      <trkpt lat="46.63546" lon="5.65034">
        <ele>516.4</ele>
        <time>2022-08-03T08:11:44Z</time>
      </trkpt>
      <trkpt lat="46.63567" lon="5.6499">
        <ele>516.8</ele>
        <time>2022-08-03T08:11:50Z</time>
      </trkpt>
      <trkpt lat="46.6357" lon="5.64982">
        <ele>517</ele>
        <time>2022-08-03T08:11:51Z</time>
      </trkpt>
      <trkpt lat="46.6358" lon="5.64954">
        <ele>518.2</ele>
        <time>2022-08-03T08:11:55Z</time>
      </trkpt>
      <trkpt lat="46.63594" lon="5.64918">
        <ele>518.8</ele>
        <time>2022-08-03T08:12:00Z</time>
      </trkpt>
      <trkpt lat="46.63597" lon="5.64911">
        <ele>519.2</ele>
        <time>2022-08-03T08:12:01Z</time>
      </trkpt>
      <trkpt lat="46.63613" lon="5.64875">
        <ele>520.6</ele>
        <time>2022-08-03T08:12:06Z</time>
      </trkpt>
      <trkpt lat="46.63618" lon="5.64859">
        <ele>520.8</ele>
        <time>2022-08-03T08:12:08Z</time>
      </trkpt>
      <trkpt lat="46.63621" lon="5.64842">
        <ele>521.2</ele>
        <time>2022-08-03T08:12:10Z</time>
      </trkpt>
      <trkpt lat="46.6362" lon="5.64824">
        <ele>521.6</ele>
        <time>2022-08-03T08:12:12Z</time>
      </trkpt>
      <trkpt lat="46.6362" lon="5.64815">
        <ele>521.8</ele>
        <time>2022-08-03T08:12:13Z</time>
      </trkpt>
      <trkpt lat="46.63618" lon="5.64796">
        <ele>522</ele>
        <time>2022-08-03T08:12:15Z</time>
      </trkpt>
      <trkpt lat="46.63612" lon="5.64768">
        <ele>522.2</ele>
        <time>2022-08-03T08:12:18Z</time>
      </trkpt>
      <trkpt lat="46.63594" lon="5.64713">
        <ele>522.2</ele>
        <time>2022-08-03T08:12:24Z</time>
      </trkpt>
      <trkpt lat="46.6357" lon="5.64636">
        <ele>522.4</ele>
        <time>2022-08-03T08:12:33Z</time>
      </trkpt>
      <trkpt lat="46.63568" lon="5.64628">
        <ele>522.4</ele>
        <time>2022-08-03T08:12:34Z</time>
      </trkpt>
      <trkpt lat="46.63561" lon="5.64602">
        <ele>522.8</ele>
        <time>2022-08-03T08:12:37Z</time>
      </trkpt>
      <trkpt lat="46.63551" lon="5.6456">
        <ele>523.8</ele>
        <time>2022-08-03T08:12:42Z</time>
      </trkpt>
      <trkpt lat="46.63542" lon="5.64501">
        <ele>524.8</ele>
        <time>2022-08-03T08:12:49Z</time>
      </trkpt>
      <trkpt lat="46.6354" lon="5.64483">
        <ele>525.2</ele>
        <time>2022-08-03T08:12:51Z</time>
      </trkpt>
      <trkpt lat="46.63531" lon="5.64402">
        <ele>525.2</ele>
        <time>2022-08-03T08:13:00Z</time>
      </trkpt>
      <trkpt lat="46.6353" lon="5.64392">
        <ele>525.2</ele>
        <time>2022-08-03T08:13:01Z</time>
      </trkpt>
      <trkpt lat="46.63523" lon="5.64328">
        <ele>525</ele>
        <time>2022-08-03T08:13:08Z</time>
      </trkpt>
      <trkpt lat="46.63511" lon="5.64287">
        <ele>525.6</ele>
        <time>2022-08-03T08:13:13Z</time>
      </trkpt>
      <trkpt lat="46.63509" lon="5.64279">
        <ele>525.6</ele>
        <time>2022-08-03T08:13:14Z</time>
      </trkpt>
      <trkpt lat="46.63508" lon="5.64264">
        <ele>525.6</ele>
        <time>2022-08-03T08:13:16Z</time>
      </trkpt>
      <trkpt lat="46.63508" lon="5.64257">
        <ele>525.6</ele>
        <time>2022-08-03T08:13:17Z</time>
      </trkpt>
      <trkpt lat="46.63504" lon="5.64244">
        <ele>525.6</ele>
        <time>2022-08-03T08:13:19Z</time>
      </trkpt>
      <trkpt lat="46.63489" lon="5.64225">
        <ele>525.6</ele>
        <time>2022-08-03T08:13:22Z</time>
      </trkpt>
      <trkpt lat="46.63484" lon="5.64218">
        <ele>525.6</ele>
        <time>2022-08-03T08:13:23Z</time>
      </trkpt>
      <trkpt lat="46.63459" lon="5.64166">
        <ele>524.2</ele>
        <time>2022-08-03T08:13:29Z</time>
      </trkpt>
      <trkpt lat="46.63452" lon="5.64149">
        <ele>524</ele>
        <time>2022-08-03T08:13:31Z</time>
      </trkpt>
      <trkpt lat="46.63437" lon="5.64119">
        <ele>524</ele>
        <time>2022-08-03T08:13:35Z</time>
      </trkpt>
      <trkpt lat="46.63433" lon="5.64114">
        <ele>524</ele>
        <time>2022-08-03T08:13:36Z</time>
      </trkpt>
      <trkpt lat="46.63429" lon="5.64112">
        <ele>523.8</ele>
        <time>2022-08-03T08:13:37Z</time>
      </trkpt>
      <trkpt lat="46.63423" lon="5.64112">
        <ele>523.8</ele>
        <time>2022-08-03T08:13:39Z</time>
      </trkpt>
      <trkpt lat="46.6342" lon="5.64115">
        <ele>524</ele>
        <time>2022-08-03T08:13:40Z</time>
      </trkpt>
      <trkpt lat="46.63413" lon="5.64126">
        <ele>524</ele>
        <time>2022-08-03T08:13:42Z</time>
      </trkpt>
      <trkpt lat="46.63397" lon="5.64153">
        <ele>524</ele>
        <time>2022-08-03T08:13:46Z</time>
      </trkpt>
      <trkpt lat="46.63362" lon="5.64211">
        <ele>524</ele>
        <time>2022-08-03T08:13:54Z</time>
      </trkpt>
      <trkpt lat="46.63343" lon="5.64238">
        <ele>524</ele>
        <time>2022-08-03T08:13:58Z</time>
      </trkpt>
      <trkpt lat="46.63331" lon="5.64246">
        <ele>524.2</ele>
        <time>2022-08-03T08:14:00Z</time>
      </trkpt>
      <trkpt lat="46.63304" lon="5.64259">
        <ele>525</ele>
        <time>2022-08-03T08:14:05Z</time>
      </trkpt>
      <trkpt lat="46.63297" lon="5.64263">
        <ele>525</ele>
        <time>2022-08-03T08:14:06Z</time>
      </trkpt>
      <trkpt lat="46.63273" lon="5.64288">
        <ele>525.8</ele>
        <time>2022-08-03T08:14:11Z</time>
      </trkpt>
      <trkpt lat="46.63245" lon="5.64322">
        <ele>525.8</ele>
        <time>2022-08-03T08:14:17Z</time>
      </trkpt>
      <trkpt lat="46.63227" lon="5.64332">
        <ele>525.6</ele>
        <time>2022-08-03T08:14:20Z</time>
      </trkpt>
      <trkpt lat="46.6322" lon="5.64333">
        <ele>525.6</ele>
        <time>2022-08-03T08:14:21Z</time>
      </trkpt>
      <trkpt lat="46.63214" lon="5.64333">
        <ele>525.8</ele>
        <time>2022-08-03T08:14:22Z</time>
      </trkpt>
      <trkpt lat="46.63184" lon="5.6433">
        <ele>525.8</ele>
        <time>2022-08-03T08:14:27Z</time>
      </trkpt>
      <trkpt lat="46.63162" lon="5.6433">
        <ele>526.4</ele>
        <time>2022-08-03T08:14:31Z</time>
      </trkpt>
      <trkpt lat="46.63151" lon="5.64332">
        <ele>527</ele>
        <time>2022-08-03T08:14:33Z</time>
      </trkpt>
      <trkpt lat="46.63141" lon="5.64334">
        <ele>527.4</ele>
        <time>2022-08-03T08:14:35Z</time>
      </trkpt>
      <trkpt lat="46.63115" lon="5.64338">
        <ele>528.6</ele>
        <time>2022-08-03T08:14:40Z</time>
      </trkpt>
      <trkpt lat="46.6311" lon="5.64339">
        <ele>528.6</ele>
        <time>2022-08-03T08:14:41Z</time>
      </trkpt>
      <trkpt lat="46.63105" lon="5.64339">
        <ele>529</ele>
        <time>2022-08-03T08:14:42Z</time>
      </trkpt>
      <trkpt lat="46.63101" lon="5.64339">
        <ele>529.2</ele>
        <time>2022-08-03T08:14:43Z</time>
      </trkpt>
      <trkpt lat="46.63091" lon="5.64337">
        <ele>529.6</ele>
        <time>2022-08-03T08:14:45Z</time>
      </trkpt>
      <trkpt lat="46.63079" lon="5.64334">
        <ele>530.2</ele>
        <time>2022-08-03T08:14:47Z</time>
      </trkpt>
      <trkpt lat="46.63037" lon="5.64329">
        <ele>530.6</ele>
        <time>2022-08-03T08:14:53Z</time>
      </trkpt>
      <trkpt lat="46.63013" lon="5.64325">
        <ele>529.6</ele>
        <time>2022-08-03T08:14:56Z</time>
      </trkpt>
      <trkpt lat="46.62995" lon="5.64322">
        <ele>528.6</ele>
        <time>2022-08-03T08:14:58Z</time>
      </trkpt>
      <trkpt lat="46.62957" lon="5.64316">
        <ele>527.6</ele>
        <time>2022-08-03T08:15:02Z</time>
      </trkpt>
      <trkpt lat="46.62938" lon="5.64313">
        <ele>526.2</ele>
        <time>2022-08-03T08:15:04Z</time>
      </trkpt>
      <trkpt lat="46.62929" lon="5.64311">
        <ele>525.8</ele>
        <time>2022-08-03T08:15:05Z</time>
      </trkpt>
      <trkpt lat="46.62919" lon="5.6431">
        <ele>525.2</ele>
        <time>2022-08-03T08:15:06Z</time>
      </trkpt>
      <trkpt lat="46.62881" lon="5.64305">
        <ele>524</ele>
        <time>2022-08-03T08:15:10Z</time>
      </trkpt>
      <trkpt lat="46.62852" lon="5.643">
        <ele>522.8</ele>
        <time>2022-08-03T08:15:13Z</time>
      </trkpt>
      <trkpt lat="46.62815" lon="5.64295">
        <ele>521.6</ele>
        <time>2022-08-03T08:15:17Z</time>
      </trkpt>
      <trkpt lat="46.6277" lon="5.64281">
        <ele>520.8</ele>
        <time>2022-08-03T08:15:22Z</time>
      </trkpt>
      <trkpt lat="46.62752" lon="5.64271">
        <ele>520.4</ele>
        <time>2022-08-03T08:15:24Z</time>
      </trkpt>
      <trkpt lat="46.62735" lon="5.64259">
        <ele>520.2</ele>
        <time>2022-08-03T08:15:26Z</time>
      </trkpt>
      <trkpt lat="46.62709" lon="5.64243">
        <ele>519.4</ele>
        <time>2022-08-03T08:15:29Z</time>
      </trkpt>
      <trkpt lat="46.62664" lon="5.64232">
        <ele>518.2</ele>
        <time>2022-08-03T08:15:34Z</time>
      </trkpt>
      <trkpt lat="46.62617" lon="5.6423">
        <ele>518</ele>
        <time>2022-08-03T08:15:40Z</time>
      </trkpt>
      <trkpt lat="46.62591" lon="5.6423">
        <ele>519.4</ele>
        <time>2022-08-03T08:15:44Z</time>
      </trkpt>
      <trkpt lat="46.62579" lon="5.6423">
        <ele>520</ele>
        <time>2022-08-03T08:15:46Z</time>
      </trkpt>
      <trkpt lat="46.62573" lon="5.6423">
        <ele>520.6</ele>
        <time>2022-08-03T08:15:47Z</time>
      </trkpt>
      <trkpt lat="46.62562" lon="5.6423">
        <ele>521</ele>
        <time>2022-08-03T08:15:49Z</time>
      </trkpt>
      <trkpt lat="46.62556" lon="5.64229">
        <ele>521.8</ele>
        <time>2022-08-03T08:15:50Z</time>
      </trkpt>
      <trkpt lat="46.62551" lon="5.64228">
        <ele>522</ele>
        <time>2022-08-03T08:15:51Z</time>
      </trkpt>
      <trkpt lat="46.62541" lon="5.64223">
        <ele>522.4</ele>
        <time>2022-08-03T08:15:53Z</time>
      </trkpt>
      <trkpt lat="46.62522" lon="5.64209">
        <ele>523</ele>
        <time>2022-08-03T08:15:57Z</time>
      </trkpt>
      <trkpt lat="46.62507" lon="5.64193">
        <ele>524.2</ele>
        <time>2022-08-03T08:16:01Z</time>
      </trkpt>
      <trkpt lat="46.62499" lon="5.64184">
        <ele>525.2</ele>
        <time>2022-08-03T08:16:03Z</time>
      </trkpt>
      <trkpt lat="46.62495" lon="5.6418">
        <ele>525.8</ele>
        <time>2022-08-03T08:16:04Z</time>
      </trkpt>
      <trkpt lat="46.62487" lon="5.64172">
        <ele>526.4</ele>
        <time>2022-08-03T08:16:06Z</time>
      </trkpt>
      <trkpt lat="46.62471" lon="5.64156">
        <ele>527.6</ele>
        <time>2022-08-03T08:16:10Z</time>
      </trkpt>
      <trkpt lat="46.62467" lon="5.64152">
        <ele>527.8</ele>
        <time>2022-08-03T08:16:11Z</time>
      </trkpt>
      <trkpt lat="46.62445" lon="5.64134">
        <ele>528.4</ele>
        <time>2022-08-03T08:16:16Z</time>
      </trkpt>
      <trkpt lat="46.62436" lon="5.64126">
        <ele>528.8</ele>
        <time>2022-08-03T08:16:18Z</time>
      </trkpt>
      <trkpt lat="46.62408" lon="5.641">
        <ele>529.6</ele>
        <time>2022-08-03T08:16:24Z</time>
      </trkpt>
      <trkpt lat="46.62374" lon="5.64078">
        <ele>529.6</ele>
        <time>2022-08-03T08:16:30Z</time>
      </trkpt>
      <trkpt lat="46.62327" lon="5.64054">
        <ele>528.6</ele>
        <time>2022-08-03T08:16:37Z</time>
      </trkpt>
      <trkpt lat="46.62291" lon="5.64046">
        <ele>528.4</ele>
        <time>2022-08-03T08:16:42Z</time>
      </trkpt>
      <trkpt lat="46.62252" lon="5.64055">
        <ele>528.6</ele>
        <time>2022-08-03T08:16:48Z</time>
      </trkpt>
      <trkpt lat="46.62218" lon="5.64075">
        <ele>529.8</ele>
        <time>2022-08-03T08:16:54Z</time>
      </trkpt>
      <trkpt lat="46.62211" lon="5.64081">
        <ele>530</ele>
        <time>2022-08-03T08:16:55Z</time>
      </trkpt>
      <trkpt lat="46.62191" lon="5.64094">
        <ele>530.2</ele>
        <time>2022-08-03T08:16:58Z</time>
      </trkpt>
      <trkpt lat="46.62176" lon="5.64099">
        <ele>530</ele>
        <time>2022-08-03T08:17:00Z</time>
      </trkpt>
      <trkpt lat="46.62137" lon="5.641">
        <ele>529.4</ele>
        <time>2022-08-03T08:17:05Z</time>
      </trkpt>
      <trkpt lat="46.62097" lon="5.64105">
        <ele>529.4</ele>
        <time>2022-08-03T08:17:11Z</time>
      </trkpt>
      <trkpt lat="46.62053" lon="5.64121">
        <ele>529.8</ele>
        <time>2022-08-03T08:17:18Z</time>
      </trkpt>
      <trkpt lat="46.62006" lon="5.64131">
        <ele>530.8</ele>
        <time>2022-08-03T08:17:26Z</time>
      </trkpt>
      <trkpt lat="46.6199" lon="5.64132">
        <ele>531.2</ele>
        <time>2022-08-03T08:17:29Z</time>
      </trkpt>
      <trkpt lat="46.6197" lon="5.64133">
        <ele>532.2</ele>
        <time>2022-08-03T08:17:33Z</time>
      </trkpt>
      <trkpt lat="46.61965" lon="5.64133">
        <ele>533</ele>
        <time>2022-08-03T08:17:34Z</time>
      </trkpt>
      <trkpt lat="46.6196" lon="5.64133">
        <ele>533.4</ele>
        <time>2022-08-03T08:17:35Z</time>
      </trkpt>
      <trkpt lat="46.61936" lon="5.64135">
        <ele>534.6</ele>
        <time>2022-08-03T08:17:40Z</time>
      </trkpt>
      <trkpt lat="46.61916" lon="5.64138">
        <ele>535.4</ele>
        <time>2022-08-03T08:17:44Z</time>
      </trkpt>
      <trkpt lat="46.619" lon="5.6414">
        <ele>535.6</ele>
        <time>2022-08-03T08:17:47Z</time>
      </trkpt>
      <trkpt lat="46.61872" lon="5.64142">
        <ele>536.2</ele>
        <time>2022-08-03T08:17:52Z</time>
      </trkpt>
      <trkpt lat="46.61825" lon="5.64145">
        <ele>536.8</ele>
        <time>2022-08-03T08:18:01Z</time>
      </trkpt>
      <trkpt lat="46.6182" lon="5.64145">
        <ele>537</ele>
        <time>2022-08-03T08:18:02Z</time>
      </trkpt>
      <trkpt lat="46.6179" lon="5.64148">
        <ele>538</ele>
        <time>2022-08-03T08:18:07Z</time>
      </trkpt>
      <trkpt lat="46.61784" lon="5.64148">
        <ele>538</ele>
        <time>2022-08-03T08:18:08Z</time>
      </trkpt>
      <trkpt lat="46.61779" lon="5.64148">
        <ele>538.2</ele>
        <time>2022-08-03T08:18:09Z</time>
      </trkpt>
      <trkpt lat="46.61743" lon="5.64151">
        <ele>538.6</ele>
        <time>2022-08-03T08:18:15Z</time>
      </trkpt>
      <trkpt lat="46.61738" lon="5.64153">
        <ele>539</ele>
        <time>2022-08-03T08:18:16Z</time>
      </trkpt>
      <trkpt lat="46.61722" lon="5.64165">
        <ele>539.6</ele>
        <time>2022-08-03T08:18:19Z</time>
      </trkpt>
      <trkpt lat="46.61717" lon="5.64171">
        <ele>539.8</ele>
        <time>2022-08-03T08:18:20Z</time>
      </trkpt>
      <trkpt lat="46.61704" lon="5.64194">
        <ele>539.8</ele>
        <time>2022-08-03T08:18:23Z</time>
      </trkpt>
      <trkpt lat="46.61678" lon="5.64242">
        <ele>539.2</ele>
        <time>2022-08-03T08:18:29Z</time>
      </trkpt>
      <trkpt lat="46.61654" lon="5.64278">
        <ele>539</ele>
        <time>2022-08-03T08:18:34Z</time>
      </trkpt>
      <trkpt lat="46.61624" lon="5.64301">
        <ele>539.4</ele>
        <time>2022-08-03T08:18:39Z</time>
      </trkpt>
      <trkpt lat="46.61611" lon="5.64306">
        <ele>539.4</ele>
        <time>2022-08-03T08:18:41Z</time>
      </trkpt>
      <trkpt lat="46.61591" lon="5.6431">
        <ele>539.6</ele>
        <time>2022-08-03T08:18:44Z</time>
      </trkpt>
      <trkpt lat="46.61577" lon="5.64315">
        <ele>539.8</ele>
        <time>2022-08-03T08:18:46Z</time>
      </trkpt>
      <trkpt lat="46.61555" lon="5.64328">
        <ele>539.8</ele>
        <time>2022-08-03T08:18:49Z</time>
      </trkpt>
      <trkpt lat="46.61529" lon="5.64356">
        <ele>539.4</ele>
        <time>2022-08-03T08:18:53Z</time>
      </trkpt>
      <trkpt lat="46.61497" lon="5.64392">
        <ele>538.2</ele>
        <time>2022-08-03T08:18:58Z</time>
      </trkpt>
      <trkpt lat="46.6149" lon="5.64399">
        <ele>538</ele>
        <time>2022-08-03T08:18:59Z</time>
      </trkpt>
      <trkpt lat="46.61457" lon="5.64419">
        <ele>537.2</ele>
        <time>2022-08-03T08:19:03Z</time>
      </trkpt>
      <trkpt lat="46.61448" lon="5.64423">
        <ele>537</ele>
        <time>2022-08-03T08:19:04Z</time>
      </trkpt>
      <trkpt lat="46.61439" lon="5.64425">
        <ele>536.6</ele>
        <time>2022-08-03T08:19:05Z</time>
      </trkpt>
      <trkpt lat="46.61414" lon="5.6443">
        <ele>536</ele>
        <time>2022-08-03T08:19:08Z</time>
      </trkpt>
      <trkpt lat="46.61405" lon="5.64433">
        <ele>535.8</ele>
        <time>2022-08-03T08:19:09Z</time>
      </trkpt>
      <trkpt lat="46.61349" lon="5.64443">
        <ele>535.4</ele>
        <time>2022-08-03T08:19:16Z</time>
      </trkpt>
      <trkpt lat="46.61341" lon="5.64444">
        <ele>535.6</ele>
        <time>2022-08-03T08:19:17Z</time>
      </trkpt>
      <trkpt lat="46.61306" lon="5.64446">
        <ele>536.2</ele>
        <time>2022-08-03T08:19:22Z</time>
      </trkpt>
      <trkpt lat="46.61275" lon="5.64441">
        <ele>536.8</ele>
        <time>2022-08-03T08:19:27Z</time>
      </trkpt>
      <trkpt lat="46.6127" lon="5.6444">
        <ele>537.2</ele>
        <time>2022-08-03T08:19:28Z</time>
      </trkpt>
      <trkpt lat="46.61259" lon="5.64437">
        <ele>537.8</ele>
        <time>2022-08-03T08:19:30Z</time>
      </trkpt>
      <trkpt lat="46.61243" lon="5.64434">
        <ele>538.8</ele>
        <time>2022-08-03T08:19:33Z</time>
      </trkpt>
      <trkpt lat="46.61238" lon="5.64432">
        <ele>539.2</ele>
        <time>2022-08-03T08:19:34Z</time>
      </trkpt>
      <trkpt lat="46.61229" lon="5.64427">
        <ele>539.8</ele>
        <time>2022-08-03T08:19:36Z</time>
      </trkpt>
      <trkpt lat="46.6122" lon="5.6442">
        <ele>540.4</ele>
        <time>2022-08-03T08:19:39Z</time>
      </trkpt>
      <trkpt lat="46.61216" lon="5.64416">
        <ele>540.6</ele>
        <time>2022-08-03T08:19:40Z</time>
      </trkpt>
      <trkpt lat="46.61204" lon="5.64404">
        <ele>541.6</ele>
        <time>2022-08-03T08:19:43Z</time>
      </trkpt>
      <trkpt lat="46.612" lon="5.644">
        <ele>542</ele>
        <time>2022-08-03T08:19:44Z</time>
      </trkpt>
      <trkpt lat="46.61185" lon="5.6438">
        <ele>542.4</ele>
        <time>2022-08-03T08:19:48Z</time>
      </trkpt>
      <trkpt lat="46.61179" lon="5.64368">
        <ele>542.8</ele>
        <time>2022-08-03T08:19:50Z</time>
      </trkpt>
      <trkpt lat="46.61175" lon="5.64353">
        <ele>543.2</ele>
        <time>2022-08-03T08:19:52Z</time>
      </trkpt>
      <trkpt lat="46.61174" lon="5.64346">
        <ele>543.4</ele>
        <time>2022-08-03T08:19:53Z</time>
      </trkpt>
      <trkpt lat="46.61173" lon="5.64331">
        <ele>543.6</ele>
        <time>2022-08-03T08:19:55Z</time>
      </trkpt>
      <trkpt lat="46.61173" lon="5.64325">
        <ele>544</ele>
        <time>2022-08-03T08:19:56Z</time>
      </trkpt>
      <trkpt lat="46.61174" lon="5.64302">
        <ele>544.6</ele>
        <time>2022-08-03T08:19:59Z</time>
      </trkpt>
      <trkpt lat="46.61176" lon="5.64287">
        <ele>545</ele>
        <time>2022-08-03T08:20:01Z</time>
      </trkpt>
      <trkpt lat="46.6118" lon="5.64268">
        <ele>546</ele>
        <time>2022-08-03T08:20:04Z</time>
      </trkpt>
      <trkpt lat="46.61181" lon="5.64261">
        <ele>546.4</ele>
        <time>2022-08-03T08:20:05Z</time>
      </trkpt>
      <trkpt lat="46.61182" lon="5.64237">
        <ele>547.4</ele>
        <time>2022-08-03T08:20:09Z</time>
      </trkpt>
      <trkpt lat="46.6118" lon="5.64225">
        <ele>548.2</ele>
        <time>2022-08-03T08:20:11Z</time>
      </trkpt>
      <trkpt lat="46.61178" lon="5.64219">
        <ele>548.8</ele>
        <time>2022-08-03T08:20:12Z</time>
      </trkpt>
      <trkpt lat="46.61176" lon="5.64212">
        <ele>549</ele>
        <time>2022-08-03T08:20:13Z</time>
      </trkpt>
      <trkpt lat="46.61159" lon="5.64189">
        <ele>550</ele>
        <time>2022-08-03T08:20:18Z</time>
      </trkpt>
      <trkpt lat="46.61155" lon="5.64185">
        <ele>550.4</ele>
        <time>2022-08-03T08:20:19Z</time>
      </trkpt>
      <trkpt lat="46.6114" lon="5.64169">
        <ele>551.2</ele>
        <time>2022-08-03T08:20:23Z</time>
      </trkpt>
      <trkpt lat="46.61119" lon="5.64152">
        <ele>552.2</ele>
        <time>2022-08-03T08:20:28Z</time>
      </trkpt>
      <trkpt lat="46.61109" lon="5.64148">
        <ele>552.4</ele>
        <time>2022-08-03T08:20:30Z</time>
      </trkpt>
      <trkpt lat="46.61092" lon="5.64145">
        <ele>553</ele>
        <time>2022-08-03T08:20:33Z</time>
      </trkpt>
      <trkpt lat="46.61049" lon="5.64147">
        <ele>553</ele>
        <time>2022-08-03T08:20:40Z</time>
      </trkpt>
      <trkpt lat="46.60999" lon="5.64153">
        <ele>552.2</ele>
        <time>2022-08-03T08:20:47Z</time>
      </trkpt>
      <trkpt lat="46.60943" lon="5.64154">
        <ele>551.2</ele>
        <time>2022-08-03T08:20:54Z</time>
      </trkpt>
      <trkpt lat="46.60885" lon="5.6415">
        <ele>550</ele>
        <time>2022-08-03T08:21:01Z</time>
      </trkpt>
      <trkpt lat="46.60878" lon="5.6415">
        <ele>550</ele>
        <time>2022-08-03T08:21:02Z</time>
      </trkpt>
      <trkpt lat="46.60831" lon="5.64151">
        <ele>548.8</ele>
        <time>2022-08-03T08:21:07Z</time>
      </trkpt>
      <trkpt lat="46.60805" lon="5.64154">
        <ele>547.8</ele>
        <time>2022-08-03T08:21:10Z</time>
      </trkpt>
      <trkpt lat="46.60764" lon="5.64159">
        <ele>546.8</ele>
        <time>2022-08-03T08:21:15Z</time>
      </trkpt>
      <trkpt lat="46.60756" lon="5.64159">
        <ele>546.8</ele>
        <time>2022-08-03T08:21:16Z</time>
      </trkpt>
      <trkpt lat="46.60726" lon="5.64159">
        <ele>547.2</ele>
        <time>2022-08-03T08:21:20Z</time>
      </trkpt>
      <trkpt lat="46.60683" lon="5.64148">
        <ele>547.8</ele>
        <time>2022-08-03T08:21:26Z</time>
      </trkpt>
      <trkpt lat="46.60668" lon="5.64143">
        <ele>548</ele>
        <time>2022-08-03T08:21:28Z</time>
      </trkpt>
      <trkpt lat="46.60623" lon="5.64134">
        <ele>548</ele>
        <time>2022-08-03T08:21:34Z</time>
      </trkpt>
      <trkpt lat="46.60582" lon="5.64141">
        <ele>547.4</ele>
        <time>2022-08-03T08:21:39Z</time>
      </trkpt>
      <trkpt lat="46.60546" lon="5.64147">
        <ele>546.8</ele>
        <time>2022-08-03T08:21:43Z</time>
      </trkpt>
      <trkpt lat="46.60537" lon="5.64147">
        <ele>546.8</ele>
        <time>2022-08-03T08:21:44Z</time>
      </trkpt>
      <trkpt lat="46.6051" lon="5.64146">
        <ele>545.6</ele>
        <time>2022-08-03T08:21:47Z</time>
      </trkpt>
      <trkpt lat="46.60474" lon="5.64145">
        <ele>544.6</ele>
        <time>2022-08-03T08:21:51Z</time>
      </trkpt>
      <trkpt lat="46.60465" lon="5.64143">
        <ele>544.4</ele>
        <time>2022-08-03T08:21:52Z</time>
      </trkpt>
      <trkpt lat="46.60431" lon="5.6413">
        <ele>543.6</ele>
        <time>2022-08-03T08:21:56Z</time>
      </trkpt>
      <trkpt lat="46.60414" lon="5.64124">
        <ele>543.4</ele>
        <time>2022-08-03T08:21:58Z</time>
      </trkpt>
      <trkpt lat="46.60354" lon="5.64105">
        <ele>542.2</ele>
        <time>2022-08-03T08:22:05Z</time>
      </trkpt>
      <trkpt lat="46.60346" lon="5.64102">
        <ele>541.8</ele>
        <time>2022-08-03T08:22:06Z</time>
      </trkpt>
      <trkpt lat="46.60291" lon="5.64086">
        <ele>541.2</ele>
        <time>2022-08-03T08:22:13Z</time>
      </trkpt>
      <trkpt lat="46.60276" lon="5.64082">
        <ele>541.2</ele>
        <time>2022-08-03T08:22:15Z</time>
      </trkpt>
      <trkpt lat="46.60228" lon="5.64077">
        <ele>541.2</ele>
        <time>2022-08-03T08:22:21Z</time>
      </trkpt>
      <trkpt lat="46.60176" lon="5.64075">
        <ele>541.4</ele>
        <time>2022-08-03T08:22:28Z</time>
      </trkpt>
      <trkpt lat="46.60143" lon="5.6407">
        <ele>542</ele>
        <time>2022-08-03T08:22:33Z</time>
      </trkpt>
      <trkpt lat="46.6012" lon="5.64066">
        <ele>542.6</ele>
        <time>2022-08-03T08:22:37Z</time>
      </trkpt>
      <trkpt lat="46.60108" lon="5.64064">
        <ele>542.8</ele>
        <time>2022-08-03T08:22:39Z</time>
      </trkpt>
      <trkpt lat="46.60096" lon="5.64058">
        <ele>543</ele>
        <time>2022-08-03T08:22:41Z</time>
      </trkpt>
      <trkpt lat="46.60091" lon="5.64053">
        <ele>543</ele>
        <time>2022-08-03T08:22:42Z</time>
      </trkpt>
      <trkpt lat="46.60086" lon="5.64048">
        <ele>543.2</ele>
        <time>2022-08-03T08:22:43Z</time>
      </trkpt>
      <trkpt lat="46.60081" lon="5.64043">
        <ele>543.2</ele>
        <time>2022-08-03T08:22:44Z</time>
      </trkpt>
      <trkpt lat="46.60076" lon="5.6404">
        <ele>543.4</ele>
        <time>2022-08-03T08:22:45Z</time>
      </trkpt>
      <trkpt lat="46.60071" lon="5.64037">
        <ele>543.6</ele>
        <time>2022-08-03T08:22:46Z</time>
      </trkpt>
      <trkpt lat="46.60066" lon="5.64034">
        <ele>543.8</ele>
        <time>2022-08-03T08:22:47Z</time>
      </trkpt>
      <trkpt lat="46.6005" lon="5.6403">
        <ele>544.2</ele>
        <time>2022-08-03T08:22:50Z</time>
      </trkpt>
      <trkpt lat="46.60038" lon="5.64026">
        <ele>544.2</ele>
        <time>2022-08-03T08:22:52Z</time>
      </trkpt>
      <trkpt lat="46.60011" lon="5.64018">
        <ele>544</ele>
        <time>2022-08-03T08:22:57Z</time>
      </trkpt>
      <trkpt lat="46.60008" lon="5.64017">
        <ele>544</ele>
        <time>2022-08-03T08:22:58Z</time>
      </trkpt>
      <trkpt lat="46.60005" lon="5.64012">
        <ele>544</ele>
        <time>2022-08-03T08:23:00Z</time>
      </trkpt>
      <trkpt lat="46.60005" lon="5.64007">
        <ele>543.8</ele>
        <time>2022-08-03T08:23:01Z</time>
      </trkpt>
      <trkpt lat="46.60008" lon="5.63997">
        <ele>543.6</ele>
        <time>2022-08-03T08:23:03Z</time>
      </trkpt>
      <trkpt lat="46.60023" lon="5.63969">
        <ele>543.4</ele>
        <time>2022-08-03T08:23:07Z</time>
      </trkpt>
      <trkpt lat="46.6004" lon="5.63938">
        <ele>543</ele>
        <time>2022-08-03T08:23:11Z</time>
      </trkpt>
      <trkpt lat="46.60047" lon="5.63923">
        <ele>542.6</ele>
        <time>2022-08-03T08:23:13Z</time>
      </trkpt>
      <trkpt lat="46.60053" lon="5.63904">
        <ele>542.4</ele>
        <time>2022-08-03T08:23:15Z</time>
      </trkpt>
      <trkpt lat="46.60049" lon="5.63887">
        <ele>542</ele>
        <time>2022-08-03T08:23:17Z</time>
      </trkpt>
      <trkpt lat="46.60044" lon="5.63881">
        <ele>541.8</ele>
        <time>2022-08-03T08:23:18Z</time>
      </trkpt>
      <trkpt lat="46.60003" lon="5.63842">
        <ele>541</ele>
        <time>2022-08-03T08:23:25Z</time>
      </trkpt>
      <trkpt lat="46.59999" lon="5.63838">
        <ele>540.8</ele>
        <time>2022-08-03T08:23:26Z</time>
      </trkpt>
      <trkpt lat="46.59992" lon="5.63831">
        <ele>540.4</ele>
        <time>2022-08-03T08:23:27Z</time>
      </trkpt>
      <trkpt lat="46.59969" lon="5.63809">
        <ele>539.4</ele>
        <time>2022-08-03T08:23:31Z</time>
      </trkpt>
      <trkpt lat="46.59949" lon="5.6379">
        <ele>539.2</ele>
        <time>2022-08-03T08:23:34Z</time>
      </trkpt>
      <trkpt lat="46.59937" lon="5.63777">
        <ele>538.4</ele>
        <time>2022-08-03T08:23:36Z</time>
      </trkpt>
      <trkpt lat="46.59916" lon="5.63748">
        <ele>538.2</ele>
        <time>2022-08-03T08:23:40Z</time>
      </trkpt>
      <trkpt lat="46.59899" lon="5.6371">
        <ele>538</ele>
        <time>2022-08-03T08:23:45Z</time>
      </trkpt>
      <trkpt lat="46.59877" lon="5.63651">
        <ele>537.8</ele>
        <time>2022-08-03T08:23:52Z</time>
      </trkpt>
      <trkpt lat="46.59867" lon="5.63623">
        <ele>538.4</ele>
        <time>2022-08-03T08:23:55Z</time>
      </trkpt>
      <trkpt lat="46.59862" lon="5.63607">
        <ele>538.2</ele>
        <time>2022-08-03T08:23:57Z</time>
      </trkpt>
      <trkpt lat="46.59858" lon="5.63597">
        <ele>538</ele>
        <time>2022-08-03T08:23:58Z</time>
      </trkpt>
      <trkpt lat="46.59848" lon="5.63575">
        <ele>538</ele>
        <time>2022-08-03T08:24:01Z</time>
      </trkpt>
      <trkpt lat="46.5984" lon="5.63562">
        <ele>538.4</ele>
        <time>2022-08-03T08:24:03Z</time>
      </trkpt>
      <trkpt lat="46.59817" lon="5.63545">
        <ele>538.6</ele>
        <time>2022-08-03T08:24:07Z</time>
      </trkpt>
      <trkpt lat="46.59781" lon="5.6352">
        <ele>539.4</ele>
        <time>2022-08-03T08:24:13Z</time>
      </trkpt>
      <trkpt lat="46.59763" lon="5.63502">
        <ele>539.4</ele>
        <time>2022-08-03T08:24:16Z</time>
      </trkpt>
      <trkpt lat="46.59753" lon="5.63487">
        <ele>539.4</ele>
        <time>2022-08-03T08:24:18Z</time>
      </trkpt>
      <trkpt lat="46.59744" lon="5.63463">
        <ele>539.2</ele>
        <time>2022-08-03T08:24:20Z</time>
      </trkpt>
      <trkpt lat="46.59741" lon="5.63438">
        <ele>538.6</ele>
        <time>2022-08-03T08:24:22Z</time>
      </trkpt>
      <trkpt lat="46.59741" lon="5.63428">
        <ele>538.4</ele>
        <time>2022-08-03T08:24:23Z</time>
      </trkpt>
      <trkpt lat="46.59742" lon="5.63415">
        <ele>538</ele>
        <time>2022-08-03T08:24:24Z</time>
      </trkpt>
      <trkpt lat="46.59744" lon="5.634">
        <ele>537.4</ele>
        <time>2022-08-03T08:24:25Z</time>
      </trkpt>
      <trkpt lat="46.59748" lon="5.63376">
        <ele>536.6</ele>
        <time>2022-08-03T08:24:27Z</time>
      </trkpt>
      <trkpt lat="46.5975" lon="5.63362">
        <ele>536.2</ele>
        <time>2022-08-03T08:24:28Z</time>
      </trkpt>
      <trkpt lat="46.59756" lon="5.63292">
        <ele>535</ele>
        <time>2022-08-03T08:24:33Z</time>
      </trkpt>
      <trkpt lat="46.59754" lon="5.63255">
        <ele>533.8</ele>
        <time>2022-08-03T08:24:36Z</time>
      </trkpt>
      <trkpt lat="46.5975" lon="5.63203">
        <ele>533.2</ele>
        <time>2022-08-03T08:24:40Z</time>
      </trkpt>
      <trkpt lat="46.59748" lon="5.63174">
        <ele>532.4</ele>
        <time>2022-08-03T08:24:42Z</time>
      </trkpt>
      <trkpt lat="46.59747" lon="5.63125">
        <ele>532</ele>
        <time>2022-08-03T08:24:46Z</time>
      </trkpt>
      <trkpt lat="46.59749" lon="5.63114">
        <ele>532</ele>
        <time>2022-08-03T08:24:47Z</time>
      </trkpt>
      <trkpt lat="46.59752" lon="5.63084">
        <ele>532</ele>
        <time>2022-08-03T08:24:50Z</time>
      </trkpt>
      <trkpt lat="46.59752" lon="5.63072">
        <ele>532.4</ele>
        <time>2022-08-03T08:24:51Z</time>
      </trkpt>
      <trkpt lat="46.5975" lon="5.6305">
        <ele>532.6</ele>
        <time>2022-08-03T08:24:53Z</time>
      </trkpt>
      <trkpt lat="46.59746" lon="5.63043">
        <ele>532.8</ele>
        <time>2022-08-03T08:24:54Z</time>
      </trkpt>
      <trkpt lat="46.59739" lon="5.63035">
        <ele>532.8</ele>
        <time>2022-08-03T08:24:55Z</time>
      </trkpt>
      <trkpt lat="46.59733" lon="5.63033">
        <ele>532.8</ele>
        <time>2022-08-03T08:24:56Z</time>
      </trkpt>
      <trkpt lat="46.59707" lon="5.63028">
        <ele>532.2</ele>
        <time>2022-08-03T08:24:59Z</time>
      </trkpt>
      <trkpt lat="46.59692" lon="5.63022">
        <ele>531.2</ele>
        <time>2022-08-03T08:25:01Z</time>
      </trkpt>
      <trkpt lat="46.59685" lon="5.63019">
        <ele>530.6</ele>
        <time>2022-08-03T08:25:02Z</time>
      </trkpt>
      <trkpt lat="46.59678" lon="5.63016">
        <ele>530.4</ele>
        <time>2022-08-03T08:25:03Z</time>
      </trkpt>
      <trkpt lat="46.59672" lon="5.6301">
        <ele>530.2</ele>
        <time>2022-08-03T08:25:04Z</time>
      </trkpt>
      <trkpt lat="46.59666" lon="5.63004">
        <ele>530.2</ele>
        <time>2022-08-03T08:25:05Z</time>
      </trkpt>
      <trkpt lat="46.59649" lon="5.62975">
        <ele>530</ele>
        <time>2022-08-03T08:25:09Z</time>
      </trkpt>
      <trkpt lat="46.59635" lon="5.62953">
        <ele>530.4</ele>
        <time>2022-08-03T08:25:13Z</time>
      </trkpt>
      <trkpt lat="46.59633" lon="5.62949">
        <ele>530.4</ele>
        <time>2022-08-03T08:25:14Z</time>
      </trkpt>
      <trkpt lat="46.59631" lon="5.62939">
        <ele>530.8</ele>
        <time>2022-08-03T08:25:18Z</time>
      </trkpt>
      <trkpt lat="46.59631" lon="5.62935">
        <ele>531.2</ele>
        <time>2022-08-03T08:25:20Z</time>
      </trkpt>
      <trkpt lat="46.59626" lon="5.62932">
        <ele>531.2</ele>
        <time>2022-08-03T08:25:22Z</time>
      </trkpt>
      <trkpt lat="46.59612" lon="5.62934">
        <ele>531</ele>
        <time>2022-08-03T08:25:25Z</time>
      </trkpt>
      <trkpt lat="46.59606" lon="5.62934">
        <ele>531</ele>
        <time>2022-08-03T08:25:26Z</time>
      </trkpt>
      <trkpt lat="46.59581" lon="5.62939">
        <ele>530.6</ele>
        <time>2022-08-03T08:25:30Z</time>
      </trkpt>
      <trkpt lat="46.59537" lon="5.62947">
        <ele>529.8</ele>
        <time>2022-08-03T08:25:37Z</time>
      </trkpt>
      <trkpt lat="46.59487" lon="5.62957">
        <ele>531.6</ele>
        <time>2022-08-03T08:25:45Z</time>
      </trkpt>
      <trkpt lat="46.59481" lon="5.62958">
        <ele>531.8</ele>
        <time>2022-08-03T08:25:46Z</time>
      </trkpt>
      <trkpt lat="46.59426" lon="5.62968">
        <ele>532.2</ele>
        <time>2022-08-03T08:25:55Z</time>
      </trkpt>
      <trkpt lat="46.594" lon="5.62973">
        <ele>532.4</ele>
        <time>2022-08-03T08:25:59Z</time>
      </trkpt>
      <trkpt lat="46.59381" lon="5.62977">
        <ele>532.6</ele>
        <time>2022-08-03T08:26:02Z</time>
      </trkpt>
      <trkpt lat="46.59336" lon="5.62985">
        <ele>532.8</ele>
        <time>2022-08-03T08:26:09Z</time>
      </trkpt>
      <trkpt lat="46.59279" lon="5.62992">
        <ele>532</ele>
        <time>2022-08-03T08:26:17Z</time>
      </trkpt>
      <trkpt lat="46.59258" lon="5.62993">
        <ele>531.6</ele>
        <time>2022-08-03T08:26:20Z</time>
      </trkpt>
      <trkpt lat="46.59215" lon="5.6299">
        <ele>531.2</ele>
        <time>2022-08-03T08:26:26Z</time>
      </trkpt>
      <trkpt lat="46.59157" lon="5.62982">
        <ele>530.8</ele>
        <time>2022-08-03T08:26:34Z</time>
      </trkpt>
      <trkpt lat="46.59112" lon="5.62976">
        <ele>530.4</ele>
        <time>2022-08-03T08:26:40Z</time>
      </trkpt>
      <trkpt lat="46.59076" lon="5.62971">
        <ele>529.8</ele>
        <time>2022-08-03T08:26:45Z</time>
      </trkpt>
      <trkpt lat="46.59056" lon="5.62968">
        <ele>529.4</ele>
        <time>2022-08-03T08:26:48Z</time>
      </trkpt>
      <trkpt lat="46.58995" lon="5.6296">
        <ele>529.2</ele>
        <time>2022-08-03T08:26:56Z</time>
      </trkpt>
      <trkpt lat="46.58987" lon="5.62959">
        <ele>529.2</ele>
        <time>2022-08-03T08:26:57Z</time>
      </trkpt>
      <trkpt lat="46.58927" lon="5.62951">
        <ele>528.8</ele>
        <time>2022-08-03T08:27:05Z</time>
      </trkpt>
      <trkpt lat="46.58912" lon="5.62949">
        <ele>528.8</ele>
        <time>2022-08-03T08:27:07Z</time>
      </trkpt>
      <trkpt lat="46.58852" lon="5.6294">
        <ele>529</ele>
        <time>2022-08-03T08:27:15Z</time>
      </trkpt>
      <trkpt lat="46.58816" lon="5.62935">
        <ele>529.4</ele>
        <time>2022-08-03T08:27:20Z</time>
      </trkpt>
      <trkpt lat="46.58759" lon="5.62929">
        <ele>529.6</ele>
        <time>2022-08-03T08:27:28Z</time>
      </trkpt>
      <trkpt lat="46.58752" lon="5.62927">
        <ele>529.6</ele>
        <time>2022-08-03T08:27:29Z</time>
      </trkpt>
      <trkpt lat="46.58702" lon="5.62914">
        <ele>529.6</ele>
        <time>2022-08-03T08:27:36Z</time>
      </trkpt>
      <trkpt lat="46.58643" lon="5.62896">
        <ele>528.6</ele>
        <time>2022-08-03T08:27:44Z</time>
      </trkpt>
      <trkpt lat="46.58635" lon="5.62894">
        <ele>528.4</ele>
        <time>2022-08-03T08:27:45Z</time>
      </trkpt>
      <trkpt lat="46.5862" lon="5.6289">
        <ele>528</ele>
        <time>2022-08-03T08:27:47Z</time>
      </trkpt>
      <trkpt lat="46.58589" lon="5.62882">
        <ele>527.4</ele>
        <time>2022-08-03T08:27:51Z</time>
      </trkpt>
      <trkpt lat="46.58556" lon="5.6288">
        <ele>527.2</ele>
        <time>2022-08-03T08:27:55Z</time>
      </trkpt>
      <trkpt lat="46.58517" lon="5.62893">
        <ele>526.6</ele>
        <time>2022-08-03T08:28:00Z</time>
      </trkpt>
      <trkpt lat="46.58509" lon="5.62896">
        <ele>526.4</ele>
        <time>2022-08-03T08:28:01Z</time>
      </trkpt>
      <trkpt lat="46.58482" lon="5.62909">
        <ele>525.2</ele>
        <time>2022-08-03T08:28:04Z</time>
      </trkpt>
      <trkpt lat="46.5844" lon="5.6293">
        <ele>524</ele>
        <time>2022-08-03T08:28:09Z</time>
      </trkpt>
      <trkpt lat="46.58392" lon="5.62955">
        <ele>522.8</ele>
        <time>2022-08-03T08:28:15Z</time>
      </trkpt>
      <trkpt lat="46.58358" lon="5.62971">
        <ele>522</ele>
        <time>2022-08-03T08:28:19Z</time>
      </trkpt>
      <trkpt lat="46.58331" lon="5.62985">
        <ele>521.8</ele>
        <time>2022-08-03T08:28:22Z</time>
      </trkpt>
      <trkpt lat="46.58274" lon="5.63011">
        <ele>521</ele>
        <time>2022-08-03T08:28:29Z</time>
      </trkpt>
      <trkpt lat="46.58258" lon="5.6302">
        <ele>520.8</ele>
        <time>2022-08-03T08:28:31Z</time>
      </trkpt>
      <trkpt lat="46.58206" lon="5.63043">
        <ele>519.8</ele>
        <time>2022-08-03T08:28:37Z</time>
      </trkpt>
      <trkpt lat="46.58198" lon="5.63046">
        <ele>519.6</ele>
        <time>2022-08-03T08:28:38Z</time>
      </trkpt>
      <trkpt lat="46.5818" lon="5.63047">
        <ele>519.2</ele>
        <time>2022-08-03T08:28:40Z</time>
      </trkpt>
      <trkpt lat="46.58173" lon="5.63045">
        <ele>519</ele>
        <time>2022-08-03T08:28:41Z</time>
      </trkpt>
      <trkpt lat="46.58162" lon="5.63042">
        <ele>518.8</ele>
        <time>2022-08-03T08:28:42Z</time>
      </trkpt>
      <trkpt lat="46.58145" lon="5.63033">
        <ele>518.6</ele>
        <time>2022-08-03T08:28:44Z</time>
      </trkpt>
      <trkpt lat="46.58114" lon="5.63004">
        <ele>517.6</ele>
        <time>2022-08-03T08:28:48Z</time>
      </trkpt>
      <trkpt lat="46.58074" lon="5.62952">
        <ele>516.8</ele>
        <time>2022-08-03T08:28:54Z</time>
      </trkpt>
      <trkpt lat="46.5806" lon="5.62935">
        <ele>516.4</ele>
        <time>2022-08-03T08:28:56Z</time>
      </trkpt>
      <trkpt lat="46.58029" lon="5.62906">
        <ele>515.2</ele>
        <time>2022-08-03T08:29:00Z</time>
      </trkpt>
      <trkpt lat="46.58021" lon="5.629">
        <ele>515.2</ele>
        <time>2022-08-03T08:29:01Z</time>
      </trkpt>
      <trkpt lat="46.57997" lon="5.62881">
        <ele>514.2</ele>
        <time>2022-08-03T08:29:04Z</time>
      </trkpt>
      <trkpt lat="46.57964" lon="5.62861">
        <ele>513</ele>
        <time>2022-08-03T08:29:08Z</time>
      </trkpt>
      <trkpt lat="46.57956" lon="5.62857">
        <ele>512.8</ele>
        <time>2022-08-03T08:29:09Z</time>
      </trkpt>
      <trkpt lat="46.57913" lon="5.62841">
        <ele>512</ele>
        <time>2022-08-03T08:29:14Z</time>
      </trkpt>
      <trkpt lat="46.57904" lon="5.62838">
        <ele>511.8</ele>
        <time>2022-08-03T08:29:15Z</time>
      </trkpt>
      <trkpt lat="46.57851" lon="5.62824">
        <ele>510.8</ele>
        <time>2022-08-03T08:29:21Z</time>
      </trkpt>
      <trkpt lat="46.57825" lon="5.62816">
        <ele>510.6</ele>
        <time>2022-08-03T08:29:24Z</time>
      </trkpt>
      <trkpt lat="46.57799" lon="5.62809">
        <ele>509.8</ele>
        <time>2022-08-03T08:29:27Z</time>
      </trkpt>
      <trkpt lat="46.57764" lon="5.62795">
        <ele>508.6</ele>
        <time>2022-08-03T08:29:31Z</time>
      </trkpt>
      <trkpt lat="46.57756" lon="5.62791">
        <ele>508.4</ele>
        <time>2022-08-03T08:29:32Z</time>
      </trkpt>
      <trkpt lat="46.57722" lon="5.62774">
        <ele>507.6</ele>
        <time>2022-08-03T08:29:36Z</time>
      </trkpt>
      <trkpt lat="46.5767" lon="5.62749">
        <ele>507</ele>
        <time>2022-08-03T08:29:42Z</time>
      </trkpt>
      <trkpt lat="46.57636" lon="5.62731">
        <ele>506.4</ele>
        <time>2022-08-03T08:29:46Z</time>
      </trkpt>
      <trkpt lat="46.5761" lon="5.62718">
        <ele>505.2</ele>
        <time>2022-08-03T08:29:49Z</time>
      </trkpt>
      <trkpt lat="46.57585" lon="5.62705">
        <ele>504.8</ele>
        <time>2022-08-03T08:29:52Z</time>
      </trkpt>
      <trkpt lat="46.5756" lon="5.62688">
        <ele>503.8</ele>
        <time>2022-08-03T08:29:55Z</time>
      </trkpt>
      <trkpt lat="46.57529" lon="5.62662">
        <ele>502.8</ele>
        <time>2022-08-03T08:29:59Z</time>
      </trkpt>
      <trkpt lat="46.57522" lon="5.62654">
        <ele>502.6</ele>
        <time>2022-08-03T08:30:00Z</time>
      </trkpt>
      <trkpt lat="46.57471" lon="5.62608">
        <ele>502</ele>
        <time>2022-08-03T08:30:07Z</time>
      </trkpt>
      <trkpt lat="46.57423" lon="5.62564">
        <ele>501.6</ele>
        <time>2022-08-03T08:30:14Z</time>
      </trkpt>
      <trkpt lat="46.57409" lon="5.62552">
        <ele>501.6</ele>
        <time>2022-08-03T08:30:16Z</time>
      </trkpt>
      <trkpt lat="46.57379" lon="5.62534">
        <ele>501.6</ele>
        <time>2022-08-03T08:30:20Z</time>
      </trkpt>
      <trkpt lat="46.5734" lon="5.62519">
        <ele>501.2</ele>
        <time>2022-08-03T08:30:25Z</time>
      </trkpt>
      <trkpt lat="46.57287" lon="5.62503">
        <ele>501</ele>
        <time>2022-08-03T08:30:32Z</time>
      </trkpt>
      <trkpt lat="46.57239" lon="5.62489">
        <ele>501.6</ele>
        <time>2022-08-03T08:30:39Z</time>
      </trkpt>
      <trkpt lat="46.57191" lon="5.62493">
        <ele>502.6</ele>
        <time>2022-08-03T08:30:46Z</time>
      </trkpt>
      <trkpt lat="46.57184" lon="5.62495">
        <ele>502.6</ele>
        <time>2022-08-03T08:30:47Z</time>
      </trkpt>
      <trkpt lat="46.57157" lon="5.62498">
        <ele>502.6</ele>
        <time>2022-08-03T08:30:51Z</time>
      </trkpt>
      <trkpt lat="46.57144" lon="5.62496">
        <ele>502.8</ele>
        <time>2022-08-03T08:30:53Z</time>
      </trkpt>
      <trkpt lat="46.57131" lon="5.62492">
        <ele>502.8</ele>
        <time>2022-08-03T08:30:55Z</time>
      </trkpt>
      <trkpt lat="46.57113" lon="5.62481">
        <ele>503</ele>
        <time>2022-08-03T08:30:58Z</time>
      </trkpt>
      <trkpt lat="46.57091" lon="5.62461">
        <ele>503.2</ele>
        <time>2022-08-03T08:31:02Z</time>
      </trkpt>
      <trkpt lat="46.57074" lon="5.62446">
        <ele>503.2</ele>
        <time>2022-08-03T08:31:05Z</time>
      </trkpt>
      <trkpt lat="46.57026" lon="5.624">
        <ele>503.6</ele>
        <time>2022-08-03T08:31:13Z</time>
      </trkpt>
      <trkpt lat="46.57014" lon="5.62389">
        <ele>503.4</ele>
        <time>2022-08-03T08:31:15Z</time>
      </trkpt>
      <trkpt lat="46.5698" lon="5.62353">
        <ele>503.4</ele>
        <time>2022-08-03T08:31:21Z</time>
      </trkpt>
      <trkpt lat="46.56937" lon="5.62314">
        <ele>503.4</ele>
        <time>2022-08-03T08:31:28Z</time>
      </trkpt>
      <trkpt lat="46.56891" lon="5.62271">
        <ele>503.2</ele>
        <time>2022-08-03T08:31:35Z</time>
      </trkpt>
      <trkpt lat="46.56878" lon="5.6226">
        <ele>503</ele>
        <time>2022-08-03T08:31:37Z</time>
      </trkpt>
      <trkpt lat="46.56839" lon="5.62224">
        <ele>501.6</ele>
        <time>2022-08-03T08:31:43Z</time>
      </trkpt>
      <trkpt lat="46.56801" lon="5.62188">
        <ele>501</ele>
        <time>2022-08-03T08:31:49Z</time>
      </trkpt>
      <trkpt lat="46.56769" lon="5.62159">
        <ele>500.4</ele>
        <time>2022-08-03T08:31:54Z</time>
      </trkpt>
      <trkpt lat="46.56734" lon="5.62127">
        <ele>499.6</ele>
        <time>2022-08-03T08:31:59Z</time>
      </trkpt>
      <trkpt lat="46.5672" lon="5.62114">
        <ele>499.4</ele>
        <time>2022-08-03T08:32:01Z</time>
      </trkpt>
      <trkpt lat="46.56672" lon="5.62069">
        <ele>498.4</ele>
        <time>2022-08-03T08:32:08Z</time>
      </trkpt>
      <trkpt lat="46.56666" lon="5.62062">
        <ele>498.4</ele>
        <time>2022-08-03T08:32:09Z</time>
      </trkpt>
      <trkpt lat="46.56614" lon="5.62015">
        <ele>497.8</ele>
        <time>2022-08-03T08:32:17Z</time>
      </trkpt>
      <trkpt lat="46.56608" lon="5.62009">
        <ele>497.8</ele>
        <time>2022-08-03T08:32:18Z</time>
      </trkpt>
      <trkpt lat="46.56561" lon="5.61964">
        <ele>498.2</ele>
        <time>2022-08-03T08:32:26Z</time>
      </trkpt>
      <trkpt lat="46.56555" lon="5.61959">
        <ele>498.2</ele>
        <time>2022-08-03T08:32:27Z</time>
      </trkpt>
      <trkpt lat="46.56505" lon="5.61911">
        <ele>498.8</ele>
        <time>2022-08-03T08:32:36Z</time>
      </trkpt>
      <trkpt lat="46.56494" lon="5.61902">
        <ele>499</ele>
        <time>2022-08-03T08:32:38Z</time>
      </trkpt>
      <trkpt lat="46.56468" lon="5.61877">
        <ele>499.6</ele>
        <time>2022-08-03T08:32:43Z</time>
      </trkpt>
      <trkpt lat="46.56441" lon="5.61853">
        <ele>500</ele>
        <time>2022-08-03T08:32:48Z</time>
      </trkpt>
      <trkpt lat="46.5641" lon="5.6182">
        <ele>500.6</ele>
        <time>2022-08-03T08:32:54Z</time>
      </trkpt>
      <trkpt lat="46.56395" lon="5.61803">
        <ele>501.2</ele>
        <time>2022-08-03T08:32:57Z</time>
      </trkpt>
      <trkpt lat="46.56357" lon="5.61755">
        <ele>501</ele>
        <time>2022-08-03T08:33:05Z</time>
      </trkpt>
      <trkpt lat="46.56315" lon="5.617">
        <ele>501</ele>
        <time>2022-08-03T08:33:14Z</time>
      </trkpt>
      <trkpt lat="46.5631" lon="5.61695">
        <ele>501.2</ele>
        <time>2022-08-03T08:33:15Z</time>
      </trkpt>
      <trkpt lat="46.56281" lon="5.61658">
        <ele>501.8</ele>
        <time>2022-08-03T08:33:21Z</time>
      </trkpt>
      <trkpt lat="46.56266" lon="5.61638">
        <ele>502.2</ele>
        <time>2022-08-03T08:33:24Z</time>
      </trkpt>
      <trkpt lat="46.56229" lon="5.6158">
        <ele>502.6</ele>
        <time>2022-08-03T08:33:32Z</time>
      </trkpt>
      <trkpt lat="46.56224" lon="5.61571">
        <ele>502.6</ele>
        <time>2022-08-03T08:33:33Z</time>
      </trkpt>
      <trkpt lat="46.56198" lon="5.6152">
        <ele>502.4</ele>
        <time>2022-08-03T08:33:39Z</time>
      </trkpt>
      <trkpt lat="46.56164" lon="5.61448">
        <ele>502.2</ele>
        <time>2022-08-03T08:33:47Z</time>
      </trkpt>
      <trkpt lat="46.5616" lon="5.61439">
        <ele>502.4</ele>
        <time>2022-08-03T08:33:48Z</time>
      </trkpt>
      <trkpt lat="46.56124" lon="5.61367">
        <ele>502.6</ele>
        <time>2022-08-03T08:33:56Z</time>
      </trkpt>
      <trkpt lat="46.56112" lon="5.61341">
        <ele>502.6</ele>
        <time>2022-08-03T08:33:59Z</time>
      </trkpt>
      <trkpt lat="46.56078" lon="5.61273">
        <ele>503</ele>
        <time>2022-08-03T08:34:07Z</time>
      </trkpt>
      <trkpt lat="46.56074" lon="5.61265">
        <ele>503</ele>
        <time>2022-08-03T08:34:08Z</time>
      </trkpt>
      <trkpt lat="46.56058" lon="5.61232">
        <ele>504</ele>
        <time>2022-08-03T08:34:12Z</time>
      </trkpt>
      <trkpt lat="46.5604" lon="5.61195">
        <ele>504.6</ele>
        <time>2022-08-03T08:34:17Z</time>
      </trkpt>
      <trkpt lat="46.56011" lon="5.61133">
        <ele>505</ele>
        <time>2022-08-03T08:34:25Z</time>
      </trkpt>
      <trkpt lat="46.56007" lon="5.61126">
        <ele>505</ele>
        <time>2022-08-03T08:34:26Z</time>
      </trkpt>
      <trkpt lat="46.5598" lon="5.61062">
        <ele>505.6</ele>
        <time>2022-08-03T08:34:34Z</time>
      </trkpt>
      <trkpt lat="46.55966" lon="5.6101">
        <ele>506</ele>
        <time>2022-08-03T08:34:40Z</time>
      </trkpt>
      <trkpt lat="46.5595" lon="5.60945">
        <ele>507.2</ele>
        <time>2022-08-03T08:34:47Z</time>
      </trkpt>
      <trkpt lat="46.55944" lon="5.60918">
        <ele>507</ele>
        <time>2022-08-03T08:34:50Z</time>
      </trkpt>
      <trkpt lat="46.55935" lon="5.60871">
        <ele>507</ele>
        <time>2022-08-03T08:34:55Z</time>
      </trkpt>
      <trkpt lat="46.55934" lon="5.60853">
        <ele>507.2</ele>
        <time>2022-08-03T08:34:57Z</time>
      </trkpt>
      <trkpt lat="46.55928" lon="5.60769">
        <ele>508</ele>
        <time>2022-08-03T08:35:06Z</time>
      </trkpt>
      <trkpt lat="46.55926" lon="5.60759">
        <ele>508</ele>
        <time>2022-08-03T08:35:07Z</time>
      </trkpt>
      <trkpt lat="46.55918" lon="5.60718">
        <ele>507.8</ele>
        <time>2022-08-03T08:35:11Z</time>
      </trkpt>
      <trkpt lat="46.55901" lon="5.60647">
        <ele>507</ele>
        <time>2022-08-03T08:35:18Z</time>
      </trkpt>
      <trkpt lat="46.55881" lon="5.60578">
        <ele>506.2</ele>
        <time>2022-08-03T08:35:25Z</time>
      </trkpt>
      <trkpt lat="46.55876" lon="5.60569">
        <ele>506</ele>
        <time>2022-08-03T08:35:26Z</time>
      </trkpt>
      <trkpt lat="46.55858" lon="5.60548">
        <ele>505.4</ele>
        <time>2022-08-03T08:35:29Z</time>
      </trkpt>
      <trkpt lat="46.55844" lon="5.60538">
        <ele>505</ele>
        <time>2022-08-03T08:35:31Z</time>
      </trkpt>
      <trkpt lat="46.55837" lon="5.60535">
        <ele>505</ele>
        <time>2022-08-03T08:35:32Z</time>
      </trkpt>
      <trkpt lat="46.55829" lon="5.60533">
        <ele>504.6</ele>
        <time>2022-08-03T08:35:33Z</time>
      </trkpt>
      <trkpt lat="46.55806" lon="5.60528">
        <ele>503.8</ele>
        <time>2022-08-03T08:35:36Z</time>
      </trkpt>
      <trkpt lat="46.55775" lon="5.60521">
        <ele>502.8</ele>
        <time>2022-08-03T08:35:40Z</time>
      </trkpt>
      <trkpt lat="46.55745" lon="5.60504">
        <ele>502</ele>
        <time>2022-08-03T08:35:44Z</time>
      </trkpt>
      <trkpt lat="46.55729" lon="5.60483">
        <ele>501.6</ele>
        <time>2022-08-03T08:35:47Z</time>
      </trkpt>
      <trkpt lat="46.55725" lon="5.60476">
        <ele>501.6</ele>
        <time>2022-08-03T08:35:48Z</time>
      </trkpt>
      <trkpt lat="46.557" lon="5.6042">
        <ele>500.8</ele>
        <time>2022-08-03T08:35:54Z</time>
      </trkpt>
      <trkpt lat="46.55691" lon="5.604">
        <ele>500.8</ele>
        <time>2022-08-03T08:35:56Z</time>
      </trkpt>
      <trkpt lat="46.55686" lon="5.60392">
        <ele>500.4</ele>
        <time>2022-08-03T08:35:57Z</time>
      </trkpt>
      <trkpt lat="46.55675" lon="5.60376">
        <ele>499.8</ele>
        <time>2022-08-03T08:35:59Z</time>
      </trkpt>
      <trkpt lat="46.55654" lon="5.60358">
        <ele>499.4</ele>
        <time>2022-08-03T08:36:02Z</time>
      </trkpt>
      <trkpt lat="46.55646" lon="5.60354">
        <ele>499.2</ele>
        <time>2022-08-03T08:36:03Z</time>
      </trkpt>
      <trkpt lat="46.55629" lon="5.60349">
        <ele>498.4</ele>
        <time>2022-08-03T08:36:05Z</time>
      </trkpt>
      <trkpt lat="46.5562" lon="5.60348">
        <ele>498.2</ele>
        <time>2022-08-03T08:36:06Z</time>
      </trkpt>
      <trkpt lat="46.55612" lon="5.60348">
        <ele>498</ele>
        <time>2022-08-03T08:36:07Z</time>
      </trkpt>
      <trkpt lat="46.55577" lon="5.60346">
        <ele>496.8</ele>
        <time>2022-08-03T08:36:11Z</time>
      </trkpt>
      <trkpt lat="46.55545" lon="5.60344">
        <ele>495.8</ele>
        <time>2022-08-03T08:36:15Z</time>
      </trkpt>
      <trkpt lat="46.55497" lon="5.60335">
        <ele>495.2</ele>
        <time>2022-08-03T08:36:21Z</time>
      </trkpt>
      <trkpt lat="46.55465" lon="5.60324">
        <ele>494.6</ele>
        <time>2022-08-03T08:36:25Z</time>
      </trkpt>
      <trkpt lat="46.55432" lon="5.60312">
        <ele>493.6</ele>
        <time>2022-08-03T08:36:29Z</time>
      </trkpt>
      <trkpt lat="46.55424" lon="5.60309">
        <ele>493.4</ele>
        <time>2022-08-03T08:36:30Z</time>
      </trkpt>
      <trkpt lat="46.55367" lon="5.60289">
        <ele>492.8</ele>
        <time>2022-08-03T08:36:37Z</time>
      </trkpt>
      <trkpt lat="46.55359" lon="5.60286">
        <ele>492.8</ele>
        <time>2022-08-03T08:36:38Z</time>
      </trkpt>
      <trkpt lat="46.55334" lon="5.60279">
        <ele>492.6</ele>
        <time>2022-08-03T08:36:41Z</time>
      </trkpt>
      <trkpt lat="46.55318" lon="5.60278">
        <ele>492.4</ele>
        <time>2022-08-03T08:36:43Z</time>
      </trkpt>
      <trkpt lat="46.55301" lon="5.6028">
        <ele>492.2</ele>
        <time>2022-08-03T08:36:45Z</time>
      </trkpt>
      <trkpt lat="46.55285" lon="5.60286">
        <ele>491.8</ele>
        <time>2022-08-03T08:36:47Z</time>
      </trkpt>
      <trkpt lat="46.55262" lon="5.60295">
        <ele>491.4</ele>
        <time>2022-08-03T08:36:50Z</time>
      </trkpt>
      <trkpt lat="46.55213" lon="5.60317">
        <ele>490.2</ele>
        <time>2022-08-03T08:36:56Z</time>
      </trkpt>
      <trkpt lat="46.55206" lon="5.6032">
        <ele>490</ele>
        <time>2022-08-03T08:36:57Z</time>
      </trkpt>
      <trkpt lat="46.5519" lon="5.60323">
        <ele>489.6</ele>
        <time>2022-08-03T08:36:59Z</time>
      </trkpt>
      <trkpt lat="46.55174" lon="5.60322">
        <ele>489.6</ele>
        <time>2022-08-03T08:37:01Z</time>
      </trkpt>
      <trkpt lat="46.55166" lon="5.60321">
        <ele>489.4</ele>
        <time>2022-08-03T08:37:02Z</time>
      </trkpt>
      <trkpt lat="46.5515" lon="5.60314">
        <ele>488.8</ele>
        <time>2022-08-03T08:37:04Z</time>
      </trkpt>
      <trkpt lat="46.55136" lon="5.60305">
        <ele>488.6</ele>
        <time>2022-08-03T08:37:06Z</time>
      </trkpt>
      <trkpt lat="46.55129" lon="5.60298">
        <ele>488.6</ele>
        <time>2022-08-03T08:37:07Z</time>
      </trkpt>
      <trkpt lat="46.55111" lon="5.60275">
        <ele>488.4</ele>
        <time>2022-08-03T08:37:10Z</time>
      </trkpt>
      <trkpt lat="46.55076" lon="5.60214">
        <ele>488.6</ele>
        <time>2022-08-03T08:37:17Z</time>
      </trkpt>
      <trkpt lat="46.55071" lon="5.60206">
        <ele>488.6</ele>
        <time>2022-08-03T08:37:18Z</time>
      </trkpt>
      <trkpt lat="46.55041" lon="5.60171">
        <ele>488.4</ele>
        <time>2022-08-03T08:37:23Z</time>
      </trkpt>
      <trkpt lat="46.54999" lon="5.60144">
        <ele>488</ele>
        <time>2022-08-03T08:37:29Z</time>
      </trkpt>
      <trkpt lat="46.54983" lon="5.60134">
        <ele>488</ele>
        <time>2022-08-03T08:37:31Z</time>
      </trkpt>
      <trkpt lat="46.54948" lon="5.60103">
        <ele>487.2</ele>
        <time>2022-08-03T08:37:36Z</time>
      </trkpt>
      <trkpt lat="46.54908" lon="5.6006">
        <ele>487</ele>
        <time>2022-08-03T08:37:42Z</time>
      </trkpt>
      <trkpt lat="46.54901" lon="5.60055">
        <ele>487</ele>
        <time>2022-08-03T08:37:43Z</time>
      </trkpt>
      <trkpt lat="46.54877" lon="5.60045">
        <ele>486.6</ele>
        <time>2022-08-03T08:37:46Z</time>
      </trkpt>
      <trkpt lat="46.5482" lon="5.60025">
        <ele>486.2</ele>
        <time>2022-08-03T08:37:53Z</time>
      </trkpt>
      <trkpt lat="46.54806" lon="5.60016">
        <ele>485.6</ele>
        <time>2022-08-03T08:37:55Z</time>
      </trkpt>
      <trkpt lat="46.54791" lon="5.6">
        <ele>485.2</ele>
        <time>2022-08-03T08:37:57Z</time>
      </trkpt>
      <trkpt lat="46.54764" lon="5.59957">
        <ele>484.8</ele>
        <time>2022-08-03T08:38:02Z</time>
      </trkpt>
      <trkpt lat="46.54753" lon="5.59943">
        <ele>484.8</ele>
        <time>2022-08-03T08:38:04Z</time>
      </trkpt>
      <trkpt lat="46.54744" lon="5.59936">
        <ele>484.6</ele>
        <time>2022-08-03T08:38:05Z</time>
      </trkpt>
      <trkpt lat="46.54737" lon="5.59932">
        <ele>484.4</ele>
        <time>2022-08-03T08:38:06Z</time>
      </trkpt>
      <trkpt lat="46.54722" lon="5.59929">
        <ele>484.4</ele>
        <time>2022-08-03T08:38:08Z</time>
      </trkpt>
      <trkpt lat="46.54712" lon="5.59929">
        <ele>484.4</ele>
        <time>2022-08-03T08:38:09Z</time>
      </trkpt>
      <trkpt lat="46.54704" lon="5.59932">
        <ele>484.4</ele>
        <time>2022-08-03T08:38:10Z</time>
      </trkpt>
      <trkpt lat="46.5468" lon="5.59944">
        <ele>484.2</ele>
        <time>2022-08-03T08:38:13Z</time>
      </trkpt>
      <trkpt lat="46.54627" lon="5.59974">
        <ele>484</ele>
        <time>2022-08-03T08:38:20Z</time>
      </trkpt>
      <trkpt lat="46.54611" lon="5.59978">
        <ele>483.8</ele>
        <time>2022-08-03T08:38:22Z</time>
      </trkpt>
      <trkpt lat="46.54595" lon="5.5998">
        <ele>483.4</ele>
        <time>2022-08-03T08:38:24Z</time>
      </trkpt>
      <trkpt lat="46.54564" lon="5.5998">
        <ele>483</ele>
        <time>2022-08-03T08:38:28Z</time>
      </trkpt>
      <trkpt lat="46.54534" lon="5.59971">
        <ele>482.4</ele>
        <time>2022-08-03T08:38:32Z</time>
      </trkpt>
      <trkpt lat="46.5452" lon="5.59966">
        <ele>482</ele>
        <time>2022-08-03T08:38:34Z</time>
      </trkpt>
      <trkpt lat="46.54473" lon="5.59949">
        <ele>481</ele>
        <time>2022-08-03T08:38:40Z</time>
      </trkpt>
      <trkpt lat="46.54444" lon="5.5994">
        <ele>479.8</ele>
        <time>2022-08-03T08:38:44Z</time>
      </trkpt>
      <trkpt lat="46.54419" lon="5.5993">
        <ele>479.4</ele>
        <time>2022-08-03T08:38:48Z</time>
      </trkpt>
      <trkpt lat="46.54415" lon="5.59927">
        <ele>479.4</ele>
        <time>2022-08-03T08:38:49Z</time>
      </trkpt>
      <trkpt lat="46.54411" lon="5.5992">
        <ele>479.4</ele>
        <time>2022-08-03T08:38:52Z</time>
      </trkpt>
      <trkpt lat="46.54411" lon="5.5992">
        <ele>479.6</ele>
        <time>2022-08-03T08:38:54Z</time>
      </trkpt>
      <trkpt lat="46.54409" lon="5.59918">
        <ele>480.2</ele>
        <time>2022-08-03T08:39:09Z</time>
      </trkpt>
      <trkpt lat="46.54405" lon="5.59914">
        <ele>480.2</ele>
        <time>2022-08-03T08:39:10Z</time>
      </trkpt>
      <trkpt lat="46.54396" lon="5.59906">
        <ele>480</ele>
        <time>2022-08-03T08:39:12Z</time>
      </trkpt>
      <trkpt lat="46.54393" lon="5.59898">
        <ele>480</ele>
        <time>2022-08-03T08:39:13Z</time>
      </trkpt>
      <trkpt lat="46.54392" lon="5.5989">
        <ele>480</ele>
        <time>2022-08-03T08:39:14Z</time>
      </trkpt>
      <trkpt lat="46.54392" lon="5.59879">
        <ele>480</ele>
        <time>2022-08-03T08:39:15Z</time>
      </trkpt>
      <trkpt lat="46.54401" lon="5.59813">
        <ele>479.6</ele>
        <time>2022-08-03T08:39:22Z</time>
      </trkpt>
      <trkpt lat="46.54409" lon="5.59744">
        <ele>480.2</ele>
        <time>2022-08-03T08:39:29Z</time>
      </trkpt>
      <trkpt lat="46.54417" lon="5.59678">
        <ele>481.2</ele>
        <time>2022-08-03T08:39:36Z</time>
      </trkpt>
      <trkpt lat="46.54419" lon="5.59659">
        <ele>481.6</ele>
        <time>2022-08-03T08:39:38Z</time>
      </trkpt>
      <trkpt lat="46.54426" lon="5.59597">
        <ele>482.2</ele>
        <time>2022-08-03T08:39:45Z</time>
      </trkpt>
      <trkpt lat="46.54428" lon="5.59579">
        <ele>482.6</ele>
        <time>2022-08-03T08:39:47Z</time>
      </trkpt>
      <trkpt lat="46.54433" lon="5.59538">
        <ele>483.4</ele>
        <time>2022-08-03T08:39:52Z</time>
      </trkpt>
      <trkpt lat="46.54437" lon="5.59499">
        <ele>484.4</ele>
        <time>2022-08-03T08:39:57Z</time>
      </trkpt>
      <trkpt lat="46.54444" lon="5.59443">
        <ele>485.6</ele>
        <time>2022-08-03T08:40:04Z</time>
      </trkpt>
      <trkpt lat="46.54446" lon="5.59428">
        <ele>486</ele>
        <time>2022-08-03T08:40:06Z</time>
      </trkpt>
      <trkpt lat="46.54449" lon="5.59397">
        <ele>486.8</ele>
        <time>2022-08-03T08:40:10Z</time>
      </trkpt>
      <trkpt lat="46.54456" lon="5.59343">
        <ele>488</ele>
        <time>2022-08-03T08:40:17Z</time>
      </trkpt>
      <trkpt lat="46.54459" lon="5.59328">
        <ele>488.6</ele>
        <time>2022-08-03T08:40:19Z</time>
      </trkpt>
      <trkpt lat="46.54466" lon="5.59308">
        <ele>489.2</ele>
        <time>2022-08-03T08:40:22Z</time>
      </trkpt>
      <trkpt lat="46.54468" lon="5.59303">
        <ele>489.4</ele>
        <time>2022-08-03T08:40:23Z</time>
      </trkpt>
      <trkpt lat="46.54474" lon="5.5929">
        <ele>489.8</ele>
        <time>2022-08-03T08:40:25Z</time>
      </trkpt>
      <trkpt lat="46.54485" lon="5.59269">
        <ele>490</ele>
        <time>2022-08-03T08:40:28Z</time>
      </trkpt>
      <trkpt lat="46.54489" lon="5.59253">
        <ele>490.4</ele>
        <time>2022-08-03T08:40:30Z</time>
      </trkpt>
      <trkpt lat="46.54491" lon="5.59244">
        <ele>490.4</ele>
        <time>2022-08-03T08:40:31Z</time>
      </trkpt>
      <trkpt lat="46.54495" lon="5.59185">
        <ele>490.6</ele>
        <time>2022-08-03T08:40:37Z</time>
      </trkpt>
      <trkpt lat="46.54503" lon="5.59119">
        <ele>490.8</ele>
        <time>2022-08-03T08:40:44Z</time>
      </trkpt>
      <trkpt lat="46.54509" lon="5.59058">
        <ele>491.4</ele>
        <time>2022-08-03T08:40:51Z</time>
      </trkpt>
      <trkpt lat="46.54509" lon="5.59049">
        <ele>491.6</ele>
        <time>2022-08-03T08:40:52Z</time>
      </trkpt>
      <trkpt lat="46.54511" lon="5.59023">
        <ele>492.4</ele>
        <time>2022-08-03T08:40:55Z</time>
      </trkpt>
      <trkpt lat="46.54511" lon="5.58978">
        <ele>493.4</ele>
        <time>2022-08-03T08:41:00Z</time>
      </trkpt>
      <trkpt lat="46.54513" lon="5.58898">
        <ele>493.4</ele>
        <time>2022-08-03T08:41:08Z</time>
      </trkpt>
      <trkpt lat="46.54514" lon="5.58857">
        <ele>493</ele>
        <time>2022-08-03T08:41:12Z</time>
      </trkpt>
      <trkpt lat="46.54515" lon="5.58787">
        <ele>493.2</ele>
        <time>2022-08-03T08:41:19Z</time>
      </trkpt>
      <trkpt lat="46.54518" lon="5.58705">
        <ele>493.8</ele>
        <time>2022-08-03T08:41:28Z</time>
      </trkpt>
      <trkpt lat="46.54525" lon="5.5864">
        <ele>494.6</ele>
        <time>2022-08-03T08:41:35Z</time>
      </trkpt>
      <trkpt lat="46.54531" lon="5.58598">
        <ele>494.6</ele>
        <time>2022-08-03T08:41:39Z</time>
      </trkpt>
      <trkpt lat="46.54533" lon="5.58578">
        <ele>494.6</ele>
        <time>2022-08-03T08:41:41Z</time>
      </trkpt>
      <trkpt lat="46.5454" lon="5.58501">
        <ele>494.6</ele>
        <time>2022-08-03T08:41:49Z</time>
      </trkpt>
      <trkpt lat="46.54541" lon="5.58482">
        <ele>494.8</ele>
        <time>2022-08-03T08:41:51Z</time>
      </trkpt>
      <trkpt lat="46.54541" lon="5.58448">
        <ele>495.2</ele>
        <time>2022-08-03T08:41:55Z</time>
      </trkpt>
      <trkpt lat="46.54537" lon="5.58433">
        <ele>495.6</ele>
        <time>2022-08-03T08:41:57Z</time>
      </trkpt>
      <trkpt lat="46.54533" lon="5.58428">
        <ele>495.8</ele>
        <time>2022-08-03T08:41:58Z</time>
      </trkpt>
      <trkpt lat="46.54528" lon="5.58424">
        <ele>495.8</ele>
        <time>2022-08-03T08:41:59Z</time>
      </trkpt>
      <trkpt lat="46.54522" lon="5.58422">
        <ele>496</ele>
        <time>2022-08-03T08:42:00Z</time>
      </trkpt>
      <trkpt lat="46.54486" lon="5.58415">
        <ele>495.8</ele>
        <time>2022-08-03T08:42:05Z</time>
      </trkpt>
      <trkpt lat="46.54455" lon="5.58406">
        <ele>494.6</ele>
        <time>2022-08-03T08:42:09Z</time>
      </trkpt>
      <trkpt lat="46.5443" lon="5.58396">
        <ele>494</ele>
        <time>2022-08-03T08:42:12Z</time>
      </trkpt>
      <trkpt lat="46.54407" lon="5.58385">
        <ele>493.6</ele>
        <time>2022-08-03T08:42:15Z</time>
      </trkpt>
      <trkpt lat="46.5437" lon="5.58367">
        <ele>493</ele>
        <time>2022-08-03T08:42:20Z</time>
      </trkpt>
      <trkpt lat="46.54347" lon="5.58356">
        <ele>492.4</ele>
        <time>2022-08-03T08:42:23Z</time>
      </trkpt>
      <trkpt lat="46.54324" lon="5.58344">
        <ele>491.4</ele>
        <time>2022-08-03T08:42:26Z</time>
      </trkpt>
      <trkpt lat="46.54293" lon="5.58328">
        <ele>489.8</ele>
        <time>2022-08-03T08:42:30Z</time>
      </trkpt>
      <trkpt lat="46.5427" lon="5.58316">
        <ele>488.8</ele>
        <time>2022-08-03T08:42:33Z</time>
      </trkpt>
      <trkpt lat="46.54226" lon="5.58294">
        <ele>488.2</ele>
        <time>2022-08-03T08:42:39Z</time>
      </trkpt>
      <trkpt lat="46.54205" lon="5.58282">
        <ele>488.4</ele>
        <time>2022-08-03T08:42:42Z</time>
      </trkpt>
      <trkpt lat="46.54194" lon="5.58271">
        <ele>488.8</ele>
        <time>2022-08-03T08:42:44Z</time>
      </trkpt>
      <trkpt lat="46.54185" lon="5.58256">
        <ele>489</ele>
        <time>2022-08-03T08:42:46Z</time>
      </trkpt>
      <trkpt lat="46.54182" lon="5.58248">
        <ele>489</ele>
        <time>2022-08-03T08:42:47Z</time>
      </trkpt>
      <trkpt lat="46.54175" lon="5.58222">
        <ele>489.6</ele>
        <time>2022-08-03T08:42:50Z</time>
      </trkpt>
      <trkpt lat="46.54174" lon="5.58213">
        <ele>490</ele>
        <time>2022-08-03T08:42:51Z</time>
      </trkpt>
      <trkpt lat="46.54173" lon="5.58205">
        <ele>490.2</ele>
        <time>2022-08-03T08:42:52Z</time>
      </trkpt>
      <trkpt lat="46.54168" lon="5.58182">
        <ele>490.8</ele>
        <time>2022-08-03T08:42:55Z</time>
      </trkpt>
      <trkpt lat="46.54162" lon="5.58169">
        <ele>491.2</ele>
        <time>2022-08-03T08:42:57Z</time>
      </trkpt>
      <trkpt lat="46.54147" lon="5.58145">
        <ele>492.6</ele>
        <time>2022-08-03T08:43:01Z</time>
      </trkpt>
      <trkpt lat="46.54139" lon="5.58135">
        <ele>493</ele>
        <time>2022-08-03T08:43:03Z</time>
      </trkpt>
      <trkpt lat="46.5413" lon="5.58123">
        <ele>493.2</ele>
        <time>2022-08-03T08:43:05Z</time>
      </trkpt>
      <trkpt lat="46.5412" lon="5.58114">
        <ele>493.8</ele>
        <time>2022-08-03T08:43:07Z</time>
      </trkpt>
      <trkpt lat="46.5411" lon="5.58105">
        <ele>494.2</ele>
        <time>2022-08-03T08:43:09Z</time>
      </trkpt>
      <trkpt lat="46.54097" lon="5.58091">
        <ele>495</ele>
        <time>2022-08-03T08:43:12Z</time>
      </trkpt>
      <trkpt lat="46.54083" lon="5.58074">
        <ele>495.6</ele>
        <time>2022-08-03T08:43:16Z</time>
      </trkpt>
      <trkpt lat="46.54079" lon="5.58069">
        <ele>496.2</ele>
        <time>2022-08-03T08:43:17Z</time>
      </trkpt>
      <trkpt lat="46.54068" lon="5.58055">
        <ele>497.4</ele>
        <time>2022-08-03T08:43:20Z</time>
      </trkpt>
      <trkpt lat="46.54061" lon="5.58045">
        <ele>497.6</ele>
        <time>2022-08-03T08:43:22Z</time>
      </trkpt>
      <trkpt lat="46.54056" lon="5.58041">
        <ele>498</ele>
        <time>2022-08-03T08:43:23Z</time>
      </trkpt>
      <trkpt lat="46.54047" lon="5.58034">
        <ele>498.4</ele>
        <time>2022-08-03T08:43:25Z</time>
      </trkpt>
      <trkpt lat="46.54033" lon="5.58022">
        <ele>498.6</ele>
        <time>2022-08-03T08:43:28Z</time>
      </trkpt>
      <trkpt lat="46.53998" lon="5.57999">
        <ele>498.6</ele>
        <time>2022-08-03T08:43:34Z</time>
      </trkpt>
      <trkpt lat="46.53992" lon="5.57996">
        <ele>498.4</ele>
        <time>2022-08-03T08:43:35Z</time>
      </trkpt>
      <trkpt lat="46.53971" lon="5.5799">
        <ele>497.4</ele>
        <time>2022-08-03T08:43:38Z</time>
      </trkpt>
      <trkpt lat="46.53963" lon="5.57988">
        <ele>497.2</ele>
        <time>2022-08-03T08:43:39Z</time>
      </trkpt>
      <trkpt lat="46.53938" lon="5.57982">
        <ele>496</ele>
        <time>2022-08-03T08:43:42Z</time>
      </trkpt>
      <trkpt lat="46.53928" lon="5.5798">
        <ele>495.6</ele>
        <time>2022-08-03T08:43:43Z</time>
      </trkpt>
      <trkpt lat="46.53918" lon="5.57979">
        <ele>495.2</ele>
        <time>2022-08-03T08:43:44Z</time>
      </trkpt>
      <trkpt lat="46.53907" lon="5.57978">
        <ele>493.6</ele>
        <time>2022-08-03T08:43:45Z</time>
      </trkpt>
      <trkpt lat="46.53885" lon="5.57974">
        <ele>491.6</ele>
        <time>2022-08-03T08:43:47Z</time>
      </trkpt>
      <trkpt lat="46.53863" lon="5.57967">
        <ele>490</ele>
        <time>2022-08-03T08:43:49Z</time>
      </trkpt>
      <trkpt lat="46.53852" lon="5.57964">
        <ele>488</ele>
        <time>2022-08-03T08:43:50Z</time>
      </trkpt>
      <trkpt lat="46.5383" lon="5.57957">
        <ele>486.4</ele>
        <time>2022-08-03T08:43:52Z</time>
      </trkpt>
      <trkpt lat="46.53809" lon="5.57951">
        <ele>484.8</ele>
        <time>2022-08-03T08:43:54Z</time>
      </trkpt>
      <trkpt lat="46.53798" lon="5.57948">
        <ele>484</ele>
        <time>2022-08-03T08:43:55Z</time>
      </trkpt>
      <trkpt lat="46.53787" lon="5.57945">
        <ele>483.2</ele>
        <time>2022-08-03T08:43:56Z</time>
      </trkpt>
      <trkpt lat="46.53743" lon="5.57932">
        <ele>482</ele>
        <time>2022-08-03T08:44:00Z</time>
      </trkpt>
      <trkpt lat="46.53699" lon="5.57918">
        <ele>480.8</ele>
        <time>2022-08-03T08:44:04Z</time>
      </trkpt>
      <trkpt lat="46.53677" lon="5.57912">
        <ele>480.2</ele>
        <time>2022-08-03T08:44:06Z</time>
      </trkpt>
      <trkpt lat="46.53646" lon="5.57902">
        <ele>479.6</ele>
        <time>2022-08-03T08:44:09Z</time>
      </trkpt>
      <trkpt lat="46.53608" lon="5.57888">
        <ele>478.6</ele>
        <time>2022-08-03T08:44:13Z</time>
      </trkpt>
      <trkpt lat="46.53598" lon="5.57884">
        <ele>478.6</ele>
        <time>2022-08-03T08:44:14Z</time>
      </trkpt>
      <trkpt lat="46.53572" lon="5.57873">
        <ele>477.2</ele>
        <time>2022-08-03T08:44:17Z</time>
      </trkpt>
      <trkpt lat="46.53548" lon="5.57861">
        <ele>476.8</ele>
        <time>2022-08-03T08:44:20Z</time>
      </trkpt>
      <trkpt lat="46.53507" lon="5.5783">
        <ele>477.4</ele>
        <time>2022-08-03T08:44:26Z</time>
      </trkpt>
      <trkpt lat="46.53495" lon="5.57818">
        <ele>478.4</ele>
        <time>2022-08-03T08:44:28Z</time>
      </trkpt>
      <trkpt lat="46.5348" lon="5.578">
        <ele>479.8</ele>
        <time>2022-08-03T08:44:31Z</time>
      </trkpt>
      <trkpt lat="46.53475" lon="5.57794">
        <ele>480.6</ele>
        <time>2022-08-03T08:44:32Z</time>
      </trkpt>
      <trkpt lat="46.5347" lon="5.57788">
        <ele>480.8</ele>
        <time>2022-08-03T08:44:33Z</time>
      </trkpt>
      <trkpt lat="46.53465" lon="5.57783">
        <ele>481.4</ele>
        <time>2022-08-03T08:44:34Z</time>
      </trkpt>
      <trkpt lat="46.53448" lon="5.5777">
        <ele>481.8</ele>
        <time>2022-08-03T08:44:37Z</time>
      </trkpt>
      <trkpt lat="46.53441" lon="5.57766">
        <ele>482</ele>
        <time>2022-08-03T08:44:38Z</time>
      </trkpt>
      <trkpt lat="46.53404" lon="5.57752">
        <ele>483</ele>
        <time>2022-08-03T08:44:43Z</time>
      </trkpt>
      <trkpt lat="46.53397" lon="5.57749">
        <ele>483</ele>
        <time>2022-08-03T08:44:44Z</time>
      </trkpt>
      <trkpt lat="46.53345" lon="5.57733">
        <ele>483.2</ele>
        <time>2022-08-03T08:44:51Z</time>
      </trkpt>
      <trkpt lat="46.53333" lon="5.57727">
        <ele>483.2</ele>
        <time>2022-08-03T08:44:53Z</time>
      </trkpt>
      <trkpt lat="46.53318" lon="5.57715">
        <ele>483.6</ele>
        <time>2022-08-03T08:44:56Z</time>
      </trkpt>
      <trkpt lat="46.53312" lon="5.5771">
        <ele>484</ele>
        <time>2022-08-03T08:44:57Z</time>
      </trkpt>
      <trkpt lat="46.53299" lon="5.57693">
        <ele>484.4</ele>
        <time>2022-08-03T08:45:00Z</time>
      </trkpt>
      <trkpt lat="46.53296" lon="5.57688">
        <ele>484.8</ele>
        <time>2022-08-03T08:45:01Z</time>
      </trkpt>
      <trkpt lat="46.53293" lon="5.57679">
        <ele>485.6</ele>
        <time>2022-08-03T08:45:02Z</time>
      </trkpt>
      <trkpt lat="46.53289" lon="5.57665">
        <ele>486.4</ele>
        <time>2022-08-03T08:45:04Z</time>
      </trkpt>
      <trkpt lat="46.53287" lon="5.57654">
        <ele>486.4</ele>
        <time>2022-08-03T08:45:05Z</time>
      </trkpt>
      <trkpt lat="46.53287" lon="5.57646">
        <ele>486.4</ele>
        <time>2022-08-03T08:45:06Z</time>
      </trkpt>
      <trkpt lat="46.53287" lon="5.57623">
        <ele>486.6</ele>
        <time>2022-08-03T08:45:08Z</time>
      </trkpt>
      <trkpt lat="46.53288" lon="5.57614">
        <ele>486.6</ele>
        <time>2022-08-03T08:45:09Z</time>
      </trkpt>
      <trkpt lat="46.53288" lon="5.57589">
        <ele>486.4</ele>
        <time>2022-08-03T08:45:11Z</time>
      </trkpt>
      <trkpt lat="46.53286" lon="5.57566">
        <ele>486.4</ele>
        <time>2022-08-03T08:45:13Z</time>
      </trkpt>
      <trkpt lat="46.53274" lon="5.57511">
        <ele>485.6</ele>
        <time>2022-08-03T08:45:18Z</time>
      </trkpt>
      <trkpt lat="46.53268" lon="5.57491">
        <ele>485.4</ele>
        <time>2022-08-03T08:45:20Z</time>
      </trkpt>
      <trkpt lat="46.5326" lon="5.57473">
        <ele>485.2</ele>
        <time>2022-08-03T08:45:22Z</time>
      </trkpt>
      <trkpt lat="46.5325" lon="5.57457">
        <ele>485</ele>
        <time>2022-08-03T08:45:24Z</time>
      </trkpt>
      <trkpt lat="46.53211" lon="5.57407">
        <ele>484.8</ele>
        <time>2022-08-03T08:45:31Z</time>
      </trkpt>
      <trkpt lat="46.53204" lon="5.574">
        <ele>484.2</ele>
        <time>2022-08-03T08:45:32Z</time>
      </trkpt>
      <trkpt lat="46.53161" lon="5.57362">
        <ele>483.2</ele>
        <time>2022-08-03T08:45:38Z</time>
      </trkpt>
      <trkpt lat="46.53115" lon="5.57327">
        <ele>482</ele>
        <time>2022-08-03T08:45:44Z</time>
      </trkpt>
      <trkpt lat="46.531" lon="5.57312">
        <ele>481.8</ele>
        <time>2022-08-03T08:45:46Z</time>
      </trkpt>
      <trkpt lat="46.53088" lon="5.57294">
        <ele>481.6</ele>
        <time>2022-08-03T08:45:48Z</time>
      </trkpt>
      <trkpt lat="46.53083" lon="5.57284">
        <ele>481.8</ele>
        <time>2022-08-03T08:45:49Z</time>
      </trkpt>
      <trkpt lat="46.53065" lon="5.57242">
        <ele>481.6</ele>
        <time>2022-08-03T08:45:53Z</time>
      </trkpt>
      <trkpt lat="46.53035" lon="5.57164">
        <ele>480.6</ele>
        <time>2022-08-03T08:46:00Z</time>
      </trkpt>
      <trkpt lat="46.5303" lon="5.57153">
        <ele>480.2</ele>
        <time>2022-08-03T08:46:01Z</time>
      </trkpt>
      <trkpt lat="46.53015" lon="5.57118">
        <ele>479.4</ele>
        <time>2022-08-03T08:46:04Z</time>
      </trkpt>
      <trkpt lat="46.53" lon="5.57076">
        <ele>478.6</ele>
        <time>2022-08-03T08:46:08Z</time>
      </trkpt>
      <trkpt lat="46.52995" lon="5.57066">
        <ele>478.4</ele>
        <time>2022-08-03T08:46:09Z</time>
      </trkpt>
      <trkpt lat="46.52983" lon="5.57039">
        <ele>477.8</ele>
        <time>2022-08-03T08:46:12Z</time>
      </trkpt>
      <trkpt lat="46.52973" lon="5.57024">
        <ele>478.2</ele>
        <time>2022-08-03T08:46:14Z</time>
      </trkpt>
      <trkpt lat="46.52947" lon="5.56986">
        <ele>478.6</ele>
        <time>2022-08-03T08:46:19Z</time>
      </trkpt>
      <trkpt lat="46.52944" lon="5.56979">
        <ele>478.6</ele>
        <time>2022-08-03T08:46:20Z</time>
      </trkpt>
      <trkpt lat="46.5294" lon="5.5697">
        <ele>479</ele>
        <time>2022-08-03T08:46:21Z</time>
      </trkpt>
      <trkpt lat="46.52928" lon="5.5693">
        <ele>479.4</ele>
        <time>2022-08-03T08:46:25Z</time>
      </trkpt>
      <trkpt lat="46.52926" lon="5.5692">
        <ele>479.4</ele>
        <time>2022-08-03T08:46:26Z</time>
      </trkpt>
      <trkpt lat="46.52911" lon="5.56861">
        <ele>480</ele>
        <time>2022-08-03T08:46:32Z</time>
      </trkpt>
      <trkpt lat="46.52904" lon="5.56833">
        <ele>480.4</ele>
        <time>2022-08-03T08:46:35Z</time>
      </trkpt>
      <trkpt lat="46.5289" lon="5.56768">
        <ele>480.8</ele>
        <time>2022-08-03T08:46:42Z</time>
      </trkpt>
      <trkpt lat="46.52872" lon="5.56687">
        <ele>480</ele>
        <time>2022-08-03T08:46:50Z</time>
      </trkpt>
      <trkpt lat="46.52857" lon="5.56622">
        <ele>479.4</ele>
        <time>2022-08-03T08:46:56Z</time>
      </trkpt>
      <trkpt lat="46.52844" lon="5.56567">
        <ele>479.4</ele>
        <time>2022-08-03T08:47:01Z</time>
      </trkpt>
      <trkpt lat="46.52828" lon="5.56496">
        <ele>478.6</ele>
        <time>2022-08-03T08:47:07Z</time>
      </trkpt>
      <trkpt lat="46.52825" lon="5.56483">
        <ele>478.2</ele>
        <time>2022-08-03T08:47:08Z</time>
      </trkpt>
      <trkpt lat="46.5281" lon="5.56423">
        <ele>477.2</ele>
        <time>2022-08-03T08:47:13Z</time>
      </trkpt>
      <trkpt lat="46.52793" lon="5.56355">
        <ele>476</ele>
        <time>2022-08-03T08:47:19Z</time>
      </trkpt>
      <trkpt lat="46.5279" lon="5.56344">
        <ele>476</ele>
        <time>2022-08-03T08:47:20Z</time>
      </trkpt>
      <trkpt lat="46.52774" lon="5.56276">
        <ele>476.2</ele>
        <time>2022-08-03T08:47:26Z</time>
      </trkpt>
      <trkpt lat="46.52754" lon="5.56197">
        <ele>476.6</ele>
        <time>2022-08-03T08:47:33Z</time>
      </trkpt>
      <trkpt lat="46.52746" lon="5.56165">
        <ele>476.4</ele>
        <time>2022-08-03T08:47:36Z</time>
      </trkpt>
      <trkpt lat="46.52732" lon="5.56117">
        <ele>476</ele>
        <time>2022-08-03T08:47:41Z</time>
      </trkpt>
      <trkpt lat="46.52724" lon="5.56082">
        <ele>476.2</ele>
        <time>2022-08-03T08:47:45Z</time>
      </trkpt>
      <trkpt lat="46.52721" lon="5.56077">
        <ele>476.2</ele>
        <time>2022-08-03T08:47:46Z</time>
      </trkpt>
      <trkpt lat="46.52716" lon="5.56075">
        <ele>476.2</ele>
        <time>2022-08-03T08:47:47Z</time>
      </trkpt>
      <trkpt lat="46.52704" lon="5.56077">
        <ele>476.2</ele>
        <time>2022-08-03T08:47:49Z</time>
      </trkpt>
      <trkpt lat="46.52664" lon="5.56095">
        <ele>476.2</ele>
        <time>2022-08-03T08:47:55Z</time>
      </trkpt>
      <trkpt lat="46.52625" lon="5.56112">
        <ele>476.4</ele>
        <time>2022-08-03T08:48:01Z</time>
      </trkpt>
      <trkpt lat="46.52617" lon="5.56111">
        <ele>476.4</ele>
        <time>2022-08-03T08:48:03Z</time>
      </trkpt>
      <trkpt lat="46.52614" lon="5.56103">
        <ele>476.4</ele>
        <time>2022-08-03T08:48:05Z</time>
      </trkpt>
      <trkpt lat="46.52614" lon="5.56097">
        <ele>476.4</ele>
        <time>2022-08-03T08:48:06Z</time>
      </trkpt>
      <trkpt lat="46.52618" lon="5.56063">
        <ele>476.2</ele>
        <time>2022-08-03T08:48:10Z</time>
      </trkpt>
      <trkpt lat="46.52623" lon="5.56007">
        <ele>475.4</ele>
        <time>2022-08-03T08:48:15Z</time>
      </trkpt>
      <trkpt lat="46.52625" lon="5.55972">
        <ele>475.2</ele>
        <time>2022-08-03T08:48:18Z</time>
      </trkpt>
      <trkpt lat="46.5263" lon="5.55915">
        <ele>475</ele>
        <time>2022-08-03T08:48:23Z</time>
      </trkpt>
      <trkpt lat="46.52636" lon="5.55832">
        <ele>476</ele>
        <time>2022-08-03T08:48:30Z</time>
      </trkpt>
      <trkpt lat="46.52637" lon="5.5582">
        <ele>476</ele>
        <time>2022-08-03T08:48:31Z</time>
      </trkpt>
      <trkpt lat="46.52644" lon="5.55742">
        <ele>476.2</ele>
        <time>2022-08-03T08:48:38Z</time>
      </trkpt>
      <trkpt lat="46.5265" lon="5.55654">
        <ele>475.8</ele>
        <time>2022-08-03T08:48:46Z</time>
      </trkpt>
      <trkpt lat="46.52654" lon="5.55611">
        <ele>475.6</ele>
        <time>2022-08-03T08:48:50Z</time>
      </trkpt>
      <trkpt lat="46.5266" lon="5.55526">
        <ele>476</ele>
        <time>2022-08-03T08:48:58Z</time>
      </trkpt>
      <trkpt lat="46.52661" lon="5.55507">
        <ele>476</ele>
        <time>2022-08-03T08:49:00Z</time>
      </trkpt>
      <trkpt lat="46.52667" lon="5.55423">
        <ele>476</ele>
        <time>2022-08-03T08:49:08Z</time>
      </trkpt>
      <trkpt lat="46.52669" lon="5.55403">
        <ele>476.2</ele>
        <time>2022-08-03T08:49:10Z</time>
      </trkpt>
      <trkpt lat="46.52671" lon="5.55375">
        <ele>476.4</ele>
        <time>2022-08-03T08:49:13Z</time>
      </trkpt>
      <trkpt lat="46.52675" lon="5.55328">
        <ele>477.4</ele>
        <time>2022-08-03T08:49:18Z</time>
      </trkpt>
      <trkpt lat="46.52676" lon="5.55319">
        <ele>477.6</ele>
        <time>2022-08-03T08:49:19Z</time>
      </trkpt>
      <trkpt lat="46.52681" lon="5.55255">
        <ele>478.6</ele>
        <time>2022-08-03T08:49:26Z</time>
      </trkpt>
      <trkpt lat="46.52682" lon="5.55227">
        <ele>478.8</ele>
        <time>2022-08-03T08:49:29Z</time>
      </trkpt>
      <trkpt lat="46.52688" lon="5.55161">
        <ele>479.4</ele>
        <time>2022-08-03T08:49:36Z</time>
      </trkpt>
      <trkpt lat="46.52689" lon="5.55141">
        <ele>479.4</ele>
        <time>2022-08-03T08:49:38Z</time>
      </trkpt>
      <trkpt lat="46.52693" lon="5.55098">
        <ele>479.6</ele>
        <time>2022-08-03T08:49:43Z</time>
      </trkpt>
      <trkpt lat="46.52693" lon="5.55088">
        <ele>479.6</ele>
        <time>2022-08-03T08:49:45Z</time>
      </trkpt>
      <trkpt lat="46.52696" lon="5.55078">
        <ele>479.6</ele>
        <time>2022-08-03T08:49:47Z</time>
      </trkpt>
      <trkpt lat="46.52699" lon="5.55069">
        <ele>479.8</ele>
        <time>2022-08-03T08:49:50Z</time>
      </trkpt>
      <trkpt lat="46.52698" lon="5.55067">
        <ele>479.8</ele>
        <time>2022-08-03T08:49:51Z</time>
      </trkpt>
      <trkpt lat="46.52697" lon="5.55067">
        <ele>480</ele>
        <time>2022-08-03T08:49:54Z</time>
      </trkpt>
      <trkpt lat="46.5269" lon="5.55071">
        <ele>479.6</ele>
        <time>2022-08-03T08:50:00Z</time>
      </trkpt>
      <trkpt lat="46.52689" lon="5.55084">
        <ele>479.6</ele>
        <time>2022-08-03T08:50:02Z</time>
      </trkpt>
      <trkpt lat="46.52686" lon="5.5512">
        <ele>479.6</ele>
        <time>2022-08-03T08:50:06Z</time>
      </trkpt>
      <trkpt lat="46.52684" lon="5.55168">
        <ele>479.2</ele>
        <time>2022-08-03T08:50:11Z</time>
      </trkpt>
    </trkseg>
  </trk>
</gpx>